<?xml version='1.0' encoding='UTF-8'?><gpx version="1.1" creator="JPX - https://github.com/jenetics/jpx" xmlns="http://www.topografix.com/GPX/1/1"><trk><trkseg><trkpt lat="46.712993564578625" lon="4.690163595835753"><ele>265.0</ele><time>2026-04-10T14:06:01.001Z</time></trkpt><trkpt lat="46.71292918257215" lon="4.690147375916314"><ele>265.0</ele><time>2026-04-10T14:06:04Z</time></trkpt><trkpt lat="46.71284602734462" lon="4.6902150609854285"><ele>265.0</ele><time>2026-04-10T14:06:07Z</time></trkpt><trkpt lat="46.71277761973279" lon="4.69024275250867"><ele>265.0</ele><time>2026-04-10T14:06:09Z</time></trkpt><trkpt lat="46.71267202300227" lon="4.690278061461175"><ele>265.0</ele><time>2026-04-10T14:06:11Z</time></trkpt><trkpt lat="46.712561810340894" lon="4.690208286465048"><ele>265.4</ele><time>2026-04-10T14:06:13Z</time></trkpt><trkpt lat="46.71248372977912" lon="4.690188992223718"><ele>265.8</ele><time>2026-04-10T14:06:14.999Z</time></trkpt><trkpt lat="46.71239231389669" lon="4.690242613161762"><ele>266.2</ele><time>2026-04-10T14:06:17.999Z</time></trkpt><trkpt lat="46.71230670722311" lon="4.690264848593583"><ele>266.6</ele><time>2026-04-10T14:06:18.999Z</time></trkpt><trkpt lat="46.71220239957304" lon="4.690275884785759"><ele>267.0</ele><time>2026-04-10T14:06:19.999Z</time></trkpt><trkpt lat="46.71211368181835" lon="4.69027017561565"><ele>267.0</ele><time>2026-04-10T14:06:20.999Z</time></trkpt><trkpt lat="46.712022944153894" lon="4.690257974638664"><ele>267.0</ele><time>2026-04-10T14:06:22.999Z</time></trkpt><trkpt lat="46.71191369967771" lon="4.690265615991513"><ele>267.0</ele><time>2026-04-10T14:06:24.999Z</time></trkpt><trkpt lat="46.711848416110776" lon="4.69027018235348"><ele>267.0</ele><time>2026-04-10T14:06:25.999Z</time></trkpt><trkpt lat="46.71178052419923" lon="4.6903170298645325"><ele>267.0</ele><time>2026-04-10T14:06:26.999Z</time></trkpt><trkpt lat="46.71169113262604" lon="4.690087332432052"><ele>266.6</ele><time>2026-04-10T14:06:27.999Z</time></trkpt><trkpt lat="46.711567419759206" lon="4.6900196576022894"><ele>266.2</ele><time>2026-04-10T14:06:29.999Z</time></trkpt><trkpt lat="46.71151304373248" lon="4.689937461432132"><ele>265.8</ele><time>2026-04-10T14:06:30.999Z</time></trkpt><trkpt lat="46.71145217435445" lon="4.689845778788033"><ele>265.4</ele><time>2026-04-10T14:06:31.999Z</time></trkpt><trkpt lat="46.71135743862002" lon="4.689749107129197"><ele>265.0</ele><time>2026-04-10T14:06:32.999Z</time></trkpt><trkpt lat="46.711285319512704" lon="4.689666324125045"><ele>265.0</ele><time>2026-04-10T14:06:33.999Z</time></trkpt><trkpt lat="46.71118597934604" lon="4.689556842658581"><ele>265.0</ele><time>2026-04-10T14:06:35.998Z</time></trkpt><trkpt lat="46.711130545090526" lon="4.689499578645601"><ele>265.0</ele><time>2026-04-10T14:06:36.998Z</time></trkpt><trkpt lat="46.711029216161904" lon="4.689408715267826"><ele>265.0</ele><time>2026-04-10T14:06:38.998Z</time></trkpt><trkpt lat="46.71096533989082" lon="4.6893560573047255"><ele>265.0</ele><time>2026-04-10T14:06:39.998Z</time></trkpt><trkpt lat="46.71091004064722" lon="4.689285393753196"><ele>265.6</ele><time>2026-04-10T14:06:40.998Z</time></trkpt><trkpt lat="46.710842431317126" lon="4.689246465538169"><ele>266.2</ele><time>2026-04-10T14:06:41.998Z</time></trkpt><trkpt lat="46.71077493661858" lon="4.689201391084695"><ele>266.8</ele><time>2026-04-10T14:06:42.998Z</time></trkpt><trkpt lat="46.71069929052296" lon="4.689153941740541"><ele>267.4</ele><time>2026-04-10T14:06:43.998Z</time></trkpt><trkpt lat="46.71058288259732" lon="4.689077675230828"><ele>268.0</ele><time>2026-04-10T14:06:44.998Z</time></trkpt><trkpt lat="46.71046725942868" lon="4.689009394489305"><ele>268.0</ele><time>2026-04-10T14:06:45.998Z</time></trkpt><trkpt lat="46.71035330643189" lon="4.688941673219799"><ele>268.0</ele><time>2026-04-10T14:06:46.998Z</time></trkpt><trkpt lat="46.7102735351253" lon="4.6889126631850075"><ele>268.0</ele><time>2026-04-10T14:06:47.998Z</time></trkpt><trkpt lat="46.710198273330214" lon="4.688885130121163"><ele>268.0</ele><time>2026-04-10T14:06:48.998Z</time></trkpt><trkpt lat="46.71012570908914" lon="4.688881565208078"><ele>268.0</ele><time>2026-04-10T14:06:49.998Z</time></trkpt><trkpt lat="46.710008374228416" lon="4.688872507162988"><ele>268.4</ele><time>2026-04-10T14:06:51.998Z</time></trkpt><trkpt lat="46.70993659236844" lon="4.688874253955108"><ele>268.8</ele><time>2026-04-10T14:06:52.998Z</time></trkpt><trkpt lat="46.7098623274334" lon="4.688909279435359"><ele>269.2</ele><time>2026-04-10T14:06:54.998Z</time></trkpt><trkpt lat="46.70981050052835" lon="4.689007034232844"><ele>269.6</ele><time>2026-04-10T14:06:57.998Z</time></trkpt><trkpt lat="46.709694239654816" lon="4.689046591316058"><ele>270.0</ele><time>2026-04-10T14:06:59.998Z</time></trkpt><trkpt lat="46.709589322929844" lon="4.689108811442698"><ele>270.0</ele><time>2026-04-10T14:07:00.998Z</time></trkpt><trkpt lat="46.70944558268367" lon="4.689138341611644"><ele>270.0</ele><time>2026-04-10T14:07:01.998Z</time></trkpt><trkpt lat="46.709415074177386" lon="4.689394428128378"><ele>270.0</ele><time>2026-04-10T14:07:08.998Z</time></trkpt><trkpt lat="46.70943546393205" lon="4.689489015681822"><ele>270.0</ele><time>2026-04-10T14:07:11.998Z</time></trkpt><trkpt lat="46.709466831456304" lon="4.689605453850603"><ele>269.0</ele><time>2026-04-10T14:07:14.998Z</time></trkpt><trkpt lat="46.709486978390636" lon="4.689693342442372"><ele>268.0</ele><time>2026-04-10T14:07:16.998Z</time></trkpt><trkpt lat="46.70951461129227" lon="4.689797981678423"><ele>267.0</ele><time>2026-04-10T14:07:18.998Z</time></trkpt><trkpt lat="46.70952806262477" lon="4.689913445457042"><ele>266.0</ele><time>2026-04-10T14:07:20.998Z</time></trkpt><trkpt lat="46.70951988775904" lon="4.690077620474292"><ele>265.0</ele><time>2026-04-10T14:07:22.998Z</time></trkpt><trkpt lat="46.709503682153304" lon="4.69022531839577"><ele>264.0</ele><time>2026-04-10T14:07:24.997Z</time></trkpt><trkpt lat="46.70948279093954" lon="4.690333619489271"><ele>263.5</ele><time>2026-04-10T14:07:26.997Z</time></trkpt><trkpt lat="46.70947975986623" lon="4.69043221238596"><ele>263.0</ele><time>2026-04-10T14:07:28.998Z</time></trkpt><trkpt lat="46.70939280520417" lon="4.69044597042759"><ele>262.5</ele><time>2026-04-10T14:07:37.999Z</time></trkpt><trkpt lat="46.7093247101491" lon="4.690428972207936"><ele>262.0</ele><time>2026-04-10T14:07:38.999Z</time></trkpt><trkpt lat="46.70924533575905" lon="4.690411358499404"><ele>261.5</ele><time>2026-04-10T14:07:39.999Z</time></trkpt><trkpt lat="46.709187002671186" lon="4.6903654778435735"><ele>261.0</ele><time>2026-04-10T14:07:40.999Z</time></trkpt><trkpt lat="46.709115286437964" lon="4.690307587719508"><ele>261.8</ele><time>2026-04-10T14:07:41.999Z</time></trkpt><trkpt lat="46.70903741578784" lon="4.690224351935082"><ele>262.6</ele><time>2026-04-10T14:07:42.999Z</time></trkpt><trkpt lat="46.7089643238049" lon="4.690140701706025"><ele>263.4</ele><time>2026-04-10T14:07:43.999Z</time></trkpt><trkpt lat="46.70889427673317" lon="4.690067681846231"><ele>264.2</ele><time>2026-04-10T14:07:44.999Z</time></trkpt><trkpt lat="46.70881512444611" lon="4.689999575758361"><ele>265.0</ele><time>2026-04-10T14:07:45.999Z</time></trkpt><trkpt lat="46.70873667324617" lon="4.6899184248197345"><ele>265.0</ele><time>2026-04-10T14:07:46.999Z</time></trkpt><trkpt lat="46.70865922479374" lon="4.689865394244142"><ele>265.0</ele><time>2026-04-10T14:07:47.999Z</time></trkpt><trkpt lat="46.708582770469654" lon="4.6898125004113345"><ele>265.0</ele><time>2026-04-10T14:07:48.999Z</time></trkpt><trkpt lat="46.70849874110907" lon="4.689765445100703"><ele>265.0</ele><time>2026-04-10T14:07:49.999Z</time></trkpt><trkpt lat="46.70841551666455" lon="4.689741181521874"><ele>265.0</ele><time>2026-04-10T14:07:50.999Z</time></trkpt><trkpt lat="46.70831162823635" lon="4.68973449701743"><ele>265.0</ele><time>2026-04-10T14:07:51.999Z</time></trkpt><trkpt lat="46.70819079148141" lon="4.689732349893809"><ele>265.25</ele><time>2026-04-10T14:07:52.999Z</time></trkpt><trkpt lat="46.708066752677034" lon="4.689704488587431"><ele>265.5</ele><time>2026-04-10T14:07:53.999Z</time></trkpt><trkpt lat="46.70795451418199" lon="4.6896659400681315"><ele>265.75</ele><time>2026-04-10T14:07:54.999Z</time></trkpt><trkpt lat="46.70784578963111" lon="4.68962724009973"><ele>266.0</ele><time>2026-04-10T14:07:55.999Z</time></trkpt><trkpt lat="46.70773734355341" lon="4.689592799320238"><ele>266.33333333333337</ele><time>2026-04-10T14:07:56.999Z</time></trkpt><trkpt lat="46.70763909711014" lon="4.689565346467561"><ele>266.6666666666667</ele><time>2026-04-10T14:07:57.999Z</time></trkpt><trkpt lat="46.7075570289537" lon="4.689542419893265"><ele>267.0</ele><time>2026-04-10T14:07:58.999Z</time></trkpt><trkpt lat="46.70749243713064" lon="4.689520413495431"><ele>267.3333333333333</ele><time>2026-04-10T14:07:59.999Z</time></trkpt><trkpt lat="46.70740932270206" lon="4.689488330521271"><ele>267.66666666666663</ele><time>2026-04-10T14:08:01.999Z</time></trkpt><trkpt lat="46.707335844013045" lon="4.689441015704838"><ele>268.0</ele><time>2026-04-10T14:08:02.999Z</time></trkpt><trkpt lat="46.70726341639504" lon="4.68938968508518"><ele>267.8333333333333</ele><time>2026-04-10T14:08:03.999Z</time></trkpt><trkpt lat="46.707202877800086" lon="4.68935310316901"><ele>267.66666666666663</ele><time>2026-04-10T14:08:04.999Z</time></trkpt><trkpt lat="46.70710747369769" lon="4.689278019453914"><ele>267.5</ele><time>2026-04-10T14:08:06.999Z</time></trkpt><trkpt lat="46.707042399082624" lon="4.68923864502412"><ele>267.3333333333333</ele><time>2026-04-10T14:08:07.999Z</time></trkpt><trkpt lat="46.70696395876293" lon="4.6891950183382605"><ele>267.1666666666667</ele><time>2026-04-10T14:08:08.999Z</time></trkpt><trkpt lat="46.706877267254036" lon="4.689141237960344"><ele>267.0</ele><time>2026-04-10T14:08:09.999Z</time></trkpt><trkpt lat="46.70676567247655" lon="4.689070459885619"><ele>267.0</ele><time>2026-04-10T14:08:10.999Z</time></trkpt><trkpt lat="46.706683294015086" lon="4.689003509080357"><ele>267.0</ele><time>2026-04-10T14:08:11.999Z</time></trkpt><trkpt lat="46.70660269240777" lon="4.6889314217111835"><ele>267.0</ele><time>2026-04-10T14:08:12.999Z</time></trkpt><trkpt lat="46.706535234570765" lon="4.688860128218476"><ele>267.0</ele><time>2026-04-10T14:08:13.999Z</time></trkpt><trkpt lat="46.706461567022025" lon="4.688762673705631"><ele>267.0</ele><time>2026-04-10T14:08:14.999Z</time></trkpt><trkpt lat="46.70641495620108" lon="4.688676891349854"><ele>267.0</ele><time>2026-04-10T14:08:15.999Z</time></trkpt><trkpt lat="46.70638266566812" lon="4.688593912821558"><ele>267.6666666666667</ele><time>2026-04-10T14:08:16.999Z</time></trkpt><trkpt lat="46.7063777058952" lon="4.688446406980354"><ele>268.3333333333333</ele><time>2026-04-10T14:08:18.999Z</time></trkpt><trkpt lat="46.706401428610775" lon="4.688350345084516"><ele>269.0</ele><time>2026-04-10T14:08:19.999Z</time></trkpt><trkpt lat="46.70638511336378" lon="4.688179781852821"><ele>269.66666666666663</ele><time>2026-04-10T14:08:21.999Z</time></trkpt><trkpt lat="46.7063356653775" lon="4.688103376032675"><ele>270.3333333333333</ele><time>2026-04-10T14:08:22.999Z</time></trkpt><trkpt lat="46.70627496869974" lon="4.688055541923691"><ele>271.0</ele><time>2026-04-10T14:08:23.999Z</time></trkpt><trkpt lat="46.706198693995304" lon="4.687921667651708"><ele>271.0</ele><time>2026-04-10T14:08:25.999Z</time></trkpt><trkpt lat="46.706174073771784" lon="4.687792798353052"><ele>271.0</ele><time>2026-04-10T14:08:26.999Z</time></trkpt><trkpt lat="46.70615486506243" lon="4.68767959406142"><ele>271.0</ele><time>2026-04-10T14:08:27.999Z</time></trkpt><trkpt lat="46.706116816682545" lon="4.687597228379874"><ele>271.0</ele><time>2026-04-10T14:08:28.999Z</time></trkpt><trkpt lat="46.70607983139335" lon="4.687462601506711"><ele>271.0</ele><time>2026-04-10T14:08:30.999Z</time></trkpt><trkpt lat="46.706090540495175" lon="4.687366281853322"><ele>271.0</ele><time>2026-04-10T14:08:31.999Z</time></trkpt><trkpt lat="46.70609729759045" lon="4.687246647081809"><ele>271.16666666666663</ele><time>2026-04-10T14:08:32.999Z</time></trkpt><trkpt lat="46.706099145488345" lon="4.687124959512772"><ele>271.3333333333333</ele><time>2026-04-10T14:08:33.999Z</time></trkpt><trkpt lat="46.706082774928696" lon="4.687019533003444"><ele>271.5</ele><time>2026-04-10T14:08:34.999Z</time></trkpt><trkpt lat="46.706060820877056" lon="4.686911762407363"><ele>271.6666666666667</ele><time>2026-04-10T14:08:35.999Z</time></trkpt><trkpt lat="46.70610324960546" lon="4.686790967681843"><ele>271.83333333333337</ele><time>2026-04-10T14:08:36.999Z</time></trkpt><trkpt lat="46.70611970871469" lon="4.68667919564124"><ele>272.0</ele><time>2026-04-10T14:08:37.999Z</time></trkpt><trkpt lat="46.70613637234609" lon="4.686588724108678"><ele>273.4</ele><time>2026-04-10T14:08:38.999Z</time></trkpt><trkpt lat="46.706181467260116" lon="4.68642954899399"><ele>274.79999999999995</ele><time>2026-04-10T14:08:40.999Z</time></trkpt><trkpt lat="46.706208983248054" lon="4.686273936872576"><ele>276.2</ele><time>2026-04-10T14:08:42.999Z</time></trkpt><trkpt lat="46.70625479122233" lon="4.6861919221901935"><ele>277.59999999999997</ele><time>2026-04-10T14:08:44.999Z</time></trkpt><trkpt lat="46.70638841643822" lon="4.6861985407995865"><ele>279.0</ele><time>2026-04-10T14:08:46.999Z</time></trkpt><trkpt lat="46.706455076606424" lon="4.6861809879490695"><ele>280.5</ele><time>2026-04-10T14:08:47.999Z</time></trkpt><trkpt lat="46.706501859875225" lon="4.68609089757894"><ele>282.0</ele><time>2026-04-10T14:08:48.999Z</time></trkpt><trkpt lat="46.70653877785405" lon="4.6859821330956075"><ele>283.5</ele><time>2026-04-10T14:08:49.999Z</time></trkpt><trkpt lat="46.70657552168362" lon="4.685856714341015"><ele>285.0</ele><time>2026-04-10T14:08:50.999Z</time></trkpt><trkpt lat="46.706551202898325" lon="4.685771785426951"><ele>286.5</ele><time>2026-04-10T14:08:52.999Z</time></trkpt><trkpt lat="46.706571600884764" lon="4.68561020279388"><ele>288.0</ele><time>2026-04-10T14:08:53.999Z</time></trkpt><trkpt lat="46.70652396323782" lon="4.685541853098051"><ele>288.0</ele><time>2026-04-10T14:08:54.999Z</time></trkpt><trkpt lat="46.706461128829666" lon="4.685451699471438"><ele>288.0</ele><time>2026-04-10T14:08:56.999Z</time></trkpt><trkpt lat="46.70637187332375" lon="4.6853215164439"><ele>288.0</ele><time>2026-04-10T14:08:58.999Z</time></trkpt><trkpt lat="46.70631144703345" lon="4.685232994450828"><ele>288.0</ele><time>2026-04-10T14:08:59.999Z</time></trkpt><trkpt lat="46.706244741170934" lon="4.6851352731134766"><ele>288.0</ele><time>2026-04-10T14:09:00.999Z</time></trkpt><trkpt lat="46.70617630345059" lon="4.685032339204493"><ele>287.8</ele><time>2026-04-10T14:09:01.999Z</time></trkpt><trkpt lat="46.706102451566004" lon="4.68491629425702"><ele>287.6</ele><time>2026-04-10T14:09:02.999Z</time></trkpt><trkpt lat="46.70602989166674" lon="4.684789706042626"><ele>287.4</ele><time>2026-04-10T14:09:03.999Z</time></trkpt><trkpt lat="46.70596026091921" lon="4.684656556238288"><ele>287.2</ele><time>2026-04-10T14:09:04.999Z</time></trkpt><trkpt lat="46.705910239792644" lon="4.684544943960732"><ele>287.0</ele><time>2026-04-10T14:09:05.999Z</time></trkpt><trkpt lat="46.705868486191285" lon="4.684436571938415"><ele>288.4</ele><time>2026-04-10T14:09:06.999Z</time></trkpt><trkpt lat="46.70584002309113" lon="4.684354505936224"><ele>289.79999999999995</ele><time>2026-04-10T14:09:07.999Z</time></trkpt><trkpt lat="46.70581002465844" lon="4.6842679865602745"><ele>291.2</ele><time>2026-04-10T14:09:08.999Z</time></trkpt><trkpt lat="46.705768258874706" lon="4.684105311902545"><ele>292.59999999999997</ele><time>2026-04-10T14:09:10.999Z</time></trkpt><trkpt lat="46.7057311001147" lon="4.683937503224522"><ele>294.0</ele><time>2026-04-10T14:09:12.999Z</time></trkpt><trkpt lat="46.705706708646815" lon="4.683757572007629"><ele>294.0</ele><time>2026-04-10T14:09:14.999Z</time></trkpt><trkpt lat="46.705699133240714" lon="4.683658869553616"><ele>294.0</ele><time>2026-04-10T14:09:15.999Z</time></trkpt><trkpt lat="46.70569513808599" lon="4.683554544607669"><ele>294.0</ele><time>2026-04-10T14:09:16.999Z</time></trkpt><trkpt lat="46.70569933962738" lon="4.683449021715262"><ele>294.0</ele><time>2026-04-10T14:09:17.999Z</time></trkpt><trkpt lat="46.70571452126415" lon="4.683328940160022"><ele>294.0</ele><time>2026-04-10T14:09:18.999Z</time></trkpt><trkpt lat="46.70573500674549" lon="4.683213788618939"><ele>294.0</ele><time>2026-04-10T14:09:19.999Z</time></trkpt><trkpt lat="46.705757607925655" lon="4.683121643858976"><ele>294.0</ele><time>2026-04-10T14:09:20.999Z</time></trkpt><trkpt lat="46.70579969928886" lon="4.6829857974361495"><ele>294.0</ele><time>2026-04-10T14:09:22.999Z</time></trkpt><trkpt lat="46.70583442544892" lon="4.6828920995626175"><ele>294.0</ele><time>2026-04-10T14:09:24.999Z</time></trkpt><trkpt lat="46.705880779906785" lon="4.682781887257392"><ele>294.0</ele><time>2026-04-10T14:09:26.999Z</time></trkpt><trkpt lat="46.7059651206417" lon="4.682603620345799"><ele>294.0</ele><time>2026-04-10T14:09:28.998Z</time></trkpt><trkpt lat="46.70601385541657" lon="4.682501565425227"><ele>294.0</ele><time>2026-04-10T14:09:29.998Z</time></trkpt><trkpt lat="46.70606633679941" lon="4.682391664783084"><ele>296.2</ele><time>2026-04-10T14:09:30.998Z</time></trkpt><trkpt lat="46.70612064332028" lon="4.682277942063195"><ele>298.4</ele><time>2026-04-10T14:09:31.998Z</time></trkpt><trkpt lat="46.70617528109012" lon="4.6821635258027205"><ele>300.6</ele><time>2026-04-10T14:09:32.998Z</time></trkpt><trkpt lat="46.70623422943044" lon="4.682040082702413"><ele>302.8</ele><time>2026-04-10T14:09:33.998Z</time></trkpt><trkpt lat="46.70629488784857" lon="4.681913058684098"><ele>305.0</ele><time>2026-04-10T14:09:34.999Z</time></trkpt><trkpt lat="46.70636226438357" lon="4.68177196615566"><ele>305.0</ele><time>2026-04-10T14:09:35.999Z</time></trkpt><trkpt lat="46.70643605758856" lon="4.681617436728398"><ele>305.0</ele><time>2026-04-10T14:09:36.999Z</time></trkpt><trkpt lat="46.70651546286116" lon="4.681451155061081"><ele>305.0</ele><time>2026-04-10T14:09:37.999Z</time></trkpt><trkpt lat="46.70658352831603" lon="4.681308619942712"><ele>305.0</ele><time>2026-04-10T14:09:38.999Z</time></trkpt><trkpt lat="46.70663100318279" lon="4.681209203429657"><ele>305.0</ele><time>2026-04-10T14:09:39.999Z</time></trkpt><trkpt lat="46.706675851207244" lon="4.681127629525456"><ele>305.0</ele><time>2026-04-10T14:09:48.999Z</time></trkpt><trkpt lat="46.706723060823386" lon="4.68105574910452"><ele>305.0</ele><time>2026-04-10T14:09:49.999Z</time></trkpt><trkpt lat="46.70677762274996" lon="4.680887744602637"><ele>305.0</ele><time>2026-04-10T14:09:50.999Z</time></trkpt><trkpt lat="46.706835448241954" lon="4.680755595070228"><ele>305.0</ele><time>2026-04-10T14:09:51.999Z</time></trkpt><trkpt lat="46.70694008947867" lon="4.68061433515165"><ele>307.0</ele><time>2026-04-10T14:09:52.999Z</time></trkpt><trkpt lat="46.707002676150545" lon="4.680439260921507"><ele>309.0</ele><time>2026-04-10T14:09:53.999Z</time></trkpt><trkpt lat="46.707056294014535" lon="4.6803326370444935"><ele>311.0</ele><time>2026-04-10T14:09:54.999Z</time></trkpt><trkpt lat="46.7070838285259" lon="4.680219992645268"><ele>313.0</ele><time>2026-04-10T14:09:55.999Z</time></trkpt><trkpt lat="46.70717616308013" lon="4.680146106799877"><ele>315.0</ele><time>2026-04-10T14:09:57.999Z</time></trkpt><trkpt lat="46.70721662691551" lon="4.680068301068248"><ele>315.0</ele><time>2026-04-10T14:09:59.999Z</time></trkpt><trkpt lat="46.707523726340256" lon="4.6801480375686415"><ele>315.0</ele><time>2026-04-10T14:10:01.999Z</time></trkpt><trkpt lat="46.70763651125033" lon="4.6801624461067926"><ele>315.0</ele><time>2026-04-10T14:10:02.999Z</time></trkpt><trkpt lat="46.7077684758855" lon="4.680176809944766"><ele>319.6</ele><time>2026-04-10T14:10:03.999Z</time></trkpt><trkpt lat="46.707930331823476" lon="4.680189025350896"><ele>324.2</ele><time>2026-04-10T14:10:04.999Z</time></trkpt><trkpt lat="46.70804040276055" lon="4.680195529906521"><ele>328.79999999999995</ele><time>2026-04-10T14:10:05.999Z</time></trkpt><trkpt lat="46.708129720462075" lon="4.6802072671457875"><ele>333.4</ele><time>2026-04-10T14:10:06.999Z</time></trkpt><trkpt lat="46.7082136903431" lon="4.680223152478618"><ele>338.0</ele><time>2026-04-10T14:10:07.999Z</time></trkpt><trkpt lat="46.70829069103993" lon="4.680246705535053"><ele>338.0</ele><time>2026-04-10T14:10:08.999Z</time></trkpt><trkpt lat="46.70838088741665" lon="4.6803028378095455"><ele>338.0</ele><time>2026-04-10T14:10:09.999Z</time></trkpt><trkpt lat="46.70847963767784" lon="4.680334339123891"><ele>338.0</ele><time>2026-04-10T14:10:11.999Z</time></trkpt><trkpt lat="46.708554065954516" lon="4.680300357740833"><ele>338.0</ele><time>2026-04-10T14:10:13.999Z</time></trkpt><trkpt lat="46.708580191152365" lon="4.680210170090516"><ele>338.0</ele><time>2026-04-10T14:10:16.999Z</time></trkpt><trkpt lat="46.708550002472016" lon="4.680094015766379"><ele>338.0</ele><time>2026-04-10T14:10:18.999Z</time></trkpt><trkpt lat="46.70856088920686" lon="4.679996928811748"><ele>341.1666666666667</ele><time>2026-04-10T14:10:20.999Z</time></trkpt><trkpt lat="46.70860046850872" lon="4.679919933627426"><ele>344.33333333333337</ele><time>2026-04-10T14:10:23.999Z</time></trkpt><trkpt lat="46.70866527000246" lon="4.679914990540196"><ele>347.5</ele><time>2026-04-10T14:10:25.999Z</time></trkpt><trkpt lat="46.70877328451437" lon="4.679960146236477"><ele>350.6666666666667</ele><time>2026-04-10T14:10:27.999Z</time></trkpt><trkpt lat="46.708844704255505" lon="4.679982246157288"><ele>353.8333333333333</ele><time>2026-04-10T14:10:28.999Z</time></trkpt><trkpt lat="46.70893116005841" lon="4.680005785935636"><ele>357.0</ele><time>2026-04-10T14:10:29.999Z</time></trkpt><trkpt lat="46.709017301136385" lon="4.680026906260453"><ele>357.0</ele><time>2026-04-10T14:10:30.999Z</time></trkpt><trkpt lat="46.709094816082036" lon="4.680046549861877"><ele>357.0</ele><time>2026-04-10T14:10:31.999Z</time></trkpt><trkpt lat="46.70917434635392" lon="4.6800384840482865"><ele>357.0</ele><time>2026-04-10T14:10:32.999Z</time></trkpt><trkpt lat="46.70929107097399" lon="4.680105794981536"><ele>357.0</ele><time>2026-04-10T14:10:34.999Z</time></trkpt><trkpt lat="46.709356316828874" lon="4.6801258905667815"><ele>357.0</ele><time>2026-04-10T14:10:35.999Z</time></trkpt><trkpt lat="46.7094200753953" lon="4.680141694817979"><ele>357.0</ele><time>2026-04-10T14:10:36.999Z</time></trkpt><trkpt lat="46.7094847572125" lon="4.680169525302608"><ele>359.20000000000005</ele><time>2026-04-10T14:10:37.999Z</time></trkpt><trkpt lat="46.70953457211633" lon="4.6802382916487755"><ele>361.4</ele><time>2026-04-10T14:10:38.999Z</time></trkpt><trkpt lat="46.709617541256144" lon="4.68031901753168"><ele>363.6</ele><time>2026-04-10T14:10:40.999Z</time></trkpt><trkpt lat="46.70968824088246" lon="4.680373650981826"><ele>365.79999999999995</ele><time>2026-04-10T14:10:41.999Z</time></trkpt><trkpt lat="46.7097768431161" lon="4.680427481028285"><ele>368.0</ele><time>2026-04-10T14:10:42.999Z</time></trkpt><trkpt lat="46.70987923615947" lon="4.680498314560619"><ele>368.0</ele><time>2026-04-10T14:10:43.999Z</time></trkpt><trkpt lat="46.70999407667019" lon="4.680555133817617"><ele>368.0</ele><time>2026-04-10T14:10:44.999Z</time></trkpt><trkpt lat="46.71009896497806" lon="4.680574069455009"><ele>368.0</ele><time>2026-04-10T14:10:45.999Z</time></trkpt><trkpt lat="46.710168340941834" lon="4.680583768867254"><ele>368.0</ele><time>2026-04-10T14:10:46.999Z</time></trkpt><trkpt lat="46.71027613202419" lon="4.680605048484275"><ele>368.0</ele><time>2026-04-10T14:10:48.999Z</time></trkpt><trkpt lat="46.71034678169326" lon="4.680596410868329"><ele>369.2</ele><time>2026-04-10T14:10:50.999Z</time></trkpt><trkpt lat="46.71037392976692" lon="4.680509214149613"><ele>370.4</ele><time>2026-04-10T14:10:52.999Z</time></trkpt><trkpt lat="46.71035078324941" lon="4.680271776219477"><ele>371.59999999999997</ele><time>2026-04-10T14:10:54.999Z</time></trkpt><trkpt lat="46.71032948697755" lon="4.680152629250008"><ele>372.79999999999995</ele><time>2026-04-10T14:10:55.999Z</time></trkpt><trkpt lat="46.710327075047196" lon="4.680058262977098"><ele>374.0</ele><time>2026-04-10T14:10:56.999Z</time></trkpt><trkpt lat="46.71038493610181" lon="4.679956364799912"><ele>375.5</ele><time>2026-04-10T14:10:57.999Z</time></trkpt><trkpt lat="46.710434773856285" lon="4.679827996719584"><ele>377.0</ele><time>2026-04-10T14:10:58.999Z</time></trkpt><trkpt lat="46.71047443573188" lon="4.679642794153046"><ele>378.5</ele><time>2026-04-10T14:10:59.999Z</time></trkpt><trkpt lat="46.71051008813955" lon="4.679476480479472"><ele>380.0</ele><time>2026-04-10T14:11:00.999Z</time></trkpt><trkpt lat="46.71053084630727" lon="4.67932653249746"><ele>381.0</ele><time>2026-04-10T14:11:01.999Z</time></trkpt><trkpt lat="46.71052886021537" lon="4.679190969745381"><ele>382.0</ele><time>2026-04-10T14:11:02.999Z</time></trkpt><trkpt lat="46.710563172754526" lon="4.679061244528857"><ele>383.0</ele><time>2026-04-10T14:11:03.999Z</time></trkpt><trkpt lat="46.71059107670293" lon="4.678941030470345"><ele>384.0</ele><time>2026-04-10T14:11:04.999Z</time></trkpt><trkpt lat="46.7106330863454" lon="4.67883287384085"><ele>384.99999999999994</ele><time>2026-04-10T14:11:05.999Z</time></trkpt><trkpt lat="46.71069272719806" lon="4.678770557838068"><ele>386.0</ele><time>2026-04-10T14:11:06.999Z</time></trkpt><trkpt lat="46.71075402210169" lon="4.678721352106026"><ele>386.0</ele><time>2026-04-10T14:11:07.999Z</time></trkpt><trkpt lat="46.71088465307442" lon="4.678695094143291"><ele>386.0</ele><time>2026-04-10T14:11:09.999Z</time></trkpt><trkpt lat="46.710976006633906" lon="4.6787168397120515"><ele>386.0</ele><time>2026-04-10T14:11:10.999Z</time></trkpt><trkpt lat="46.71106174750943" lon="4.678676671990908"><ele>386.0</ele><time>2026-04-10T14:11:12.999Z</time></trkpt><trkpt lat="46.711145601500036" lon="4.678510521188522"><ele>385.0</ele><time>2026-04-10T14:11:14.999Z</time></trkpt><trkpt lat="46.71117161534912" lon="4.678357664307713"><ele>384.0</ele><time>2026-04-10T14:11:15.999Z</time></trkpt><trkpt lat="46.71119311415415" lon="4.678161753407167"><ele>383.0</ele><time>2026-04-10T14:11:16.999Z</time></trkpt><trkpt lat="46.7112344548169" lon="4.677990228219284"><ele>382.0</ele><time>2026-04-10T14:11:17.999Z</time></trkpt><trkpt lat="46.71124114315042" lon="4.677870552422698"><ele>383.25</ele><time>2026-04-10T14:11:18.999Z</time></trkpt><trkpt lat="46.711290111484765" lon="4.677765254685929"><ele>384.5</ele><time>2026-04-10T14:11:19.999Z</time></trkpt><trkpt lat="46.71134666836104" lon="4.677637871482903"><ele>385.75</ele><time>2026-04-10T14:11:20.999Z</time></trkpt><trkpt lat="46.71143054983065" lon="4.6775033237819965"><ele>387.0</ele><time>2026-04-10T14:11:21.999Z</time></trkpt><trkpt lat="46.71153507677781" lon="4.677364042153482"><ele>387.0</ele><time>2026-04-10T14:11:22.999Z</time></trkpt><trkpt lat="46.711656118950714" lon="4.67718187261454"><ele>387.0</ele><time>2026-04-10T14:11:23.999Z</time></trkpt><trkpt lat="46.71176298663546" lon="4.676981486477193"><ele>387.0</ele><time>2026-04-10T14:11:24.999Z</time></trkpt><trkpt lat="46.711848072358954" lon="4.676830007335659"><ele>388.0</ele><time>2026-04-10T14:11:25.999Z</time></trkpt><trkpt lat="46.71193227153408" lon="4.676709262645449"><ele>389.0</ele><time>2026-04-10T14:11:26.999Z</time></trkpt><trkpt lat="46.71202141303817" lon="4.676599710622023"><ele>390.0</ele><time>2026-04-10T14:11:27.999Z</time></trkpt><trkpt lat="46.712114201047505" lon="4.6764649930029805"><ele>391.0</ele><time>2026-04-10T14:11:28.999Z</time></trkpt><trkpt lat="46.71219432879649" lon="4.676326753327666"><ele>391.0</ele><time>2026-04-10T14:11:29.999Z</time></trkpt><trkpt lat="46.71231322836131" lon="4.6761821260912235"><ele>391.0</ele><time>2026-04-10T14:11:30.999Z</time></trkpt><trkpt lat="46.712417455855224" lon="4.67604327325661"><ele>391.0</ele><time>2026-04-10T14:11:31.999Z</time></trkpt><trkpt lat="46.71252606597122" lon="4.675914945047343"><ele>391.0</ele><time>2026-04-10T14:11:32.999Z</time></trkpt><trkpt lat="46.712613319689645" lon="4.675805090819629"><ele>391.25</ele><time>2026-04-10T14:11:33.999Z</time></trkpt><trkpt lat="46.712692645855185" lon="4.675704491347659"><ele>391.5</ele><time>2026-04-10T14:11:34.999Z</time></trkpt><trkpt lat="46.712781335454004" lon="4.675605306904291"><ele>391.75</ele><time>2026-04-10T14:11:35.999Z</time></trkpt><trkpt lat="46.71287249116844" lon="4.675500648008958"><ele>392.0</ele><time>2026-04-10T14:11:36.999Z</time></trkpt><trkpt lat="46.71296627581338" lon="4.6753762520038125"><ele>390.75</ele><time>2026-04-10T14:11:37.999Z</time></trkpt><trkpt lat="46.71305987303915" lon="4.675231463680724"><ele>389.5</ele><time>2026-04-10T14:11:38.999Z</time></trkpt><trkpt lat="46.713156712966615" lon="4.675101871600655"><ele>388.25</ele><time>2026-04-10T14:11:39.999Z</time></trkpt><trkpt lat="46.71322172568861" lon="4.674977535075073"><ele>387.0</ele><time>2026-04-10T14:11:41Z</time></trkpt><trkpt lat="46.7132924241738" lon="4.6748831073546695"><ele>387.0</ele><time>2026-04-10T14:11:42Z</time></trkpt><trkpt lat="46.71335620736134" lon="4.674781648649956"><ele>387.0</ele><time>2026-04-10T14:11:42.999Z</time></trkpt><trkpt lat="46.71341376396647" lon="4.674708306504048"><ele>387.0</ele><time>2026-04-10T14:11:44Z</time></trkpt><trkpt lat="46.71349985960558" lon="4.674672579383697"><ele>387.0</ele><time>2026-04-10T14:11:46Z</time></trkpt><trkpt lat="46.71358040630677" lon="4.674716483139768"><ele>387.0</ele><time>2026-04-10T14:11:48Z</time></trkpt><trkpt lat="46.713626068019195" lon="4.674794772443995"><ele>387.0</ele><time>2026-04-10T14:11:49Z</time></trkpt><trkpt lat="46.713656354037134" lon="4.67488465188774"><ele>388.40000000000003</ele><time>2026-04-10T14:11:50Z</time></trkpt><trkpt lat="46.71380014023699" lon="4.67487628280282"><ele>389.8</ele><time>2026-04-10T14:11:53Z</time></trkpt><trkpt lat="46.71387234495819" lon="4.674845536352044"><ele>391.2</ele><time>2026-04-10T14:11:54Z</time></trkpt><trkpt lat="46.71395674550834" lon="4.67485825526965"><ele>392.6</ele><time>2026-04-10T14:11:55Z</time></trkpt><trkpt lat="46.714096201071406" lon="4.674828049960459"><ele>394.0</ele><time>2026-04-10T14:11:56Z</time></trkpt><trkpt lat="46.71420008675404" lon="4.674755092487274"><ele>394.0</ele><time>2026-04-10T14:11:57Z</time></trkpt><trkpt lat="46.714266370153126" lon="4.674773396956789"><ele>394.0</ele><time>2026-04-10T14:11:58Z</time></trkpt><trkpt lat="46.71434981354724" lon="4.67477341976306"><ele>394.0</ele><time>2026-04-10T14:12:02Z</time></trkpt><trkpt lat="46.714457136879865" lon="4.6746163274586285"><ele>394.0</ele><time>2026-04-10T14:12:04Z</time></trkpt><trkpt lat="46.714516763902054" lon="4.6744731589630115"><ele>394.0</ele><time>2026-04-10T14:12:05Z</time></trkpt><trkpt lat="46.71459272746357" lon="4.67434025113024"><ele>393.33333333333337</ele><time>2026-04-10T14:12:06Z</time></trkpt><trkpt lat="46.71467448111077" lon="4.674154949964219"><ele>392.66666666666663</ele><time>2026-04-10T14:12:07Z</time></trkpt><trkpt lat="46.7147724545309" lon="4.673959436580007"><ele>392.0</ele><time>2026-04-10T14:12:08Z</time></trkpt><trkpt lat="46.71486171641391" lon="4.673783443868789"><ele>392.0</ele><time>2026-04-10T14:12:09Z</time></trkpt><trkpt lat="46.7149155978851" lon="4.673689469441341"><ele>392.0</ele><time>2026-04-10T14:12:10Z</time></trkpt><trkpt lat="46.714974656321736" lon="4.67359855189308"><ele>392.0</ele><time>2026-04-10T14:12:11Z</time></trkpt><trkpt lat="46.715039350173086" lon="4.67357166144431"><ele>392.0</ele><time>2026-04-10T14:12:12Z</time></trkpt><trkpt lat="46.71515273321946" lon="4.6735569171407825"><ele>392.0</ele><time>2026-04-10T14:12:13Z</time></trkpt><trkpt lat="46.71525235208574" lon="4.673508820440125"><ele>391.75</ele><time>2026-04-10T14:12:14Z</time></trkpt><trkpt lat="46.715367795368444" lon="4.6734734300318355"><ele>391.5</ele><time>2026-04-10T14:12:15Z</time></trkpt><trkpt lat="46.715519358279884" lon="4.673453067046501"><ele>391.25</ele><time>2026-04-10T14:12:16Z</time></trkpt><trkpt lat="46.71566843958632" lon="4.673385078397475"><ele>391.0</ele><time>2026-04-10T14:12:17Z</time></trkpt><trkpt lat="46.71581564071592" lon="4.673328725739821"><ele>391.0</ele><time>2026-04-10T14:12:18Z</time></trkpt><trkpt lat="46.71592605172697" lon="4.673261195542054"><ele>391.0</ele><time>2026-04-10T14:12:19Z</time></trkpt><trkpt lat="46.716007403314116" lon="4.673192408474252"><ele>391.0</ele><time>2026-04-10T14:12:20Z</time></trkpt><trkpt lat="46.7160678245172" lon="4.673117456423385"><ele>391.0</ele><time>2026-04-10T14:12:21Z</time></trkpt><trkpt lat="46.716112995105" lon="4.673037292195613"><ele>391.0</ele><time>2026-04-10T14:12:22Z</time></trkpt><trkpt lat="46.71618710016233" lon="4.6729556139008865"><ele>391.6</ele><time>2026-04-10T14:12:24Z</time></trkpt><trkpt lat="46.716294854878356" lon="4.672985372407647"><ele>392.20000000000005</ele><time>2026-04-10T14:12:27Z</time></trkpt><trkpt lat="46.71636478974992" lon="4.673115296905093"><ele>392.79999999999995</ele><time>2026-04-10T14:12:29Z</time></trkpt><trkpt lat="46.71638690734437" lon="4.6732177970384585"><ele>393.4</ele><time>2026-04-10T14:12:30Z</time></trkpt><trkpt lat="46.716388020558966" lon="4.67333211108523"><ele>394.0</ele><time>2026-04-10T14:12:31Z</time></trkpt><trkpt lat="46.71640992977546" lon="4.673468296467615"><ele>395.0</ele><time>2026-04-10T14:12:32Z</time></trkpt><trkpt lat="46.71642010725112" lon="4.6736222629931214"><ele>396.0</ele><time>2026-04-10T14:12:33Z</time></trkpt><trkpt lat="46.71645574197138" lon="4.673800128133842"><ele>397.0</ele><time>2026-04-10T14:12:34Z</time></trkpt><trkpt lat="46.71649878908824" lon="4.674021174443278"><ele>398.0</ele><time>2026-04-10T14:12:35Z</time></trkpt><trkpt lat="46.71651607276117" lon="4.67419109790403"><ele>398.0</ele><time>2026-04-10T14:12:36Z</time></trkpt><trkpt lat="46.71653378309088" lon="4.6743345593033485"><ele>398.0</ele><time>2026-04-10T14:12:37Z</time></trkpt><trkpt lat="46.71656212598763" lon="4.674450678558735"><ele>398.0</ele><time>2026-04-10T14:12:38Z</time></trkpt><trkpt lat="46.71658223213605" lon="4.674591731606217"><ele>398.0</ele><time>2026-04-10T14:12:40Z</time></trkpt><trkpt lat="46.716653566280456" lon="4.674717327868491"><ele>398.0</ele><time>2026-04-10T14:12:42Z</time></trkpt><trkpt lat="46.71671326295116" lon="4.674756283616513"><ele>398.25</ele><time>2026-04-10T14:12:43Z</time></trkpt><trkpt lat="46.716807483059505" lon="4.6747868885214405"><ele>398.5</ele><time>2026-04-10T14:12:44Z</time></trkpt><trkpt lat="46.716930900500046" lon="4.674818819924428"><ele>398.75</ele><time>2026-04-10T14:12:45Z</time></trkpt><trkpt lat="46.71709681583811" lon="4.674873466396857"><ele>399.0</ele><time>2026-04-10T14:12:46Z</time></trkpt><trkpt lat="46.71727112823618" lon="4.674944468965998"><ele>399.75</ele><time>2026-04-10T14:12:47Z</time></trkpt><trkpt lat="46.7174375475543" lon="4.674987514228228"><ele>400.5</ele><time>2026-04-10T14:12:48Z</time></trkpt><trkpt lat="46.717564320852226" lon="4.675037230154333"><ele>401.25</ele><time>2026-04-10T14:12:49Z</time></trkpt><trkpt lat="46.717676349999266" lon="4.675071053643651"><ele>402.0</ele><time>2026-04-10T14:12:50Z</time></trkpt><trkpt lat="46.717784699332135" lon="4.67511310684035"><ele>403.25</ele><time>2026-04-10T14:12:51Z</time></trkpt><trkpt lat="46.71789221714227" lon="4.675176924960345"><ele>404.5</ele><time>2026-04-10T14:12:52Z</time></trkpt><trkpt lat="46.71801033081081" lon="4.675251810649308"><ele>405.75</ele><time>2026-04-10T14:12:53Z</time></trkpt><trkpt lat="46.718122542059994" lon="4.675312685934017"><ele>407.0</ele><time>2026-04-10T14:12:54Z</time></trkpt><trkpt lat="46.7182180991358" lon="4.675396464156411"><ele>407.0</ele><time>2026-04-10T14:12:55Z</time></trkpt><trkpt lat="46.718309533513114" lon="4.675454556822756"><ele>407.0</ele><time>2026-04-10T14:12:56Z</time></trkpt><trkpt lat="46.718410756305296" lon="4.6754902980207005"><ele>407.0</ele><time>2026-04-10T14:12:57Z</time></trkpt><trkpt lat="46.718516367808036" lon="4.675537476008594"><ele>407.0</ele><time>2026-04-10T14:12:58Z</time></trkpt><trkpt lat="46.71863221977972" lon="4.675521474858012"><ele>407.0</ele><time>2026-04-10T14:12:59Z</time></trkpt><trkpt lat="46.71873747765253" lon="4.675525338629655"><ele>407.8333333333333</ele><time>2026-04-10T14:13:00Z</time></trkpt><trkpt lat="46.71883276927421" lon="4.675544583235627"><ele>408.66666666666663</ele><time>2026-04-10T14:13:01Z</time></trkpt><trkpt lat="46.71891859611822" lon="4.675533329122575"><ele>409.5</ele><time>2026-04-10T14:13:02Z</time></trkpt><trkpt lat="46.718991542077745" lon="4.6755622964527825"><ele>410.33333333333337</ele><time>2026-04-10T14:13:03Z</time></trkpt><trkpt lat="46.71906338419632" lon="4.675603599677273"><ele>411.1666666666667</ele><time>2026-04-10T14:13:04Z</time></trkpt><trkpt lat="46.71913409462123" lon="4.675648790788155"><ele>412.0</ele><time>2026-04-10T14:13:05Z</time></trkpt><trkpt lat="46.7191997605216" lon="4.6757048895890225"><ele>412.00000000000006</ele><time>2026-04-10T14:13:06Z</time></trkpt><trkpt lat="46.71926703982483" lon="4.675771125534079"><ele>412.0</ele><time>2026-04-10T14:13:07Z</time></trkpt><trkpt lat="46.71932698012541" lon="4.675838179787198"><ele>412.0</ele><time>2026-04-10T14:13:08Z</time></trkpt><trkpt lat="46.719373156980254" lon="4.67592242103866"><ele>412.0</ele><time>2026-04-10T14:13:09Z</time></trkpt><trkpt lat="46.7194228972111" lon="4.675991385528116"><ele>412.00000000000006</ele><time>2026-04-10T14:13:10Z</time></trkpt><trkpt lat="46.71946951374832" lon="4.676077354277699"><ele>412.0</ele><time>2026-04-10T14:13:11Z</time></trkpt><trkpt lat="46.719488764286034" lon="4.676202304084076"><ele>413.40000000000003</ele><time>2026-04-10T14:13:11.999Z</time></trkpt><trkpt lat="46.71952945254842" lon="4.676347396820375"><ele>414.8</ele><time>2026-04-10T14:13:12.999Z</time></trkpt><trkpt lat="46.71955189589148" lon="4.676465817943835"><ele>416.2</ele><time>2026-04-10T14:13:13.999Z</time></trkpt><trkpt lat="46.71957501548093" lon="4.676576789462544"><ele>417.6</ele><time>2026-04-10T14:13:14.999Z</time></trkpt><trkpt lat="46.719606298945735" lon="4.67672100322393"><ele>419.0</ele><time>2026-04-10T14:13:16.999Z</time></trkpt><trkpt lat="46.71965428979349" lon="4.676833664493878"><ele>419.0</ele><time>2026-04-10T14:13:19.999Z</time></trkpt><trkpt lat="46.71971473518312" lon="4.676915661868219"><ele>419.0</ele><time>2026-04-10T14:13:27.999Z</time></trkpt><trkpt lat="46.719859142969106" lon="4.676871190174004"><ele>419.0</ele><time>2026-04-10T14:13:28.999Z</time></trkpt><trkpt lat="46.71998155192635" lon="4.676879710325598"><ele>419.0</ele><time>2026-04-10T14:13:29.999Z</time></trkpt><trkpt lat="46.72010550004347" lon="4.676888627522293"><ele>419.0</ele><time>2026-04-10T14:13:30.999Z</time></trkpt><trkpt lat="46.7202306650067" lon="4.676906446821244"><ele>419.0</ele><time>2026-04-10T14:13:31.999Z</time></trkpt><trkpt lat="46.720395356144074" lon="4.676935008436695"><ele>419.0</ele><time>2026-04-10T14:13:32.999Z</time></trkpt><trkpt lat="46.720561396610094" lon="4.676937435686699"><ele>419.25</ele><time>2026-04-10T14:13:33.999Z</time></trkpt><trkpt lat="46.72071592999335" lon="4.676965975907153"><ele>419.5</ele><time>2026-04-10T14:13:34.999Z</time></trkpt><trkpt lat="46.720831279126" lon="4.676985212882439"><ele>419.75</ele><time>2026-04-10T14:13:35.999Z</time></trkpt><trkpt lat="46.72094747370943" lon="4.676953941797689"><ele>420.0</ele><time>2026-04-10T14:13:36.999Z</time></trkpt><trkpt lat="46.7210732027873" lon="4.676890929603288"><ele>420.0</ele><time>2026-04-10T14:13:37.999Z</time></trkpt><trkpt lat="46.721218354893075" lon="4.676853682310835"><ele>420.0</ele><time>2026-04-10T14:13:38.999Z</time></trkpt><trkpt lat="46.72136479355094" lon="4.676805476734196"><ele>420.0</ele><time>2026-04-10T14:13:39.999Z</time></trkpt><trkpt lat="46.721484577486095" lon="4.676736623650995"><ele>420.0</ele><time>2026-04-10T14:13:40.999Z</time></trkpt><trkpt lat="46.721596386085146" lon="4.67667936659694"><ele>420.0</ele><time>2026-04-10T14:13:41.999Z</time></trkpt><trkpt lat="46.72169506956171" lon="4.676653076895633"><ele>420.0</ele><time>2026-04-10T14:13:42.999Z</time></trkpt><trkpt lat="46.72179812029365" lon="4.67663819247299"><ele>420.0</ele><time>2026-04-10T14:13:43.999Z</time></trkpt><trkpt lat="46.72190361070701" lon="4.676591175034175"><ele>420.0</ele><time>2026-04-10T14:13:44.999Z</time></trkpt><trkpt lat="46.722000810489384" lon="4.676518600109509"><ele>420.0</ele><time>2026-04-10T14:13:45.999Z</time></trkpt><trkpt lat="46.72207841966681" lon="4.676440762671489"><ele>419.2</ele><time>2026-04-10T14:13:47Z</time></trkpt><trkpt lat="46.72214507586551" lon="4.676332400475459"><ele>418.4</ele><time>2026-04-10T14:13:48Z</time></trkpt><trkpt lat="46.722233049556536" lon="4.676249038864089"><ele>417.6</ele><time>2026-04-10T14:13:49Z</time></trkpt><trkpt lat="46.72229943516552" lon="4.676159203263183"><ele>416.8</ele><time>2026-04-10T14:13:50Z</time></trkpt><trkpt lat="46.72238695152529" lon="4.6761120994850165"><ele>416.0</ele><time>2026-04-10T14:13:51Z</time></trkpt><trkpt lat="46.722512423364506" lon="4.676067384299696"><ele>416.0</ele><time>2026-04-10T14:13:52Z</time></trkpt><trkpt lat="46.72262974758072" lon="4.676025806938388"><ele>416.0</ele><time>2026-04-10T14:13:53Z</time></trkpt><trkpt lat="46.722732932603954" lon="4.675961297836068"><ele>416.0</ele><time>2026-04-10T14:13:54Z</time></trkpt><trkpt lat="46.722818785620206" lon="4.675915024900307"><ele>416.0</ele><time>2026-04-10T14:13:55Z</time></trkpt><trkpt lat="46.72290389709461" lon="4.675881176348794"><ele>416.0</ele><time>2026-04-10T14:13:56Z</time></trkpt><trkpt lat="46.72298068448177" lon="4.675839736788603"><ele>414.66666666666663</ele><time>2026-04-10T14:13:57Z</time></trkpt><trkpt lat="46.723061783562585" lon="4.675776092224679"><ele>413.3333333333333</ele><time>2026-04-10T14:13:58Z</time></trkpt><trkpt lat="46.72313852940217" lon="4.675716973409461"><ele>412.0</ele><time>2026-04-10T14:13:59Z</time></trkpt><trkpt lat="46.72321711611227" lon="4.675685898401478"><ele>410.66666666666663</ele><time>2026-04-10T14:14:00Z</time></trkpt><trkpt lat="46.72328706147295" lon="4.675643027727175"><ele>409.3333333333333</ele><time>2026-04-10T14:14:01Z</time></trkpt><trkpt lat="46.72336812391879" lon="4.6755922559519165"><ele>408.0</ele><time>2026-04-10T14:14:02Z</time></trkpt><trkpt lat="46.723433627700686" lon="4.675520432721698"><ele>408.0</ele><time>2026-04-10T14:14:03Z</time></trkpt><trkpt lat="46.72349877546579" lon="4.675478236076331"><ele>408.0</ele><time>2026-04-10T14:14:04Z</time></trkpt><trkpt lat="46.723583528818146" lon="4.67542432829318"><ele>408.0</ele><time>2026-04-10T14:14:05Z</time></trkpt><trkpt lat="46.72364628848039" lon="4.675360454458703"><ele>408.0</ele><time>2026-04-10T14:14:06Z</time></trkpt><trkpt lat="46.723695873117826" lon="4.675281347200946"><ele>408.0</ele><time>2026-04-10T14:14:07Z</time></trkpt><trkpt lat="46.72373664965511" lon="4.675199070913131"><ele>408.0</ele><time>2026-04-10T14:14:08Z</time></trkpt><trkpt lat="46.72379260197789" lon="4.675094352717477"><ele>406.1666666666667</ele><time>2026-04-10T14:14:09Z</time></trkpt><trkpt lat="46.72382954746495" lon="4.6749836165462"><ele>404.33333333333337</ele><time>2026-04-10T14:14:10Z</time></trkpt><trkpt lat="46.72386538797225" lon="4.6748662183678285"><ele>402.5</ele><time>2026-04-10T14:14:11Z</time></trkpt><trkpt lat="46.72389188154203" lon="4.674755316092989"><ele>400.6666666666667</ele><time>2026-04-10T14:14:12Z</time></trkpt><trkpt lat="46.72393210806651" lon="4.674618646457282"><ele>398.83333333333337</ele><time>2026-04-10T14:14:14Z</time></trkpt><trkpt lat="46.724016082200194" lon="4.674568317105942"><ele>397.0</ele><time>2026-04-10T14:14:17Z</time></trkpt><trkpt lat="46.72396984573637" lon="4.67439299239767"><ele>396.0</ele><time>2026-04-10T14:14:19Z</time></trkpt><trkpt lat="46.72393460221326" lon="4.674282681290805"><ele>395.0</ele><time>2026-04-10T14:14:20Z</time></trkpt><trkpt lat="46.72389680263629" lon="4.674135915629275"><ele>394.0</ele><time>2026-04-10T14:14:21Z</time></trkpt><trkpt lat="46.72383476756711" lon="4.673951172430918"><ele>393.0</ele><time>2026-04-10T14:14:22Z</time></trkpt><trkpt lat="46.72376702037749" lon="4.673749418535414"><ele>393.0</ele><time>2026-04-10T14:14:23Z</time></trkpt><trkpt lat="46.72369435407471" lon="4.673527501603264"><ele>393.0</ele><time>2026-04-10T14:14:24Z</time></trkpt><trkpt lat="46.72361808765986" lon="4.673296812744485"><ele>393.0</ele><time>2026-04-10T14:14:25Z</time></trkpt><trkpt lat="46.72351866250899" lon="4.67307482028725"><ele>395.33333333333337</ele><time>2026-04-10T14:14:26Z</time></trkpt><trkpt lat="46.7234204546929" lon="4.6728382577692"><ele>397.6666666666667</ele><time>2026-04-10T14:14:27Z</time></trkpt><trkpt lat="46.72334196155269" lon="4.672640015751819"><ele>400.0</ele><time>2026-04-10T14:14:28Z</time></trkpt><trkpt lat="46.72325921165328" lon="4.6724437893841495"><ele>400.0</ele><time>2026-04-10T14:14:29Z</time></trkpt><trkpt lat="46.72316560081558" lon="4.672242716044291"><ele>400.0</ele><time>2026-04-10T14:14:30Z</time></trkpt><trkpt lat="46.72308038120864" lon="4.672027126607126"><ele>400.0</ele><time>2026-04-10T14:14:31Z</time></trkpt><trkpt lat="46.72300133650353" lon="4.6718128683001225"><ele>398.5</ele><time>2026-04-10T14:14:32Z</time></trkpt><trkpt lat="46.72291904237651" lon="4.671622842098412"><ele>397.0</ele><time>2026-04-10T14:14:33Z</time></trkpt><trkpt lat="46.72286865387359" lon="4.671439083825619"><ele>395.5</ele><time>2026-04-10T14:14:34Z</time></trkpt><trkpt lat="46.7228146734481" lon="4.671292345860451"><ele>394.0</ele><time>2026-04-10T14:14:35Z</time></trkpt><trkpt lat="46.72275227245179" lon="4.67115790767043"><ele>396.6</ele><time>2026-04-10T14:14:36Z</time></trkpt><trkpt lat="46.722705564472086" lon="4.671021115071722"><ele>399.2</ele><time>2026-04-10T14:14:37Z</time></trkpt><trkpt lat="46.72264109343242" lon="4.67092178831791"><ele>401.8</ele><time>2026-04-10T14:14:38Z</time></trkpt><trkpt lat="46.722607190807665" lon="4.6708139812834695"><ele>404.40000000000003</ele><time>2026-04-10T14:14:39Z</time></trkpt><trkpt lat="46.722563929871995" lon="4.670712459209961"><ele>407.0</ele><time>2026-04-10T14:14:40Z</time></trkpt><trkpt lat="46.72253198858416" lon="4.670581555334456"><ele>407.0</ele><time>2026-04-10T14:14:41Z</time></trkpt><trkpt lat="46.722485817673736" lon="4.6704282369375365"><ele>407.0</ele><time>2026-04-10T14:14:42Z</time></trkpt><trkpt lat="46.72242939952685" lon="4.670275410261882"><ele>407.0</ele><time>2026-04-10T14:14:43Z</time></trkpt><trkpt lat="46.72238283892384" lon="4.670151994151161"><ele>407.0</ele><time>2026-04-10T14:14:44Z</time></trkpt><trkpt lat="46.722297687377" lon="4.670017840901359"><ele>407.66666666666663</ele><time>2026-04-10T14:14:46Z</time></trkpt><trkpt lat="46.7222205075995" lon="4.669927038217539"><ele>408.3333333333333</ele><time>2026-04-10T14:14:48Z</time></trkpt><trkpt lat="46.722147990766814" lon="4.6698985128313995"><ele>409.0</ele><time>2026-04-10T14:14:51Z</time></trkpt><trkpt lat="46.72207854931849" lon="4.669876476557588"><ele>409.66666666666663</ele><time>2026-04-10T14:14:53Z</time></trkpt><trkpt lat="46.721990653715565" lon="4.669840030224082"><ele>410.3333333333333</ele><time>2026-04-10T14:14:55Z</time></trkpt><trkpt lat="46.72192857188349" lon="4.669817475626136"><ele>411.0</ele><time>2026-04-10T14:14:56Z</time></trkpt><trkpt lat="46.72183871808952" lon="4.669792778799819"><ele>411.0</ele><time>2026-04-10T14:14:57Z</time></trkpt><trkpt lat="46.72170981035719" lon="4.669759173365921"><ele>411.0</ele><time>2026-04-10T14:14:58Z</time></trkpt><trkpt lat="46.72156972843571" lon="4.669694422319825"><ele>411.0</ele><time>2026-04-10T14:14:59Z</time></trkpt><trkpt lat="46.72141470904623" lon="4.669617716069652"><ele>411.0</ele><time>2026-04-10T14:15:00Z</time></trkpt><trkpt lat="46.72125619025399" lon="4.66953391463191"><ele>411.0</ele><time>2026-04-10T14:15:01Z</time></trkpt><trkpt lat="46.721083870518065" lon="4.669419530716772"><ele>411.0</ele><time>2026-04-10T14:15:02Z</time></trkpt><trkpt lat="46.72093951836214" lon="4.669313367454778"><ele>411.0</ele><time>2026-04-10T14:15:03Z</time></trkpt><trkpt lat="46.72079234382678" lon="4.669217864038748"><ele>411.0</ele><time>2026-04-10T14:15:04Z</time></trkpt><trkpt lat="46.72065103347251" lon="4.669124142811123"><ele>411.0</ele><time>2026-04-10T14:15:05Z</time></trkpt><trkpt lat="46.72053009640023" lon="4.669041823259194"><ele>411.0</ele><time>2026-04-10T14:15:06Z</time></trkpt><trkpt lat="46.72041170163396" lon="4.668961693900937"><ele>411.0</ele><time>2026-04-10T14:15:07Z</time></trkpt><trkpt lat="46.72028780544061" lon="4.6688851903791075"><ele>411.0</ele><time>2026-04-10T14:15:08Z</time></trkpt><trkpt lat="46.720175964088085" lon="4.668823427094776"><ele>411.0</ele><time>2026-04-10T14:15:09Z</time></trkpt><trkpt lat="46.72007989810799" lon="4.66878289351366"><ele>411.0</ele><time>2026-04-10T14:15:10Z</time></trkpt><trkpt lat="46.719982499484416" lon="4.668672090033231"><ele>411.0</ele><time>2026-04-10T14:15:11Z</time></trkpt><trkpt lat="46.71989215733828" lon="4.668572733325258"><ele>410.75</ele><time>2026-04-10T14:15:12Z</time></trkpt><trkpt lat="46.71979602475486" lon="4.668468416052635"><ele>410.5</ele><time>2026-04-10T14:15:13Z</time></trkpt><trkpt lat="46.71969882539946" lon="4.668363727719371"><ele>410.25</ele><time>2026-04-10T14:15:14Z</time></trkpt><trkpt lat="46.719589095927944" lon="4.668265871174261"><ele>410.0</ele><time>2026-04-10T14:15:15Z</time></trkpt><trkpt lat="46.71952132608142" lon="4.668117035358045"><ele>410.0</ele><time>2026-04-10T14:15:16Z</time></trkpt><trkpt lat="46.71943725348391" lon="4.6679664535220615"><ele>410.0</ele><time>2026-04-10T14:15:17Z</time></trkpt><trkpt lat="46.71932664558555" lon="4.6677994931192694"><ele>410.0</ele><time>2026-04-10T14:15:18Z</time></trkpt><trkpt lat="46.719220188223034" lon="4.667627285371212"><ele>409.0</ele><time>2026-04-10T14:15:19Z</time></trkpt><trkpt lat="46.719117036258844" lon="4.667488794659914"><ele>408.0</ele><time>2026-04-10T14:15:20Z</time></trkpt><trkpt lat="46.719029913990504" lon="4.667355914984173"><ele>407.0</ele><time>2026-04-10T14:15:21Z</time></trkpt><trkpt lat="46.71896231469694" lon="4.667208373596085"><ele>406.0</ele><time>2026-04-10T14:15:22Z</time></trkpt><trkpt lat="46.71888920296252" lon="4.667081260308447"><ele>406.0</ele><time>2026-04-10T14:15:23Z</time></trkpt><trkpt lat="46.71880744697278" lon="4.666958699962403"><ele>406.0</ele><time>2026-04-10T14:15:24Z</time></trkpt><trkpt lat="46.718742217445104" lon="4.666886040486828"><ele>406.0</ele><time>2026-04-10T14:15:25Z</time></trkpt><trkpt lat="46.718668474627485" lon="4.666802815350778"><ele>406.0</ele><time>2026-04-10T14:15:26Z</time></trkpt><trkpt lat="46.71859012001852" lon="4.666734784815426"><ele>406.0</ele><time>2026-04-10T14:15:27Z</time></trkpt><trkpt lat="46.718511419214636" lon="4.666672540810836"><ele>404.6</ele><time>2026-04-10T14:15:28Z</time></trkpt><trkpt lat="46.71845106235154" lon="4.666608741567448"><ele>403.20000000000005</ele><time>2026-04-10T14:15:29Z</time></trkpt><trkpt lat="46.71838292498402" lon="4.666537925873195"><ele>401.79999999999995</ele><time>2026-04-10T14:15:30Z</time></trkpt><trkpt lat="46.71831558325347" lon="4.666466016236416"><ele>400.4</ele><time>2026-04-10T14:15:31Z</time></trkpt><trkpt lat="46.71823090310102" lon="4.666377495710758"><ele>399.0</ele><time>2026-04-10T14:15:32Z</time></trkpt><trkpt lat="46.71812568671467" lon="4.666274825845789"><ele>399.0</ele><time>2026-04-10T14:15:33Z</time></trkpt><trkpt lat="46.71799382634535" lon="4.666139974651429"><ele>399.0</ele><time>2026-04-10T14:15:34Z</time></trkpt><trkpt lat="46.71786319622963" lon="4.66600843293412"><ele>399.0</ele><time>2026-04-10T14:15:35Z</time></trkpt><trkpt lat="46.717762290117626" lon="4.665903655038089"><ele>399.0</ele><time>2026-04-10T14:15:36Z</time></trkpt><trkpt lat="46.71767645675796" lon="4.665809500524324"><ele>398.0</ele><time>2026-04-10T14:15:37Z</time></trkpt><trkpt lat="46.717599191466014" lon="4.665722779713593"><ele>397.0</ele><time>2026-04-10T14:15:38Z</time></trkpt><trkpt lat="46.71751843980298" lon="4.665630186847314"><ele>396.0</ele><time>2026-04-10T14:15:38.999Z</time></trkpt><trkpt lat="46.71742170686853" lon="4.665533612139763"><ele>395.0</ele><time>2026-04-10T14:15:39.999Z</time></trkpt><trkpt lat="46.71731028326402" lon="4.665436027799276"><ele>394.0</ele><time>2026-04-10T14:15:40.999Z</time></trkpt><trkpt lat="46.71720448324003" lon="4.6653452093558085"><ele>394.0</ele><time>2026-04-10T14:15:41.999Z</time></trkpt><trkpt lat="46.71712860236954" lon="4.665296362122488"><ele>394.0</ele><time>2026-04-10T14:15:42.999Z</time></trkpt><trkpt lat="46.71700992269123" lon="4.665210032157556"><ele>394.0</ele><time>2026-04-10T14:15:43.999Z</time></trkpt><trkpt lat="46.71689440177278" lon="4.66520985124093"><ele>394.0</ele><time>2026-04-10T14:15:44.999Z</time></trkpt><trkpt lat="46.716767477481646" lon="4.665196980458633"><ele>393.25</ele><time>2026-04-10T14:15:45.999Z</time></trkpt><trkpt lat="46.71664409180306" lon="4.665183198565285"><ele>392.5</ele><time>2026-04-10T14:15:46.999Z</time></trkpt><trkpt lat="46.716520012346265" lon="4.665179277304794"><ele>391.75</ele><time>2026-04-10T14:15:47.999Z</time></trkpt><trkpt lat="46.71641312427183" lon="4.665159658601557"><ele>391.0</ele><time>2026-04-10T14:15:48.999Z</time></trkpt><trkpt lat="46.71631343998134" lon="4.665141829274528"><ele>391.0</ele><time>2026-04-10T14:15:49.999Z</time></trkpt><trkpt lat="46.71619279108399" lon="4.665117671053942"><ele>391.0</ele><time>2026-04-10T14:15:50.999Z</time></trkpt><trkpt lat="46.71606655352157" lon="4.665112518027799"><ele>391.0</ele><time>2026-04-10T14:15:51.999Z</time></trkpt><trkpt lat="46.71595857937234" lon="4.6650884356341145"><ele>391.0</ele><time>2026-04-10T14:15:53Z</time></trkpt><trkpt lat="46.71585721720673" lon="4.6650407752042735"><ele>389.8</ele><time>2026-04-10T14:15:54Z</time></trkpt><trkpt lat="46.71573969734198" lon="4.665021378137027"><ele>388.6</ele><time>2026-04-10T14:15:55Z</time></trkpt><trkpt lat="46.715636571649576" lon="4.66500123619055"><ele>387.4</ele><time>2026-04-10T14:15:56Z</time></trkpt><trkpt lat="46.71554577385049" lon="4.664984057810451"><ele>386.2</ele><time>2026-04-10T14:15:57Z</time></trkpt><trkpt lat="46.71546643880076" lon="4.664977739628747"><ele>385.0</ele><time>2026-04-10T14:15:58Z</time></trkpt><trkpt lat="46.71538297804511" lon="4.66497389485845"><ele>385.0</ele><time>2026-04-10T14:15:59Z</time></trkpt><trkpt lat="46.71526591473027" lon="4.6649786464801775"><ele>385.0</ele><time>2026-04-10T14:16:01Z</time></trkpt><trkpt lat="46.71519636044256" lon="4.664984581624793"><ele>385.0</ele><time>2026-04-10T14:16:03Z</time></trkpt><trkpt lat="46.715126894020905" lon="4.664844610141976"><ele>385.0</ele><time>2026-04-10T14:16:06Z</time></trkpt><trkpt lat="46.71509069352737" lon="4.664754198562065"><ele>385.0</ele><time>2026-04-10T14:16:07Z</time></trkpt><trkpt lat="46.715051742591015" lon="4.6646562945007375"><ele>383.75</ele><time>2026-04-10T14:16:08Z</time></trkpt><trkpt lat="46.71500770364137" lon="4.664544497350384"><ele>382.5</ele><time>2026-04-10T14:16:09Z</time></trkpt><trkpt lat="46.714960314923665" lon="4.664424196130137"><ele>381.25</ele><time>2026-04-10T14:16:10Z</time></trkpt><trkpt lat="46.71489416352409" lon="4.664256264294316"><ele>380.0</ele><time>2026-04-10T14:16:11Z</time></trkpt><trkpt lat="46.71480398904108" lon="4.664057445464498"><ele>379.33333333333337</ele><time>2026-04-10T14:16:12Z</time></trkpt><trkpt lat="46.714710233266004" lon="4.663861617261797"><ele>378.6666666666667</ele><time>2026-04-10T14:16:13Z</time></trkpt><trkpt lat="46.71461810772269" lon="4.66368096639191"><ele>378.0</ele><time>2026-04-10T14:16:14Z</time></trkpt><trkpt lat="46.71452232260746" lon="4.663493980506086"><ele>378.5</ele><time>2026-04-10T14:16:15Z</time></trkpt><trkpt lat="46.71440729314689" lon="4.663281545749152"><ele>379.0</ele><time>2026-04-10T14:16:16Z</time></trkpt><trkpt lat="46.71365652296333" lon="4.663567001609582"><ele>384.0</ele><time>2026-04-10T14:16:17Z</time></trkpt><trkpt lat="46.71343613082342" lon="4.663369689604803"><ele>389.0</ele><time>2026-04-10T14:16:18Z</time></trkpt><trkpt lat="46.7135012383804" lon="4.663431149349118"><ele>394.0</ele><time>2026-04-10T14:16:19Z</time></trkpt><trkpt lat="46.713370565607406" lon="4.663324391343908"><ele>394.0</ele><time>2026-04-10T14:16:20Z</time></trkpt><trkpt lat="46.71324293130093" lon="4.663216525543015"><ele>394.0</ele><time>2026-04-10T14:16:21Z</time></trkpt><trkpt lat="46.713129701099405" lon="4.663112932051389"><ele>394.0</ele><time>2026-04-10T14:16:22Z</time></trkpt><trkpt lat="46.71300663064589" lon="4.66298966417493"><ele>394.0</ele><time>2026-04-10T14:16:23Z</time></trkpt><trkpt lat="46.71287402032193" lon="4.662850490286297"><ele>393.25</ele><time>2026-04-10T14:16:24Z</time></trkpt><trkpt lat="46.71274970270048" lon="4.662736237691297"><ele>392.5</ele><time>2026-04-10T14:16:25Z</time></trkpt><trkpt lat="46.712643794711354" lon="4.662643249559375"><ele>391.75</ele><time>2026-04-10T14:16:26Z</time></trkpt><trkpt lat="46.712540655223904" lon="4.6625363382266185"><ele>391.0</ele><time>2026-04-10T14:16:27Z</time></trkpt><trkpt lat="46.71244027356225" lon="4.662412978283008"><ele>392.8</ele><time>2026-04-10T14:16:28Z</time></trkpt><trkpt lat="46.712354401362404" lon="4.662326823662572"><ele>394.6</ele><time>2026-04-10T14:16:29Z</time></trkpt><trkpt lat="46.712282776916865" lon="4.662252924259655"><ele>396.4</ele><time>2026-04-10T14:16:30Z</time></trkpt><trkpt lat="46.712218023827255" lon="4.662207676720147"><ele>398.2</ele><time>2026-04-10T14:16:31Z</time></trkpt><trkpt lat="46.712072701522445" lon="4.662211347410252"><ele>400.0</ele><time>2026-04-10T14:16:33Z</time></trkpt><trkpt lat="46.7119698594034" lon="4.662248791230531"><ele>401.5</ele><time>2026-04-10T14:16:34Z</time></trkpt><trkpt lat="46.71185641717184" lon="4.6622942538304395"><ele>403.0</ele><time>2026-04-10T14:16:35Z</time></trkpt><trkpt lat="46.71175738433788" lon="4.662358168764646"><ele>404.5</ele><time>2026-04-10T14:16:36Z</time></trkpt><trkpt lat="46.7116524649829" lon="4.662462091199062"><ele>406.0</ele><time>2026-04-10T14:16:37Z</time></trkpt><trkpt lat="46.711527262015494" lon="4.662585729706222"><ele>406.0</ele><time>2026-04-10T14:16:38Z</time></trkpt><trkpt lat="46.71139948041963" lon="4.662683055225248"><ele>406.0</ele><time>2026-04-10T14:16:39Z</time></trkpt><trkpt lat="46.711289651845576" lon="4.662755686286522"><ele>406.0</ele><time>2026-04-10T14:16:40Z</time></trkpt><trkpt lat="46.71116950421029" lon="4.6628192818164775"><ele>406.0</ele><time>2026-04-10T14:16:41Z</time></trkpt><trkpt lat="46.71106087541413" lon="4.66286262456154"><ele>407.0</ele><time>2026-04-10T14:16:42Z</time></trkpt><trkpt lat="46.710963681350954" lon="4.662909016862768"><ele>408.0</ele><time>2026-04-10T14:16:43Z</time></trkpt><trkpt lat="46.71087815542238" lon="4.662960756658647"><ele>409.0</ele><time>2026-04-10T14:16:44Z</time></trkpt><trkpt lat="46.71080135039503" lon="4.662995107374073"><ele>410.0</ele><time>2026-04-10T14:16:45Z</time></trkpt><trkpt lat="46.710706392385354" lon="4.663005265857439"><ele>411.0</ele><time>2026-04-10T14:16:46Z</time></trkpt><trkpt lat="46.71059246130955" lon="4.662990343998881"><ele>411.0</ele><time>2026-04-10T14:16:47Z</time></trkpt><trkpt lat="46.710489020316565" lon="4.662988229484026"><ele>411.0</ele><time>2026-04-10T14:16:48Z</time></trkpt><trkpt lat="46.710368918752785" lon="4.663008362888101"><ele>411.0</ele><time>2026-04-10T14:16:49Z</time></trkpt><trkpt lat="46.71023216196764" lon="4.66300215412574"><ele>411.0</ele><time>2026-04-10T14:16:50Z</time></trkpt><trkpt lat="46.71010489653039" lon="4.662974649139013"><ele>411.0</ele><time>2026-04-10T14:16:51Z</time></trkpt><trkpt lat="46.70997557812133" lon="4.66295323737834"><ele>411.0</ele><time>2026-04-10T14:16:52Z</time></trkpt><trkpt lat="46.70985470754122" lon="4.662959121794714"><ele>411.0</ele><time>2026-04-10T14:16:53Z</time></trkpt><trkpt lat="46.70973127956593" lon="4.662960590453462"><ele>411.0</ele><time>2026-04-10T14:16:54Z</time></trkpt><trkpt lat="46.70961274423574" lon="4.662941543668257"><ele>411.0</ele><time>2026-04-10T14:16:55Z</time></trkpt><trkpt lat="46.70949492936456" lon="4.662927254607452"><ele>411.0</ele><time>2026-04-10T14:16:56Z</time></trkpt><trkpt lat="46.709380513824954" lon="4.662921875727001"><ele>411.0</ele><time>2026-04-10T14:16:57Z</time></trkpt><trkpt lat="46.70927168963719" lon="4.662920485077524"><ele>411.0</ele><time>2026-04-10T14:16:58Z</time></trkpt><trkpt lat="46.709159458981624" lon="4.662906986211654"><ele>409.75</ele><time>2026-04-10T14:16:59Z</time></trkpt><trkpt lat="46.709043342401905" lon="4.662870545203874"><ele>408.5</ele><time>2026-04-10T14:17:00Z</time></trkpt><trkpt lat="46.70893647943348" lon="4.6628186939159075"><ele>407.25</ele><time>2026-04-10T14:17:01Z</time></trkpt><trkpt lat="46.70880729461243" lon="4.662766660289274"><ele>406.0</ele><time>2026-04-10T14:17:02Z</time></trkpt><trkpt lat="46.70867083327673" lon="4.662737031217462"><ele>405.0</ele><time>2026-04-10T14:17:03Z</time></trkpt><trkpt lat="46.70855170292606" lon="4.662717343162099"><ele>404.0</ele><time>2026-04-10T14:17:04Z</time></trkpt><trkpt lat="46.70844579161868" lon="4.662697206310798"><ele>403.0</ele><time>2026-04-10T14:17:05Z</time></trkpt><trkpt lat="46.70833419263991" lon="4.662673629299483"><ele>402.0</ele><time>2026-04-10T14:17:06Z</time></trkpt><trkpt lat="46.70821810256917" lon="4.6626409779258156"><ele>402.0</ele><time>2026-04-10T14:17:07Z</time></trkpt><trkpt lat="46.708107115099686" lon="4.662586885208824"><ele>402.0</ele><time>2026-04-10T14:17:08Z</time></trkpt><trkpt lat="46.7079957296889" lon="4.6625225881571"><ele>402.0</ele><time>2026-04-10T14:17:09Z</time></trkpt><trkpt lat="46.70787332408134" lon="4.6624729041887605"><ele>402.0</ele><time>2026-04-10T14:17:10Z</time></trkpt><trkpt lat="46.70773588429515" lon="4.662439845717584"><ele>400.25</ele><time>2026-04-10T14:17:11Z</time></trkpt><trkpt lat="46.70759889564703" lon="4.662421522774544"><ele>398.5</ele><time>2026-04-10T14:17:12Z</time></trkpt><trkpt lat="46.70748449877811" lon="4.662414868555152"><ele>396.75</ele><time>2026-04-10T14:17:13Z</time></trkpt><trkpt lat="46.70737592971978" lon="4.662404079164246"><ele>395.0</ele><time>2026-04-10T14:17:14Z</time></trkpt><trkpt lat="46.70727424751657" lon="4.662398159197347"><ele>395.0</ele><time>2026-04-10T14:17:15Z</time></trkpt><trkpt lat="46.7071774611896" lon="4.6623879552904866"><ele>395.0</ele><time>2026-04-10T14:17:16Z</time></trkpt><trkpt lat="46.707081714528755" lon="4.662375630204243"><ele>395.0</ele><time>2026-04-10T14:17:17Z</time></trkpt><trkpt lat="46.707001058164984" lon="4.662364954357625"><ele>395.0</ele><time>2026-04-10T14:17:18Z</time></trkpt><trkpt lat="46.70691417634806" lon="4.662348882875276"><ele>395.0</ele><time>2026-04-10T14:17:19Z</time></trkpt><trkpt lat="46.70682679167099" lon="4.6623283303278695"><ele>393.25</ele><time>2026-04-10T14:17:20Z</time></trkpt><trkpt lat="46.70673106282403" lon="4.6622956519013545"><ele>391.5</ele><time>2026-04-10T14:17:21Z</time></trkpt><trkpt lat="46.70662322807199" lon="4.662247199726695"><ele>389.75</ele><time>2026-04-10T14:17:22Z</time></trkpt><trkpt lat="46.706492706738935" lon="4.662176520714284"><ele>388.0</ele><time>2026-04-10T14:17:23Z</time></trkpt><trkpt lat="46.70634551838829" lon="4.662106333097675"><ele>388.0</ele><time>2026-04-10T14:17:24Z</time></trkpt><trkpt lat="46.70620560633513" lon="4.662024022243989"><ele>388.0</ele><time>2026-04-10T14:17:25Z</time></trkpt><trkpt lat="46.706072541927426" lon="4.661924849787102"><ele>388.0</ele><time>2026-04-10T14:17:26Z</time></trkpt><trkpt lat="46.70593027552114" lon="4.661808797092778"><ele>386.5</ele><time>2026-04-10T14:17:27Z</time></trkpt><trkpt lat="46.70580016472293" lon="4.661701982818486"><ele>385.0</ele><time>2026-04-10T14:17:28Z</time></trkpt><trkpt lat="46.705688199918264" lon="4.661595895514276"><ele>383.5</ele><time>2026-04-10T14:17:29Z</time></trkpt><trkpt lat="46.70560126283156" lon="4.661518113877967"><ele>382.0</ele><time>2026-04-10T14:17:30Z</time></trkpt><trkpt lat="46.705525735011875" lon="4.661448938146526"><ele>382.0</ele><time>2026-04-10T14:17:31Z</time></trkpt><trkpt lat="46.705461186850584" lon="4.6613808929193805"><ele>382.0</ele><time>2026-04-10T14:17:32Z</time></trkpt><trkpt lat="46.70540880690833" lon="4.661294504651481"><ele>382.0</ele><time>2026-04-10T14:17:33Z</time></trkpt><trkpt lat="46.705359547850215" lon="4.661184795221046"><ele>382.0</ele><time>2026-04-10T14:17:34Z</time></trkpt><trkpt lat="46.70531390584015" lon="4.661076573468829"><ele>382.0</ele><time>2026-04-10T14:17:35Z</time></trkpt><trkpt lat="46.705258283287414" lon="4.660984706108335"><ele>382.0</ele><time>2026-04-10T14:17:36Z</time></trkpt><trkpt lat="46.7051983266341" lon="4.660911434665871"><ele>381.0</ele><time>2026-04-10T14:17:37Z</time></trkpt><trkpt lat="46.70509273420594" lon="4.660884329826955"><ele>380.0</ele><time>2026-04-10T14:17:39Z</time></trkpt><trkpt lat="46.705029050094936" lon="4.660975574312246"><ele>379.0</ele><time>2026-04-10T14:17:41Z</time></trkpt><trkpt lat="46.70499518649975" lon="4.661090118724594"><ele>378.0</ele><time>2026-04-10T14:17:42Z</time></trkpt><trkpt lat="46.70495439957391" lon="4.661260579259633"><ele>377.0</ele><time>2026-04-10T14:17:43Z</time></trkpt><trkpt lat="46.70490969616455" lon="4.661497220734408"><ele>377.0</ele><time>2026-04-10T14:17:43.999Z</time></trkpt><trkpt lat="46.70486955291052" lon="4.661783499178557"><ele>377.0</ele><time>2026-04-10T14:17:44.999Z</time></trkpt><trkpt lat="46.70483278824299" lon="4.66205221987987"><ele>377.0</ele><time>2026-04-10T14:17:45.999Z</time></trkpt><trkpt lat="46.704809799605826" lon="4.6622558015021545"><ele>376.75</ele><time>2026-04-10T14:17:46.999Z</time></trkpt><trkpt lat="46.70479980793637" lon="4.662436489344911"><ele>376.5</ele><time>2026-04-10T14:17:47.999Z</time></trkpt><trkpt lat="46.70480521464801" lon="4.662613526012171"><ele>376.25</ele><time>2026-04-10T14:17:48.999Z</time></trkpt><trkpt lat="46.70481530289878" lon="4.662784541929938"><ele>376.0</ele><time>2026-04-10T14:17:49.999Z</time></trkpt><trkpt lat="46.704815792310534" lon="4.66291140622405"><ele>375.66666666666663</ele><time>2026-04-10T14:17:50.999Z</time></trkpt><trkpt lat="46.70480247977401" lon="4.663023988758295"><ele>375.3333333333333</ele><time>2026-04-10T14:17:51.999Z</time></trkpt><trkpt lat="46.70479115329508" lon="4.663167062996763"><ele>375.0</ele><time>2026-04-10T14:17:53.999Z</time></trkpt><trkpt lat="46.70478158824094" lon="4.6632748796767025"><ele>374.6666666666667</ele><time>2026-04-10T14:17:55.999Z</time></trkpt><trkpt lat="46.704785874795476" lon="4.663381263822488"><ele>374.33333333333337</ele><time>2026-04-10T14:17:56.999Z</time></trkpt><trkpt lat="46.704760178773306" lon="4.663527899091707"><ele>374.0</ele><time>2026-04-10T14:17:57.999Z</time></trkpt><trkpt lat="46.70471947882203" lon="4.663684603928671"><ele>374.0</ele><time>2026-04-10T14:17:59Z</time></trkpt><trkpt lat="46.7046622216484" lon="4.663860715799176"><ele>374.0</ele><time>2026-04-10T14:18:00Z</time></trkpt><trkpt lat="46.70460324069535" lon="4.664045887887615"><ele>374.0</ele><time>2026-04-10T14:18:01Z</time></trkpt><trkpt lat="46.70454390179722" lon="4.66423713451756"><ele>374.0</ele><time>2026-04-10T14:18:02Z</time></trkpt><trkpt lat="46.704509436762" lon="4.664410174994127"><ele>374.0</ele><time>2026-04-10T14:18:03Z</time></trkpt><trkpt lat="46.70450715586555" lon="4.664545973912366"><ele>374.0</ele><time>2026-04-10T14:18:04Z</time></trkpt><trkpt lat="46.70450609106009" lon="4.664696228317355"><ele>374.0</ele><time>2026-04-10T14:18:05Z</time></trkpt><trkpt lat="46.70453386667394" lon="4.664851824974939"><ele>374.0</ele><time>2026-04-10T14:18:06Z</time></trkpt><trkpt lat="46.70459786436268" lon="4.665057596925486"><ele>373.33333333333337</ele><time>2026-04-10T14:18:07Z</time></trkpt><trkpt lat="46.70466763248159" lon="4.665284125376591"><ele>372.6666666666667</ele><time>2026-04-10T14:18:08Z</time></trkpt><trkpt lat="46.70470743771285" lon="4.6655122214222695"><ele>372.0</ele><time>2026-04-10T14:18:09Z</time></trkpt><trkpt lat="46.7047343741344" lon="4.6656975713578674"><ele>372.0</ele><time>2026-04-10T14:18:10Z</time></trkpt><trkpt lat="46.70475083555228" lon="4.665855172783961"><ele>372.0</ele><time>2026-04-10T14:18:11Z</time></trkpt><trkpt lat="46.70475475189803" lon="4.665997605062137"><ele>372.0</ele><time>2026-04-10T14:18:12Z</time></trkpt><trkpt lat="46.70475251925484" lon="4.666141250228923"><ele>372.0</ele><time>2026-04-10T14:18:13Z</time></trkpt><trkpt lat="46.704738485320625" lon="4.666289336572943"><ele>372.0</ele><time>2026-04-10T14:18:14Z</time></trkpt><trkpt lat="46.704697242506285" lon="4.666452916069799"><ele>370.25</ele><time>2026-04-10T14:18:15Z</time></trkpt><trkpt lat="46.70463344250931" lon="4.666615693939472"><ele>368.5</ele><time>2026-04-10T14:18:16Z</time></trkpt><trkpt lat="46.70457011409982" lon="4.6667686826678025"><ele>366.75</ele><time>2026-04-10T14:18:17Z</time></trkpt><trkpt lat="46.70453182143546" lon="4.666913736824295"><ele>365.0</ele><time>2026-04-10T14:18:18Z</time></trkpt><trkpt lat="46.70450511340126" lon="4.667049994526084"><ele>365.0</ele><time>2026-04-10T14:18:19Z</time></trkpt><trkpt lat="46.704476119690895" lon="4.667184043474"><ele>365.0</ele><time>2026-04-10T14:18:20Z</time></trkpt><trkpt lat="46.70443509186274" lon="4.667326647319076"><ele>365.0</ele><time>2026-04-10T14:18:21Z</time></trkpt><trkpt lat="46.70439073139675" lon="4.66747150302407"><ele>365.0</ele><time>2026-04-10T14:18:22Z</time></trkpt><trkpt lat="46.704329210409135" lon="4.667616812171077"><ele>365.0</ele><time>2026-04-10T14:18:23Z</time></trkpt><trkpt lat="46.704270108916106" lon="4.6677342892534215"><ele>366.8</ele><time>2026-04-10T14:18:24Z</time></trkpt><trkpt lat="46.70420311453423" lon="4.667828013179832"><ele>368.6</ele><time>2026-04-10T14:18:25Z</time></trkpt><trkpt lat="46.70413477128148" lon="4.667909820701071"><ele>370.4</ele><time>2026-04-10T14:18:26Z</time></trkpt><trkpt lat="46.7040476494083" lon="4.667962401481213"><ele>372.2</ele><time>2026-04-10T14:18:27Z</time></trkpt><trkpt lat="46.70396880350841" lon="4.668035841885753"><ele>374.0</ele><time>2026-04-10T14:18:28Z</time></trkpt><trkpt lat="46.70387048075429" lon="4.668050049228477"><ele>374.0</ele><time>2026-04-10T14:18:29Z</time></trkpt><trkpt lat="46.70377204273063" lon="4.668073383913382"><ele>374.0</ele><time>2026-04-10T14:18:30Z</time></trkpt><trkpt lat="46.703670498440104" lon="4.668100797022708"><ele>374.0</ele><time>2026-04-10T14:18:31Z</time></trkpt><trkpt lat="46.703565086091245" lon="4.6681153514789155"><ele>374.0</ele><time>2026-04-10T14:18:32Z</time></trkpt><trkpt lat="46.7034638425189" lon="4.668201589346037"><ele>374.0</ele><time>2026-04-10T14:18:33Z</time></trkpt><trkpt lat="46.703350751847964" lon="4.668330157067983"><ele>375.6666666666667</ele><time>2026-04-10T14:18:34Z</time></trkpt><trkpt lat="46.703222336730406" lon="4.668474791284426"><ele>377.3333333333333</ele><time>2026-04-10T14:18:35Z</time></trkpt><trkpt lat="46.703083284995415" lon="4.6686244341447445"><ele>379.0</ele><time>2026-04-10T14:18:36Z</time></trkpt><trkpt lat="46.70295432757622" lon="4.6687625486305135"><ele>379.0</ele><time>2026-04-10T14:18:37Z</time></trkpt><trkpt lat="46.70283963991595" lon="4.6688923441958625"><ele>379.0</ele><time>2026-04-10T14:18:38Z</time></trkpt><trkpt lat="46.702719771902736" lon="4.669003331075878"><ele>379.0</ele><time>2026-04-10T14:18:39Z</time></trkpt><trkpt lat="46.702604596841674" lon="4.66909724733736"><ele>379.0</ele><time>2026-04-10T14:18:40Z</time></trkpt><trkpt lat="46.702484134762415" lon="4.669210816523772"><ele>380.25</ele><time>2026-04-10T14:18:41Z</time></trkpt><trkpt lat="46.70238805553482" lon="4.669339006197134"><ele>381.5</ele><time>2026-04-10T14:18:42Z</time></trkpt><trkpt lat="46.70229977416306" lon="4.669458005428142"><ele>382.75</ele><time>2026-04-10T14:18:43Z</time></trkpt><trkpt lat="46.70222177025715" lon="4.669551864560741"><ele>384.0</ele><time>2026-04-10T14:18:44Z</time></trkpt><trkpt lat="46.70214189406748" lon="4.669651798330916"><ele>384.0</ele><time>2026-04-10T14:18:45Z</time></trkpt><trkpt lat="46.70206059138626" lon="4.669749934139193"><ele>384.0</ele><time>2026-04-10T14:18:46Z</time></trkpt><trkpt lat="46.70199451511559" lon="4.669824519413538"><ele>384.0</ele><time>2026-04-10T14:18:47Z</time></trkpt><trkpt lat="46.70192486163624" lon="4.669890759737868"><ele>384.0</ele><time>2026-04-10T14:18:48Z</time></trkpt><trkpt lat="46.70184573243436" lon="4.669886360716494"><ele>384.0</ele><time>2026-04-10T14:18:49Z</time></trkpt><trkpt lat="46.70174632802359" lon="4.669905776576333"><ele>385.75</ele><time>2026-04-10T14:18:50Z</time></trkpt><trkpt lat="46.701648679592914" lon="4.669922506009348"><ele>387.5</ele><time>2026-04-10T14:18:51Z</time></trkpt><trkpt lat="46.701531852805275" lon="4.669943384039872"><ele>389.25</ele><time>2026-04-10T14:18:52Z</time></trkpt><trkpt lat="46.7013966268124" lon="4.669986209736184"><ele>391.0</ele><time>2026-04-10T14:18:53Z</time></trkpt><trkpt lat="46.7012663406784" lon="4.670022306942154"><ele>391.0</ele><time>2026-04-10T14:18:54Z</time></trkpt><trkpt lat="46.701163886724764" lon="4.670064645608851"><ele>391.0</ele><time>2026-04-10T14:18:55Z</time></trkpt><trkpt lat="46.70106883336909" lon="4.670075683549404"><ele>391.0</ele><time>2026-04-10T14:18:56Z</time></trkpt><trkpt lat="46.7009798376277" lon="4.670093112506563"><ele>391.0</ele><time>2026-04-10T14:18:57Z</time></trkpt><trkpt lat="46.70091649279637" lon="4.670104259090283"><ele>391.0</ele><time>2026-04-10T14:18:58Z</time></trkpt><trkpt lat="46.70080554122629" lon="4.670083785247724"><ele>390.75</ele><time>2026-04-10T14:19:00Z</time></trkpt><trkpt lat="46.70067966776598" lon="4.670144802280377"><ele>390.5</ele><time>2026-04-10T14:19:02Z</time></trkpt><trkpt lat="46.70058780136837" lon="4.670195108902213"><ele>390.25</ele><time>2026-04-10T14:19:03Z</time></trkpt><trkpt lat="46.70046068909365" lon="4.67023442337861"><ele>390.0</ele><time>2026-04-10T14:19:04Z</time></trkpt><trkpt lat="46.70033252748012" lon="4.670323110619923"><ele>390.75</ele><time>2026-04-10T14:19:05Z</time></trkpt><trkpt lat="46.70018544372452" lon="4.6704273428489556"><ele>391.5</ele><time>2026-04-10T14:19:06Z</time></trkpt><trkpt lat="46.700062291967825" lon="4.6705106859396235"><ele>392.25</ele><time>2026-04-10T14:19:07Z</time></trkpt><trkpt lat="46.69995050443671" lon="4.670547706041476"><ele>393.0</ele><time>2026-04-10T14:19:08Z</time></trkpt><trkpt lat="46.69985305282633" lon="4.6705872636297485"><ele>393.0</ele><time>2026-04-10T14:19:09Z</time></trkpt><trkpt lat="46.699740865629" lon="4.67063064918297"><ele>393.0</ele><time>2026-04-10T14:19:10Z</time></trkpt><trkpt lat="46.699642296489586" lon="4.670692606920507"><ele>393.0</ele><time>2026-04-10T14:19:11Z</time></trkpt><trkpt lat="46.69954690072482" lon="4.6707142355149545"><ele>393.0</ele><time>2026-04-10T14:19:12Z</time></trkpt><trkpt lat="46.69947047629246" lon="4.670754552451373"><ele>393.0</ele><time>2026-04-10T14:19:13Z</time></trkpt><trkpt lat="46.69939319947461" lon="4.670769848997922"><ele>392.79999999999995</ele><time>2026-04-10T14:19:14Z</time></trkpt><trkpt lat="46.69930322350068" lon="4.670804785580673"><ele>392.6</ele><time>2026-04-10T14:19:16Z</time></trkpt><trkpt lat="46.69919612273982" lon="4.670823837876172"><ele>392.4</ele><time>2026-04-10T14:19:18Z</time></trkpt><trkpt lat="46.69906064073885" lon="4.670740768856779"><ele>392.20000000000005</ele><time>2026-04-10T14:19:20Z</time></trkpt><trkpt lat="46.69898471769635" lon="4.670685617544668"><ele>392.0</ele><time>2026-04-10T14:19:21Z</time></trkpt><trkpt lat="46.69889339597376" lon="4.6706106770575655"><ele>392.0</ele><time>2026-04-10T14:19:22Z</time></trkpt><trkpt lat="46.69878418317702" lon="4.670489479957123"><ele>392.0</ele><time>2026-04-10T14:19:23Z</time></trkpt><trkpt lat="46.698658541289625" lon="4.670370675925288"><ele>392.0</ele><time>2026-04-10T14:19:24Z</time></trkpt><trkpt lat="46.698556902259" lon="4.670259648880474"><ele>392.0</ele><time>2026-04-10T14:19:25Z</time></trkpt><trkpt lat="46.698473679632954" lon="4.670152067624125"><ele>393.5</ele><time>2026-04-10T14:19:26Z</time></trkpt><trkpt lat="46.6983918912874" lon="4.670024710373637"><ele>395.0</ele><time>2026-04-10T14:19:27Z</time></trkpt><trkpt lat="46.69832505775541" lon="4.669873122198741"><ele>396.5</ele><time>2026-04-10T14:19:28Z</time></trkpt><trkpt lat="46.69826115991598" lon="4.669682863259382"><ele>398.0</ele><time>2026-04-10T14:19:29Z</time></trkpt><trkpt lat="46.69816486137173" lon="4.669450060157156"><ele>398.25</ele><time>2026-04-10T14:19:30Z</time></trkpt><trkpt lat="46.69805030508607" lon="4.6692461152951195"><ele>398.5</ele><time>2026-04-10T14:19:31Z</time></trkpt><trkpt lat="46.69796095057454" lon="4.669092421054555"><ele>398.75</ele><time>2026-04-10T14:19:32Z</time></trkpt><trkpt lat="46.697874723662835" lon="4.668954381086171"><ele>399.0</ele><time>2026-04-10T14:19:33Z</time></trkpt><trkpt lat="46.69778503938353" lon="4.668839210137561"><ele>400.0</ele><time>2026-04-10T14:19:34Z</time></trkpt><trkpt lat="46.69769493823821" lon="4.66875088723186"><ele>401.0</ele><time>2026-04-10T14:19:35Z</time></trkpt><trkpt lat="46.69758454580291" lon="4.668667576362296"><ele>402.0</ele><time>2026-04-10T14:19:36Z</time></trkpt><trkpt lat="46.69745779393124" lon="4.668597065893248"><ele>403.0</ele><time>2026-04-10T14:19:37Z</time></trkpt><trkpt lat="46.69729045699788" lon="4.668514632076268"><ele>403.0</ele><time>2026-04-10T14:19:37.999Z</time></trkpt><trkpt lat="46.697109609175484" lon="4.668413699697086"><ele>403.0</ele><time>2026-04-10T14:19:38.999Z</time></trkpt><trkpt lat="46.696960479479195" lon="4.668362090801352"><ele>403.0</ele><time>2026-04-10T14:19:39.999Z</time></trkpt><trkpt lat="46.69680840671104" lon="4.66828724115669"><ele>404.0</ele><time>2026-04-10T14:19:40.999Z</time></trkpt><trkpt lat="46.69666834363426" lon="4.668201110808835"><ele>405.0</ele><time>2026-04-10T14:19:41.999Z</time></trkpt><trkpt lat="46.696532095002645" lon="4.6681278607947165"><ele>406.0</ele><time>2026-04-10T14:19:42.999Z</time></trkpt><trkpt lat="46.69638128512177" lon="4.668023885048223"><ele>406.0</ele><time>2026-04-10T14:19:43.999Z</time></trkpt><trkpt lat="46.696216276671755" lon="4.667922796181396"><ele>406.0</ele><time>2026-04-10T14:19:44.999Z</time></trkpt><trkpt lat="46.69605407513118" lon="4.667844881241242"><ele>406.0</ele><time>2026-04-10T14:19:45.999Z</time></trkpt><trkpt lat="46.69592007359619" lon="4.6677709019392415"><ele>405.5</ele><time>2026-04-10T14:19:46.999Z</time></trkpt><trkpt lat="46.6957875828372" lon="4.667692123654263"><ele>405.0</ele><time>2026-04-10T14:19:47.999Z</time></trkpt><trkpt lat="46.69564728978542" lon="4.667626578171281"><ele>404.5</ele><time>2026-04-10T14:19:48.999Z</time></trkpt><trkpt lat="46.69550595440101" lon="4.667521267568544"><ele>404.0</ele><time>2026-04-10T14:19:49.999Z</time></trkpt><trkpt lat="46.69537198317028" lon="4.6674316349171665"><ele>403.5</ele><time>2026-04-10T14:19:50.999Z</time></trkpt><trkpt lat="46.69524747638366" lon="4.66734425690828"><ele>403.0</ele><time>2026-04-10T14:19:51.999Z</time></trkpt><trkpt lat="46.69511691564677" lon="4.667281384577813"><ele>402.5</ele><time>2026-04-10T14:19:52.999Z</time></trkpt><trkpt lat="46.69498659373457" lon="4.667219277035425"><ele>402.0</ele><time>2026-04-10T14:19:53.999Z</time></trkpt><trkpt lat="46.694881655625856" lon="4.66713232382406"><ele>402.0</ele><time>2026-04-10T14:19:54.999Z</time></trkpt><trkpt lat="46.694781396426556" lon="4.667048378058851"><ele>402.0</ele><time>2026-04-10T14:19:55.999Z</time></trkpt><trkpt lat="46.69465996796" lon="4.666968853905076"><ele>402.0</ele><time>2026-04-10T14:19:56.999Z</time></trkpt><trkpt lat="46.69454496298193" lon="4.666827793691245"><ele>402.0</ele><time>2026-04-10T14:19:57.999Z</time></trkpt><trkpt lat="46.694425494335064" lon="4.666688187454455"><ele>400.66666666666663</ele><time>2026-04-10T14:19:58.999Z</time></trkpt><trkpt lat="46.694292038428415" lon="4.666545187305942"><ele>399.3333333333333</ele><time>2026-04-10T14:19:59.999Z</time></trkpt><trkpt lat="46.69414139865034" lon="4.666388345543506"><ele>398.0</ele><time>2026-04-10T14:20:00.999Z</time></trkpt><trkpt lat="46.69398997369324" lon="4.666236341540128"><ele>398.0</ele><time>2026-04-10T14:20:01.999Z</time></trkpt><trkpt lat="46.69385728278318" lon="4.666112993411845"><ele>398.0</ele><time>2026-04-10T14:20:02.999Z</time></trkpt><trkpt lat="46.69373266358455" lon="4.666012450679047"><ele>398.0</ele><time>2026-04-10T14:20:03.999Z</time></trkpt><trkpt lat="46.69360359106143" lon="4.665947956450576"><ele>398.0</ele><time>2026-04-10T14:20:05Z</time></trkpt><trkpt lat="46.69348037263132" lon="4.665874228151149"><ele>398.59999999999997</ele><time>2026-04-10T14:20:06Z</time></trkpt><trkpt lat="46.6933795328603" lon="4.665820698795497"><ele>399.2</ele><time>2026-04-10T14:20:07Z</time></trkpt><trkpt lat="46.69328637095634" lon="4.665789889605004"><ele>399.8</ele><time>2026-04-10T14:20:08Z</time></trkpt><trkpt lat="46.69320124378784" lon="4.665753524180828"><ele>400.4</ele><time>2026-04-10T14:20:09Z</time></trkpt><trkpt lat="46.693098559897116" lon="4.6657239592042865"><ele>401.0</ele><time>2026-04-10T14:20:10Z</time></trkpt><trkpt lat="46.692958825678836" lon="4.665708025264521"><ele>401.0</ele><time>2026-04-10T14:20:11Z</time></trkpt><trkpt lat="46.6928420770857" lon="4.665724456754875"><ele>401.0</ele><time>2026-04-10T14:20:12Z</time></trkpt><trkpt lat="46.69267347633747" lon="4.66572188428062"><ele>401.0</ele><time>2026-04-10T14:20:13Z</time></trkpt><trkpt lat="46.69253143980363" lon="4.665751617887853"><ele>401.0</ele><time>2026-04-10T14:20:14Z</time></trkpt><trkpt lat="46.692404621384036" lon="4.665749389242936"><ele>401.0</ele><time>2026-04-10T14:20:15Z</time></trkpt><trkpt lat="46.69229082941287" lon="4.665698168174984"><ele>401.0</ele><time>2026-04-10T14:20:16Z</time></trkpt><trkpt lat="46.692166715775386" lon="4.665661942028009"><ele>401.0</ele><time>2026-04-10T14:20:17Z</time></trkpt><trkpt lat="46.69204105411159" lon="4.6656458184362135"><ele>401.0</ele><time>2026-04-10T14:20:18Z</time></trkpt><trkpt lat="46.69190139232304" lon="4.665599321302461"><ele>401.0</ele><time>2026-04-10T14:20:19Z</time></trkpt><trkpt lat="46.691765012038886" lon="4.665550044733084"><ele>401.0</ele><time>2026-04-10T14:20:20Z</time></trkpt><trkpt lat="46.69162944410487" lon="4.665505256690913"><ele>401.0</ele><time>2026-04-10T14:20:21Z</time></trkpt><trkpt lat="46.69151522710028" lon="4.665485912067114"><ele>401.0</ele><time>2026-04-10T14:20:22Z</time></trkpt><trkpt lat="46.69140704137575" lon="4.665438661948627"><ele>401.0</ele><time>2026-04-10T14:20:23Z</time></trkpt><trkpt lat="46.69131514559844" lon="4.665393818088574"><ele>401.0</ele><time>2026-04-10T14:20:24Z</time></trkpt><trkpt lat="46.69123166322968" lon="4.665328560116343"><ele>401.0</ele><time>2026-04-10T14:20:25Z</time></trkpt><trkpt lat="46.69113699460926" lon="4.665237061042035"><ele>401.0</ele><time>2026-04-10T14:20:26Z</time></trkpt><trkpt lat="46.69104184252401" lon="4.665169055464884"><ele>401.0</ele><time>2026-04-10T14:20:27Z</time></trkpt><trkpt lat="46.69094222175941" lon="4.665088871950608"><ele>400.0</ele><time>2026-04-10T14:20:28Z</time></trkpt><trkpt lat="46.69084594107621" lon="4.664965962804586"><ele>399.0</ele><time>2026-04-10T14:20:29Z</time></trkpt><trkpt lat="46.690749259344734" lon="4.664853596616469"><ele>398.0</ele><time>2026-04-10T14:20:30Z</time></trkpt><trkpt lat="46.69065255106349" lon="4.664739281809265"><ele>397.0</ele><time>2026-04-10T14:20:31Z</time></trkpt><trkpt lat="46.69055643827702" lon="4.664625670914563"><ele>397.0</ele><time>2026-04-10T14:20:32Z</time></trkpt><trkpt lat="46.69045305464545" lon="4.664503465451765"><ele>397.0</ele><time>2026-04-10T14:20:33Z</time></trkpt><trkpt lat="46.690351589626715" lon="4.664415126921982"><ele>397.0</ele><time>2026-04-10T14:20:34Z</time></trkpt><trkpt lat="46.69023761175349" lon="4.664287661371069"><ele>397.0</ele><time>2026-04-10T14:20:35Z</time></trkpt><trkpt lat="46.69015034940345" lon="4.664196052339513"><ele>395.75</ele><time>2026-04-10T14:20:36Z</time></trkpt><trkpt lat="46.690055647446705" lon="4.664077223900052"><ele>394.5</ele><time>2026-04-10T14:20:37Z</time></trkpt><trkpt lat="46.68995128095762" lon="4.66398120292085"><ele>393.25</ele><time>2026-04-10T14:20:38Z</time></trkpt><trkpt lat="46.68985202427854" lon="4.663898803074866"><ele>392.0</ele><time>2026-04-10T14:20:39Z</time></trkpt><trkpt lat="46.68973863153068" lon="4.663835018373495"><ele>392.0</ele><time>2026-04-10T14:20:40Z</time></trkpt><trkpt lat="46.68962291981522" lon="4.663771730180204"><ele>392.0</ele><time>2026-04-10T14:20:41Z</time></trkpt><trkpt lat="46.689507798385506" lon="4.663674150421588"><ele>392.0</ele><time>2026-04-10T14:20:42Z</time></trkpt><trkpt lat="46.68940033548467" lon="4.663599327289004"><ele>392.0</ele><time>2026-04-10T14:20:43Z</time></trkpt><trkpt lat="46.68927631398646" lon="4.6635301681086565"><ele>391.25</ele><time>2026-04-10T14:20:44Z</time></trkpt><trkpt lat="46.689152408462604" lon="4.663454343389053"><ele>390.5</ele><time>2026-04-10T14:20:45Z</time></trkpt><trkpt lat="46.68903992291542" lon="4.663353656742271"><ele>389.75</ele><time>2026-04-10T14:20:46Z</time></trkpt><trkpt lat="46.68892211775742" lon="4.66327460292094"><ele>389.0</ele><time>2026-04-10T14:20:47Z</time></trkpt><trkpt lat="46.688800779922495" lon="4.663219658754878"><ele>389.0</ele><time>2026-04-10T14:20:48Z</time></trkpt><trkpt lat="46.68868794381946" lon="4.663118735450652"><ele>389.0</ele><time>2026-04-10T14:20:49Z</time></trkpt><trkpt lat="46.6885686806434" lon="4.663039763893092"><ele>389.0</ele><time>2026-04-10T14:20:50Z</time></trkpt><trkpt lat="46.688449871325325" lon="4.662988027560797"><ele>389.0</ele><time>2026-04-10T14:20:51Z</time></trkpt><trkpt lat="46.68833838189119" lon="4.662896168223808"><ele>387.99999999999994</ele><time>2026-04-10T14:20:53Z</time></trkpt><trkpt lat="46.68825666106249" lon="4.66285509584317"><ele>387.0</ele><time>2026-04-10T14:20:55Z</time></trkpt><trkpt lat="46.68817643143303" lon="4.662914746066738"><ele>386.0</ele><time>2026-04-10T14:20:58Z</time></trkpt><trkpt lat="46.68817049183485" lon="4.6630342502483755"><ele>385.0</ele><time>2026-04-10T14:21:00Z</time></trkpt><trkpt lat="46.688080296835594" lon="4.663094317033242"><ele>384.0</ele><time>2026-04-10T14:21:02Z</time></trkpt><trkpt lat="46.68802722781347" lon="4.663159515247526"><ele>383.0</ele><time>2026-04-10T14:21:03Z</time></trkpt><trkpt lat="46.68795324014299" lon="4.663195745977494"><ele>383.0</ele><time>2026-04-10T14:21:04Z</time></trkpt><trkpt lat="46.68785405616274" lon="4.663269961957278"><ele>383.0</ele><time>2026-04-10T14:21:05Z</time></trkpt><trkpt lat="46.68774958106179" lon="4.663359329753939"><ele>383.0</ele><time>2026-04-10T14:21:06Z</time></trkpt><trkpt lat="46.687650684687874" lon="4.663445347829204"><ele>383.0</ele><time>2026-04-10T14:21:07Z</time></trkpt><trkpt lat="46.687546340062646" lon="4.663510051921343"><ele>383.5</ele><time>2026-04-10T14:21:08Z</time></trkpt><trkpt lat="46.68741306807898" lon="4.66352251850312"><ele>384.0</ele><time>2026-04-10T14:21:09Z</time></trkpt><trkpt lat="46.68729069760185" lon="4.663549824593535"><ele>384.5</ele><time>2026-04-10T14:21:10Z</time></trkpt><trkpt lat="46.6871854142451" lon="4.663584433022581"><ele>385.0</ele><time>2026-04-10T14:21:11Z</time></trkpt><trkpt lat="46.68708335635559" lon="4.6636148136807405"><ele>385.0</ele><time>2026-04-10T14:21:12Z</time></trkpt><trkpt lat="46.68697845858546" lon="4.663688994126296"><ele>385.0</ele><time>2026-04-10T14:21:13Z</time></trkpt><trkpt lat="46.68689143181933" lon="4.663803352577765"><ele>385.0</ele><time>2026-04-10T14:21:14Z</time></trkpt><trkpt lat="46.68678831584118" lon="4.663905669337487"><ele>385.0</ele><time>2026-04-10T14:21:15Z</time></trkpt><trkpt lat="46.686691995445635" lon="4.66402824367476"><ele>385.0</ele><time>2026-04-10T14:21:16Z</time></trkpt><trkpt lat="46.68656794726706" lon="4.6641344017360655"><ele>385.0</ele><time>2026-04-10T14:21:17Z</time></trkpt><trkpt lat="46.68643689271494" lon="4.664250986661365"><ele>385.0</ele><time>2026-04-10T14:21:18Z</time></trkpt><trkpt lat="46.68632655325758" lon="4.66437254733201"><ele>385.0</ele><time>2026-04-10T14:21:19Z</time></trkpt><trkpt lat="46.686194389035144" lon="4.664477957506166"><ele>388.33333333333337</ele><time>2026-04-10T14:21:20Z</time></trkpt><trkpt lat="46.68604485154278" lon="4.664553558900793"><ele>391.66666666666663</ele><time>2026-04-10T14:21:21Z</time></trkpt><trkpt lat="46.685897942546674" lon="4.664611226888582"><ele>395.0</ele><time>2026-04-10T14:21:22Z</time></trkpt><trkpt lat="46.685753583290015" lon="4.664686600336834"><ele>395.0</ele><time>2026-04-10T14:21:23Z</time></trkpt><trkpt lat="46.68562557134836" lon="4.6647928567716095"><ele>395.0</ele><time>2026-04-10T14:21:24Z</time></trkpt><trkpt lat="46.68549245585275" lon="4.664894139248266"><ele>395.0</ele><time>2026-04-10T14:21:25Z</time></trkpt><trkpt lat="46.685367501410845" lon="4.664961870967976"><ele>395.0</ele><time>2026-04-10T14:21:26Z</time></trkpt><trkpt lat="46.685252963443354" lon="4.665028012526194"><ele>395.75</ele><time>2026-04-10T14:21:27Z</time></trkpt><trkpt lat="46.68513464469527" lon="4.665072726262876"><ele>396.5</ele><time>2026-04-10T14:21:28Z</time></trkpt><trkpt lat="46.68501399846928" lon="4.665108305444655"><ele>397.25</ele><time>2026-04-10T14:21:29Z</time></trkpt><trkpt lat="46.684893808846944" lon="4.665137213243999"><ele>398.0</ele><time>2026-04-10T14:21:30Z</time></trkpt><trkpt lat="46.68476377752564" lon="4.665163073590757"><ele>398.0</ele><time>2026-04-10T14:21:31Z</time></trkpt><trkpt lat="46.68464994455475" lon="4.665188076503504"><ele>398.0</ele><time>2026-04-10T14:21:32Z</time></trkpt><trkpt lat="46.68453168104139" lon="4.665219402610542"><ele>398.0</ele><time>2026-04-10T14:21:33Z</time></trkpt><trkpt lat="46.68439753907508" lon="4.665228436269399"><ele>398.0</ele><time>2026-04-10T14:21:34Z</time></trkpt><trkpt lat="46.68422839632625" lon="4.665228753751457"><ele>398.3333333333333</ele><time>2026-04-10T14:21:35Z</time></trkpt><trkpt lat="46.68402690311993" lon="4.665231564698141"><ele>398.66666666666663</ele><time>2026-04-10T14:21:36Z</time></trkpt><trkpt lat="46.683792748407164" lon="4.665204947005758"><ele>399.0</ele><time>2026-04-10T14:21:36.999Z</time></trkpt><trkpt lat="46.683573641579386" lon="4.665182461139497"><ele>398.0</ele><time>2026-04-10T14:21:37.999Z</time></trkpt><trkpt lat="46.68339979185884" lon="4.665149838911858"><ele>397.0</ele><time>2026-04-10T14:21:38.999Z</time></trkpt><trkpt lat="46.68323516171084" lon="4.6651282071639315"><ele>396.0</ele><time>2026-04-10T14:21:39.999Z</time></trkpt><trkpt lat="46.68305021454598" lon="4.665099884137942"><ele>396.0</ele><time>2026-04-10T14:21:40.999Z</time></trkpt><trkpt lat="46.68284299424877" lon="4.665074632052341"><ele>396.0</ele><time>2026-04-10T14:21:41.999Z</time></trkpt><trkpt lat="46.68265911257332" lon="4.665020685290599"><ele>396.0</ele><time>2026-04-10T14:21:42.999Z</time></trkpt><trkpt lat="46.68250314985525" lon="4.665002508680607"><ele>395.25</ele><time>2026-04-10T14:21:43.999Z</time></trkpt><trkpt lat="46.68234151666106" lon="4.664962155436325"><ele>394.5</ele><time>2026-04-10T14:21:44.999Z</time></trkpt><trkpt lat="46.68220409651764" lon="4.6649601045484985"><ele>393.75</ele><time>2026-04-10T14:21:45.999Z</time></trkpt><trkpt lat="46.68207445868746" lon="4.664912364390705"><ele>393.0</ele><time>2026-04-10T14:21:46.999Z</time></trkpt><trkpt lat="46.68195957613123" lon="4.664910974141583"><ele>392.2</ele><time>2026-04-10T14:21:47.999Z</time></trkpt><trkpt lat="46.68183653939089" lon="4.664876505161041"><ele>391.4</ele><time>2026-04-10T14:21:48.999Z</time></trkpt><trkpt lat="46.681710992834844" lon="4.664825702828893"><ele>390.59999999999997</ele><time>2026-04-10T14:21:49.999Z</time></trkpt><trkpt lat="46.68162866075362" lon="4.664805722719309"><ele>389.79999999999995</ele><time>2026-04-10T14:21:50.999Z</time></trkpt><trkpt lat="46.68153345196105" lon="4.664786616914184"><ele>389.0</ele><time>2026-04-10T14:21:51.999Z</time></trkpt><trkpt lat="46.68144917403327" lon="4.6647830679448985"><ele>389.0</ele><time>2026-04-10T14:21:52.999Z</time></trkpt><trkpt lat="46.68134900616564" lon="4.664780168632552"><ele>389.0</ele><time>2026-04-10T14:21:53.999Z</time></trkpt><trkpt lat="46.68121697970496" lon="4.664798157350238"><ele>389.0</ele><time>2026-04-10T14:21:54.999Z</time></trkpt><trkpt lat="46.68106615923941" lon="4.664837379301984"><ele>389.0</ele><time>2026-04-10T14:21:55.999Z</time></trkpt><trkpt lat="46.68089600179779" lon="4.66490692086997"><ele>390.0</ele><time>2026-04-10T14:21:56.999Z</time></trkpt><trkpt lat="46.68072536117604" lon="4.664987933329154"><ele>391.0</ele><time>2026-04-10T14:21:57.999Z</time></trkpt><trkpt lat="46.680579714292065" lon="4.665047938601026"><ele>392.0</ele><time>2026-04-10T14:21:58.999Z</time></trkpt><trkpt lat="46.680443160809126" lon="4.66511556048576"><ele>394.3333333333333</ele><time>2026-04-10T14:21:59.999Z</time></trkpt><trkpt lat="46.680255634086905" lon="4.665212385489667"><ele>396.66666666666663</ele><time>2026-04-10T14:22:00.999Z</time></trkpt><trkpt lat="46.68011738099059" lon="4.665289053487895"><ele>399.0</ele><time>2026-04-10T14:22:01.999Z</time></trkpt><trkpt lat="46.67998413595236" lon="4.665374622430974"><ele>399.0</ele><time>2026-04-10T14:22:02.999Z</time></trkpt><trkpt lat="46.67989663077677" lon="4.665400288908259"><ele>399.0</ele><time>2026-04-10T14:22:03.999Z</time></trkpt><trkpt lat="46.679801146534096" lon="4.665465692477908"><ele>399.0</ele><time>2026-04-10T14:22:04.999Z</time></trkpt><trkpt lat="46.6797187528113" lon="4.665510028852516"><ele>399.0</ele><time>2026-04-10T14:22:05.999Z</time></trkpt><trkpt lat="46.67965252439287" lon="4.66554467297914"><ele>399.0</ele><time>2026-04-10T14:22:06.999Z</time></trkpt><trkpt lat="46.679549726214205" lon="4.665594880617717"><ele>399.0</ele><time>2026-04-10T14:22:07.999Z</time></trkpt><trkpt lat="46.67944273328051" lon="4.665655469196486"><ele>399.0</ele><time>2026-04-10T14:22:08.999Z</time></trkpt><trkpt lat="46.67936030054316" lon="4.665716927126104"><ele>399.0</ele><time>2026-04-10T14:22:09.999Z</time></trkpt><trkpt lat="46.67925783955725" lon="4.6657687423905925"><ele>399.0</ele><time>2026-04-10T14:22:11Z</time></trkpt><trkpt lat="46.67915851278666" lon="4.665789768794321"><ele>399.0</ele><time>2026-04-10T14:22:12Z</time></trkpt><trkpt lat="46.67904332069885" lon="4.665769743403121"><ele>401.0</ele><time>2026-04-10T14:22:13Z</time></trkpt><trkpt lat="46.678932164767886" lon="4.6657824422911425"><ele>403.0</ele><time>2026-04-10T14:22:14Z</time></trkpt><trkpt lat="46.67883453159505" lon="4.665782551047714"><ele>405.0</ele><time>2026-04-10T14:22:15Z</time></trkpt><trkpt lat="46.67871623949481" lon="4.665830320908971"><ele>407.0</ele><time>2026-04-10T14:22:16Z</time></trkpt><trkpt lat="46.678587943021554" lon="4.665910219526568"><ele>408.5</ele><time>2026-04-10T14:22:17Z</time></trkpt><trkpt lat="46.67844904365148" lon="4.665990386120636"><ele>410.0</ele><time>2026-04-10T14:22:18Z</time></trkpt><trkpt lat="46.678348921627034" lon="4.666034790266672"><ele>411.5</ele><time>2026-04-10T14:22:19Z</time></trkpt><trkpt lat="46.678251994129326" lon="4.666087361557844"><ele>413.0</ele><time>2026-04-10T14:22:20Z</time></trkpt><trkpt lat="46.67815140710962" lon="4.666089852060929"><ele>412.99999999999994</ele><time>2026-04-10T14:22:21Z</time></trkpt><trkpt lat="46.678035641073194" lon="4.666040228359537"><ele>413.0</ele><time>2026-04-10T14:22:22Z</time></trkpt><trkpt lat="46.67795903181509" lon="4.666027451373327"><ele>413.0</ele><time>2026-04-10T14:22:23Z</time></trkpt><trkpt lat="46.67788058762749" lon="4.666035470813007"><ele>413.0</ele><time>2026-04-10T14:22:25Z</time></trkpt><trkpt lat="46.67779900711765" lon="4.666001986165994"><ele>412.99999999999994</ele><time>2026-04-10T14:22:27Z</time></trkpt><trkpt lat="46.67773405838646" lon="4.666009038965837"><ele>413.0</ele><time>2026-04-10T14:22:28Z</time></trkpt><trkpt lat="46.67766894471056" lon="4.666014064917828"><ele>413.66666666666663</ele><time>2026-04-10T14:22:29Z</time></trkpt><trkpt lat="46.67759800076785" lon="4.666023962505999"><ele>414.3333333333333</ele><time>2026-04-10T14:22:30Z</time></trkpt><trkpt lat="46.677535600311685" lon="4.666038225857658"><ele>415.0</ele><time>2026-04-10T14:22:31Z</time></trkpt><trkpt lat="46.677474526035255" lon="4.6660077606341686"><ele>415.66666666666663</ele><time>2026-04-10T14:22:32Z</time></trkpt><trkpt lat="46.677371157997904" lon="4.6659883355430285"><ele>416.3333333333333</ele><time>2026-04-10T14:22:33Z</time></trkpt><trkpt lat="46.67724097070962" lon="4.665955956153118"><ele>417.0</ele><time>2026-04-10T14:22:34Z</time></trkpt><trkpt lat="46.67704831290884" lon="4.6658985565532465"><ele>419.0</ele><time>2026-04-10T14:22:35Z</time></trkpt><trkpt lat="46.67684866575976" lon="4.665791696790981"><ele>421.0</ele><time>2026-04-10T14:22:36Z</time></trkpt><trkpt lat="46.6766445371896" lon="4.6656709883828675"><ele>423.0</ele><time>2026-04-10T14:22:37Z</time></trkpt><trkpt lat="46.67641658544812" lon="4.665542207543296"><ele>423.0</ele><time>2026-04-10T14:22:38Z</time></trkpt><trkpt lat="46.67620243769212" lon="4.665438534711607"><ele>423.0</ele><time>2026-04-10T14:22:39Z</time></trkpt><trkpt lat="46.67600592889031" lon="4.665363892126316"><ele>423.0</ele><time>2026-04-10T14:22:40Z</time></trkpt><trkpt lat="46.67582267051389" lon="4.665283333674895"><ele>423.0</ele><time>2026-04-10T14:22:41Z</time></trkpt><trkpt lat="46.675650437994314" lon="4.665204508554594"><ele>423.0</ele><time>2026-04-10T14:22:42Z</time></trkpt><trkpt lat="46.67552665028377" lon="4.665127385245568"><ele>423.0</ele><time>2026-04-10T14:22:43Z</time></trkpt><trkpt lat="46.67542733074038" lon="4.665063034969688"><ele>423.0</ele><time>2026-04-10T14:22:44Z</time></trkpt><trkpt lat="46.67533443457104" lon="4.665001047784715"><ele>422.25</ele><time>2026-04-10T14:22:45Z</time></trkpt><trkpt lat="46.67523237111248" lon="4.664931686861016"><ele>421.5</ele><time>2026-04-10T14:22:46Z</time></trkpt><trkpt lat="46.675102762664025" lon="4.664854114532111"><ele>420.75</ele><time>2026-04-10T14:22:47Z</time></trkpt><trkpt lat="46.674943119051576" lon="4.664734173510438"><ele>420.0</ele><time>2026-04-10T14:22:48Z</time></trkpt><trkpt lat="46.67473405225366" lon="4.664581619710488"><ele>420.0</ele><time>2026-04-10T14:22:49Z</time></trkpt><trkpt lat="46.67461011714411" lon="4.664457903738842"><ele>420.0</ele><time>2026-04-10T14:22:50Z</time></trkpt><trkpt lat="46.67447029889777" lon="4.664373497369745"><ele>420.0</ele><time>2026-04-10T14:22:51Z</time></trkpt><trkpt lat="46.674377801181805" lon="4.664319932530927"><ele>420.0</ele><time>2026-04-10T14:22:52Z</time></trkpt><trkpt lat="46.67423934714656" lon="4.664252535785808"><ele>419.0</ele><time>2026-04-10T14:22:53Z</time></trkpt><trkpt lat="46.67413526059084" lon="4.6642145582026036"><ele>418.0</ele><time>2026-04-10T14:22:54Z</time></trkpt><trkpt lat="46.674032642048424" lon="4.664171331016318"><ele>417.0</ele><time>2026-04-10T14:22:55Z</time></trkpt><trkpt lat="46.67389043451175" lon="4.6641417699748215"><ele>416.0</ele><time>2026-04-10T14:22:56Z</time></trkpt><trkpt lat="46.673785476600266" lon="4.664104699636185"><ele>415.99999999999994</ele><time>2026-04-10T14:22:57Z</time></trkpt><trkpt lat="46.67370272634011" lon="4.664093621104338"><ele>416.0</ele><time>2026-04-10T14:22:58Z</time></trkpt><trkpt lat="46.67362860667982" lon="4.664069024433515"><ele>416.0</ele><time>2026-04-10T14:22:59Z</time></trkpt><trkpt lat="46.673538982932406" lon="4.664033858906326"><ele>416.0</ele><time>2026-04-10T14:23:00Z</time></trkpt><trkpt lat="46.67347155699737" lon="4.6639945860025485"><ele>415.99999999999994</ele><time>2026-04-10T14:23:01Z</time></trkpt><trkpt lat="46.67340539416301" lon="4.663947728184054"><ele>416.0</ele><time>2026-04-10T14:23:02Z</time></trkpt><trkpt lat="46.67335270205396" lon="4.663867251148406"><ele>415.25</ele><time>2026-04-10T14:23:03Z</time></trkpt><trkpt lat="46.673296402871244" lon="4.663763436236542"><ele>414.5</ele><time>2026-04-10T14:23:04Z</time></trkpt><trkpt lat="46.67320504567535" lon="4.663671626983385"><ele>413.75</ele><time>2026-04-10T14:23:05Z</time></trkpt><trkpt lat="46.67309253090493" lon="4.663589296118103"><ele>413.0</ele><time>2026-04-10T14:23:06Z</time></trkpt><trkpt lat="46.67296969917472" lon="4.663544645363191"><ele>413.0</ele><time>2026-04-10T14:23:07Z</time></trkpt><trkpt lat="46.672807486978385" lon="4.6635020940524745"><ele>413.0</ele><time>2026-04-10T14:23:08Z</time></trkpt><trkpt lat="46.6726353959908" lon="4.663447324706855"><ele>413.0</ele><time>2026-04-10T14:23:09Z</time></trkpt><trkpt lat="46.67252890890272" lon="4.66343265994075"><ele>413.0</ele><time>2026-04-10T14:23:10Z</time></trkpt><trkpt lat="46.67236695755554" lon="4.663409976866131"><ele>413.0</ele><time>2026-04-10T14:23:11Z</time></trkpt><trkpt lat="46.672240012578435" lon="4.663389074995554"><ele>413.0</ele><time>2026-04-10T14:23:12Z</time></trkpt><trkpt lat="46.672140737897756" lon="4.663382904555445"><ele>413.0</ele><time>2026-04-10T14:23:13Z</time></trkpt><trkpt lat="46.67204085213522" lon="4.663428136851272"><ele>413.0</ele><time>2026-04-10T14:23:14Z</time></trkpt><trkpt lat="46.67192643788537" lon="4.66348249387314"><ele>413.0</ele><time>2026-04-10T14:23:15Z</time></trkpt><trkpt lat="46.671819592932174" lon="4.663546743356723"><ele>413.0</ele><time>2026-04-10T14:23:16Z</time></trkpt><trkpt lat="46.671720402287605" lon="4.663594121889941"><ele>413.0</ele><time>2026-04-10T14:23:17Z</time></trkpt><trkpt lat="46.671591673641494" lon="4.663715198254366"><ele>413.0</ele><time>2026-04-10T14:23:18Z</time></trkpt><trkpt lat="46.67148911994163" lon="4.663842288715407"><ele>412.66666666666663</ele><time>2026-04-10T14:23:19Z</time></trkpt><trkpt lat="46.67138550406954" lon="4.664019357954717"><ele>412.33333333333337</ele><time>2026-04-10T14:23:20Z</time></trkpt><trkpt lat="46.671264685317674" lon="4.664220766916021"><ele>412.0</ele><time>2026-04-10T14:23:21Z</time></trkpt><trkpt lat="46.67114038971112" lon="4.664397573616592"><ele>411.6666666666667</ele><time>2026-04-10T14:23:22Z</time></trkpt><trkpt lat="46.670978918249446" lon="4.6645696471994045"><ele>411.33333333333337</ele><time>2026-04-10T14:23:23Z</time></trkpt><trkpt lat="46.670849102484446" lon="4.6647177124339585"><ele>411.0</ele><time>2026-04-10T14:23:24Z</time></trkpt><trkpt lat="46.67074862762581" lon="4.664847854080469"><ele>411.0</ele><time>2026-04-10T14:23:25Z</time></trkpt><trkpt lat="46.67067720213667" lon="4.6649329291503046"><ele>411.0</ele><time>2026-04-10T14:23:25.999Z</time></trkpt><trkpt lat="46.67062231800156" lon="4.665007693462484"><ele>411.0</ele><time>2026-04-10T14:23:26.999Z</time></trkpt><trkpt lat="46.67054367702518" lon="4.6650816511032005"><ele>411.0</ele><time>2026-04-10T14:23:27.999Z</time></trkpt><trkpt lat="46.67047730132586" lon="4.665169051785284"><ele>411.0</ele><time>2026-04-10T14:23:28.999Z</time></trkpt><trkpt lat="46.67042227753568" lon="4.665229072284562"><ele>411.0</ele><time>2026-04-10T14:23:29.999Z</time></trkpt><trkpt lat="46.6703781973538" lon="4.665326051563761"><ele>410.0</ele><time>2026-04-10T14:23:32.999Z</time></trkpt><trkpt lat="46.67031945429409" lon="4.665451650959593"><ele>409.0</ele><time>2026-04-10T14:23:54.999Z</time></trkpt><trkpt lat="46.67027520175247" lon="4.665596285226854"><ele>408.0</ele><time>2026-04-10T14:23:55.999Z</time></trkpt><trkpt lat="46.67026642469996" lon="4.66568832883787"><ele>407.0</ele><time>2026-04-10T14:23:56.999Z</time></trkpt><trkpt lat="46.6702387453166" lon="4.6658467132127415"><ele>406.0</ele><time>2026-04-10T14:23:58.999Z</time></trkpt><trkpt lat="46.67016587836595" lon="4.666000477206538"><ele>406.00000000000006</ele><time>2026-04-10T14:24:00.999Z</time></trkpt><trkpt lat="46.67011563641763" lon="4.66609285840805"><ele>406.0</ele><time>2026-04-10T14:24:01.999Z</time></trkpt><trkpt lat="46.67005670273083" lon="4.666140352181283"><ele>406.0</ele><time>2026-04-10T14:24:02.999Z</time></trkpt><trkpt lat="46.670002070281036" lon="4.666228905541434"><ele>406.0</ele><time>2026-04-10T14:24:03.999Z</time></trkpt><trkpt lat="46.66994002391688" lon="4.666299999112746"><ele>406.00000000000006</ele><time>2026-04-10T14:24:04.999Z</time></trkpt><trkpt lat="46.669869263178306" lon="4.6663466152344215"><ele>406.0</ele><time>2026-04-10T14:24:05.999Z</time></trkpt><trkpt lat="46.669768433544824" lon="4.666412111098727"><ele>404.0</ele><time>2026-04-10T14:24:06.999Z</time></trkpt><trkpt lat="46.66968484074935" lon="4.66648917372082"><ele>402.0</ele><time>2026-04-10T14:24:07.999Z</time></trkpt><trkpt lat="46.669613718660024" lon="4.666554630394892"><ele>400.0</ele><time>2026-04-10T14:24:08.999Z</time></trkpt><trkpt lat="46.66952586810831" lon="4.666627238369309"><ele>398.0</ele><time>2026-04-10T14:24:09.999Z</time></trkpt><trkpt lat="46.66943402123596" lon="4.666699286782498"><ele>396.0</ele><time>2026-04-10T14:24:10.999Z</time></trkpt><trkpt lat="46.66935416809534" lon="4.666725284020384"><ele>396.0</ele><time>2026-04-10T14:24:11.999Z</time></trkpt><trkpt lat="46.66929094452492" lon="4.666761179670826"><ele>396.0</ele><time>2026-04-10T14:24:12.999Z</time></trkpt><trkpt lat="46.66922309098393" lon="4.666809459328534"><ele>396.0</ele><time>2026-04-10T14:24:13.999Z</time></trkpt><trkpt lat="46.669160240584205" lon="4.666872310513708"><ele>396.0</ele><time>2026-04-10T14:24:14.999Z</time></trkpt><trkpt lat="46.66908540432131" lon="4.6670302615050385"><ele>396.0</ele><time>2026-04-10T14:24:17Z</time></trkpt><trkpt lat="46.66891596865202" lon="4.667079925655724"><ele>390.6666666666667</ele><time>2026-04-10T14:24:19Z</time></trkpt><trkpt lat="46.66878929524931" lon="4.66710244917851"><ele>385.33333333333337</ele><time>2026-04-10T14:24:20Z</time></trkpt><trkpt lat="46.66863945072513" lon="4.667105544165436"><ele>380.0</ele><time>2026-04-10T14:24:21Z</time></trkpt><trkpt lat="46.6684579147061" lon="4.667084041980026"><ele>379.33333333333337</ele><time>2026-04-10T14:24:22Z</time></trkpt><trkpt lat="46.66830815015789" lon="4.667066303244431"><ele>378.6666666666667</ele><time>2026-04-10T14:24:23Z</time></trkpt><trkpt lat="46.66814843274069" lon="4.667022619668967"><ele>378.0</ele><time>2026-04-10T14:24:24Z</time></trkpt><trkpt lat="46.66797068260642" lon="4.666984677914235"><ele>380.0</ele><time>2026-04-10T14:24:25Z</time></trkpt><trkpt lat="46.667836621135585" lon="4.666941323458716"><ele>382.0</ele><time>2026-04-10T14:24:26Z</time></trkpt><trkpt lat="46.667730583990526" lon="4.666906281857392"><ele>384.0</ele><time>2026-04-10T14:24:27Z</time></trkpt><trkpt lat="46.667619163177704" lon="4.6668820829302335"><ele>386.0</ele><time>2026-04-10T14:24:28Z</time></trkpt><trkpt lat="46.66751730374987" lon="4.666865339411624"><ele>386.0</ele><time>2026-04-10T14:24:29Z</time></trkpt><trkpt lat="46.66742419172485" lon="4.666848295008501"><ele>386.0</ele><time>2026-04-10T14:24:30Z</time></trkpt><trkpt lat="46.66731972501821" lon="4.666808191719193"><ele>386.0</ele><time>2026-04-10T14:24:31Z</time></trkpt><trkpt lat="46.66721084610935" lon="4.666743411547815"><ele>386.0</ele><time>2026-04-10T14:24:32Z</time></trkpt><trkpt lat="46.66708909786574" lon="4.666655058753038"><ele>386.0</ele><time>2026-04-10T14:24:33Z</time></trkpt><trkpt lat="46.66697249365157" lon="4.666574425638154"><ele>386.0</ele><time>2026-04-10T14:24:34Z</time></trkpt><trkpt lat="46.666838743892825" lon="4.666505659002813"><ele>386.0</ele><time>2026-04-10T14:24:35Z</time></trkpt><trkpt lat="46.66669242153065" lon="4.666422845670179"><ele>386.0</ele><time>2026-04-10T14:24:36Z</time></trkpt><trkpt lat="46.66654602287168" lon="4.66633277353478"><ele>383.5</ele><time>2026-04-10T14:24:37Z</time></trkpt><trkpt lat="46.66641808022289" lon="4.666286289765658"><ele>381.0</ele><time>2026-04-10T14:24:38Z</time></trkpt><trkpt lat="46.666282580450876" lon="4.666254838492567"><ele>378.5</ele><time>2026-04-10T14:24:39Z</time></trkpt><trkpt lat="46.666184037314586" lon="4.666201284191749"><ele>376.0</ele><time>2026-04-10T14:24:40Z</time></trkpt><trkpt lat="46.66607028905363" lon="4.6661139798614295"><ele>377.75</ele><time>2026-04-10T14:24:41Z</time></trkpt><trkpt lat="46.665961440894" lon="4.666054679819259"><ele>379.5</ele><time>2026-04-10T14:24:42Z</time></trkpt><trkpt lat="46.66584065334304" lon="4.6660021077544505"><ele>381.25</ele><time>2026-04-10T14:24:43Z</time></trkpt><trkpt lat="46.66570979248546" lon="4.665943524395085"><ele>383.0</ele><time>2026-04-10T14:24:44Z</time></trkpt><trkpt lat="46.665601554417606" lon="4.665910372572949"><ele>383.0</ele><time>2026-04-10T14:24:45Z</time></trkpt><trkpt lat="46.66549280793955" lon="4.665870046114513"><ele>383.0</ele><time>2026-04-10T14:24:46Z</time></trkpt><trkpt lat="46.665395180405014" lon="4.665811684319179"><ele>383.0</ele><time>2026-04-10T14:24:47Z</time></trkpt><trkpt lat="46.66529697131234" lon="4.665776138808897"><ele>383.0</ele><time>2026-04-10T14:24:48Z</time></trkpt><trkpt lat="46.665194376650156" lon="4.6657857389090704"><ele>383.0</ele><time>2026-04-10T14:24:49Z</time></trkpt><trkpt lat="46.66504409546478" lon="4.665857622057508"><ele>383.59999999999997</ele><time>2026-04-10T14:24:50Z</time></trkpt><trkpt lat="46.66492857786925" lon="4.665939463665914"><ele>384.2</ele><time>2026-04-10T14:24:51Z</time></trkpt><trkpt lat="46.66483967460393" lon="4.665994682897659"><ele>384.8</ele><time>2026-04-10T14:24:52Z</time></trkpt><trkpt lat="46.6647313990613" lon="4.666018033784454"><ele>385.4</ele><time>2026-04-10T14:24:53Z</time></trkpt><trkpt lat="46.66464996018871" lon="4.666042303796016"><ele>386.0</ele><time>2026-04-10T14:24:54Z</time></trkpt><trkpt lat="46.664567957418875" lon="4.6660424356302785"><ele>386.0</ele><time>2026-04-10T14:24:55Z</time></trkpt><trkpt lat="46.66447398320521" lon="4.66602269672862"><ele>386.0</ele><time>2026-04-10T14:24:56Z</time></trkpt><trkpt lat="46.664374199821395" lon="4.665990511958639"><ele>386.0</ele><time>2026-04-10T14:24:57Z</time></trkpt><trkpt lat="46.66428410468192" lon="4.66595252206457"><ele>386.0</ele><time>2026-04-10T14:24:58Z</time></trkpt><trkpt lat="46.66418366594337" lon="4.6659055123239375"><ele>386.0</ele><time>2026-04-10T14:24:59Z</time></trkpt><trkpt lat="46.664085042550326" lon="4.665868237981653"><ele>385.75</ele><time>2026-04-10T14:25:00Z</time></trkpt><trkpt lat="46.66397223160905" lon="4.665821244172507"><ele>385.5</ele><time>2026-04-10T14:25:01Z</time></trkpt><trkpt lat="46.66385678382915" lon="4.665770486584377"><ele>385.25</ele><time>2026-04-10T14:25:02Z</time></trkpt><trkpt lat="46.6637301865788" lon="4.665679127526698"><ele>385.0</ele><time>2026-04-10T14:25:03Z</time></trkpt><trkpt lat="46.66361163059125" lon="4.665595718734784"><ele>381.33333333333337</ele><time>2026-04-10T14:25:04Z</time></trkpt><trkpt lat="46.663486056830386" lon="4.665516705273355"><ele>377.6666666666667</ele><time>2026-04-10T14:25:05Z</time></trkpt><trkpt lat="46.663332394299175" lon="4.6654636465717045"><ele>374.0</ele><time>2026-04-10T14:25:06Z</time></trkpt><trkpt lat="46.663165022684595" lon="4.665396817553356"><ele>374.0</ele><time>2026-04-10T14:25:07Z</time></trkpt><trkpt lat="46.66301327027416" lon="4.665327151258776"><ele>374.0</ele><time>2026-04-10T14:25:08Z</time></trkpt><trkpt lat="46.662903272981104" lon="4.665281465954627"><ele>374.0</ele><time>2026-04-10T14:25:09Z</time></trkpt><trkpt lat="46.66276135605947" lon="4.665216879536105"><ele>374.0</ele><time>2026-04-10T14:25:10Z</time></trkpt><trkpt lat="46.662653436181316" lon="4.665168247476176"><ele>376.0</ele><time>2026-04-10T14:25:11Z</time></trkpt><trkpt lat="46.6625343791254" lon="4.665097600413964"><ele>378.0</ele><time>2026-04-10T14:25:12Z</time></trkpt><trkpt lat="46.66244578566847" lon="4.66509247815643"><ele>380.0</ele><time>2026-04-10T14:25:13Z</time></trkpt><trkpt lat="46.66233417038949" lon="4.665078849177843"><ele>382.0</ele><time>2026-04-10T14:25:14Z</time></trkpt><trkpt lat="46.662218452925586" lon="4.6651069874442355"><ele>384.0</ele><time>2026-04-10T14:25:15Z</time></trkpt><trkpt lat="46.66206632137688" lon="4.665122479105086"><ele>383.75</ele><time>2026-04-10T14:25:16Z</time></trkpt><trkpt lat="46.66191503777622" lon="4.66512634214404"><ele>383.5</ele><time>2026-04-10T14:25:17Z</time></trkpt><trkpt lat="46.66177740084371" lon="4.665150714670844"><ele>383.25</ele><time>2026-04-10T14:25:18Z</time></trkpt><trkpt lat="46.66162885989106" lon="4.665175754163528"><ele>383.0</ele><time>2026-04-10T14:25:19Z</time></trkpt><trkpt lat="46.66147601672512" lon="4.665177908762479"><ele>383.0</ele><time>2026-04-10T14:25:20Z</time></trkpt><trkpt lat="46.66134264980387" lon="4.665190805725099"><ele>383.0</ele><time>2026-04-10T14:25:21Z</time></trkpt><trkpt lat="46.661243947323086" lon="4.6651814655161825"><ele>383.0</ele><time>2026-04-10T14:25:22Z</time></trkpt><trkpt lat="46.66113769882189" lon="4.665159886786331"><ele>383.0</ele><time>2026-04-10T14:25:24Z</time></trkpt><trkpt lat="46.66107152654163" lon="4.665143782156656"><ele>383.0</ele><time>2026-04-10T14:25:26.999Z</time></trkpt><trkpt lat="46.661007319958365" lon="4.665139437649074"><ele>382.0</ele><time>2026-04-10T14:25:29.999Z</time></trkpt><trkpt lat="46.660933560092374" lon="4.665124333457724"><ele>381.0</ele><time>2026-04-10T14:25:42.999Z</time></trkpt><trkpt lat="46.660797999811145" lon="4.665069785135834"><ele>380.0</ele><time>2026-04-10T14:25:45.999Z</time></trkpt><trkpt lat="46.660740149167125" lon="4.6650216031956955"><ele>379.0</ele><time>2026-04-10T14:25:46.999Z</time></trkpt><trkpt lat="46.66066797586281" lon="4.664986785906506"><ele>378.0</ele><time>2026-04-10T14:25:47.999Z</time></trkpt><trkpt lat="46.660567104342356" lon="4.664977252888636"><ele>378.0</ele><time>2026-04-10T14:25:48.999Z</time></trkpt><trkpt lat="46.66048641556298" lon="4.664971155127441"><ele>378.0</ele><time>2026-04-10T14:25:49.999Z</time></trkpt><trkpt lat="46.66039588329014" lon="4.664971673255346"><ele>378.0</ele><time>2026-04-10T14:25:50.999Z</time></trkpt><trkpt lat="46.66032483880727" lon="4.664986917353643"><ele>378.0</ele><time>2026-04-10T14:25:51.999Z</time></trkpt><trkpt lat="46.66025660733546" lon="4.665022109554574"><ele>378.0</ele><time>2026-04-10T14:25:52.999Z</time></trkpt><trkpt lat="46.66016118573392" lon="4.665029889426651"><ele>378.0</ele><time>2026-04-10T14:25:54.999Z</time></trkpt><trkpt lat="46.660028427230095" lon="4.664989983204282"><ele>376.2</ele><time>2026-04-10T14:25:56.999Z</time></trkpt><trkpt lat="46.65992939582776" lon="4.664919414128008"><ele>374.4</ele><time>2026-04-10T14:25:57.999Z</time></trkpt><trkpt lat="46.659851051827175" lon="4.664830196942585"><ele>372.59999999999997</ele><time>2026-04-10T14:25:58.999Z</time></trkpt><trkpt lat="46.659748611687746" lon="4.664695445427808"><ele>370.79999999999995</ele><time>2026-04-10T14:25:59.999Z</time></trkpt><trkpt lat="46.65970606721957" lon="4.664610559691952"><ele>369.0</ele><time>2026-04-10T14:26:00.999Z</time></trkpt><trkpt lat="46.65964010177553" lon="4.664548985347807"><ele>369.0</ele><time>2026-04-10T14:26:01.999Z</time></trkpt><trkpt lat="46.65957604977867" lon="4.6645187861459005"><ele>369.0</ele><time>2026-04-10T14:26:02.999Z</time></trkpt><trkpt lat="46.65949791153541" lon="4.664483196206308"><ele>369.0</ele><time>2026-04-10T14:26:03.999Z</time></trkpt><trkpt lat="46.65941874720693" lon="4.664423869801876"><ele>369.0</ele><time>2026-04-10T14:26:05.999Z</time></trkpt><trkpt lat="46.65939298847131" lon="4.664291245834473"><ele>369.0</ele><time>2026-04-10T14:26:08.999Z</time></trkpt><trkpt lat="46.65934667378431" lon="4.664093995019327"><ele>368.6</ele><time>2026-04-10T14:26:10.999Z</time></trkpt><trkpt lat="46.659266485787974" lon="4.663981971392166"><ele>368.2</ele><time>2026-04-10T14:26:11.999Z</time></trkpt><trkpt lat="46.659162868841705" lon="4.663869734474811"><ele>367.8</ele><time>2026-04-10T14:26:12.999Z</time></trkpt><trkpt lat="46.65907950307026" lon="4.6637878284853285"><ele>367.40000000000003</ele><time>2026-04-10T14:26:13.999Z</time></trkpt><trkpt lat="46.65901304707" lon="4.663706504969325"><ele>367.0</ele><time>2026-04-10T14:26:14.999Z</time></trkpt><trkpt lat="46.65895010745565" lon="4.663627572265614"><ele>368.5</ele><time>2026-04-10T14:26:15.999Z</time></trkpt><trkpt lat="46.65887438911352" lon="4.663532781763696"><ele>370.0</ele><time>2026-04-10T14:26:16.999Z</time></trkpt><trkpt lat="46.658822349970926" lon="4.66346472166184"><ele>371.5</ele><time>2026-04-10T14:26:17.999Z</time></trkpt><trkpt lat="46.65877610210286" lon="4.663400549580233"><ele>373.0</ele><time>2026-04-10T14:26:18.999Z</time></trkpt><trkpt lat="46.65871681533691" lon="4.663341069213193"><ele>374.5</ele><time>2026-04-10T14:26:19.999Z</time></trkpt><trkpt lat="46.65865465729769" lon="4.66324076019313"><ele>376.0</ele><time>2026-04-10T14:26:20.999Z</time></trkpt><trkpt lat="46.65860967144369" lon="4.663158267357979"><ele>374.8333333333333</ele><time>2026-04-10T14:26:21.999Z</time></trkpt><trkpt lat="46.65856523258944" lon="4.663043997603392"><ele>373.66666666666663</ele><time>2026-04-10T14:26:23Z</time></trkpt><trkpt lat="46.658507701710285" lon="4.6629545146290905"><ele>372.5</ele><time>2026-04-10T14:26:24Z</time></trkpt><trkpt lat="46.65845140254388" lon="4.662870267236777"><ele>371.3333333333333</ele><time>2026-04-10T14:26:25Z</time></trkpt><trkpt lat="46.658385870748994" lon="4.662786709901935"><ele>370.1666666666667</ele><time>2026-04-10T14:26:26Z</time></trkpt><trkpt lat="46.65832863870658" lon="4.66268964360667"><ele>369.0</ele><time>2026-04-10T14:26:27Z</time></trkpt><trkpt lat="46.658250853638854" lon="4.662597382609917"><ele>369.0</ele><time>2026-04-10T14:26:28Z</time></trkpt><trkpt lat="46.65818024413095" lon="4.662520215473035"><ele>369.0</ele><time>2026-04-10T14:26:29Z</time></trkpt><trkpt lat="46.65810258852153" lon="4.662462035120131"><ele>369.0</ele><time>2026-04-10T14:26:30Z</time></trkpt><trkpt lat="46.65802243953425" lon="4.662398848442587"><ele>369.0</ele><time>2026-04-10T14:26:31Z</time></trkpt><trkpt lat="46.65793673220682" lon="4.662362852946102"><ele>369.0</ele><time>2026-04-10T14:26:32Z</time></trkpt><trkpt lat="46.65785614405256" lon="4.66231215421679"><ele>369.0</ele><time>2026-04-10T14:26:33Z</time></trkpt><trkpt lat="46.6577386914067" lon="4.6622765553524035"><ele>367.1666666666667</ele><time>2026-04-10T14:26:34Z</time></trkpt><trkpt lat="46.65767561291391" lon="4.662241691154938"><ele>365.3333333333333</ele><time>2026-04-10T14:26:35Z</time></trkpt><trkpt lat="46.65758453032532" lon="4.662238593299758"><ele>363.5</ele><time>2026-04-10T14:26:36Z</time></trkpt><trkpt lat="46.657498327405314" lon="4.662188974241349"><ele>361.66666666666663</ele><time>2026-04-10T14:26:37Z</time></trkpt><trkpt lat="46.6574148668814" lon="4.662183184176831"><ele>359.8333333333333</ele><time>2026-04-10T14:26:38Z</time></trkpt><trkpt lat="46.65735345727579" lon="4.662140279177187"><ele>358.0</ele><time>2026-04-10T14:26:39Z</time></trkpt><trkpt lat="46.65725221533232" lon="4.66204855187779"><ele>358.0</ele><time>2026-04-10T14:26:41Z</time></trkpt><trkpt lat="46.6571735780955" lon="4.662002951563218"><ele>358.0</ele><time>2026-04-10T14:26:42Z</time></trkpt><trkpt lat="46.65711785494058" lon="4.6619276316331595"><ele>358.0</ele><time>2026-04-10T14:26:43Z</time></trkpt><trkpt lat="46.65699198638285" lon="4.661854419582903"><ele>358.0</ele><time>2026-04-10T14:26:45Z</time></trkpt><trkpt lat="46.656928582938924" lon="4.6618144004364135"><ele>358.0</ele><time>2026-04-10T14:26:46Z</time></trkpt><trkpt lat="46.656870200406935" lon="4.6617543355036695"><ele>358.0</ele><time>2026-04-10T14:26:47Z</time></trkpt><trkpt lat="46.656806986158536" lon="4.6617436980667595"><ele>360.66666666666663</ele><time>2026-04-10T14:26:48Z</time></trkpt><trkpt lat="46.65674981607994" lon="4.661689424379101"><ele>363.3333333333333</ele><time>2026-04-10T14:26:49Z</time></trkpt><trkpt lat="46.65668054530458" lon="4.661660335252238"><ele>366.0</ele><time>2026-04-10T14:26:50Z</time></trkpt><trkpt lat="46.65661859715798" lon="4.66163935150724"><ele>368.6666666666667</ele><time>2026-04-10T14:26:51Z</time></trkpt><trkpt lat="46.65650059929241" lon="4.661648903536032"><ele>371.33333333333337</ele><time>2026-04-10T14:26:53Z</time></trkpt><trkpt lat="46.65643613281671" lon="4.661629829431498"><ele>374.0</ele><time>2026-04-10T14:26:54Z</time></trkpt><trkpt lat="46.65636998866495" lon="4.661637089176896"><ele>374.0</ele><time>2026-04-10T14:26:55Z</time></trkpt><trkpt lat="46.65627219195276" lon="4.661648122995508"><ele>374.0</ele><time>2026-04-10T14:26:57Z</time></trkpt><trkpt lat="46.656198441921646" lon="4.6616484503664655"><ele>374.0</ele><time>2026-04-10T14:26:58Z</time></trkpt><trkpt lat="46.65607526376209" lon="4.661585784604136"><ele>374.0</ele><time>2026-04-10T14:27:00Z</time></trkpt><trkpt lat="46.65601095070052" lon="4.661522824489178"><ele>374.0</ele><time>2026-04-10T14:27:01Z</time></trkpt><trkpt lat="46.65594332646617" lon="4.661449827379627"><ele>374.4</ele><time>2026-04-10T14:27:02Z</time></trkpt><trkpt lat="46.65587612074726" lon="4.661377311756876"><ele>374.79999999999995</ele><time>2026-04-10T14:27:03Z</time></trkpt><trkpt lat="46.65580208283158" lon="4.661310739049765"><ele>375.20000000000005</ele><time>2026-04-10T14:27:04Z</time></trkpt><trkpt lat="46.65572901484076" lon="4.661231141299915"><ele>375.6</ele><time>2026-04-10T14:27:05Z</time></trkpt><trkpt lat="46.65564045656365" lon="4.661153011787629"><ele>376.0</ele><time>2026-04-10T14:27:06Z</time></trkpt><trkpt lat="46.65555662481809" lon="4.661051546989809"><ele>376.0</ele><time>2026-04-10T14:27:07Z</time></trkpt><trkpt lat="46.65549038223423" lon="4.66095731579439"><ele>376.0</ele><time>2026-04-10T14:27:08Z</time></trkpt><trkpt lat="46.65541487390222" lon="4.660883043679684"><ele>376.0</ele><time>2026-04-10T14:27:09Z</time></trkpt><trkpt lat="46.65533014551181" lon="4.6607899168947355"><ele>376.0</ele><time>2026-04-10T14:27:10Z</time></trkpt><trkpt lat="46.655254332952424" lon="4.660672263282158"><ele>376.0</ele><time>2026-04-10T14:27:11Z</time></trkpt><trkpt lat="46.65516450805547" lon="4.660585634201528"><ele>374.5</ele><time>2026-04-10T14:27:12Z</time></trkpt><trkpt lat="46.65508472294098" lon="4.6604821332935495"><ele>373.0</ele><time>2026-04-10T14:27:13Z</time></trkpt><trkpt lat="46.65503489588419" lon="4.6603988085481145"><ele>371.5</ele><time>2026-04-10T14:27:14Z</time></trkpt><trkpt lat="46.65497823587139" lon="4.6603179802585135"><ele>370.0</ele><time>2026-04-10T14:27:15Z</time></trkpt><trkpt lat="46.65491411688812" lon="4.660221010783254"><ele>368.5</ele><time>2026-04-10T14:27:16Z</time></trkpt><trkpt lat="46.65486404263844" lon="4.660137906482671"><ele>367.0</ele><time>2026-04-10T14:27:17Z</time></trkpt><trkpt lat="46.6548173336789" lon="4.66004130921768"><ele>367.0</ele><time>2026-04-10T14:27:18Z</time></trkpt><trkpt lat="46.6547690321622" lon="4.659925237445411"><ele>367.0</ele><time>2026-04-10T14:27:19Z</time></trkpt><trkpt lat="46.65473227216322" lon="4.659838774766413"><ele>367.0</ele><time>2026-04-10T14:27:20Z</time></trkpt><trkpt lat="46.654666646795434" lon="4.659706165717011"><ele>367.0</ele><time>2026-04-10T14:27:21Z</time></trkpt><trkpt lat="46.6545874625864" lon="4.659586186171886"><ele>367.0</ele><time>2026-04-10T14:27:22Z</time></trkpt><trkpt lat="46.65453494615363" lon="4.659493280515924"><ele>369.0</ele><time>2026-04-10T14:27:23Z</time></trkpt><trkpt lat="46.654472284010915" lon="4.659373330455254"><ele>371.0</ele><time>2026-04-10T14:27:24Z</time></trkpt><trkpt lat="46.654419957235135" lon="4.659297978189198"><ele>373.0</ele><time>2026-04-10T14:27:25Z</time></trkpt><trkpt lat="46.6543843116192" lon="4.6592003651951295"><ele>375.0</ele><time>2026-04-10T14:27:26Z</time></trkpt><trkpt lat="46.65434211557971" lon="4.659117359146876"><ele>377.0</ele><time>2026-04-10T14:27:27Z</time></trkpt><trkpt lat="46.65430474770149" lon="4.659031523428967"><ele>379.0</ele><time>2026-04-10T14:27:28Z</time></trkpt><trkpt lat="46.654265093834134" lon="4.65891455454137"><ele>374.8333333333333</ele><time>2026-04-10T14:27:32Z</time></trkpt><trkpt lat="46.65424717444909" lon="4.658799855978363"><ele>370.66666666666663</ele><time>2026-04-10T14:27:35Z</time></trkpt><trkpt lat="46.654226121514256" lon="4.658696692836643"><ele>366.5</ele><time>2026-04-10T14:27:36.999Z</time></trkpt><trkpt lat="46.65419000513767" lon="4.658561844007723"><ele>362.3333333333333</ele><time>2026-04-10T14:27:39.999Z</time></trkpt><trkpt lat="46.65417048409343" lon="4.65844611372876"><ele>358.1666666666667</ele><time>2026-04-10T14:27:42.999Z</time></trkpt><trkpt lat="46.65413567877966" lon="4.658351576502258"><ele>354.0</ele><time>2026-04-10T14:27:44.999Z</time></trkpt><trkpt lat="46.65408712470134" lon="4.658220570665309"><ele>354.0</ele><time>2026-04-10T14:27:46.999Z</time></trkpt><trkpt lat="46.654035743634275" lon="4.658046365773674"><ele>354.0</ele><time>2026-04-10T14:27:47.999Z</time></trkpt><trkpt lat="46.65396355879815" lon="4.657864361753169"><ele>354.0</ele><time>2026-04-10T14:27:48.999Z</time></trkpt><trkpt lat="46.65393545187835" lon="4.657716870608646"><ele>354.0</ele><time>2026-04-10T14:27:49.999Z</time></trkpt><trkpt lat="46.65391068100524" lon="4.6575979037112285"><ele>354.8333333333333</ele><time>2026-04-10T14:27:50.999Z</time></trkpt><trkpt lat="46.65388890742393" lon="4.657480145952352"><ele>355.6666666666667</ele><time>2026-04-10T14:27:51.999Z</time></trkpt><trkpt lat="46.653869348658105" lon="4.657371280726386"><ele>356.5</ele><time>2026-04-10T14:27:52.999Z</time></trkpt><trkpt lat="46.65385042318644" lon="4.657259038563691"><ele>357.33333333333337</ele><time>2026-04-10T14:27:53.999Z</time></trkpt><trkpt lat="46.65383883944252" lon="4.657132142629685"><ele>358.1666666666667</ele><time>2026-04-10T14:27:54.999Z</time></trkpt><trkpt lat="46.653834639354734" lon="4.656987432163465"><ele>359.0</ele><time>2026-04-10T14:27:55.999Z</time></trkpt><trkpt lat="46.6538315307819" lon="4.65684568113603"><ele>359.0</ele><time>2026-04-10T14:27:56.999Z</time></trkpt><trkpt lat="46.65383215868872" lon="4.65672006746878"><ele>359.0</ele><time>2026-04-10T14:27:57.999Z</time></trkpt><trkpt lat="46.65383285345429" lon="4.656600073070862"><ele>359.0</ele><time>2026-04-10T14:27:58.999Z</time></trkpt><trkpt lat="46.653834395247685" lon="4.656485218830975"><ele>359.0</ele><time>2026-04-10T14:27:59.999Z</time></trkpt><trkpt lat="46.65383595746475" lon="4.6563688431966375"><ele>359.0</ele><time>2026-04-10T14:28:00.999Z</time></trkpt><trkpt lat="46.653837241124265" lon="4.656273218437001"><ele>359.0</ele><time>2026-04-10T14:28:01.999Z</time></trkpt><trkpt lat="46.653838568812276" lon="4.656174313845804"><ele>357.5</ele><time>2026-04-10T14:28:02.999Z</time></trkpt><trkpt lat="46.653839962239644" lon="4.656070511899182"><ele>356.0</ele><time>2026-04-10T14:28:03.999Z</time></trkpt><trkpt lat="46.653840484423085" lon="4.655934506508413"><ele>354.5</ele><time>2026-04-10T14:28:04.999Z</time></trkpt><trkpt lat="46.653839598650116" lon="4.6558038220333895"><ele>353.0</ele><time>2026-04-10T14:28:05.999Z</time></trkpt><trkpt lat="46.65383025050141" lon="4.655672926472259"><ele>351.5</ele><time>2026-04-10T14:28:06.999Z</time></trkpt><trkpt lat="46.65382227692991" lon="4.655558673662098"><ele>350.0</ele><time>2026-04-10T14:28:07.999Z</time></trkpt><trkpt lat="46.65381657298426" lon="4.655433518425746"><ele>350.0</ele><time>2026-04-10T14:28:08.999Z</time></trkpt><trkpt lat="46.653815557666356" lon="4.655318427426064"><ele>350.0</ele><time>2026-04-10T14:28:09.999Z</time></trkpt><trkpt lat="46.65380768837419" lon="4.655204567638686"><ele>350.0</ele><time>2026-04-10T14:28:10.999Z</time></trkpt><trkpt lat="46.653797274797974" lon="4.655097721670812"><ele>350.0</ele><time>2026-04-10T14:28:11.999Z</time></trkpt><trkpt lat="46.65375653912023" lon="4.654983699555053"><ele>350.0</ele><time>2026-04-10T14:28:13.999Z</time></trkpt><trkpt lat="46.653631566331725" lon="4.65491066989904"><ele>346.2</ele><time>2026-04-10T14:28:15.999Z</time></trkpt><trkpt lat="46.65356668421622" lon="4.654846555632884"><ele>342.4</ele><time>2026-04-10T14:28:16.999Z</time></trkpt><trkpt lat="46.653489452344544" lon="4.654810658505791"><ele>338.6</ele><time>2026-04-10T14:28:18.999Z</time></trkpt><trkpt lat="46.65346410232888" lon="4.654607618810331"><ele>334.8</ele><time>2026-04-10T14:28:22.999Z</time></trkpt><trkpt lat="46.65344664713402" lon="4.654499919598954"><ele>331.0</ele><time>2026-04-10T14:28:24.999Z</time></trkpt><trkpt lat="46.65337423806047" lon="4.654378865491966"><ele>331.0</ele><time>2026-04-10T14:28:26.999Z</time></trkpt><trkpt lat="46.653316371074105" lon="4.654293409903065"><ele>331.0</ele><time>2026-04-10T14:28:27.999Z</time></trkpt><trkpt lat="46.65325648399577" lon="4.65419446169168"><ele>331.0</ele><time>2026-04-10T14:28:29Z</time></trkpt><trkpt lat="46.65320634509591" lon="4.654126676086817"><ele>331.0</ele><time>2026-04-10T14:28:30Z</time></trkpt><trkpt lat="46.65312777607049" lon="4.6540440304180715"><ele>331.0</ele><time>2026-04-10T14:28:31Z</time></trkpt><trkpt lat="46.653033519660504" lon="4.653948146912099"><ele>331.0</ele><time>2026-04-10T14:28:32Z</time></trkpt><trkpt lat="46.65291697610655" lon="4.653813563807855"><ele>331.0</ele><time>2026-04-10T14:28:33Z</time></trkpt><trkpt lat="46.65280084592253" lon="4.6536659885654625"><ele>331.0</ele><time>2026-04-10T14:28:34Z</time></trkpt><trkpt lat="46.65269867844105" lon="4.653594984412299"><ele>331.0</ele><time>2026-04-10T14:28:35Z</time></trkpt><trkpt lat="46.65260309336105" lon="4.653523045528431"><ele>331.3333333333333</ele><time>2026-04-10T14:28:36Z</time></trkpt><trkpt lat="46.65244204913741" lon="4.653450125870149"><ele>331.6666666666667</ele><time>2026-04-10T14:28:37Z</time></trkpt><trkpt lat="46.65221548553481" lon="4.653320258143251"><ele>332.0</ele><time>2026-04-10T14:28:38Z</time></trkpt><trkpt lat="46.6520219599318" lon="4.653195668668954"><ele>331.20000000000005</ele><time>2026-04-10T14:28:39Z</time></trkpt><trkpt lat="46.65188141153009" lon="4.653092419402023"><ele>330.4</ele><time>2026-04-10T14:28:40Z</time></trkpt><trkpt lat="46.651806874901844" lon="4.653003721981381"><ele>329.6</ele><time>2026-04-10T14:28:41Z</time></trkpt><trkpt lat="46.65175080566047" lon="4.652946127526837"><ele>328.79999999999995</ele><time>2026-04-10T14:28:42Z</time></trkpt><trkpt lat="46.65170549732221" lon="4.652845761179927"><ele>328.0</ele><time>2026-04-10T14:28:43Z</time></trkpt><trkpt lat="46.65169132937036" lon="4.652713890997079"><ele>328.0</ele><time>2026-04-10T14:28:44Z</time></trkpt><trkpt lat="46.651713205453724" lon="4.652550662930374"><ele>328.0</ele><time>2026-04-10T14:28:45Z</time></trkpt><trkpt lat="46.65174569247853" lon="4.652371989780724"><ele>328.0</ele><time>2026-04-10T14:28:46Z</time></trkpt><trkpt lat="46.65177782325028" lon="4.652223757199476"><ele>328.0</ele><time>2026-04-10T14:28:47Z</time></trkpt><trkpt lat="46.65180414144772" lon="4.652118969454059"><ele>328.0</ele><time>2026-04-10T14:28:48Z</time></trkpt><trkpt lat="46.65183184663965" lon="4.651965107784009"><ele>327.5</ele><time>2026-04-10T14:28:50Z</time></trkpt><trkpt lat="46.651908114453356" lon="4.651821513540811"><ele>327.0</ele><time>2026-04-10T14:28:52Z</time></trkpt><trkpt lat="46.651946835157766" lon="4.651741328728385"><ele>326.5</ele><time>2026-04-10T14:28:53Z</time></trkpt><trkpt lat="46.65198214578079" lon="4.651643675544535"><ele>326.0</ele><time>2026-04-10T14:28:54Z</time></trkpt><trkpt lat="46.65203865932937" lon="4.651560789265012"><ele>325.5</ele><time>2026-04-10T14:28:55Z</time></trkpt><trkpt lat="46.65211001550065" lon="4.651505349000556"><ele>325.0</ele><time>2026-04-10T14:28:56Z</time></trkpt><trkpt lat="46.65217384871628" lon="4.651447679907018"><ele>326.8</ele><time>2026-04-10T14:28:57Z</time></trkpt><trkpt lat="46.6522644378423" lon="4.65139520896519"><ele>328.6</ele><time>2026-04-10T14:28:59Z</time></trkpt><trkpt lat="46.65232085811329" lon="4.651336689964334"><ele>330.4</ele><time>2026-04-10T14:29:02Z</time></trkpt><trkpt lat="46.65227763650133" lon="4.651096419110074"><ele>332.2</ele><time>2026-04-10T14:29:03Z</time></trkpt><trkpt lat="46.652310733265246" lon="4.650994916127172"><ele>334.0</ele><time>2026-04-10T14:29:05Z</time></trkpt><trkpt lat="46.65235561059801" lon="4.6509090164985745"><ele>334.0</ele><time>2026-04-10T14:29:07Z</time></trkpt><trkpt lat="46.65237381375111" lon="4.650801479971"><ele>334.0</ele><time>2026-04-10T14:29:09Z</time></trkpt><trkpt lat="46.652381879206416" lon="4.65070972351883"><ele>334.0</ele><time>2026-04-10T14:29:11Z</time></trkpt><trkpt lat="46.65238041140294" lon="4.650602629743246"><ele>334.0</ele><time>2026-04-10T14:29:13Z</time></trkpt><trkpt lat="46.65233733411297" lon="4.650457697366273"><ele>334.0</ele><time>2026-04-10T14:29:15Z</time></trkpt><trkpt lat="46.65232045622395" lon="4.650334257932918"><ele>334.0</ele><time>2026-04-10T14:29:17Z</time></trkpt><trkpt lat="46.65231371308412" lon="4.650233686340633"><ele>332.6</ele><time>2026-04-10T14:29:19Z</time></trkpt><trkpt lat="46.65226264491297" lon="4.6501518475589805"><ele>331.2</ele><time>2026-04-10T14:29:21Z</time></trkpt><trkpt lat="46.65213696403215" lon="4.65008449118621"><ele>329.8</ele><time>2026-04-10T14:29:23Z</time></trkpt><trkpt lat="46.65204333755326" lon="4.649998014862301"><ele>328.40000000000003</ele><time>2026-04-10T14:29:25Z</time></trkpt><trkpt lat="46.65193207170931" lon="4.649999411651324"><ele>327.0</ele><time>2026-04-10T14:29:27Z</time></trkpt><trkpt lat="46.65186536859737" lon="4.650029339522215"><ele>325.6</ele><time>2026-04-10T14:29:28Z</time></trkpt><trkpt lat="46.651792072446135" lon="4.650101292897568"><ele>324.20000000000005</ele><time>2026-04-10T14:29:30Z</time></trkpt><trkpt lat="46.651729216453916" lon="4.650224466837612"><ele>322.8</ele><time>2026-04-10T14:29:32Z</time></trkpt><trkpt lat="46.65165557181539" lon="4.650331047000141"><ele>321.4</ele><time>2026-04-10T14:29:34Z</time></trkpt><trkpt lat="46.65156356715196" lon="4.650359139589595"><ele>320.0</ele><time>2026-04-10T14:29:36Z</time></trkpt><trkpt lat="46.65146904916007" lon="4.65032992781207"><ele>318.8</ele><time>2026-04-10T14:29:38Z</time></trkpt><trkpt lat="46.651386194466866" lon="4.650217704533182"><ele>317.6</ele><time>2026-04-10T14:29:39.999Z</time></trkpt><trkpt lat="46.65129099679721" lon="4.650208528309749"><ele>316.4</ele><time>2026-04-10T14:29:41.999Z</time></trkpt><trkpt lat="46.651210463754474" lon="4.650219096564492"><ele>315.2</ele><time>2026-04-10T14:29:42.999Z</time></trkpt><trkpt lat="46.65114671737677" lon="4.6502868926469"><ele>314.0</ele><time>2026-04-10T14:29:43.999Z</time></trkpt><trkpt lat="46.651081645587865" lon="4.650373732119168"><ele>313.83333333333337</ele><time>2026-04-10T14:29:44.999Z</time></trkpt><trkpt lat="46.651017909639236" lon="4.650454505438318"><ele>313.6666666666667</ele><time>2026-04-10T14:29:45.999Z</time></trkpt><trkpt lat="46.65094439695761" lon="4.650456586859108"><ele>313.5</ele><time>2026-04-10T14:29:47.999Z</time></trkpt><trkpt lat="46.65087195816923" lon="4.650454331982676"><ele>313.3333333333333</ele><time>2026-04-10T14:29:49.999Z</time></trkpt><trkpt lat="46.65080528586407" lon="4.650497161466915"><ele>313.16666666666663</ele><time>2026-04-10T14:29:50.999Z</time></trkpt><trkpt lat="46.650726550547475" lon="4.6505879532540675"><ele>313.0</ele><time>2026-04-10T14:29:51.999Z</time></trkpt><trkpt lat="46.650638191265365" lon="4.650689486055844"><ele>313.0</ele><time>2026-04-10T14:29:52.999Z</time></trkpt><trkpt lat="46.650507934180865" lon="4.650819858048365"><ele>313.0</ele><time>2026-04-10T14:29:53.999Z</time></trkpt><trkpt lat="46.65037675535882" lon="4.650952043542811"><ele>313.0</ele><time>2026-04-10T14:29:54.999Z</time></trkpt><trkpt lat="46.650202666020945" lon="4.6510850149662915"><ele>310.3333333333333</ele><time>2026-04-10T14:29:55.999Z</time></trkpt><trkpt lat="46.650034219003416" lon="4.651228144898238"><ele>307.6666666666667</ele><time>2026-04-10T14:29:56.999Z</time></trkpt><trkpt lat="46.649855447635396" lon="4.6513687148967415"><ele>305.0</ele><time>2026-04-10T14:29:57.999Z</time></trkpt><trkpt lat="46.64969653374661" lon="4.651507655228284"><ele>305.0</ele><time>2026-04-10T14:29:58.999Z</time></trkpt><trkpt lat="46.649562526814734" lon="4.651627609910008"><ele>305.0</ele><time>2026-04-10T14:29:59.999Z</time></trkpt><trkpt lat="46.64943713328431" lon="4.6517460749796395"><ele>305.0</ele><time>2026-04-10T14:30:00.999Z</time></trkpt><trkpt lat="46.64929951640506" lon="4.651873348244775"><ele>304.0</ele><time>2026-04-10T14:30:01.999Z</time></trkpt><trkpt lat="46.64916580080827" lon="4.652016113636996"><ele>303.0</ele><time>2026-04-10T14:30:02.999Z</time></trkpt><trkpt lat="46.649035673886154" lon="4.652177165865563"><ele>302.0</ele><time>2026-04-10T14:30:03.999Z</time></trkpt><trkpt lat="46.64890234210392" lon="4.652366950443883"><ele>302.0</ele><time>2026-04-10T14:30:04.999Z</time></trkpt><trkpt lat="46.6487726252656" lon="4.652532984557779"><ele>302.0</ele><time>2026-04-10T14:30:05.999Z</time></trkpt><trkpt lat="46.64867331742558" lon="4.652698124856896"><ele>302.0</ele><time>2026-04-10T14:30:06.999Z</time></trkpt><trkpt lat="46.64857117430312" lon="4.6528723539789825"><ele>306.33333333333337</ele><time>2026-04-10T14:30:07.999Z</time></trkpt><trkpt lat="46.64847057341064" lon="4.653071353004937"><ele>310.6666666666667</ele><time>2026-04-10T14:30:08.999Z</time></trkpt><trkpt lat="46.64836398661132" lon="4.653267840637689"><ele>315.0</ele><time>2026-04-10T14:30:09.999Z</time></trkpt><trkpt lat="46.64827848722906" lon="4.65346007294065"><ele>309.6666666666667</ele><time>2026-04-10T14:30:10.999Z</time></trkpt><trkpt lat="46.648199152730044" lon="4.65363741179997"><ele>304.33333333333337</ele><time>2026-04-10T14:30:11.999Z</time></trkpt><trkpt lat="46.64810254952371" lon="4.653824745264428"><ele>299.0</ele><time>2026-04-10T14:30:12.999Z</time></trkpt><trkpt lat="46.64803982546158" lon="4.65402608036765"><ele>299.0</ele><time>2026-04-10T14:30:13.999Z</time></trkpt><trkpt lat="46.6479744124386" lon="4.654225982095865"><ele>299.0</ele><time>2026-04-10T14:30:14.999Z</time></trkpt><trkpt lat="46.647898293337384" lon="4.654415691951947"><ele>299.0</ele><time>2026-04-10T14:30:15.999Z</time></trkpt><trkpt lat="46.64783316644405" lon="4.654580387118081"><ele>299.0</ele><time>2026-04-10T14:30:16.999Z</time></trkpt><trkpt lat="46.64776859819716" lon="4.654747292422276"><ele>299.0</ele><time>2026-04-10T14:30:17.999Z</time></trkpt><trkpt lat="46.64769878024574" lon="4.654911731190647"><ele>299.0</ele><time>2026-04-10T14:30:18.999Z</time></trkpt><trkpt lat="46.647639431147766" lon="4.655079799523392"><ele>299.0</ele><time>2026-04-10T14:30:19.999Z</time></trkpt><trkpt lat="46.64757984670997" lon="4.655240133299139"><ele>299.0</ele><time>2026-04-10T14:30:20.999Z</time></trkpt><trkpt lat="46.64753076287102" lon="4.655375896409207"><ele>299.0</ele><time>2026-04-10T14:30:21.999Z</time></trkpt><trkpt lat="46.64756165503016" lon="4.6556156004994955"><ele>299.0</ele><time>2026-04-10T14:30:22.999Z</time></trkpt><trkpt lat="46.64750078428259" lon="4.655726637336788"><ele>299.0</ele><time>2026-04-10T14:30:23.999Z</time></trkpt><trkpt lat="46.64744743105171" lon="4.655827781688923"><ele>299.0</ele><time>2026-04-10T14:30:24.999Z</time></trkpt><trkpt lat="46.64739628809129" lon="4.655927524513412"><ele>299.0</ele><time>2026-04-10T14:30:25.999Z</time></trkpt><trkpt lat="46.647355373907295" lon="4.656022990769415"><ele>299.0</ele><time>2026-04-10T14:30:26.999Z</time></trkpt><trkpt lat="46.64732255942756" lon="4.6561076600070965"><ele>299.0</ele><time>2026-04-10T14:30:27.999Z</time></trkpt><trkpt lat="46.64725885048418" lon="4.65624092031505"><ele>299.0</ele><time>2026-04-10T14:30:29.999Z</time></trkpt><trkpt lat="46.64721167591397" lon="4.65632941793385"><ele>299.0</ele><time>2026-04-10T14:30:31.999Z</time></trkpt><trkpt lat="46.64714752717629" lon="4.656393204594991"><ele>299.0</ele><time>2026-04-10T14:30:33.999Z</time></trkpt><trkpt lat="46.64710380965546" lon="4.656462074335466"><ele>299.0</ele><time>2026-04-10T14:30:35Z</time></trkpt><trkpt lat="46.647053579675436" lon="4.656544211398801"><ele>299.33333333333337</ele><time>2026-04-10T14:30:36Z</time></trkpt><trkpt lat="46.647013959630385" lon="4.656657108440132"><ele>299.6666666666667</ele><time>2026-04-10T14:30:37Z</time></trkpt><trkpt lat="46.64697421812121" lon="4.65677621854443"><ele>300.0</ele><time>2026-04-10T14:30:38Z</time></trkpt><trkpt lat="46.646929771373216" lon="4.656901161861854"><ele>300.3333333333333</ele><time>2026-04-10T14:30:39Z</time></trkpt><trkpt lat="46.64688268526718" lon="4.657011900447002"><ele>300.66666666666663</ele><time>2026-04-10T14:30:40Z</time></trkpt><trkpt lat="46.6468461474692" lon="4.657102803817706"><ele>301.0</ele><time>2026-04-10T14:30:41Z</time></trkpt><trkpt lat="46.646786257863084" lon="4.65724414540793"><ele>301.0</ele><time>2026-04-10T14:30:43Z</time></trkpt><trkpt lat="46.64672173510858" lon="4.657397769429232"><ele>301.0</ele><time>2026-04-10T14:30:45Z</time></trkpt><trkpt lat="46.64668222628" lon="4.657494112256665"><ele>301.0</ele><time>2026-04-10T14:30:46Z</time></trkpt><trkpt lat="46.646638740528985" lon="4.657574196935587"><ele>301.0</ele><time>2026-04-10T14:30:47Z</time></trkpt><trkpt lat="46.64661497113078" lon="4.6576780932123425"><ele>301.0</ele><time>2026-04-10T14:30:48Z</time></trkpt><trkpt lat="46.64657474706346" lon="4.65777122541295"><ele>301.0</ele><time>2026-04-10T14:30:49Z</time></trkpt><trkpt lat="46.64653692821979" lon="4.6578627127124825"><ele>300.16666666666663</ele><time>2026-04-10T14:30:50Z</time></trkpt><trkpt lat="46.64647525625835" lon="4.658019890126892"><ele>299.3333333333333</ele><time>2026-04-10T14:30:52Z</time></trkpt><trkpt lat="46.64644250779953" lon="4.658099329861276"><ele>298.5</ele><time>2026-04-10T14:30:53Z</time></trkpt><trkpt lat="46.6463655163511" lon="4.658249804081957"><ele>297.6666666666667</ele><time>2026-04-10T14:30:55Z</time></trkpt><trkpt lat="46.646331207640486" lon="4.658330278181352"><ele>296.83333333333337</ele><time>2026-04-10T14:30:56Z</time></trkpt><trkpt lat="46.646297794009676" lon="4.658408652806516"><ele>296.0</ele><time>2026-04-10T14:30:57Z</time></trkpt><trkpt lat="46.646273739537655" lon="4.658502252954537"><ele>296.0</ele><time>2026-04-10T14:30:58Z</time></trkpt><trkpt lat="46.6462305767733" lon="4.6585752716292586"><ele>296.0</ele><time>2026-04-10T14:30:59Z</time></trkpt><trkpt lat="46.64620898599064" lon="4.658678157571595"><ele>296.0</ele><time>2026-04-10T14:31:00Z</time></trkpt><trkpt lat="46.646173790481384" lon="4.658770226617815"><ele>296.0</ele><time>2026-04-10T14:31:01Z</time></trkpt><trkpt lat="46.64611995687543" lon="4.658939636615532"><ele>296.0</ele><time>2026-04-10T14:31:03Z</time></trkpt><trkpt lat="46.64609054082048" lon="4.659034352748466"><ele>296.0</ele><time>2026-04-10T14:31:04Z</time></trkpt><trkpt lat="46.64606221900183" lon="4.659141092274342"><ele>295.8</ele><time>2026-04-10T14:31:05Z</time></trkpt><trkpt lat="46.64603633139843" lon="4.659256797565253"><ele>295.6</ele><time>2026-04-10T14:31:06Z</time></trkpt><trkpt lat="46.645999055870526" lon="4.659376011096581"><ele>295.4</ele><time>2026-04-10T14:31:07Z</time></trkpt><trkpt lat="46.64596677420168" lon="4.659509023816331"><ele>295.2</ele><time>2026-04-10T14:31:08Z</time></trkpt><trkpt lat="46.645932100377955" lon="4.659651529741154"><ele>295.0</ele><time>2026-04-10T14:31:09Z</time></trkpt><trkpt lat="46.64590105896348" lon="4.659803389856472"><ele>295.0</ele><time>2026-04-10T14:31:10Z</time></trkpt><trkpt lat="46.64586951698293" lon="4.65995755960026"><ele>295.0</ele><time>2026-04-10T14:31:11Z</time></trkpt><trkpt lat="46.645833282032896" lon="4.66011568671147"><ele>295.0</ele><time>2026-04-10T14:31:12Z</time></trkpt><trkpt lat="46.6457975279102" lon="4.660283761056652"><ele>295.0</ele><time>2026-04-10T14:31:13Z</time></trkpt><trkpt lat="46.6457694954993" lon="4.6604539344284985"><ele>295.0</ele><time>2026-04-10T14:31:14Z</time></trkpt><trkpt lat="46.645731655561534" lon="4.660645002994161"><ele>295.0</ele><time>2026-04-10T14:31:15Z</time></trkpt><trkpt lat="46.64570322237602" lon="4.66084749423885"><ele>295.0</ele><time>2026-04-10T14:31:16Z</time></trkpt><trkpt lat="46.645690253354424" lon="4.661067539058236"><ele>295.0</ele><time>2026-04-10T14:31:17Z</time></trkpt><trkpt lat="46.6456814206831" lon="4.661285342730773"><ele>295.0</ele><time>2026-04-10T14:31:18Z</time></trkpt><trkpt lat="46.6456650442014" lon="4.661495305436594"><ele>295.0</ele><time>2026-04-10T14:31:19Z</time></trkpt><trkpt lat="46.645650189188935" lon="4.661689489028885"><ele>295.0</ele><time>2026-04-10T14:31:20Z</time></trkpt><trkpt lat="46.64563855941571" lon="4.661894590102534"><ele>295.0</ele><time>2026-04-10T14:31:21Z</time></trkpt><trkpt lat="46.64565578293984" lon="4.662108197490183"><ele>295.0</ele><time>2026-04-10T14:31:22Z</time></trkpt><trkpt lat="46.645644412133244" lon="4.662338550089629"><ele>295.0</ele><time>2026-04-10T14:31:23Z</time></trkpt><trkpt lat="46.6456554951733" lon="4.662567412803484"><ele>295.0</ele><time>2026-04-10T14:31:24Z</time></trkpt><trkpt lat="46.645671097461815" lon="4.662797567101595"><ele>295.0</ele><time>2026-04-10T14:31:25Z</time></trkpt><trkpt lat="46.64568039545472" lon="4.663032938633766"><ele>295.0</ele><time>2026-04-10T14:31:26Z</time></trkpt><trkpt lat="46.64569214314608" lon="4.663272794713141"><ele>295.0</ele><time>2026-04-10T14:31:27Z</time></trkpt><trkpt lat="46.64571003558837" lon="4.663522023361216"><ele>295.0</ele><time>2026-04-10T14:31:28Z</time></trkpt><trkpt lat="46.645714254702085" lon="4.663760702805083"><ele>295.0</ele><time>2026-04-10T14:31:29Z</time></trkpt><trkpt lat="46.645708302580815" lon="4.663986564602378"><ele>295.0</ele><time>2026-04-10T14:31:30Z</time></trkpt><trkpt lat="46.64570806878846" lon="4.664216532065178"><ele>295.0</ele><time>2026-04-10T14:31:31Z</time></trkpt><trkpt lat="46.645696607035966" lon="4.664434068503386"><ele>295.0</ele><time>2026-04-10T14:31:32Z</time></trkpt><trkpt lat="46.645677484136385" lon="4.6646458091848935"><ele>295.0</ele><time>2026-04-10T14:31:32.999Z</time></trkpt><trkpt lat="46.645647223906174" lon="4.664862496239196"><ele>295.0</ele><time>2026-04-10T14:31:33.999Z</time></trkpt><trkpt lat="46.645619746446464" lon="4.665088741973175"><ele>292.0</ele><time>2026-04-10T14:31:34.999Z</time></trkpt><trkpt lat="46.64559442339112" lon="4.665325578933411"><ele>289.0</ele><time>2026-04-10T14:31:35.999Z</time></trkpt><trkpt lat="46.645564820258635" lon="4.665540989512554"><ele>286.0</ele><time>2026-04-10T14:31:36.999Z</time></trkpt><trkpt lat="46.64553712054957" lon="4.665761250607015"><ele>286.0</ele><time>2026-04-10T14:31:37.999Z</time></trkpt><trkpt lat="46.645493752125475" lon="4.665975449699098"><ele>286.0</ele><time>2026-04-10T14:31:38.999Z</time></trkpt><trkpt lat="46.645442216651574" lon="4.666177621048463"><ele>286.0</ele><time>2026-04-10T14:31:39.999Z</time></trkpt><trkpt lat="46.64538127830137" lon="4.666390622259779"><ele>284.3333333333333</ele><time>2026-04-10T14:31:40.999Z</time></trkpt><trkpt lat="46.645314892134074" lon="4.666600387314408"><ele>282.6666666666667</ele><time>2026-04-10T14:31:41.999Z</time></trkpt><trkpt lat="46.645252767902846" lon="4.6667982242283195"><ele>281.0</ele><time>2026-04-10T14:31:42.999Z</time></trkpt><trkpt lat="46.64516770234835" lon="4.666977370730432"><ele>284.6666666666667</ele><time>2026-04-10T14:31:43.999Z</time></trkpt><trkpt lat="46.645089071076896" lon="4.667169516213658"><ele>288.3333333333333</ele><time>2026-04-10T14:31:44.999Z</time></trkpt><trkpt lat="46.64500803991977" lon="4.667365494616267"><ele>292.0</ele><time>2026-04-10T14:31:45.999Z</time></trkpt><trkpt lat="46.644926134483235" lon="4.66756770105803"><ele>292.0</ele><time>2026-04-10T14:31:46.999Z</time></trkpt><trkpt lat="46.64484456106917" lon="4.667773771342235"><ele>292.0</ele><time>2026-04-10T14:31:47.999Z</time></trkpt><trkpt lat="46.644763602270395" lon="4.667978288987925"><ele>292.0</ele><time>2026-04-10T14:31:48.999Z</time></trkpt><trkpt lat="46.64467774404184" lon="4.668193115460456"><ele>292.66666666666663</ele><time>2026-04-10T14:31:49.999Z</time></trkpt><trkpt lat="46.644592701149016" lon="4.668399684508287"><ele>293.3333333333333</ele><time>2026-04-10T14:31:50.999Z</time></trkpt><trkpt lat="46.6444996507222" lon="4.668615409269368"><ele>294.0</ele><time>2026-04-10T14:31:51.999Z</time></trkpt><trkpt lat="46.64440406049048" lon="4.668823562840021"><ele>294.0</ele><time>2026-04-10T14:31:52.999Z</time></trkpt><trkpt lat="46.6443005533728" lon="4.669029615093897"><ele>294.0</ele><time>2026-04-10T14:31:53.999Z</time></trkpt><trkpt lat="46.644202058066604" lon="4.6692189323300894"><ele>294.0</ele><time>2026-04-10T14:31:54.999Z</time></trkpt><trkpt lat="46.64410300095018" lon="4.669405250479946"><ele>292.3333333333333</ele><time>2026-04-10T14:31:55.999Z</time></trkpt><trkpt lat="46.64399721083631" lon="4.669593905606103"><ele>290.66666666666663</ele><time>2026-04-10T14:31:56.999Z</time></trkpt><trkpt lat="46.64389530320827" lon="4.669785719150915"><ele>289.0</ele><time>2026-04-10T14:31:57.999Z</time></trkpt><trkpt lat="46.643776567136534" lon="4.669951025698517"><ele>289.0</ele><time>2026-04-10T14:31:58.999Z</time></trkpt><trkpt lat="46.64366148039751" lon="4.670117741208809"><ele>289.0</ele><time>2026-04-10T14:31:59.999Z</time></trkpt><trkpt lat="46.64353884963122" lon="4.670276535299079"><ele>289.0</ele><time>2026-04-10T14:32:00.999Z</time></trkpt><trkpt lat="46.64341285809551" lon="4.670420456800681"><ele>288.3333333333333</ele><time>2026-04-10T14:32:01.999Z</time></trkpt><trkpt lat="46.64328457618786" lon="4.670561024944453"><ele>287.6666666666667</ele><time>2026-04-10T14:32:02.999Z</time></trkpt><trkpt lat="46.64315433181154" lon="4.670690924924323"><ele>287.0</ele><time>2026-04-10T14:32:03.999Z</time></trkpt><trkpt lat="46.643017454593334" lon="4.670789454711694"><ele>287.0</ele><time>2026-04-10T14:32:04.999Z</time></trkpt><trkpt lat="46.64288667309091" lon="4.67089656052614"><ele>287.0</ele><time>2026-04-10T14:32:05.999Z</time></trkpt><trkpt lat="46.642754985568764" lon="4.670997522073044"><ele>287.0</ele><time>2026-04-10T14:32:06.999Z</time></trkpt><trkpt lat="46.64262173467663" lon="4.671096649993148"><ele>287.0</ele><time>2026-04-10T14:32:07.999Z</time></trkpt><trkpt lat="46.64248457378504" lon="4.671193896746161"><ele>286.33333333333337</ele><time>2026-04-10T14:32:08.999Z</time></trkpt><trkpt lat="46.64235050603154" lon="4.671309970400014"><ele>285.6666666666667</ele><time>2026-04-10T14:32:09.999Z</time></trkpt><trkpt lat="46.64221092001326" lon="4.671400444706079"><ele>285.0</ele><time>2026-04-10T14:32:10.999Z</time></trkpt><trkpt lat="46.642061534637676" lon="4.6714895485389825"><ele>286.6666666666667</ele><time>2026-04-10T14:32:11.999Z</time></trkpt><trkpt lat="46.64191558251189" lon="4.671573985322609"><ele>288.33333333333337</ele><time>2026-04-10T14:32:12.999Z</time></trkpt><trkpt lat="46.64175857576035" lon="4.671663294829674"><ele>290.0</ele><time>2026-04-10T14:32:13.999Z</time></trkpt><trkpt lat="46.64160441007038" lon="4.671757277235671"><ele>290.0</ele><time>2026-04-10T14:32:14.999Z</time></trkpt><trkpt lat="46.641455786239455" lon="4.671848909661792"><ele>290.0</ele><time>2026-04-10T14:32:15.999Z</time></trkpt><trkpt lat="46.641304001893175" lon="4.67194266596081"><ele>290.0</ele><time>2026-04-10T14:32:16.999Z</time></trkpt><trkpt lat="46.64114609339618" lon="4.6720288297062185"><ele>286.0</ele><time>2026-04-10T14:32:17.999Z</time></trkpt><trkpt lat="46.64100006545527" lon="4.672117955564264"><ele>282.0</ele><time>2026-04-10T14:32:18.999Z</time></trkpt><trkpt lat="46.6408458767238" lon="4.672207472103547"><ele>278.0</ele><time>2026-04-10T14:32:19.999Z</time></trkpt><trkpt lat="46.64071562701486" lon="4.67229976729029"><ele>278.0</ele><time>2026-04-10T14:32:20.999Z</time></trkpt><trkpt lat="46.64058088994003" lon="4.672387929101815"><ele>278.0</ele><time>2026-04-10T14:32:21.999Z</time></trkpt><trkpt lat="46.640463393394555" lon="4.6724828730832595"><ele>278.0</ele><time>2026-04-10T14:32:22.999Z</time></trkpt><trkpt lat="46.64036054668695" lon="4.672579865293802"><ele>278.0</ele><time>2026-04-10T14:32:23.999Z</time></trkpt><trkpt lat="46.64028123241896" lon="4.672683924693983"><ele>277.0</ele><time>2026-04-10T14:32:24.999Z</time></trkpt><trkpt lat="46.64020207226198" lon="4.672781854728117"><ele>276.0</ele><time>2026-04-10T14:32:25.999Z</time></trkpt><trkpt lat="46.64011896480186" lon="4.672868171518135"><ele>275.0</ele><time>2026-04-10T14:32:26.999Z</time></trkpt><trkpt lat="46.6400464740184" lon="4.672951734513628"><ele>274.0</ele><time>2026-04-10T14:32:27.999Z</time></trkpt><trkpt lat="46.639993709051204" lon="4.673032029349005"><ele>273.0</ele><time>2026-04-10T14:32:28.999Z</time></trkpt><trkpt lat="46.63994302648002" lon="4.673090518341132"><ele>272.0</ele><time>2026-04-10T14:32:29.999Z</time></trkpt><trkpt lat="46.63987361818102" lon="4.673186655648259"><ele>272.0</ele><time>2026-04-10T14:32:31.999Z</time></trkpt><trkpt lat="46.639819568578744" lon="4.673236390317371"><ele>272.0</ele><time>2026-04-10T14:32:36.999Z</time></trkpt><trkpt lat="46.639737272565" lon="4.673378042346678"><ele>272.0</ele><time>2026-04-10T14:32:38.999Z</time></trkpt><trkpt lat="46.639669623569304" lon="4.673472647820162"><ele>272.0</ele><time>2026-04-10T14:32:39.999Z</time></trkpt><trkpt lat="46.63959528089072" lon="4.673588907267621"><ele>272.0</ele><time>2026-04-10T14:32:41Z</time></trkpt><trkpt lat="46.63951180144418" lon="4.67371000376212"><ele>269.0</ele><time>2026-04-10T14:32:42Z</time></trkpt><trkpt lat="46.63942283615958" lon="4.673874960727757"><ele>266.0</ele><time>2026-04-10T14:32:43Z</time></trkpt><trkpt lat="46.639355587711606" lon="4.674033121605755"><ele>263.0</ele><time>2026-04-10T14:32:44Z</time></trkpt><trkpt lat="46.63927933463175" lon="4.6741838487146214"><ele>260.0</ele><time>2026-04-10T14:32:45Z</time></trkpt><trkpt lat="46.63921466570393" lon="4.674356000373923"><ele>259.5</ele><time>2026-04-10T14:32:46Z</time></trkpt><trkpt lat="46.63915519498341" lon="4.674518769024504"><ele>259.0</ele><time>2026-04-10T14:32:47Z</time></trkpt><trkpt lat="46.639100415804435" lon="4.674682882918282"><ele>258.5</ele><time>2026-04-10T14:32:48Z</time></trkpt><trkpt lat="46.63904046691251" lon="4.674849282190204"><ele>258.0</ele><time>2026-04-10T14:32:49Z</time></trkpt><trkpt lat="46.63899636137771" lon="4.675019494268067"><ele>258.0</ele><time>2026-04-10T14:32:50Z</time></trkpt><trkpt lat="46.63895305905667" lon="4.675194295513146"><ele>258.0</ele><time>2026-04-10T14:32:51Z</time></trkpt><trkpt lat="46.63891406148683" lon="4.6753542818700495"><ele>258.0</ele><time>2026-04-10T14:32:52Z</time></trkpt><trkpt lat="46.638883124740964" lon="4.675504928688709"><ele>258.0</ele><time>2026-04-10T14:32:53Z</time></trkpt><trkpt lat="46.63885353719832" lon="4.675641240577416"><ele>258.0</ele><time>2026-04-10T14:32:54Z</time></trkpt><trkpt lat="46.63882423391999" lon="4.675770309240969"><ele>258.0</ele><time>2026-04-10T14:32:55Z</time></trkpt><trkpt lat="46.638810639300154" lon="4.675867133586176"><ele>258.0</ele><time>2026-04-10T14:32:56Z</time></trkpt><trkpt lat="46.63879660527272" lon="4.67603352225607"><ele>258.0</ele><time>2026-04-10T14:32:58Z</time></trkpt><trkpt lat="46.63878314252511" lon="4.676156319845355"><ele>258.0</ele><time>2026-04-10T14:33:00Z</time></trkpt><trkpt lat="46.638770260559696" lon="4.676248558026337"><ele>258.0</ele><time>2026-04-10T14:33:04Z</time></trkpt><trkpt lat="46.63876812536815" lon="4.676367151507356"><ele>258.4</ele><time>2026-04-10T14:33:08Z</time></trkpt><trkpt lat="46.63873995540228" lon="4.676504029687004"><ele>258.8</ele><time>2026-04-10T14:33:10Z</time></trkpt><trkpt lat="46.63872670945169" lon="4.676650198733379"><ele>259.2</ele><time>2026-04-10T14:33:12Z</time></trkpt><trkpt lat="46.638731518821935" lon="4.676792364280007"><ele>259.6</ele><time>2026-04-10T14:33:14Z</time></trkpt><trkpt lat="46.638702780438535" lon="4.67690676208907"><ele>260.0</ele><time>2026-04-10T14:33:16Z</time></trkpt><trkpt lat="46.6386348501997" lon="4.676737438144898"><ele>260.0</ele><time>2026-04-10T14:33:21Z</time></trkpt><trkpt lat="46.63864051513185" lon="4.676641399890873"><ele>260.0</ele><time>2026-04-10T14:33:22Z</time></trkpt><trkpt lat="46.63864036238961" lon="4.676534246987868"><ele>260.0</ele><time>2026-04-10T14:33:23Z</time></trkpt><trkpt lat="46.638633549945254" lon="4.676423907542843"><ele>260.0</ele><time>2026-04-10T14:33:24Z</time></trkpt><trkpt lat="46.63865398131973" lon="4.676255281843973"><ele>260.0</ele><time>2026-04-10T14:33:26Z</time></trkpt><trkpt lat="46.63880079723607" lon="4.67622015992802"><ele>259.6666666666667</ele><time>2026-04-10T14:33:27Z</time></trkpt><trkpt lat="46.63881534603336" lon="4.676076837264984"><ele>259.33333333333337</ele><time>2026-04-10T14:33:29Z</time></trkpt><trkpt lat="46.63883038202874" lon="4.675930681721133"><ele>259.0</ele><time>2026-04-10T14:33:32Z</time></trkpt><trkpt lat="46.63884261343836" lon="4.675834802779352"><ele>258.6666666666667</ele><time>2026-04-10T14:33:33Z</time></trkpt><trkpt lat="46.63886179649764" lon="4.675711908416888"><ele>258.3333333333333</ele><time>2026-04-10T14:33:34Z</time></trkpt><trkpt lat="46.63888122282441" lon="4.675610680458011"><ele>258.0</ele><time>2026-04-10T14:33:35Z</time></trkpt><trkpt lat="46.63891604349145" lon="4.67544403790962"><ele>258.0</ele><time>2026-04-10T14:33:37Z</time></trkpt><trkpt lat="46.63893102115573" lon="4.67530113539281"><ele>258.0</ele><time>2026-04-10T14:33:39Z</time></trkpt><trkpt lat="46.63896935590659" lon="4.675214488530945"><ele>258.0</ele><time>2026-04-10T14:33:41Z</time></trkpt><trkpt lat="46.638992824995746" lon="4.675120735478815"><ele>258.0</ele><time>2026-04-10T14:33:44Z</time></trkpt><trkpt lat="46.63902363951129" lon="4.674979086242742"><ele>258.0</ele><time>2026-04-10T14:33:46Z</time></trkpt><trkpt lat="46.63906082463129" lon="4.67485978548757"><ele>258.0</ele><time>2026-04-10T14:33:47.999Z</time></trkpt><trkpt lat="46.6391035377348" lon="4.674737252957452"><ele>258.0</ele><time>2026-04-10T14:33:49.999Z</time></trkpt><trkpt lat="46.63914639172521" lon="4.674617574693568"><ele>258.0</ele><time>2026-04-10T14:33:51.999Z</time></trkpt><trkpt lat="46.63919181098157" lon="4.674495277515773"><ele>258.0</ele><time>2026-04-10T14:33:53.999Z</time></trkpt><trkpt lat="46.63901635875634" lon="4.674133792714866"><ele>258.0</ele><time>2026-04-10T14:34:06.999Z</time></trkpt><trkpt lat="46.63912429371477" lon="4.6742423602982415"><ele>258.0</ele><time>2026-04-10T14:34:08.999Z</time></trkpt><trkpt lat="46.63920384373131" lon="4.674352533855935"><ele>258.0</ele><time>2026-04-10T14:34:09.999Z</time></trkpt><trkpt lat="46.6392815890345" lon="4.674453795765411"><ele>258.0</ele><time>2026-04-10T14:34:10.999Z</time></trkpt><trkpt lat="46.63937244564365" lon="4.674565890632202"><ele>258.0</ele><time>2026-04-10T14:34:11.999Z</time></trkpt><trkpt lat="46.63943131415812" lon="4.674662261956309"><ele>258.0</ele><time>2026-04-10T14:34:12.999Z</time></trkpt><trkpt lat="46.63950800621654" lon="4.674775942691336"><ele>258.0</ele><time>2026-04-10T14:34:13.999Z</time></trkpt><trkpt lat="46.63959395680086" lon="4.674902810553522"><ele>258.0</ele><time>2026-04-10T14:34:14.999Z</time></trkpt><trkpt lat="46.63971901096246" lon="4.675048931665519"><ele>258.0</ele><time>2026-04-10T14:34:15.999Z</time></trkpt><trkpt lat="46.639835244513804" lon="4.675193255142655"><ele>258.0</ele><time>2026-04-10T14:34:16.999Z</time></trkpt><trkpt lat="46.63995621209269" lon="4.67536635651934"><ele>258.0</ele><time>2026-04-10T14:34:17.999Z</time></trkpt><trkpt lat="46.64004854071598" lon="4.675525453215386"><ele>257.8</ele><time>2026-04-10T14:34:18.999Z</time></trkpt><trkpt lat="46.64012749422981" lon="4.675665940783391"><ele>257.6</ele><time>2026-04-10T14:34:19.999Z</time></trkpt><trkpt lat="46.640195103906336" lon="4.6757857138667545"><ele>257.4</ele><time>2026-04-10T14:34:20.999Z</time></trkpt><trkpt lat="46.640255441390636" lon="4.675920623149505"><ele>257.2</ele><time>2026-04-10T14:34:21.999Z</time></trkpt><trkpt lat="46.64031774326957" lon="4.676046334929921"><ele>257.0</ele><time>2026-04-10T14:34:22.999Z</time></trkpt><trkpt lat="46.64036526363575" lon="4.6761776297912725"><ele>255.39999999999998</ele><time>2026-04-10T14:34:23.999Z</time></trkpt><trkpt lat="46.64041760586663" lon="4.676281573866034"><ele>253.79999999999998</ele><time>2026-04-10T14:34:24.999Z</time></trkpt><trkpt lat="46.64047257004152" lon="4.676341905662004"><ele>252.2</ele><time>2026-04-10T14:34:25.999Z</time></trkpt><trkpt lat="46.64056809625273" lon="4.676420403389987"><ele>250.6</ele><time>2026-04-10T14:34:26.999Z</time></trkpt><trkpt lat="46.64066561395097" lon="4.676478287609903"><ele>249.0</ele><time>2026-04-10T14:34:27.999Z</time></trkpt><trkpt lat="46.640754705331354" lon="4.676523786532398"><ele>249.0</ele><time>2026-04-10T14:34:28.999Z</time></trkpt><trkpt lat="46.640813269576945" lon="4.676583581050663"><ele>248.99999999999997</ele><time>2026-04-10T14:34:29.999Z</time></trkpt><trkpt lat="46.64089581272934" lon="4.676695771339922"><ele>248.99999999999997</ele><time>2026-04-10T14:34:30.999Z</time></trkpt><trkpt lat="46.64099116843633" lon="4.676800576585788"><ele>249.0</ele><time>2026-04-10T14:34:31.999Z</time></trkpt><trkpt lat="46.64109007290008" lon="4.676887394818504"><ele>249.0</ele><time>2026-04-10T14:34:32.999Z</time></trkpt><trkpt lat="46.64119319567904" lon="4.6769896683796635"><ele>246.75</ele><time>2026-04-10T14:34:33.999Z</time></trkpt><trkpt lat="46.641297911452575" lon="4.677076165619842"><ele>244.5</ele><time>2026-04-10T14:34:34.999Z</time></trkpt><trkpt lat="46.64140396591029" lon="4.677156334172503"><ele>242.25</ele><time>2026-04-10T14:34:35.999Z</time></trkpt><trkpt lat="46.64151619834404" lon="4.6772526941207895"><ele>240.0</ele><time>2026-04-10T14:34:36.999Z</time></trkpt><trkpt lat="46.641603961528396" lon="4.677366962178084"><ele>240.0</ele><time>2026-04-10T14:34:37.999Z</time></trkpt><trkpt lat="46.64168630917862" lon="4.677448993483822"><ele>240.0</ele><time>2026-04-10T14:34:38.999Z</time></trkpt><trkpt lat="46.64180469846294" lon="4.67752390830367"><ele>240.0</ele><time>2026-04-10T14:34:39.999Z</time></trkpt><trkpt lat="46.6419409919012" lon="4.6776264447432085"><ele>240.0</ele><time>2026-04-10T14:34:40.999Z</time></trkpt><trkpt lat="46.64208279490591" lon="4.677749688037637"><ele>239.25</ele><time>2026-04-10T14:34:41.999Z</time></trkpt><trkpt lat="46.64221876649077" lon="4.677865375115684"><ele>238.5</ele><time>2026-04-10T14:34:42.999Z</time></trkpt><trkpt lat="46.64232430342866" lon="4.67794207276075"><ele>237.75</ele><time>2026-04-10T14:34:43.999Z</time></trkpt><trkpt lat="46.64243122186467" lon="4.678006872095225"><ele>237.0</ele><time>2026-04-10T14:34:44.999Z</time></trkpt><trkpt lat="46.64254630657253" lon="4.678058322121876"><ele>237.0</ele><time>2026-04-10T14:34:45.999Z</time></trkpt><trkpt lat="46.6426630157126" lon="4.678106236979242"><ele>237.0</ele><time>2026-04-10T14:34:47Z</time></trkpt><trkpt lat="46.64276473614253" lon="4.67816886552332"><ele>237.0</ele><time>2026-04-10T14:34:48Z</time></trkpt><trkpt lat="46.64287775442073" lon="4.678227876187246"><ele>237.0</ele><time>2026-04-10T14:34:49Z</time></trkpt><trkpt lat="46.64298228860957" lon="4.6782602094497445"><ele>237.0</ele><time>2026-04-10T14:34:50Z</time></trkpt><trkpt lat="46.643091208884826" lon="4.67831081433736"><ele>237.0</ele><time>2026-04-10T14:34:51Z</time></trkpt><trkpt lat="46.64318347529353" lon="4.678341271851173"><ele>237.0</ele><time>2026-04-10T14:34:52Z</time></trkpt><trkpt lat="46.64328988530112" lon="4.678369187351803"><ele>237.0</ele><time>2026-04-10T14:34:53Z</time></trkpt><trkpt lat="46.64339586469526" lon="4.678401384732913"><ele>237.0</ele><time>2026-04-10T14:34:54Z</time></trkpt><trkpt lat="46.64349504394287" lon="4.678439320895125"><ele>237.0</ele><time>2026-04-10T14:34:55Z</time></trkpt><trkpt lat="46.64359531542751" lon="4.678513100719679"><ele>237.0</ele><time>2026-04-10T14:34:56Z</time></trkpt><trkpt lat="46.64370182630746" lon="4.678597902674"><ele>237.0</ele><time>2026-04-10T14:34:57Z</time></trkpt><trkpt lat="46.64381849709242" lon="4.6787083468087385"><ele>237.0</ele><time>2026-04-10T14:34:58Z</time></trkpt><trkpt lat="46.643950437571576" lon="4.678821922543268"><ele>239.0</ele><time>2026-04-10T14:34:59Z</time></trkpt><trkpt lat="46.64408966450649" lon="4.6789287686767125"><ele>241.0</ele><time>2026-04-10T14:35:00Z</time></trkpt><trkpt lat="46.64421611222661" lon="4.67902835272472"><ele>243.0</ele><time>2026-04-10T14:35:01Z</time></trkpt><trkpt lat="46.64434462503817" lon="4.679116606894555"><ele>245.0</ele><time>2026-04-10T14:35:02Z</time></trkpt><trkpt lat="46.64447599446865" lon="4.679203613086474"><ele>245.75</ele><time>2026-04-10T14:35:03Z</time></trkpt><trkpt lat="46.64459818360364" lon="4.679288454630327"><ele>246.5</ele><time>2026-04-10T14:35:04Z</time></trkpt><trkpt lat="46.644715021901995" lon="4.679363453229201"><ele>247.25</ele><time>2026-04-10T14:35:05Z</time></trkpt><trkpt lat="46.64482022409137" lon="4.679443183033706"><ele>248.0</ele><time>2026-04-10T14:35:06Z</time></trkpt><trkpt lat="46.644928707518424" lon="4.679513083459507"><ele>248.8</ele><time>2026-04-10T14:35:07Z</time></trkpt><trkpt lat="46.64503923053892" lon="4.679558573281707"><ele>249.60000000000002</ele><time>2026-04-10T14:35:08Z</time></trkpt><trkpt lat="46.645174464647226" lon="4.679582746384172"><ele>250.39999999999998</ele><time>2026-04-10T14:35:09Z</time></trkpt><trkpt lat="46.64528325105774" lon="4.679581040252977"><ele>251.2</ele><time>2026-04-10T14:35:10Z</time></trkpt><trkpt lat="46.64537116404601" lon="4.679586040648441"><ele>252.0</ele><time>2026-04-10T14:35:11Z</time></trkpt><trkpt lat="46.64546578820165" lon="4.679609540940361"><ele>253.2</ele><time>2026-04-10T14:35:12Z</time></trkpt><trkpt lat="46.6455307334715" lon="4.679628508366282"><ele>254.39999999999998</ele><time>2026-04-10T14:35:13Z</time></trkpt><trkpt lat="46.64564512789424" lon="4.679655778361388"><ele>255.60000000000002</ele><time>2026-04-10T14:35:14Z</time></trkpt><trkpt lat="46.6457511667439" lon="4.679656781555057"><ele>256.8</ele><time>2026-04-10T14:35:15Z</time></trkpt><trkpt lat="46.645855839910865" lon="4.679654282081662"><ele>258.0</ele><time>2026-04-10T14:35:16Z</time></trkpt><trkpt lat="46.64597207805404" lon="4.679675363830208"><ele>258.0</ele><time>2026-04-10T14:35:17Z</time></trkpt><trkpt lat="46.64608922552277" lon="4.67969760220414"><ele>258.0</ele><time>2026-04-10T14:35:18Z</time></trkpt><trkpt lat="46.646173415010765" lon="4.679727986624851"><ele>258.0</ele><time>2026-04-10T14:35:19Z</time></trkpt><trkpt lat="46.646257640643086" lon="4.67975636687442"><ele>258.0</ele><time>2026-04-10T14:35:20Z</time></trkpt><trkpt lat="46.64635365156615" lon="4.679804870351794"><ele>258.0</ele><time>2026-04-10T14:35:21Z</time></trkpt><trkpt lat="46.64645248108221" lon="4.679857975912784"><ele>258.4</ele><time>2026-04-10T14:35:22Z</time></trkpt><trkpt lat="46.64654664825037" lon="4.679899838735627"><ele>258.8</ele><time>2026-04-10T14:35:23Z</time></trkpt><trkpt lat="46.64664679521986" lon="4.679921343494564"><ele>259.2</ele><time>2026-04-10T14:35:24Z</time></trkpt><trkpt lat="46.64674035913164" lon="4.6799383442875815"><ele>259.6</ele><time>2026-04-10T14:35:25Z</time></trkpt><trkpt lat="46.64683066472354" lon="4.679938610779433"><ele>260.0</ele><time>2026-04-10T14:35:26Z</time></trkpt><trkpt lat="46.64692064626612" lon="4.679918811967242"><ele>260.6</ele><time>2026-04-10T14:35:27Z</time></trkpt><trkpt lat="46.64698764002613" lon="4.679862062921538"><ele>261.2</ele><time>2026-04-10T14:35:28Z</time></trkpt><trkpt lat="46.64706296147199" lon="4.6797948634080955"><ele>261.8</ele><time>2026-04-10T14:35:29Z</time></trkpt><trkpt lat="46.64716443139395" lon="4.679728862151006"><ele>262.4</ele><time>2026-04-10T14:35:30Z</time></trkpt><trkpt lat="46.647273592130055" lon="4.679655270988538"><ele>263.0</ele><time>2026-04-10T14:35:31Z</time></trkpt><trkpt lat="46.64738363533059" lon="4.679568093252307"><ele>263.0</ele><time>2026-04-10T14:35:32Z</time></trkpt><trkpt lat="46.64748072212499" lon="4.679473491316015"><ele>263.0</ele><time>2026-04-10T14:35:33Z</time></trkpt><trkpt lat="46.64755565200641" lon="4.679367320710065"><ele>263.0</ele><time>2026-04-10T14:35:34Z</time></trkpt><trkpt lat="46.6476319891918" lon="4.679247030232313"><ele>263.0</ele><time>2026-04-10T14:35:35Z</time></trkpt><trkpt lat="46.64770979619065" lon="4.679141274011637"><ele>263.0</ele><time>2026-04-10T14:35:36Z</time></trkpt><trkpt lat="46.64779293050865" lon="4.679049065021631"><ele>265.0</ele><time>2026-04-10T14:35:37Z</time></trkpt><trkpt lat="46.647883032866055" lon="4.678976919913652"><ele>267.0</ele><time>2026-04-10T14:35:38Z</time></trkpt><trkpt lat="46.64797641797189" lon="4.678911882768605"><ele>269.0</ele><time>2026-04-10T14:35:39Z</time></trkpt><trkpt lat="46.648062654125" lon="4.678858605839123"><ele>271.0</ele><time>2026-04-10T14:35:40Z</time></trkpt><trkpt lat="46.64816788522793" lon="4.6788190497510636"><ele>273.0</ele><time>2026-04-10T14:35:41Z</time></trkpt><trkpt lat="46.648271954335684" lon="4.678809061441165"><ele>273.0</ele><time>2026-04-10T14:35:42Z</time></trkpt><trkpt lat="46.64838617687645" lon="4.678797333418258"><ele>273.0</ele><time>2026-04-10T14:35:43Z</time></trkpt><trkpt lat="46.648502982927624" lon="4.678786447566927"><ele>273.0</ele><time>2026-04-10T14:35:44Z</time></trkpt><trkpt lat="46.64862270325154" lon="4.678775371264222"><ele>273.0</ele><time>2026-04-10T14:35:45Z</time></trkpt><trkpt lat="46.64874872949693" lon="4.678780395195178"><ele>273.25</ele><time>2026-04-10T14:35:46Z</time></trkpt><trkpt lat="46.648882547750624" lon="4.67877210637833"><ele>273.5</ele><time>2026-04-10T14:35:47Z</time></trkpt><trkpt lat="46.649028604229294" lon="4.678747629849879"><ele>273.75</ele><time>2026-04-10T14:35:48Z</time></trkpt><trkpt lat="46.64917819573009" lon="4.678707416252289"><ele>274.0</ele><time>2026-04-10T14:35:49Z</time></trkpt><trkpt lat="46.64932579220901" lon="4.678674752792878"><ele>274.75</ele><time>2026-04-10T14:35:49.999Z</time></trkpt><trkpt lat="46.64946268412019" lon="4.678650252633407"><ele>275.5</ele><time>2026-04-10T14:35:50.999Z</time></trkpt><trkpt lat="46.649589052702744" lon="4.678626742359261"><ele>276.25</ele><time>2026-04-10T14:35:51.999Z</time></trkpt><trkpt lat="46.64972112247444" lon="4.678593259764881"><ele>277.0</ele><time>2026-04-10T14:35:52.999Z</time></trkpt><trkpt lat="46.64985397165715" lon="4.678549756774689"><ele>277.66666666666663</ele><time>2026-04-10T14:35:53.999Z</time></trkpt><trkpt lat="46.65000004660884" lon="4.67847842487653"><ele>278.3333333333333</ele><time>2026-04-10T14:35:54.999Z</time></trkpt><trkpt lat="46.650144931875005" lon="4.6783948874495715"><ele>279.0</ele><time>2026-04-10T14:35:55.999Z</time></trkpt><trkpt lat="46.65029853664614" lon="4.67831785179932"><ele>279.0</ele><time>2026-04-10T14:35:56.999Z</time></trkpt><trkpt lat="46.65045623415731" lon="4.678239627679359"><ele>279.0</ele><time>2026-04-10T14:35:57.999Z</time></trkpt><trkpt lat="46.65060326207465" lon="4.6781858795922435"><ele>279.0</ele><time>2026-04-10T14:35:58.999Z</time></trkpt><trkpt lat="46.65072483564059" lon="4.678136979176954"><ele>279.0</ele><time>2026-04-10T14:35:59.999Z</time></trkpt><trkpt lat="46.65084905875516" lon="4.678101538350137"><ele>279.0</ele><time>2026-04-10T14:36:00.999Z</time></trkpt><trkpt lat="46.65095755255991" lon="4.678050313590255"><ele>279.0</ele><time>2026-04-10T14:36:01.999Z</time></trkpt><trkpt lat="46.65107303598953" lon="4.677964586448607"><ele>279.0</ele><time>2026-04-10T14:36:02.999Z</time></trkpt><trkpt lat="46.651183861797136" lon="4.677858833476224"><ele>279.0</ele><time>2026-04-10T14:36:03.999Z</time></trkpt><trkpt lat="46.6512928062251" lon="4.677725466812062"><ele>279.75</ele><time>2026-04-10T14:36:04.999Z</time></trkpt><trkpt lat="46.65140855837799" lon="4.67758007573568"><ele>280.5</ele><time>2026-04-10T14:36:05.999Z</time></trkpt><trkpt lat="46.6515166784381" lon="4.677454165772931"><ele>281.25</ele><time>2026-04-10T14:36:06.999Z</time></trkpt><trkpt lat="46.65163249622091" lon="4.677333964896962"><ele>282.0</ele><time>2026-04-10T14:36:07.999Z</time></trkpt><trkpt lat="46.65174900015886" lon="4.677226988557783"><ele>282.0</ele><time>2026-04-10T14:36:08.999Z</time></trkpt><trkpt lat="46.65185618883938" lon="4.6771137116978245"><ele>282.0</ele><time>2026-04-10T14:36:09.999Z</time></trkpt><trkpt lat="46.65195406581218" lon="4.676993148347968"><ele>282.0</ele><time>2026-04-10T14:36:10.999Z</time></trkpt><trkpt lat="46.65204974423165" lon="4.6768469750648975"><ele>282.0</ele><time>2026-04-10T14:36:11.999Z</time></trkpt><trkpt lat="46.65214253649078" lon="4.676675051657421"><ele>281.3333333333333</ele><time>2026-04-10T14:36:12.999Z</time></trkpt><trkpt lat="46.65224233937338" lon="4.676497812567701"><ele>280.66666666666663</ele><time>2026-04-10T14:36:13.999Z</time></trkpt><trkpt lat="46.65235226701203" lon="4.676307711807076"><ele>280.0</ele><time>2026-04-10T14:36:14.999Z</time></trkpt><trkpt lat="46.652443786662424" lon="4.676128984425713"><ele>283.0</ele><time>2026-04-10T14:36:15.999Z</time></trkpt><trkpt lat="46.65253608552563" lon="4.675956795295064"><ele>286.0</ele><time>2026-04-10T14:36:16.999Z</time></trkpt><trkpt lat="46.6526118707631" lon="4.675784585960143"><ele>289.0</ele><time>2026-04-10T14:36:17.999Z</time></trkpt><trkpt lat="46.65269096445039" lon="4.675659252369413"><ele>292.0</ele><time>2026-04-10T14:36:18.999Z</time></trkpt><trkpt lat="46.652771767396885" lon="4.67552916533681"><ele>291.25</ele><time>2026-04-10T14:36:19.999Z</time></trkpt><trkpt lat="46.65284068611022" lon="4.675379326458396"><ele>290.5</ele><time>2026-04-10T14:36:20.999Z</time></trkpt><trkpt lat="46.65289753528559" lon="4.675240920448976"><ele>289.75</ele><time>2026-04-10T14:36:21.999Z</time></trkpt><trkpt lat="46.652963149153926" lon="4.675115954047804"><ele>289.0</ele><time>2026-04-10T14:36:22.999Z</time></trkpt><trkpt lat="46.653031681171164" lon="4.674945064112772"><ele>289.0</ele><time>2026-04-10T14:36:23.999Z</time></trkpt><trkpt lat="46.65311100010193" lon="4.674772384846196"><ele>289.0</ele><time>2026-04-10T14:36:24.999Z</time></trkpt><trkpt lat="46.653187028779136" lon="4.674628863524731"><ele>289.0</ele><time>2026-04-10T14:36:25.999Z</time></trkpt><trkpt lat="46.65324833168293" lon="4.674494010007925"><ele>289.0</ele><time>2026-04-10T14:36:26.999Z</time></trkpt><trkpt lat="46.65330581381793" lon="4.674374472045311"><ele>290.16666666666663</ele><time>2026-04-10T14:36:27.999Z</time></trkpt><trkpt lat="46.653357331130294" lon="4.6742696637756485"><ele>291.3333333333333</ele><time>2026-04-10T14:36:28.999Z</time></trkpt><trkpt lat="46.65341163967785" lon="4.674186394088953"><ele>292.5</ele><time>2026-04-10T14:36:29.999Z</time></trkpt><trkpt lat="46.65346639769595" lon="4.674109811127976"><ele>293.6666666666667</ele><time>2026-04-10T14:36:30.999Z</time></trkpt><trkpt lat="46.653517764627516" lon="4.674050050122859"><ele>294.83333333333337</ele><time>2026-04-10T14:36:31.999Z</time></trkpt><trkpt lat="46.65358315205548" lon="4.673979688826738"><ele>296.0</ele><time>2026-04-10T14:36:32.999Z</time></trkpt><trkpt lat="46.65366374209401" lon="4.673897130364053"><ele>293.8</ele><time>2026-04-10T14:36:33.999Z</time></trkpt><trkpt lat="46.6537572485561" lon="4.6738130623681355"><ele>291.6</ele><time>2026-04-10T14:36:34.999Z</time></trkpt><trkpt lat="46.653853186628695" lon="4.6737490921289035"><ele>289.4</ele><time>2026-04-10T14:36:35.999Z</time></trkpt><trkpt lat="46.653943057568824" lon="4.67368301764235"><ele>287.2</ele><time>2026-04-10T14:36:36.999Z</time></trkpt><trkpt lat="46.65404140870232" lon="4.673592993982444"><ele>285.0</ele><time>2026-04-10T14:36:37.999Z</time></trkpt><trkpt lat="46.65414039456997" lon="4.673484803325523"><ele>285.0</ele><time>2026-04-10T14:36:38.999Z</time></trkpt><trkpt lat="46.65423122562495" lon="4.673379833600863"><ele>285.0</ele><time>2026-04-10T14:36:39.999Z</time></trkpt><trkpt lat="46.654329531170305" lon="4.673275260150888"><ele>285.0</ele><time>2026-04-10T14:36:40.999Z</time></trkpt><trkpt lat="46.65441863432497" lon="4.673176370050897"><ele>285.0</ele><time>2026-04-10T14:36:41.999Z</time></trkpt><trkpt lat="46.654491800634155" lon="4.673079223924715"><ele>285.0</ele><time>2026-04-10T14:36:42.999Z</time></trkpt><trkpt lat="46.65458903735421" lon="4.6729694684414484"><ele>283.6</ele><time>2026-04-10T14:36:43.999Z</time></trkpt><trkpt lat="46.65468580549822" lon="4.672870764673785"><ele>282.2</ele><time>2026-04-10T14:36:44.999Z</time></trkpt><trkpt lat="46.654781847441534" lon="4.6728030501707565"><ele>280.8</ele><time>2026-04-10T14:36:45.999Z</time></trkpt><trkpt lat="46.65486722054357" lon="4.672742594240007"><ele>279.4</ele><time>2026-04-10T14:36:46.999Z</time></trkpt><trkpt lat="46.65493832700249" lon="4.6726874514412415"><ele>278.0</ele><time>2026-04-10T14:36:47.999Z</time></trkpt><trkpt lat="46.65500792209401" lon="4.672635389767904"><ele>278.0</ele><time>2026-04-10T14:36:48.999Z</time></trkpt><trkpt lat="46.65508444971989" lon="4.6725762917190155"><ele>278.0</ele><time>2026-04-10T14:36:49.999Z</time></trkpt><trkpt lat="46.65515577949085" lon="4.672520813755549"><ele>278.0</ele><time>2026-04-10T14:36:50.999Z</time></trkpt><trkpt lat="46.65521039351393" lon="4.672467691749102"><ele>278.0</ele><time>2026-04-10T14:36:51.999Z</time></trkpt><trkpt lat="46.65525965299055" lon="4.672383113243856"><ele>278.0</ele><time>2026-04-10T14:36:53Z</time></trkpt><trkpt lat="46.65530694952549" lon="4.672289074176441"><ele>278.0</ele><time>2026-04-10T14:36:54Z</time></trkpt><trkpt lat="46.65537263711648" lon="4.672243372813262"><ele>280.2</ele><time>2026-04-10T14:36:55Z</time></trkpt><trkpt lat="46.65545852013371" lon="4.672252834538804"><ele>282.4</ele><time>2026-04-10T14:36:56Z</time></trkpt><trkpt lat="46.655562875802985" lon="4.672259402760741"><ele>284.59999999999997</ele><time>2026-04-10T14:36:57Z</time></trkpt><trkpt lat="46.65567523370709" lon="4.672255751122079"><ele>286.8</ele><time>2026-04-10T14:36:58Z</time></trkpt><trkpt lat="46.655767762896" lon="4.672252619082302"><ele>289.0</ele><time>2026-04-10T14:36:59Z</time></trkpt><trkpt lat="46.655859300353725" lon="4.672245908601433"><ele>289.0</ele><time>2026-04-10T14:37:00Z</time></trkpt><trkpt lat="46.655920018705174" lon="4.672203073106627"><ele>289.0</ele><time>2026-04-10T14:37:01Z</time></trkpt><trkpt lat="46.65600019600939" lon="4.672175022887483"><ele>289.0</ele><time>2026-04-10T14:37:02Z</time></trkpt><trkpt lat="46.65607925820015" lon="4.672118996846349"><ele>289.0</ele><time>2026-04-10T14:37:03Z</time></trkpt><trkpt lat="46.656159916088065" lon="4.6720253424564335"><ele>289.0</ele><time>2026-04-10T14:37:04Z</time></trkpt><trkpt lat="46.6562500140825" lon="4.671969731793355"><ele>289.0</ele><time>2026-04-10T14:37:05Z</time></trkpt><trkpt lat="46.65633337008008" lon="4.671920535484627"><ele>290.0</ele><time>2026-04-10T14:37:06Z</time></trkpt><trkpt lat="46.6564085125621" lon="4.671899189961434"><ele>291.0</ele><time>2026-04-10T14:37:07Z</time></trkpt><trkpt lat="46.65648296603981" lon="4.671875777835991"><ele>292.0</ele><time>2026-04-10T14:37:09Z</time></trkpt><trkpt lat="46.65654336819937" lon="4.672011399636588"><ele>293.0</ele><time>2026-04-10T14:37:13Z</time></trkpt><trkpt lat="46.65658083313055" lon="4.672128568965381"><ele>294.0</ele><time>2026-04-10T14:37:14Z</time></trkpt><trkpt lat="46.65663051501397" lon="4.672226419741187"><ele>295.0</ele><time>2026-04-10T14:37:15Z</time></trkpt><trkpt lat="46.6566570321959" lon="4.672383657410461"><ele>295.0</ele><time>2026-04-10T14:37:16Z</time></trkpt><trkpt lat="46.656691637584274" lon="4.672577772071943"><ele>295.0</ele><time>2026-04-10T14:37:17Z</time></trkpt><trkpt lat="46.65674596180784" lon="4.6727979494628995"><ele>295.0</ele><time>2026-04-10T14:37:18Z</time></trkpt><trkpt lat="46.656799850071" lon="4.673014477084174"><ele>294.25</ele><time>2026-04-10T14:37:19Z</time></trkpt><trkpt lat="46.65683931993804" lon="4.67321836828412"><ele>293.5</ele><time>2026-04-10T14:37:20Z</time></trkpt><trkpt lat="46.65688933461371" lon="4.673411922736114"><ele>292.75</ele><time>2026-04-10T14:37:21Z</time></trkpt><trkpt lat="46.656928893599115" lon="4.673588580480208"><ele>292.0</ele><time>2026-04-10T14:37:22Z</time></trkpt><trkpt lat="46.65697076887384" lon="4.673760279419972"><ele>290.4</ele><time>2026-04-10T14:37:23Z</time></trkpt><trkpt lat="46.65699368673651" lon="4.673899729514134"><ele>288.79999999999995</ele><time>2026-04-10T14:37:24Z</time></trkpt><trkpt lat="46.65702479944884" lon="4.674059614345351"><ele>287.2</ele><time>2026-04-10T14:37:25Z</time></trkpt><trkpt lat="46.657074204693664" lon="4.674183689830599"><ele>285.59999999999997</ele><time>2026-04-10T14:37:26Z</time></trkpt><trkpt lat="46.65712250377521" lon="4.674291361516302"><ele>284.0</ele><time>2026-04-10T14:37:27Z</time></trkpt><trkpt lat="46.657178064961414" lon="4.6744049900242155"><ele>283.2</ele><time>2026-04-10T14:37:28Z</time></trkpt><trkpt lat="46.65723801653556" lon="4.674534802036409"><ele>282.4</ele><time>2026-04-10T14:37:29Z</time></trkpt><trkpt lat="46.657281328988155" lon="4.674613447299931"><ele>281.6</ele><time>2026-04-10T14:37:30Z</time></trkpt><trkpt lat="46.65735297700977" lon="4.674768292702337"><ele>280.8</ele><time>2026-04-10T14:37:32Z</time></trkpt><trkpt lat="46.65740733969822" lon="4.6748722306312"><ele>280.0</ele><time>2026-04-10T14:37:33Z</time></trkpt><trkpt lat="46.657456390804704" lon="4.6749914357986935"><ele>280.0</ele><time>2026-04-10T14:37:34Z</time></trkpt><trkpt lat="46.65749707513235" lon="4.675108118329223"><ele>280.0</ele><time>2026-04-10T14:37:35Z</time></trkpt><trkpt lat="46.6575358452232" lon="4.675224663154431"><ele>280.0</ele><time>2026-04-10T14:37:36Z</time></trkpt><trkpt lat="46.65756959133095" lon="4.675336433596188"><ele>280.0</ele><time>2026-04-10T14:37:37Z</time></trkpt><trkpt lat="46.657591787872654" lon="4.675446072029392"><ele>280.0</ele><time>2026-04-10T14:37:38Z</time></trkpt><trkpt lat="46.65763359165851" lon="4.675578322823068"><ele>280.0</ele><time>2026-04-10T14:37:39Z</time></trkpt><trkpt lat="46.65767061677497" lon="4.675721032499876"><ele>279.25</ele><time>2026-04-10T14:37:40Z</time></trkpt><trkpt lat="46.657709966329584" lon="4.67589026896248"><ele>278.5</ele><time>2026-04-10T14:37:41Z</time></trkpt><trkpt lat="46.65773637881696" lon="4.676081463382218"><ele>277.75</ele><time>2026-04-10T14:37:42Z</time></trkpt><trkpt lat="46.65774231387496" lon="4.676255058107136"><ele>277.0</ele><time>2026-04-10T14:37:43Z</time></trkpt><trkpt lat="46.65774962483233" lon="4.676406298855104"><ele>275.75</ele><time>2026-04-10T14:37:44Z</time></trkpt><trkpt lat="46.65774691766333" lon="4.67651497875891"><ele>274.5</ele><time>2026-04-10T14:37:45Z</time></trkpt><trkpt lat="46.657748246249824" lon="4.676674642412016"><ele>273.25</ele><time>2026-04-10T14:37:47Z</time></trkpt><trkpt lat="46.657746281850656" lon="4.676788196912168"><ele>272.0</ele><time>2026-04-10T14:37:49Z</time></trkpt><trkpt lat="46.65796151969005" lon="4.6768861028307995"><ele>271.6</ele><time>2026-04-10T14:37:52Z</time></trkpt><trkpt lat="46.6580478361015" lon="4.676933207696741"><ele>271.2</ele><time>2026-04-10T14:37:53Z</time></trkpt><trkpt lat="46.65812589171311" lon="4.676974479602122"><ele>270.8</ele><time>2026-04-10T14:37:54Z</time></trkpt><trkpt lat="46.65819617387581" lon="4.677015617517266"><ele>270.4</ele><time>2026-04-10T14:37:55Z</time></trkpt><trkpt lat="46.65830342781404" lon="4.677087330559974"><ele>270.0</ele><time>2026-04-10T14:37:57Z</time></trkpt><trkpt lat="46.65840426308468" lon="4.6771584196396265"><ele>269.8333333333333</ele><time>2026-04-10T14:37:59Z</time></trkpt><trkpt lat="46.658470807071254" lon="4.677220892452447"><ele>269.6666666666667</ele><time>2026-04-10T14:38:00Z</time></trkpt><trkpt lat="46.65852790845693" lon="4.677270635033977"><ele>269.5</ele><time>2026-04-10T14:38:01Z</time></trkpt><trkpt lat="46.65860241266555" lon="4.677364062846337"><ele>269.33333333333337</ele><time>2026-04-10T14:38:02.999Z</time></trkpt><trkpt lat="46.658665580610894" lon="4.677468952328755"><ele>269.1666666666667</ele><time>2026-04-10T14:38:04.999Z</time></trkpt><trkpt lat="46.65872918953024" lon="4.6775417857332675"><ele>269.0</ele><time>2026-04-10T14:38:05.999Z</time></trkpt><trkpt lat="46.658782614963926" lon="4.677602952966566"><ele>269.0</ele><time>2026-04-10T14:38:06.999Z</time></trkpt><trkpt lat="46.65884707498692" lon="4.677654119540973"><ele>269.0</ele><time>2026-04-10T14:38:07.999Z</time></trkpt><trkpt lat="46.65890843378454" lon="4.677706928907873"><ele>269.0</ele><time>2026-04-10T14:38:08.999Z</time></trkpt><trkpt lat="46.6589798988617" lon="4.677761543516606"><ele>269.0</ele><time>2026-04-10T14:38:09.999Z</time></trkpt><trkpt lat="46.659047205766235" lon="4.677812912910685"><ele>269.0</ele><time>2026-04-10T14:38:10.999Z</time></trkpt><trkpt lat="46.65910614857529" lon="4.677865596624986"><ele>269.0</ele><time>2026-04-10T14:38:11.999Z</time></trkpt><trkpt lat="46.65916762406624" lon="4.677921537096175"><ele>269.0</ele><time>2026-04-10T14:38:12.999Z</time></trkpt><trkpt lat="46.65922521340291" lon="4.677972747188397"><ele>268.4</ele><time>2026-04-10T14:38:13.999Z</time></trkpt><trkpt lat="46.65930709981046" lon="4.678113167041241"><ele>267.79999999999995</ele><time>2026-04-10T14:38:15.999Z</time></trkpt><trkpt lat="46.65933588532225" lon="4.67820678437948"><ele>267.20000000000005</ele><time>2026-04-10T14:38:16.999Z</time></trkpt><trkpt lat="46.65936409721298" lon="4.678297929902"><ele>266.6</ele><time>2026-04-10T14:38:17.999Z</time></trkpt><trkpt lat="46.659397746696" lon="4.6783905382029936"><ele>266.0</ele><time>2026-04-10T14:38:18.999Z</time></trkpt><trkpt lat="46.659463623794174" lon="4.678522831687668"><ele>266.0</ele><time>2026-04-10T14:38:20.999Z</time></trkpt><trkpt lat="46.65951269419645" lon="4.678599865703448"><ele>266.0</ele><time>2026-04-10T14:38:21.999Z</time></trkpt><trkpt lat="46.65957359734868" lon="4.678659480093941"><ele>266.0</ele><time>2026-04-10T14:38:22.999Z</time></trkpt><trkpt lat="46.659649535930825" lon="4.678774815257699"><ele>266.0</ele><time>2026-04-10T14:38:24.999Z</time></trkpt><trkpt lat="46.65972618749569" lon="4.678875036127667"><ele>266.0</ele><time>2026-04-10T14:38:26.999Z</time></trkpt><trkpt lat="46.659788312402945" lon="4.678946908677211"><ele>266.0</ele><time>2026-04-10T14:38:28.999Z</time></trkpt><trkpt lat="46.6599106637249" lon="4.678994715274777"><ele>265.40000000000003</ele><time>2026-04-10T14:38:30.999Z</time></trkpt><trkpt lat="46.65999309298917" lon="4.678991719206351"><ele>264.8</ele><time>2026-04-10T14:38:31.999Z</time></trkpt><trkpt lat="46.660093258417476" lon="4.678984755675035"><ele>264.20000000000005</ele><time>2026-04-10T14:38:32.999Z</time></trkpt><trkpt lat="46.6602139371308" lon="4.6789615310115655"><ele>263.6</ele><time>2026-04-10T14:38:33.999Z</time></trkpt><trkpt lat="46.66035229056507" lon="4.678923735583352"><ele>263.0</ele><time>2026-04-10T14:38:34.999Z</time></trkpt><trkpt lat="46.66049510438908" lon="4.6788777371488735"><ele>265.2</ele><time>2026-04-10T14:38:35.999Z</time></trkpt><trkpt lat="46.66059930800233" lon="4.678846985929845"><ele>267.4</ele><time>2026-04-10T14:38:36.999Z</time></trkpt><trkpt lat="46.660670767904875" lon="4.678838374207665"><ele>269.59999999999997</ele><time>2026-04-10T14:38:37.999Z</time></trkpt><trkpt lat="46.660752969182866" lon="4.678843571341056"><ele>271.8</ele><time>2026-04-10T14:38:39.999Z</time></trkpt><trkpt lat="46.660826413606515" lon="4.678630356105695"><ele>274.0</ele><time>2026-04-10T14:38:42.999Z</time></trkpt><trkpt lat="46.66085715140292" lon="4.678446540354798"><ele>274.2</ele><time>2026-04-10T14:38:44.999Z</time></trkpt><trkpt lat="46.66066852892599" lon="4.678251534637464"><ele>274.4</ele><time>2026-04-10T14:38:45.999Z</time></trkpt><trkpt lat="46.660646624468654" lon="4.678150380642938"><ele>274.6</ele><time>2026-04-10T14:38:46.999Z</time></trkpt><trkpt lat="46.66061982755847" lon="4.678058184224973"><ele>274.8</ele><time>2026-04-10T14:38:47.999Z</time></trkpt><trkpt lat="46.66058570443133" lon="4.677975897106751"><ele>275.0</ele><time>2026-04-10T14:38:48.999Z</time></trkpt><trkpt lat="46.66068287910621" lon="4.677796116847583"><ele>275.0</ele><time>2026-04-10T14:38:49.999Z</time></trkpt><trkpt lat="46.66045827408693" lon="4.6783727514523035"><ele>275.0</ele><time>2026-04-10T14:38:51.999Z</time></trkpt><trkpt lat="46.66043979613189" lon="4.67771511220625"><ele>275.0</ele><time>2026-04-10T14:38:52.999Z</time></trkpt><trkpt lat="46.66044886006728" lon="4.677561174503788"><ele>275.0</ele><time>2026-04-10T14:38:53.999Z</time></trkpt><trkpt lat="46.660423277769304" lon="4.677440652849558"><ele>275.0</ele><time>2026-04-10T14:38:54.999Z</time></trkpt><trkpt lat="46.66039050252609" lon="4.677299605050906"><ele>275.0</ele><time>2026-04-10T14:38:55.999Z</time></trkpt><trkpt lat="46.66035397736377" lon="4.677163615764189"><ele>275.0</ele><time>2026-04-10T14:38:56.999Z</time></trkpt><trkpt lat="46.66031306268713" lon="4.677059728868639"><ele>274.8</ele><time>2026-04-10T14:38:57.999Z</time></trkpt><trkpt lat="46.66027302955619" lon="4.676983029431637"><ele>274.6</ele><time>2026-04-10T14:38:59Z</time></trkpt><trkpt lat="46.66024084983704" lon="4.676902532593935"><ele>274.4</ele><time>2026-04-10T14:39:00Z</time></trkpt><trkpt lat="46.66018754569496" lon="4.676752698238719"><ele>274.2</ele><time>2026-04-10T14:39:02Z</time></trkpt><trkpt lat="46.66016735461398" lon="4.676603768893642"><ele>274.0</ele><time>2026-04-10T14:39:04Z</time></trkpt><trkpt lat="46.66019577270229" lon="4.67644238249287"><ele>274.0</ele><time>2026-04-10T14:39:06Z</time></trkpt><trkpt lat="46.660253404741866" lon="4.676302164333967"><ele>274.0</ele><time>2026-04-10T14:39:08Z</time></trkpt><trkpt lat="46.660352010037" lon="4.676227887447341"><ele>274.0</ele><time>2026-04-10T14:39:10Z</time></trkpt><trkpt lat="46.66049015669819" lon="4.676287716089965"><ele>274.0</ele><time>2026-04-10T14:39:12Z</time></trkpt><trkpt lat="46.66057518721251" lon="4.67635885790271"><ele>274.4</ele><time>2026-04-10T14:39:13Z</time></trkpt><trkpt lat="46.66068235439131" lon="4.67643584095399"><ele>274.79999999999995</ele><time>2026-04-10T14:39:14Z</time></trkpt><trkpt lat="46.660786107177515" lon="4.676487580783245"><ele>275.20000000000005</ele><time>2026-04-10T14:39:15Z</time></trkpt><trkpt lat="46.660880160250926" lon="4.676534053584305"><ele>275.6</ele><time>2026-04-10T14:39:16Z</time></trkpt><trkpt lat="46.66097383414213" lon="4.676578311632038"><ele>276.0</ele><time>2026-04-10T14:39:17Z</time></trkpt><trkpt lat="46.66106897694547" lon="4.676610411613988"><ele>277.8</ele><time>2026-04-10T14:39:18Z</time></trkpt><trkpt lat="46.66116914292555" lon="4.676626780379217"><ele>279.6</ele><time>2026-04-10T14:39:19Z</time></trkpt><trkpt lat="46.66127304715752" lon="4.676634593405554"><ele>281.4</ele><time>2026-04-10T14:39:20Z</time></trkpt><trkpt lat="46.66138810794685" lon="4.676642368901683"><ele>283.2</ele><time>2026-04-10T14:39:21Z</time></trkpt><trkpt lat="46.66149550658092" lon="4.676649544545832"><ele>285.0</ele><time>2026-04-10T14:39:22Z</time></trkpt><trkpt lat="46.66159746703232" lon="4.676673827021814"><ele>285.0</ele><time>2026-04-10T14:39:23Z</time></trkpt><trkpt lat="46.66169612659078" lon="4.676699543781589"><ele>285.0</ele><time>2026-04-10T14:39:24Z</time></trkpt><trkpt lat="46.66179843174182" lon="4.676719187495649"><ele>285.0</ele><time>2026-04-10T14:39:25Z</time></trkpt><trkpt lat="46.66190059150329" lon="4.676739384590823"><ele>285.0</ele><time>2026-04-10T14:39:26Z</time></trkpt><trkpt lat="46.661996441551345" lon="4.676756603683558"><ele>285.0</ele><time>2026-04-10T14:39:27Z</time></trkpt><trkpt lat="46.662107007872734" lon="4.6767812324732185"><ele>286.0</ele><time>2026-04-10T14:39:28Z</time></trkpt><trkpt lat="46.66221038058668" lon="4.676821780309571"><ele>287.0</ele><time>2026-04-10T14:39:29Z</time></trkpt><trkpt lat="46.66230908581866" lon="4.676869466822821"><ele>288.0</ele><time>2026-04-10T14:39:30Z</time></trkpt><trkpt lat="46.6624019680221" lon="4.676918510587402"><ele>289.0</ele><time>2026-04-10T14:39:31Z</time></trkpt><trkpt lat="46.66250022668554" lon="4.676969021866897"><ele>290.0</ele><time>2026-04-10T14:39:32Z</time></trkpt><trkpt lat="46.66257432298414" lon="4.676995240421642"><ele>290.0</ele><time>2026-04-10T14:39:33Z</time></trkpt><trkpt lat="46.66264110909794" lon="4.677007346558557"><ele>290.0</ele><time>2026-04-10T14:39:34Z</time></trkpt><trkpt lat="46.66274900059451" lon="4.677045786935846"><ele>290.0</ele><time>2026-04-10T14:39:36Z</time></trkpt><trkpt lat="46.66277216831476" lon="4.677157331649964"><ele>290.0</ele><time>2026-04-10T14:39:37Z</time></trkpt><trkpt lat="46.66284219748833" lon="4.67720040969005"><ele>290.0</ele><time>2026-04-10T14:39:39Z</time></trkpt><trkpt lat="46.66291597426634" lon="4.677252691189943"><ele>290.0</ele><time>2026-04-10T14:39:42Z</time></trkpt><trkpt lat="46.66300643935889" lon="4.677299086004075"><ele>290.0</ele><time>2026-04-10T14:39:44Z</time></trkpt><trkpt lat="46.66311458887319" lon="4.6773344467134965"><ele>290.0</ele><time>2026-04-10T14:39:45Z</time></trkpt><trkpt lat="46.663204685070994" lon="4.6773892514225475"><ele>290.0</ele><time>2026-04-10T14:39:46Z</time></trkpt><trkpt lat="46.66329390184173" lon="4.677427684052771"><ele>290.0</ele><time>2026-04-10T14:39:47Z</time></trkpt><trkpt lat="46.66337026931312" lon="4.6774864802548795"><ele>290.0</ele><time>2026-04-10T14:39:48Z</time></trkpt><trkpt lat="46.66344211901066" lon="4.677521888110911"><ele>290.0</ele><time>2026-04-10T14:39:49Z</time></trkpt><trkpt lat="46.66350671132778" lon="4.67755371948986"><ele>290.0</ele><time>2026-04-10T14:39:50Z</time></trkpt><trkpt lat="46.66364942743973" lon="4.6775957815561355"><ele>290.0</ele><time>2026-04-10T14:39:52Z</time></trkpt><trkpt lat="46.66376888765656" lon="4.677599209287462"><ele>290.0</ele><time>2026-04-10T14:39:53Z</time></trkpt><trkpt lat="46.66392327058734" lon="4.677622934606178"><ele>289.0</ele><time>2026-04-10T14:39:54Z</time></trkpt><trkpt lat="46.664092656157514" lon="4.677635409745868"><ele>288.0</ele><time>2026-04-10T14:39:55Z</time></trkpt><trkpt lat="46.66423372954509" lon="4.67764974505073"><ele>287.0</ele><time>2026-04-10T14:39:56Z</time></trkpt><trkpt lat="46.664333268703324" lon="4.677650485013821"><ele>286.0</ele><time>2026-04-10T14:39:57Z</time></trkpt><trkpt lat="46.66446320813402" lon="4.67761373677301"><ele>284.66666666666663</ele><time>2026-04-10T14:39:58Z</time></trkpt><trkpt lat="46.664544006190326" lon="4.677574562436577"><ele>283.3333333333333</ele><time>2026-04-10T14:39:59Z</time></trkpt><trkpt lat="46.664659575373584" lon="4.677528489898007"><ele>282.0</ele><time>2026-04-10T14:40:01Z</time></trkpt><trkpt lat="46.66473250934516" lon="4.677515885321407"><ele>280.6666666666667</ele><time>2026-04-10T14:40:02Z</time></trkpt><trkpt lat="46.66480456041918" lon="4.677505463500524"><ele>279.33333333333337</ele><time>2026-04-10T14:40:03Z</time></trkpt><trkpt lat="46.664872744874984" lon="4.677508801880006"><ele>278.0</ele><time>2026-04-10T14:40:04Z</time></trkpt><trkpt lat="46.66495707544378" lon="4.6774892890979425"><ele>278.0</ele><time>2026-04-10T14:40:05Z</time></trkpt><trkpt lat="46.66504750785324" lon="4.677481196055093"><ele>278.0</ele><time>2026-04-10T14:40:06Z</time></trkpt><trkpt lat="46.66515599094292" lon="4.677475795239559"><ele>278.0</ele><time>2026-04-10T14:40:07Z</time></trkpt><trkpt lat="46.66525355635952" lon="4.677498528035809"><ele>278.0</ele><time>2026-04-10T14:40:07.999Z</time></trkpt><trkpt lat="46.66535033401267" lon="4.677521613787916"><ele>278.0</ele><time>2026-04-10T14:40:08.999Z</time></trkpt><trkpt lat="46.665446822287635" lon="4.67753605221077"><ele>276.6</ele><time>2026-04-10T14:40:09.999Z</time></trkpt><trkpt lat="46.66553980549977" lon="4.677556976493562"><ele>275.20000000000005</ele><time>2026-04-10T14:40:10.999Z</time></trkpt><trkpt lat="46.665626928191884" lon="4.677576825255456"><ele>273.8</ele><time>2026-04-10T14:40:11.999Z</time></trkpt><trkpt lat="46.665693374724526" lon="4.677597864646104"><ele>272.40000000000003</ele><time>2026-04-10T14:40:12.999Z</time></trkpt><trkpt lat="46.6657616276623" lon="4.677625309270922"><ele>271.0</ele><time>2026-04-10T14:40:13.999Z</time></trkpt><trkpt lat="46.665885102405475" lon="4.677684938919541"><ele>271.0</ele><time>2026-04-10T14:40:15.999Z</time></trkpt><trkpt lat="46.66596032330514" lon="4.6776765136095015"><ele>271.0</ele><time>2026-04-10T14:40:16.999Z</time></trkpt><trkpt lat="46.66605952171418" lon="4.677670797181563"><ele>271.0</ele><time>2026-04-10T14:40:17.999Z</time></trkpt><trkpt lat="46.66615613693168" lon="4.677663880587305"><ele>271.0</ele><time>2026-04-10T14:40:18.999Z</time></trkpt><trkpt lat="46.66624662705274" lon="4.677658591317296"><ele>271.0</ele><time>2026-04-10T14:40:19.999Z</time></trkpt><trkpt lat="46.66632681028784" lon="4.677653892991504"><ele>271.0</ele><time>2026-04-10T14:40:20.999Z</time></trkpt><trkpt lat="46.66640860506075" lon="4.677657565551247"><ele>271.0</ele><time>2026-04-10T14:40:21.999Z</time></trkpt><trkpt lat="46.666476378913416" lon="4.677649886337016"><ele>271.0</ele><time>2026-04-10T14:40:22.999Z</time></trkpt><trkpt lat="46.66661713506915" lon="4.677606867904325"><ele>271.0</ele><time>2026-04-10T14:40:24.999Z</time></trkpt><trkpt lat="46.66667762803312" lon="4.6775473235291445"><ele>271.0</ele><time>2026-04-10T14:40:25.999Z</time></trkpt><trkpt lat="46.666742221289745" lon="4.677483415756459"><ele>271.0</ele><time>2026-04-10T14:40:26.999Z</time></trkpt><trkpt lat="46.66682559226475" lon="4.677452656504873"><ele>271.0</ele><time>2026-04-10T14:40:27.999Z</time></trkpt><trkpt lat="46.66691973632755" lon="4.6774071531239425"><ele>271.8</ele><time>2026-04-10T14:40:28.999Z</time></trkpt><trkpt lat="46.66699755361279" lon="4.677373029132944"><ele>272.6</ele><time>2026-04-10T14:40:29.999Z</time></trkpt><trkpt lat="46.66707682874857" lon="4.677355228072704"><ele>273.4</ele><time>2026-04-10T14:40:30.999Z</time></trkpt><trkpt lat="46.66720425918535" lon="4.67730881390014"><ele>274.2</ele><time>2026-04-10T14:40:32.999Z</time></trkpt><trkpt lat="46.66729626041172" lon="4.677271926187925"><ele>275.0</ele><time>2026-04-10T14:40:33.999Z</time></trkpt><trkpt lat="46.66738354534924" lon="4.677231134863009"><ele>275.0</ele><time>2026-04-10T14:40:34.999Z</time></trkpt><trkpt lat="46.667446527387014" lon="4.677177141635904"><ele>275.0</ele><time>2026-04-10T14:40:35.999Z</time></trkpt><trkpt lat="46.66751482614699" lon="4.677087785458163"><ele>275.0</ele><time>2026-04-10T14:40:36.999Z</time></trkpt><trkpt lat="46.66756571795205" lon="4.67698631637218"><ele>275.0</ele><time>2026-04-10T14:40:37.999Z</time></trkpt><trkpt lat="46.66762550555058" lon="4.676883400707062"><ele>275.0</ele><time>2026-04-10T14:40:38.999Z</time></trkpt><trkpt lat="46.66768407124996" lon="4.67679286756663"><ele>275.0</ele><time>2026-04-10T14:40:39.999Z</time></trkpt><trkpt lat="46.66774239611908" lon="4.676701139419256"><ele>276.33333333333337</ele><time>2026-04-10T14:40:40.999Z</time></trkpt><trkpt lat="46.66780326777313" lon="4.676613085757941"><ele>277.6666666666667</ele><time>2026-04-10T14:40:41.999Z</time></trkpt><trkpt lat="46.667875614174186" lon="4.676542961306746"><ele>279.0</ele><time>2026-04-10T14:40:42.999Z</time></trkpt><trkpt lat="46.66795497303283" lon="4.676474867607086"><ele>280.3333333333333</ele><time>2026-04-10T14:40:43.999Z</time></trkpt><trkpt lat="46.668041935267695" lon="4.676407459374542"><ele>281.66666666666663</ele><time>2026-04-10T14:40:44.999Z</time></trkpt><trkpt lat="46.668113901371754" lon="4.676342757620879"><ele>283.0</ele><time>2026-04-10T14:40:45.999Z</time></trkpt><trkpt lat="46.66816779948931" lon="4.67627895361877"><ele>283.0</ele><time>2026-04-10T14:40:46.999Z</time></trkpt><trkpt lat="46.668214676912186" lon="4.676209303870733"><ele>283.0</ele><time>2026-04-10T14:40:47.999Z</time></trkpt><trkpt lat="46.66827029138132" lon="4.676083363306783"><ele>283.0</ele><time>2026-04-10T14:40:49.999Z</time></trkpt><trkpt lat="46.66828451670417" lon="4.675988385686217"><ele>283.0</ele><time>2026-04-10T14:40:50.999Z</time></trkpt><trkpt lat="46.66829233154401" lon="4.675889380295392"><ele>283.0</ele><time>2026-04-10T14:40:51.999Z</time></trkpt><trkpt lat="46.66830271610512" lon="4.675791268290771"><ele>283.0</ele><time>2026-04-10T14:40:52.999Z</time></trkpt><trkpt lat="46.66831602366935" lon="4.675686691402617"><ele>283.0</ele><time>2026-04-10T14:40:53.999Z</time></trkpt><trkpt lat="46.66833179365643" lon="4.675563536419648"><ele>284.2</ele><time>2026-04-10T14:40:54.999Z</time></trkpt><trkpt lat="46.6683574909173" lon="4.675449808255134"><ele>285.4</ele><time>2026-04-10T14:40:55.999Z</time></trkpt><trkpt lat="46.66840223978686" lon="4.675301975364798"><ele>286.59999999999997</ele><time>2026-04-10T14:40:56.999Z</time></trkpt><trkpt lat="46.66845733003952" lon="4.675126471567427"><ele>287.8</ele><time>2026-04-10T14:40:57.999Z</time></trkpt><trkpt lat="46.66849249892393" lon="4.674984083283686"><ele>289.0</ele><time>2026-04-10T14:40:58.999Z</time></trkpt><trkpt lat="46.66850282661831" lon="4.67487941852615"><ele>289.8333333333333</ele><time>2026-04-10T14:40:59.999Z</time></trkpt><trkpt lat="46.66851655019132" lon="4.674779608914272"><ele>290.66666666666663</ele><time>2026-04-10T14:41:00.999Z</time></trkpt><trkpt lat="46.6685738255402" lon="4.674666505654456"><ele>291.5</ele><time>2026-04-10T14:41:02.999Z</time></trkpt><trkpt lat="46.668660978724766" lon="4.674675830828451"><ele>292.3333333333333</ele><time>2026-04-10T14:41:17Z</time></trkpt><trkpt lat="46.66872727220747" lon="4.674660485354966"><ele>293.1666666666667</ele><time>2026-04-10T14:41:18Z</time></trkpt><trkpt lat="46.66882319321733" lon="4.674641198565187"><ele>294.0</ele><time>2026-04-10T14:41:19Z</time></trkpt><trkpt lat="46.66893620439615" lon="4.674637055252183"><ele>294.8</ele><time>2026-04-10T14:41:20Z</time></trkpt><trkpt lat="46.66905016288691" lon="4.674665077602289"><ele>295.59999999999997</ele><time>2026-04-10T14:41:21Z</time></trkpt><trkpt lat="46.669146236453024" lon="4.674685757912411"><ele>296.4</ele><time>2026-04-10T14:41:22Z</time></trkpt><trkpt lat="46.66924264223263" lon="4.6746851255168"><ele>297.2</ele><time>2026-04-10T14:41:23Z</time></trkpt><trkpt lat="46.66932970689703" lon="4.674672527755997"><ele>298.0</ele><time>2026-04-10T14:41:24Z</time></trkpt><trkpt lat="46.6694251077944" lon="4.674648674517501"><ele>298.0</ele><time>2026-04-10T14:41:25Z</time></trkpt><trkpt lat="46.66951942893949" lon="4.674616596174116"><ele>298.0</ele><time>2026-04-10T14:41:26Z</time></trkpt><trkpt lat="46.669613891098635" lon="4.674583411628198"><ele>298.0</ele><time>2026-04-10T14:41:27Z</time></trkpt><trkpt lat="46.66971297451166" lon="4.674555700731117"><ele>298.0</ele><time>2026-04-10T14:41:28Z</time></trkpt><trkpt lat="46.669805899596945" lon="4.674530240493349"><ele>298.0</ele><time>2026-04-10T14:41:29Z</time></trkpt><trkpt lat="46.66990100612012" lon="4.674497184413321"><ele>298.0</ele><time>2026-04-10T14:41:30Z</time></trkpt><trkpt lat="46.66997945304562" lon="4.674466110675212"><ele>298.0</ele><time>2026-04-10T14:41:31Z</time></trkpt><trkpt lat="46.67006305098247" lon="4.674416068495272"><ele>298.0</ele><time>2026-04-10T14:41:32Z</time></trkpt><trkpt lat="46.67015757115017" lon="4.674371709243187"><ele>298.0</ele><time>2026-04-10T14:41:34Z</time></trkpt><trkpt lat="46.6702163612777" lon="4.674317460867315"><ele>298.0</ele><time>2026-04-10T14:41:38Z</time></trkpt><trkpt lat="46.67026131804661" lon="4.674420228378344"><ele>298.0</ele><time>2026-04-10T14:41:55Z</time></trkpt><trkpt lat="46.67027175679789" lon="4.674660652450578"><ele>296.8333333333333</ele><time>2026-04-10T14:41:57Z</time></trkpt><trkpt lat="46.67027613709393" lon="4.6747735899793375"><ele>295.66666666666663</ele><time>2026-04-10T14:41:58Z</time></trkpt><trkpt lat="46.67030234724944" lon="4.674950054142625"><ele>294.5</ele><time>2026-04-10T14:42:00Z</time></trkpt><trkpt lat="46.67030762117924" lon="4.675046480492843"><ele>293.3333333333333</ele><time>2026-04-10T14:42:01Z</time></trkpt><trkpt lat="46.67031425863303" lon="4.675169946453707"><ele>292.1666666666667</ele><time>2026-04-10T14:42:01.999Z</time></trkpt><trkpt lat="46.67029856049695" lon="4.675259518278322"><ele>291.0</ele><time>2026-04-10T14:42:04.999Z</time></trkpt><trkpt lat="46.670292244529925" lon="4.675387580543722"><ele>290.6</ele><time>2026-04-10T14:42:06.999Z</time></trkpt><trkpt lat="46.670263075274804" lon="4.67552438150925"><ele>290.20000000000005</ele><time>2026-04-10T14:42:08.999Z</time></trkpt><trkpt lat="46.6702273987397" lon="4.675699672355747"><ele>289.79999999999995</ele><time>2026-04-10T14:42:10.999Z</time></trkpt><trkpt lat="46.670209049428266" lon="4.675800430402701"><ele>289.4</ele><time>2026-04-10T14:42:11.999Z</time></trkpt><trkpt lat="46.67018361736859" lon="4.675907829043195"><ele>289.0</ele><time>2026-04-10T14:42:12.999Z</time></trkpt><trkpt lat="46.6701508125023" lon="4.676039522317894"><ele>287.75</ele><time>2026-04-10T14:42:13.999Z</time></trkpt><trkpt lat="46.670116298985334" lon="4.6761891236840425"><ele>286.5</ele><time>2026-04-10T14:42:14.999Z</time></trkpt><trkpt lat="46.67008336603947" lon="4.676375823747121"><ele>285.25</ele><time>2026-04-10T14:42:15.999Z</time></trkpt><trkpt lat="46.67007280904456" lon="4.676549892602244"><ele>284.0</ele><time>2026-04-10T14:42:16.999Z</time></trkpt><trkpt lat="46.67007073310952" lon="4.676715344300921"><ele>284.0</ele><time>2026-04-10T14:42:17.999Z</time></trkpt><trkpt lat="46.67008270025766" lon="4.676869434899269"><ele>284.0</ele><time>2026-04-10T14:42:18.999Z</time></trkpt><trkpt lat="46.670115242891754" lon="4.677023367593945"><ele>284.0</ele><time>2026-04-10T14:42:19.999Z</time></trkpt><trkpt lat="46.670149888269904" lon="4.677187944127439"><ele>284.0</ele><time>2026-04-10T14:42:20.999Z</time></trkpt><trkpt lat="46.67017517805895" lon="4.677356900487276"><ele>283.25</ele><time>2026-04-10T14:42:21.999Z</time></trkpt><trkpt lat="46.67017485116605" lon="4.677538290665583"><ele>282.5</ele><time>2026-04-10T14:42:22.999Z</time></trkpt><trkpt lat="46.67013990848984" lon="4.67773557707084"><ele>281.75</ele><time>2026-04-10T14:42:23.999Z</time></trkpt><trkpt lat="46.67012050894037" lon="4.677980200044766"><ele>281.0</ele><time>2026-04-10T14:42:24.999Z</time></trkpt><trkpt lat="46.670080941974085" lon="4.6782092156078905"><ele>280.6666666666667</ele><time>2026-04-10T14:42:25.999Z</time></trkpt><trkpt lat="46.67002196485347" lon="4.678448646373274"><ele>280.3333333333333</ele><time>2026-04-10T14:42:26.999Z</time></trkpt><trkpt lat="46.669954300036956" lon="4.678657283018435"><ele>280.0</ele><time>2026-04-10T14:42:27.999Z</time></trkpt><trkpt lat="46.669896198295945" lon="4.678860667085629"><ele>278.3333333333333</ele><time>2026-04-10T14:42:28.999Z</time></trkpt><trkpt lat="46.669851534896246" lon="4.679078000593423"><ele>276.6666666666667</ele><time>2026-04-10T14:42:29.999Z</time></trkpt><trkpt lat="46.66980417863687" lon="4.679298607429947"><ele>275.0</ele><time>2026-04-10T14:42:30.999Z</time></trkpt><trkpt lat="46.66976584320917" lon="4.6795259289430655"><ele>274.33333333333337</ele><time>2026-04-10T14:42:31.999Z</time></trkpt><trkpt lat="46.66973010805521" lon="4.679746035132097"><ele>273.6666666666667</ele><time>2026-04-10T14:42:32.999Z</time></trkpt><trkpt lat="46.6696872345134" lon="4.67995980900695"><ele>273.0</ele><time>2026-04-10T14:42:33.999Z</time></trkpt><trkpt lat="46.66964721118648" lon="4.680187120561905"><ele>272.0</ele><time>2026-04-10T14:42:34.999Z</time></trkpt><trkpt lat="46.669609223036765" lon="4.680429388560159"><ele>271.0</ele><time>2026-04-10T14:42:35.999Z</time></trkpt><trkpt lat="46.66956855549482" lon="4.680695177790891"><ele>270.0</ele><time>2026-04-10T14:42:36.999Z</time></trkpt><trkpt lat="46.66951453376117" lon="4.680966637703827"><ele>269.6666666666667</ele><time>2026-04-10T14:42:37.999Z</time></trkpt><trkpt lat="46.66947045471022" lon="4.68119978925113"><ele>269.33333333333337</ele><time>2026-04-10T14:42:38.999Z</time></trkpt><trkpt lat="46.66942692348208" lon="4.681415355703966"><ele>269.0</ele><time>2026-04-10T14:42:39.999Z</time></trkpt><trkpt lat="46.66938796925391" lon="4.681615234784421"><ele>269.0</ele><time>2026-04-10T14:42:40.999Z</time></trkpt><trkpt lat="46.66934760072328" lon="4.681815281323722"><ele>269.0</ele><time>2026-04-10T14:42:41.999Z</time></trkpt><trkpt lat="46.66931063948383" lon="4.6820253253752355"><ele>269.0</ele><time>2026-04-10T14:42:42.999Z</time></trkpt><trkpt lat="46.6692690159605" lon="4.682243787486484"><ele>269.0</ele><time>2026-04-10T14:42:43.999Z</time></trkpt><trkpt lat="46.66922575930744" lon="4.682465022848425"><ele>269.0</ele><time>2026-04-10T14:42:44.999Z</time></trkpt><trkpt lat="46.66918277091139" lon="4.682669952879299"><ele>269.0</ele><time>2026-04-10T14:42:45.999Z</time></trkpt><trkpt lat="46.66914844875994" lon="4.6828631136421395"><ele>269.0</ele><time>2026-04-10T14:42:46.999Z</time></trkpt><trkpt lat="46.66911209029443" lon="4.683069441466366"><ele>269.0</ele><time>2026-04-10T14:42:47.999Z</time></trkpt><trkpt lat="46.669079554131876" lon="4.683227712283788"><ele>269.0</ele><time>2026-04-10T14:42:48.999Z</time></trkpt><trkpt lat="46.6690528005079" lon="4.683383340333249"><ele>269.0</ele><time>2026-04-10T14:42:49.999Z</time></trkpt><trkpt lat="46.66902151655152" lon="4.6835261445772565"><ele>269.0</ele><time>2026-04-10T14:42:50.999Z</time></trkpt><trkpt lat="46.66899652862297" lon="4.683652479598423"><ele>269.0</ele><time>2026-04-10T14:42:51.999Z</time></trkpt><trkpt lat="46.66898004369782" lon="4.683756843606619"><ele>269.0</ele><time>2026-04-10T14:42:52.999Z</time></trkpt><trkpt lat="46.668954166406905" lon="4.683894292356154"><ele>269.0</ele><time>2026-04-10T14:42:54.999Z</time></trkpt><trkpt lat="46.669049648802805" lon="4.684015665761598"><ele>269.0</ele><time>2026-04-10T14:43:00.999Z</time></trkpt><trkpt lat="46.66912806815094" lon="4.684015890206214"><ele>269.0</ele><time>2026-04-10T14:43:01.999Z</time></trkpt><trkpt lat="46.6692039994039" lon="4.684038868265726"><ele>269.0</ele><time>2026-04-10T14:43:02.999Z</time></trkpt><trkpt lat="46.669287953197525" lon="4.684068536050162"><ele>269.0</ele><time>2026-04-10T14:43:03.999Z</time></trkpt><trkpt lat="46.6693640985421" lon="4.684103437706875"><ele>269.0</ele><time>2026-04-10T14:43:04.999Z</time></trkpt><trkpt lat="46.669449989453305" lon="4.684144253220305"><ele>269.2</ele><time>2026-04-10T14:43:05.999Z</time></trkpt><trkpt lat="46.669547956298" lon="4.684186413316082"><ele>269.4</ele><time>2026-04-10T14:43:06.999Z</time></trkpt><trkpt lat="46.66966952964721" lon="4.684195470125576"><ele>269.6</ele><time>2026-04-10T14:43:07.999Z</time></trkpt><trkpt lat="46.66975709438091" lon="4.684226388190504"><ele>269.8</ele><time>2026-04-10T14:43:08.999Z</time></trkpt><trkpt lat="46.66986047809087" lon="4.684261764971968"><ele>270.0</ele><time>2026-04-10T14:43:09.999Z</time></trkpt><trkpt lat="46.66997986991717" lon="4.684301711402852"><ele>270.0</ele><time>2026-04-10T14:43:11Z</time></trkpt><trkpt lat="46.670109213166214" lon="4.684334471766457"><ele>270.0</ele><time>2026-04-10T14:43:12Z</time></trkpt><trkpt lat="46.67024174004639" lon="4.684356829814813"><ele>270.0</ele><time>2026-04-10T14:43:13Z</time></trkpt><trkpt lat="46.6703760347916" lon="4.6843661751451355"><ele>270.0</ele><time>2026-04-10T14:43:14Z</time></trkpt><trkpt lat="46.67050924062983" lon="4.684371587612111"><ele>268.5</ele><time>2026-04-10T14:43:15Z</time></trkpt><trkpt lat="46.67064159514811" lon="4.68438062633647"><ele>267.0</ele><time>2026-04-10T14:43:16Z</time></trkpt><trkpt lat="46.670785435067344" lon="4.6843530612863535"><ele>265.5</ele><time>2026-04-10T14:43:17Z</time></trkpt><trkpt lat="46.67092569356518" lon="4.684343048301828"><ele>264.0</ele><time>2026-04-10T14:43:18Z</time></trkpt><trkpt lat="46.67106393318587" lon="4.684332473487356"><ele>263.0</ele><time>2026-04-10T14:43:19Z</time></trkpt><trkpt lat="46.671200023426024" lon="4.684323014723951"><ele>262.0</ele><time>2026-04-10T14:43:20Z</time></trkpt><trkpt lat="46.67134852875095" lon="4.684324083686493"><ele>261.0</ele><time>2026-04-10T14:43:21Z</time></trkpt><trkpt lat="46.67149980655893" lon="4.68430179106473"><ele>260.0</ele><time>2026-04-10T14:43:22Z</time></trkpt><trkpt lat="46.67164289209149" lon="4.684279668044354"><ele>260.0</ele><time>2026-04-10T14:43:23Z</time></trkpt><trkpt lat="46.671792606956444" lon="4.6842720132082105"><ele>260.0</ele><time>2026-04-10T14:43:24Z</time></trkpt><trkpt lat="46.671942909415534" lon="4.6842616624288045"><ele>260.0</ele><time>2026-04-10T14:43:25Z</time></trkpt><trkpt lat="46.67209086462887" lon="4.684266777525028"><ele>260.0</ele><time>2026-04-10T14:43:26Z</time></trkpt><trkpt lat="46.67223452711404" lon="4.684255779644966"><ele>260.0</ele><time>2026-04-10T14:43:27Z</time></trkpt><trkpt lat="46.672382023279376" lon="4.684244488284401"><ele>260.0</ele><time>2026-04-10T14:43:28Z</time></trkpt><trkpt lat="46.67253289049232" lon="4.684229673373197"><ele>260.0</ele><time>2026-04-10T14:43:29Z</time></trkpt><trkpt lat="46.672689932079834" lon="4.684231681039036"><ele>260.0</ele><time>2026-04-10T14:43:30Z</time></trkpt><trkpt lat="46.67286768308885" lon="4.68423265347544"><ele>260.0</ele><time>2026-04-10T14:43:31Z</time></trkpt><trkpt lat="46.67306712601712" lon="4.684236377886863"><ele>260.0</ele><time>2026-04-10T14:43:32Z</time></trkpt><trkpt lat="46.67328326317307" lon="4.684231627457273"><ele>260.0</ele><time>2026-04-10T14:43:33Z</time></trkpt><trkpt lat="46.673523971278364" lon="4.684233909783758"><ele>260.0</ele><time>2026-04-10T14:43:34Z</time></trkpt><trkpt lat="46.67378106211541" lon="4.684228500767497"><ele>260.5</ele><time>2026-04-10T14:43:35Z</time></trkpt><trkpt lat="46.67405256797352" lon="4.684229005425866"><ele>261.0</ele><time>2026-04-10T14:43:36Z</time></trkpt><trkpt lat="46.67433884045258" lon="4.684233440621741"><ele>262.5</ele><time>2026-04-10T14:43:37Z</time></trkpt><trkpt lat="46.674620742288326" lon="4.684194772203461"><ele>264.0</ele><time>2026-04-10T14:43:38Z</time></trkpt><trkpt lat="46.67491019987388" lon="4.684214534605002"><ele>264.0</ele><time>2026-04-10T14:43:39Z</time></trkpt><trkpt lat="46.675195256665155" lon="4.684250333136965"><ele>264.0</ele><time>2026-04-10T14:43:40Z</time></trkpt><trkpt lat="46.67544932484047" lon="4.684315806935119"><ele>263.5</ele><time>2026-04-10T14:43:41Z</time></trkpt><trkpt lat="46.6757328006094" lon="4.684385436729574"><ele>263.0</ele><time>2026-04-10T14:43:42Z</time></trkpt><trkpt lat="46.675978352045576" lon="4.684508050018917"><ele>263.0</ele><time>2026-04-10T14:43:43Z</time></trkpt><trkpt lat="46.67609994873276" lon="4.684458455857562"><ele>263.0</ele><time>2026-04-10T14:43:44Z</time></trkpt><trkpt lat="46.67630293637011" lon="4.684508711567967"><ele>263.0</ele><time>2026-04-10T14:43:45Z</time></trkpt><trkpt lat="46.67650615702921" lon="4.6845439878219866"><ele>263.0</ele><time>2026-04-10T14:43:46Z</time></trkpt><trkpt lat="46.676688577819164" lon="4.684558898209408"><ele>263.0</ele><time>2026-04-10T14:43:47Z</time></trkpt><trkpt lat="46.67686866544681" lon="4.684569387847572"><ele>263.0</ele><time>2026-04-10T14:43:48Z</time></trkpt><trkpt lat="46.677038388793875" lon="4.684581740645381"><ele>264.33333333333337</ele><time>2026-04-10T14:43:49Z</time></trkpt><trkpt lat="46.67720413823815" lon="4.684588968092013"><ele>265.6666666666667</ele><time>2026-04-10T14:43:50Z</time></trkpt><trkpt lat="46.67736124892192" lon="4.684593088827515"><ele>267.0</ele><time>2026-04-10T14:43:51Z</time></trkpt><trkpt lat="46.67750724656354" lon="4.6845806554610245"><ele>267.0</ele><time>2026-04-10T14:43:52Z</time></trkpt><trkpt lat="46.67765461074534" lon="4.684554546748761"><ele>267.0</ele><time>2026-04-10T14:43:53Z</time></trkpt><trkpt lat="46.67779741175831" lon="4.684484535441322"><ele>267.0</ele><time>2026-04-10T14:43:54Z</time></trkpt><trkpt lat="46.677937038141806" lon="4.68438189852588"><ele>267.6666666666667</ele><time>2026-04-10T14:43:55Z</time></trkpt><trkpt lat="46.67807521916497" lon="4.684274391769981"><ele>268.33333333333337</ele><time>2026-04-10T14:43:56Z</time></trkpt><trkpt lat="46.67820564252834" lon="4.684154913728572"><ele>269.0</ele><time>2026-04-10T14:43:57Z</time></trkpt><trkpt lat="46.67833270326051" lon="4.684036993089389"><ele>269.0</ele><time>2026-04-10T14:43:58Z</time></trkpt><trkpt lat="46.67847105409643" lon="4.683932548343483"><ele>269.0</ele><time>2026-04-10T14:43:59Z</time></trkpt><trkpt lat="46.67860889268104" lon="4.6838148753283555"><ele>269.0</ele><time>2026-04-10T14:44:00Z</time></trkpt><trkpt lat="46.67874218710529" lon="4.683691051886547"><ele>269.0</ele><time>2026-04-10T14:44:01Z</time></trkpt><trkpt lat="46.67887608733084" lon="4.683581883659123"><ele>269.0</ele><time>2026-04-10T14:44:02Z</time></trkpt><trkpt lat="46.67900709430979" lon="4.68348120814723"><ele>269.0</ele><time>2026-04-10T14:44:03Z</time></trkpt><trkpt lat="46.679136129057945" lon="4.683386642000032"><ele>269.0</ele><time>2026-04-10T14:44:04Z</time></trkpt><trkpt lat="46.679256159452656" lon="4.683302367978295"><ele>269.0</ele><time>2026-04-10T14:44:05Z</time></trkpt><trkpt lat="46.679372821646794" lon="4.683225247732591"><ele>269.0</ele><time>2026-04-10T14:44:06Z</time></trkpt><trkpt lat="46.679486099675074" lon="4.683168174000104"><ele>269.0</ele><time>2026-04-10T14:44:07Z</time></trkpt><trkpt lat="46.679602204774625" lon="4.683123838694187"><ele>269.0</ele><time>2026-04-10T14:44:08Z</time></trkpt><trkpt lat="46.67972504950326" lon="4.6830876986463315"><ele>268.33333333333337</ele><time>2026-04-10T14:44:09Z</time></trkpt><trkpt lat="46.67986522900506" lon="4.683070261421351"><ele>267.6666666666667</ele><time>2026-04-10T14:44:10Z</time></trkpt><trkpt lat="46.680031421099415" lon="4.683065077608663"><ele>267.0</ele><time>2026-04-10T14:44:11Z</time></trkpt><trkpt lat="46.680183729471544" lon="4.683102833234427"><ele>265.0</ele><time>2026-04-10T14:44:12Z</time></trkpt><trkpt lat="46.680333871866516" lon="4.683146845829317"><ele>263.0</ele><time>2026-04-10T14:44:12.999Z</time></trkpt><trkpt lat="46.680478901161266" lon="4.68320386442303"><ele>261.0</ele><time>2026-04-10T14:44:13.999Z</time></trkpt><trkpt lat="46.6806264534251" lon="4.6832727623138934"><ele>261.0</ele><time>2026-04-10T14:44:14.999Z</time></trkpt><trkpt lat="46.680780195649774" lon="4.683340455628007"><ele>261.0</ele><time>2026-04-10T14:44:15.999Z</time></trkpt><trkpt lat="46.680929309963574" lon="4.683401421278869"><ele>261.0</ele><time>2026-04-10T14:44:16.999Z</time></trkpt><trkpt lat="46.68106240365868" lon="4.683455663471832"><ele>260.5</ele><time>2026-04-10T14:44:17.999Z</time></trkpt><trkpt lat="46.68120019754242" lon="4.683502325286893"><ele>260.0</ele><time>2026-04-10T14:44:18.999Z</time></trkpt><trkpt lat="46.6813292026116" lon="4.6835855854993245"><ele>259.5</ele><time>2026-04-10T14:44:19.999Z</time></trkpt><trkpt lat="46.68145284207171" lon="4.683626306117557"><ele>259.0</ele><time>2026-04-10T14:44:20.999Z</time></trkpt><trkpt lat="46.681570935750024" lon="4.683675136402115"><ele>259.0</ele><time>2026-04-10T14:44:21.999Z</time></trkpt><trkpt lat="46.681672684305155" lon="4.68370753408614"><ele>259.0</ele><time>2026-04-10T14:44:22.999Z</time></trkpt><trkpt lat="46.68176677758119" lon="4.683726452737797"><ele>259.0</ele><time>2026-04-10T14:44:23.999Z</time></trkpt><trkpt lat="46.6818616858701" lon="4.683760015996157"><ele>259.0</ele><time>2026-04-10T14:44:24.999Z</time></trkpt><trkpt lat="46.6819430774184" lon="4.683776793093619"><ele>259.0</ele><time>2026-04-10T14:44:25.999Z</time></trkpt><trkpt lat="46.68201668734525" lon="4.683791003415725"><ele>257.59999999999997</ele><time>2026-04-10T14:44:26.999Z</time></trkpt><trkpt lat="46.68212028282055" lon="4.683806852325982"><ele>256.2</ele><time>2026-04-10T14:44:28.999Z</time></trkpt><trkpt lat="46.68215884430311" lon="4.683896806423121"><ele>254.79999999999998</ele><time>2026-04-10T14:44:30.999Z</time></trkpt><trkpt lat="46.682221102723126" lon="4.68404520556156"><ele>253.39999999999998</ele><time>2026-04-10T14:44:32.999Z</time></trkpt><trkpt lat="46.682307154890324" lon="4.684085835402723"><ele>252.0</ele><time>2026-04-10T14:44:33.999Z</time></trkpt><trkpt lat="46.68241498200238" lon="4.6841001057250296"><ele>252.0</ele><time>2026-04-10T14:44:34.999Z</time></trkpt><trkpt lat="46.682547888812756" lon="4.68412161916772"><ele>252.0</ele><time>2026-04-10T14:44:35.999Z</time></trkpt><trkpt lat="46.68266326376358" lon="4.68418114317663"><ele>252.0</ele><time>2026-04-10T14:44:36.999Z</time></trkpt><trkpt lat="46.68276376930987" lon="4.684200192420032"><ele>252.0</ele><time>2026-04-10T14:44:37.999Z</time></trkpt><trkpt lat="46.68285377405759" lon="4.684229785289018"><ele>251.33333333333334</ele><time>2026-04-10T14:44:38.999Z</time></trkpt><trkpt lat="46.68293793733315" lon="4.684249474667685"><ele>250.66666666666669</ele><time>2026-04-10T14:44:39.999Z</time></trkpt><trkpt lat="46.68302309709581" lon="4.684273959725663"><ele>250.0</ele><time>2026-04-10T14:44:40.999Z</time></trkpt><trkpt lat="46.683102042844" lon="4.684285769286638"><ele>249.33333333333334</ele><time>2026-04-10T14:44:41.999Z</time></trkpt><trkpt lat="46.68317475526325" lon="4.684298305980471"><ele>248.66666666666669</ele><time>2026-04-10T14:44:42.999Z</time></trkpt><trkpt lat="46.68323441080979" lon="4.6843505361125155"><ele>248.0</ele><time>2026-04-10T14:44:43.999Z</time></trkpt><trkpt lat="46.68328589004938" lon="4.6844174573876645"><ele>247.60000000000002</ele><time>2026-04-10T14:44:44.999Z</time></trkpt><trkpt lat="46.683340486821656" lon="4.684528495075807"><ele>247.20000000000002</ele><time>2026-04-10T14:44:46.999Z</time></trkpt><trkpt lat="46.68337385475563" lon="4.684684867609078"><ele>246.8</ele><time>2026-04-10T14:44:48.999Z</time></trkpt><trkpt lat="46.6833283603093" lon="4.684830651553733"><ele>246.4</ele><time>2026-04-10T14:44:49.999Z</time></trkpt><trkpt lat="46.683321329404855" lon="4.684975760508701"><ele>246.0</ele><time>2026-04-10T14:44:50.999Z</time></trkpt><trkpt lat="46.683338140900815" lon="4.685165284466244"><ele>246.0</ele><time>2026-04-10T14:44:51.999Z</time></trkpt><trkpt lat="46.68336312001983" lon="4.685387326729708"><ele>246.0</ele><time>2026-04-10T14:44:52.999Z</time></trkpt><trkpt lat="46.6833888671362" lon="4.685670953940893"><ele>246.0</ele><time>2026-04-10T14:44:53.999Z</time></trkpt><trkpt lat="46.68341168390127" lon="4.685985067104557"><ele>245.33333333333331</ele><time>2026-04-10T14:44:54.999Z</time></trkpt><trkpt lat="46.68343108809186" lon="4.686273641451825"><ele>244.66666666666666</ele><time>2026-04-10T14:44:55.999Z</time></trkpt><trkpt lat="46.68344544132082" lon="4.686562914957372"><ele>244.0</ele><time>2026-04-10T14:44:56.999Z</time></trkpt><trkpt lat="46.683462671964634" lon="4.6868203629943075"><ele>243.5</ele><time>2026-04-10T14:44:57.999Z</time></trkpt><trkpt lat="46.68347086966687" lon="4.687049430298326"><ele>243.0</ele><time>2026-04-10T14:44:58.999Z</time></trkpt><trkpt lat="46.683470863313936" lon="4.687260600228076"><ele>242.5</ele><time>2026-04-10T14:44:59.999Z</time></trkpt><trkpt lat="46.68346527838871" lon="4.687472207248382"><ele>242.0</ele><time>2026-04-10T14:45:00.999Z</time></trkpt><trkpt lat="46.68344253433954" lon="4.687652560710815"><ele>241.83333333333334</ele><time>2026-04-10T14:45:01.999Z</time></trkpt><trkpt lat="46.68341436611404" lon="4.6878152169052365"><ele>241.66666666666669</ele><time>2026-04-10T14:45:02.999Z</time></trkpt><trkpt lat="46.68338586383164" lon="4.687957816853557"><ele>241.5</ele><time>2026-04-10T14:45:03.999Z</time></trkpt><trkpt lat="46.68336303459567" lon="4.688071176685308"><ele>241.33333333333331</ele><time>2026-04-10T14:45:04.999Z</time></trkpt><trkpt lat="46.68335684940388" lon="4.688168432169241"><ele>241.16666666666666</ele><time>2026-04-10T14:45:05.999Z</time></trkpt><trkpt lat="46.68338298289986" lon="4.688255848995788"><ele>241.0</ele><time>2026-04-10T14:45:06.999Z</time></trkpt><trkpt lat="46.68344081910505" lon="4.688324075714331"><ele>241.0</ele><time>2026-04-10T14:45:07.999Z</time></trkpt><trkpt lat="46.68351902124871" lon="4.68837555994193"><ele>241.0</ele><time>2026-04-10T14:45:08.999Z</time></trkpt><trkpt lat="46.68361248701236" lon="4.6884116358669745"><ele>241.0</ele><time>2026-04-10T14:45:09.999Z</time></trkpt><trkpt lat="46.68372543981273" lon="4.688455171531828"><ele>241.0</ele><time>2026-04-10T14:45:10.999Z</time></trkpt><trkpt lat="46.68388636969872" lon="4.6885502656545235"><ele>240.5</ele><time>2026-04-10T14:45:11.999Z</time></trkpt><trkpt lat="46.68402280466245" lon="4.6886307434344525"><ele>240.0</ele><time>2026-04-10T14:45:12.999Z</time></trkpt><trkpt lat="46.684122816089996" lon="4.688690484469277"><ele>239.5</ele><time>2026-04-10T14:45:13.999Z</time></trkpt><trkpt lat="46.68420683883353" lon="4.688764676441069"><ele>239.0</ele><time>2026-04-10T14:45:14.999Z</time></trkpt><trkpt lat="46.684290889792194" lon="4.688834582982739"><ele>239.0</ele><time>2026-04-10T14:45:15.999Z</time></trkpt><trkpt lat="46.68437944788825" lon="4.68890516500792"><ele>239.0</ele><time>2026-04-10T14:45:17Z</time></trkpt><trkpt lat="46.684539190928234" lon="4.688798659899444"><ele>239.0</ele><time>2026-04-10T14:45:18Z</time></trkpt><trkpt lat="46.684685792910216" lon="4.688789742874625"><ele>239.0</ele><time>2026-04-10T14:45:19Z</time></trkpt><trkpt lat="46.68484471330056" lon="4.688767417275353"><ele>239.75</ele><time>2026-04-10T14:45:20Z</time></trkpt><trkpt lat="46.68500749659529" lon="4.688744362584163"><ele>240.5</ele><time>2026-04-10T14:45:21Z</time></trkpt><trkpt lat="46.68513505401096" lon="4.68872190888464"><ele>241.25</ele><time>2026-04-10T14:45:22Z</time></trkpt><trkpt lat="46.685249151840814" lon="4.68871218506268"><ele>242.0</ele><time>2026-04-10T14:45:23Z</time></trkpt><trkpt lat="46.685344290184176" lon="4.688698161722631"><ele>242.8</ele><time>2026-04-10T14:45:24Z</time></trkpt><trkpt lat="46.68544343430703" lon="4.688678521669773"><ele>243.6</ele><time>2026-04-10T14:45:25Z</time></trkpt><trkpt lat="46.68555228230549" lon="4.688671493313137"><ele>244.40000000000003</ele><time>2026-04-10T14:45:26Z</time></trkpt><trkpt lat="46.685660872715395" lon="4.688693553161146"><ele>245.20000000000002</ele><time>2026-04-10T14:45:27Z</time></trkpt><trkpt lat="46.685774137261106" lon="4.688725397319546"><ele>246.0</ele><time>2026-04-10T14:45:28Z</time></trkpt><trkpt lat="46.68587453101473" lon="4.688771308408795"><ele>246.0</ele><time>2026-04-10T14:45:29Z</time></trkpt><trkpt lat="46.68596968026307" lon="4.688834651180116"><ele>246.0</ele><time>2026-04-10T14:45:30Z</time></trkpt><trkpt lat="46.68608114753818" lon="4.688925200776714"><ele>246.0</ele><time>2026-04-10T14:45:31Z</time></trkpt><trkpt lat="46.68620440464336" lon="4.689026660661141"><ele>246.0</ele><time>2026-04-10T14:45:32Z</time></trkpt><trkpt lat="46.6863507282828" lon="4.68911609364468"><ele>248.0</ele><time>2026-04-10T14:45:33Z</time></trkpt><trkpt lat="46.68651135222399" lon="4.689176825561827"><ele>250.0</ele><time>2026-04-10T14:45:34Z</time></trkpt><trkpt lat="46.68670116516924" lon="4.68925393746383"><ele>252.0</ele><time>2026-04-10T14:45:35Z</time></trkpt><trkpt lat="46.686843584759465" lon="4.68931832908665"><ele>253.0</ele><time>2026-04-10T14:45:36Z</time></trkpt><trkpt lat="46.68695975909305" lon="4.689388089385009"><ele>254.0</ele><time>2026-04-10T14:45:37Z</time></trkpt><trkpt lat="46.68707148593687" lon="4.689483526728737"><ele>255.0</ele><time>2026-04-10T14:45:38Z</time></trkpt><trkpt lat="46.68717956527534" lon="4.689597154009116"><ele>256.0</ele><time>2026-04-10T14:45:39Z</time></trkpt><trkpt lat="46.68728908582242" lon="4.689693616369612"><ele>256.0</ele><time>2026-04-10T14:45:40Z</time></trkpt><trkpt lat="46.68740809066202" lon="4.68975393093588"><ele>256.0</ele><time>2026-04-10T14:45:41Z</time></trkpt><trkpt lat="46.687524272000154" lon="4.689795039063771"><ele>256.0</ele><time>2026-04-10T14:45:42Z</time></trkpt><trkpt lat="46.68762359325062" lon="4.689819604443492"><ele>256.0</ele><time>2026-04-10T14:45:43Z</time></trkpt><trkpt lat="46.687708318292444" lon="4.689833407681803"><ele>256.0</ele><time>2026-04-10T14:45:44Z</time></trkpt><trkpt lat="46.687796562171286" lon="4.689831242534934"><ele>256.5</ele><time>2026-04-10T14:45:45Z</time></trkpt><trkpt lat="46.687878835614995" lon="4.689802219090167"><ele>257.0</ele><time>2026-04-10T14:45:46Z</time></trkpt><trkpt lat="46.68795701355644" lon="4.689831641740609"><ele>257.5</ele><time>2026-04-10T14:45:47Z</time></trkpt><trkpt lat="46.68803791826257" lon="4.68984474601876"><ele>258.0</ele><time>2026-04-10T14:45:48Z</time></trkpt><trkpt lat="46.68812649667743" lon="4.689858510795919"><ele>258.5</ele><time>2026-04-10T14:45:49Z</time></trkpt><trkpt lat="46.68821808646066" lon="4.689869270321692"><ele>259.0</ele><time>2026-04-10T14:45:50Z</time></trkpt><trkpt lat="46.688312892444294" lon="4.689863707637051"><ele>259.0</ele><time>2026-04-10T14:45:51Z</time></trkpt><trkpt lat="46.688405072259606" lon="4.689878310840245"><ele>259.0</ele><time>2026-04-10T14:45:52Z</time></trkpt><trkpt lat="46.68849178615132" lon="4.689887651442979"><ele>259.0</ele><time>2026-04-10T14:45:53Z</time></trkpt><trkpt lat="46.688584940674616" lon="4.6899016744759034"><ele>259.0</ele><time>2026-04-10T14:45:54Z</time></trkpt><trkpt lat="46.6886635198504" lon="4.689925976736531"><ele>259.0</ele><time>2026-04-10T14:45:55Z</time></trkpt><trkpt lat="46.68874944438667" lon="4.689933001052182"><ele>259.0</ele><time>2026-04-10T14:45:56Z</time></trkpt><trkpt lat="46.68884007397236" lon="4.689935985750635"><ele>259.0</ele><time>2026-04-10T14:45:57Z</time></trkpt><trkpt lat="46.68893472590717" lon="4.689933752145321"><ele>259.0</ele><time>2026-04-10T14:45:58Z</time></trkpt><trkpt lat="46.68902933365418" lon="4.689917083306686"><ele>259.0</ele><time>2026-04-10T14:45:59Z</time></trkpt><trkpt lat="46.689124071151284" lon="4.689897915641222"><ele>259.0</ele><time>2026-04-10T14:46:00Z</time></trkpt><trkpt lat="46.68920640437669" lon="4.6899143509857355"><ele>259.0</ele><time>2026-04-10T14:46:01Z</time></trkpt><trkpt lat="46.68928067308748" lon="4.689905929430575"><ele>259.0</ele><time>2026-04-10T14:46:02Z</time></trkpt><trkpt lat="46.689342619770436" lon="4.689881965440106"><ele>259.0</ele><time>2026-04-10T14:46:03Z</time></trkpt><trkpt lat="46.68943246610233" lon="4.689886449412389"><ele>259.0</ele><time>2026-04-10T14:46:05Z</time></trkpt><trkpt lat="46.68948457441653" lon="4.689829611161615"><ele>259.0</ele><time>2026-04-10T14:46:07Z</time></trkpt><trkpt lat="46.68952734462422" lon="4.689728203837994"><ele>259.0</ele><time>2026-04-10T14:46:08Z</time></trkpt><trkpt lat="46.68960653676216" lon="4.6896632227381225"><ele>259.0</ele><time>2026-04-10T14:46:09Z</time></trkpt><trkpt lat="46.68970411106999" lon="4.689610638692619"><ele>259.0</ele><time>2026-04-10T14:46:10Z</time></trkpt><trkpt lat="46.68983484965765" lon="4.689570551295456"><ele>259.0</ele><time>2026-04-10T14:46:11Z</time></trkpt><trkpt lat="46.68995456193077" lon="4.689561138519377"><ele>259.0</ele><time>2026-04-10T14:46:12Z</time></trkpt><trkpt lat="46.69004033418812" lon="4.689584958951795"><ele>259.0</ele><time>2026-04-10T14:46:13Z</time></trkpt><trkpt lat="46.69010681508778" lon="4.689639913723525"><ele>259.0</ele><time>2026-04-10T14:46:14Z</time></trkpt><trkpt lat="46.69017316123696" lon="4.689714516702604"><ele>259.0</ele><time>2026-04-10T14:46:15Z</time></trkpt><trkpt lat="46.690242574745824" lon="4.689817730492533"><ele>258.4</ele><time>2026-04-10T14:46:16Z</time></trkpt><trkpt lat="46.69030177095526" lon="4.689918453249746"><ele>257.79999999999995</ele><time>2026-04-10T14:46:17Z</time></trkpt><trkpt lat="46.690347922018674" lon="4.690000986974703"><ele>257.20000000000005</ele><time>2026-04-10T14:46:18Z</time></trkpt><trkpt lat="46.69040801929312" lon="4.690134913598494"><ele>256.6</ele><time>2026-04-10T14:46:19.999Z</time></trkpt><trkpt lat="46.6904313468381" lon="4.690302649064755"><ele>256.0</ele><time>2026-04-10T14:46:21.999Z</time></trkpt><trkpt lat="46.690432296622745" lon="4.690437342772168"><ele>255.5</ele><time>2026-04-10T14:46:22.999Z</time></trkpt><trkpt lat="46.69042289769058" lon="4.690605362067101"><ele>255.0</ele><time>2026-04-10T14:46:23.999Z</time></trkpt><trkpt lat="46.69040614674039" lon="4.690787455626105"><ele>254.5</ele><time>2026-04-10T14:46:24.999Z</time></trkpt><trkpt lat="46.6903948185823" lon="4.690967851117667"><ele>254.0</ele><time>2026-04-10T14:46:25.999Z</time></trkpt><trkpt lat="46.69038357262746" lon="4.691121877913198"><ele>253.79999999999998</ele><time>2026-04-10T14:46:26.999Z</time></trkpt><trkpt lat="46.690370029646374" lon="4.691277328385378"><ele>253.59999999999997</ele><time>2026-04-10T14:46:27.999Z</time></trkpt><trkpt lat="46.69036356401679" lon="4.691442034751473"><ele>253.4</ele><time>2026-04-10T14:46:28.999Z</time></trkpt><trkpt lat="46.690369999123035" lon="4.6916072721791755"><ele>253.2</ele><time>2026-04-10T14:46:29.999Z</time></trkpt><trkpt lat="46.69038223944612" lon="4.691771836439649"><ele>253.0</ele><time>2026-04-10T14:46:30.999Z</time></trkpt><trkpt lat="46.690411576764596" lon="4.6919400079587685"><ele>253.0</ele><time>2026-04-10T14:46:31.999Z</time></trkpt><trkpt lat="46.69043457699469" lon="4.692100113777181"><ele>253.0</ele><time>2026-04-10T14:46:32.999Z</time></trkpt><trkpt lat="46.69045457319748" lon="4.692260945566742"><ele>253.0</ele><time>2026-04-10T14:46:33.999Z</time></trkpt><trkpt lat="46.69046781292667" lon="4.692394599430197"><ele>253.0</ele><time>2026-04-10T14:46:34.999Z</time></trkpt><trkpt lat="46.69047900899826" lon="4.692507579560002"><ele>253.0</ele><time>2026-04-10T14:46:35.999Z</time></trkpt><trkpt lat="46.69049280290803" lon="4.6926282842360205"><ele>253.0</ele><time>2026-04-10T14:46:36.999Z</time></trkpt><trkpt lat="46.69050915380209" lon="4.692762564165733"><ele>253.0</ele><time>2026-04-10T14:46:37.999Z</time></trkpt><trkpt lat="46.6905274851788" lon="4.692914858118113"><ele>253.0</ele><time>2026-04-10T14:46:38.999Z</time></trkpt><trkpt lat="46.69054319916312" lon="4.69306062209669"><ele>253.0</ele><time>2026-04-10T14:46:39.999Z</time></trkpt><trkpt lat="46.69057461019348" lon="4.693216024001532"><ele>253.0</ele><time>2026-04-10T14:46:40.999Z</time></trkpt><trkpt lat="46.69059827702" lon="4.693343389722882"><ele>252.99999999999997</ele><time>2026-04-10T14:46:41.999Z</time></trkpt><trkpt lat="46.69061711340839" lon="4.693454887927949"><ele>253.0</ele><time>2026-04-10T14:46:42.999Z</time></trkpt><trkpt lat="46.69063071351365" lon="4.693548604193268"><ele>253.0</ele><time>2026-04-10T14:46:43.999Z</time></trkpt><trkpt lat="46.69064461909892" lon="4.693706897650874"><ele>253.0</ele><time>2026-04-10T14:46:45.999Z</time></trkpt><trkpt lat="46.69065269922482" lon="4.693826463577491"><ele>252.99999999999997</ele><time>2026-04-10T14:46:46.999Z</time></trkpt><trkpt lat="46.6906704462825" lon="4.693924815252115"><ele>253.0</ele><time>2026-04-10T14:46:47.999Z</time></trkpt><trkpt lat="46.69076974647708" lon="4.693931429808303"><ele>253.4</ele><time>2026-04-10T14:46:50.999Z</time></trkpt><trkpt lat="46.690830495603905" lon="4.693865167334418"><ele>253.8</ele><time>2026-04-10T14:46:51.999Z</time></trkpt><trkpt lat="46.690926377618304" lon="4.693810097967599"><ele>254.2</ele><time>2026-04-10T14:46:52.999Z</time></trkpt><trkpt lat="46.691032135182994" lon="4.693738282539211"><ele>254.6</ele><time>2026-04-10T14:46:53.999Z</time></trkpt><trkpt lat="46.69113555849077" lon="4.693669074248397"><ele>255.0</ele><time>2026-04-10T14:46:54.999Z</time></trkpt><trkpt lat="46.6912299909547" lon="4.693580111430218"><ele>253.5</ele><time>2026-04-10T14:46:55.999Z</time></trkpt><trkpt lat="46.69135819035552" lon="4.6934991700254844"><ele>252.0</ele><time>2026-04-10T14:46:56.999Z</time></trkpt><trkpt lat="46.69151497154773" lon="4.6934149048826725"><ele>250.5</ele><time>2026-04-10T14:46:57.999Z</time></trkpt><trkpt lat="46.69163398415773" lon="4.693335079814718"><ele>249.0</ele><time>2026-04-10T14:46:58.999Z</time></trkpt><trkpt lat="46.69172609788769" lon="4.693271984259223"><ele>249.0</ele><time>2026-04-10T14:46:59.999Z</time></trkpt><trkpt lat="46.691809231689724" lon="4.693214800815522"><ele>249.0</ele><time>2026-04-10T14:47:00.999Z</time></trkpt><trkpt lat="46.69187863196856" lon="4.693164036096395"><ele>249.0</ele><time>2026-04-10T14:47:01.999Z</time></trkpt><trkpt lat="46.69192967950651" lon="4.693108112371429"><ele>249.0</ele><time>2026-04-10T14:47:02.999Z</time></trkpt><trkpt lat="46.69200561421827" lon="4.693096125033022"><ele>249.0</ele><time>2026-04-10T14:47:04.999Z</time></trkpt><trkpt lat="46.69201707645151" lon="4.693216346356743"><ele>249.0</ele><time>2026-04-10T14:47:05.999Z</time></trkpt><trkpt lat="46.69203507855019" lon="4.6933242860474165"><ele>249.0</ele><time>2026-04-10T14:47:06.999Z</time></trkpt><trkpt lat="46.692069100453246" lon="4.693435362831323"><ele>249.0</ele><time>2026-04-10T14:47:07.999Z</time></trkpt><trkpt lat="46.69209830794712" lon="4.693589858471795"><ele>249.0</ele><time>2026-04-10T14:47:08.999Z</time></trkpt><trkpt lat="46.692132612518684" lon="4.69376028045509"><ele>249.0</ele><time>2026-04-10T14:47:09.999Z</time></trkpt><trkpt lat="46.692171029162886" lon="4.6939498975306675"><ele>249.0</ele><time>2026-04-10T14:47:10.999Z</time></trkpt><trkpt lat="46.69219500382386" lon="4.694132328058628"><ele>248.99999999999997</ele><time>2026-04-10T14:47:11.999Z</time></trkpt><trkpt lat="46.69222442367825" lon="4.694282816657259"><ele>248.99999999999997</ele><time>2026-04-10T14:47:12.999Z</time></trkpt><trkpt lat="46.69224637921841" lon="4.694419183794483"><ele>249.0</ele><time>2026-04-10T14:47:13.999Z</time></trkpt><trkpt lat="46.69227737231323" lon="4.694567829331491"><ele>249.0</ele><time>2026-04-10T14:47:14.999Z</time></trkpt><trkpt lat="46.69230681338158" lon="4.694704414586549"><ele>249.39999999999998</ele><time>2026-04-10T14:47:15.999Z</time></trkpt><trkpt lat="46.69233023690551" lon="4.694828848591813"><ele>249.79999999999998</ele><time>2026-04-10T14:47:16.999Z</time></trkpt><trkpt lat="46.69234189856053" lon="4.694923276717574"><ele>250.20000000000002</ele><time>2026-04-10T14:47:17.999Z</time></trkpt><trkpt lat="46.69235737099878" lon="4.6950279722923876"><ele>250.60000000000002</ele><time>2026-04-10T14:47:18.999Z</time></trkpt><trkpt lat="46.692381225534206" lon="4.69514298385616"><ele>251.0</ele><time>2026-04-10T14:47:20.999Z</time></trkpt><trkpt lat="46.69251434410917" lon="4.695030780958811"><ele>251.0</ele><time>2026-04-10T14:47:25Z</time></trkpt><trkpt lat="46.69252893794309" lon="4.6948948101352475"><ele>251.00000000000003</ele><time>2026-04-10T14:47:26Z</time></trkpt><trkpt lat="46.69257733257544" lon="4.694733009697181"><ele>251.00000000000003</ele><time>2026-04-10T14:47:27Z</time></trkpt><trkpt lat="46.69263961408394" lon="4.694566406548844"><ele>251.0</ele><time>2026-04-10T14:47:28Z</time></trkpt><trkpt lat="46.692702204290526" lon="4.694446457057752"><ele>251.0</ele><time>2026-04-10T14:47:29Z</time></trkpt><trkpt lat="46.69278555532156" lon="4.694332314391663"><ele>252.5</ele><time>2026-04-10T14:47:30Z</time></trkpt><trkpt lat="46.6928939205802" lon="4.69421832831594"><ele>254.0</ele><time>2026-04-10T14:47:31Z</time></trkpt><trkpt lat="46.69301210524583" lon="4.694116956703969"><ele>255.5</ele><time>2026-04-10T14:47:32Z</time></trkpt><trkpt lat="46.69311500548443" lon="4.6940301039390295"><ele>257.0</ele><time>2026-04-10T14:47:33Z</time></trkpt><trkpt lat="46.69320845480555" lon="4.693961752480919"><ele>257.0</ele><time>2026-04-10T14:47:34Z</time></trkpt><trkpt lat="46.693306943981746" lon="4.693908883186829"><ele>257.0</ele><time>2026-04-10T14:47:35Z</time></trkpt><trkpt lat="46.6934152335146" lon="4.6938867433486235"><ele>257.0</ele><time>2026-04-10T14:47:36Z</time></trkpt><trkpt lat="46.69352491453827" lon="4.693878523510601"><ele>257.0</ele><time>2026-04-10T14:47:37Z</time></trkpt><trkpt lat="46.69365113511087" lon="4.693882869630876"><ele>259.25</ele><time>2026-04-10T14:47:38Z</time></trkpt><trkpt lat="46.69379634788974" lon="4.693889691317766"><ele>261.5</ele><time>2026-04-10T14:47:39Z</time></trkpt><trkpt lat="46.69392867876268" lon="4.693882074478614"><ele>263.75</ele><time>2026-04-10T14:47:40Z</time></trkpt><trkpt lat="46.69405213042334" lon="4.693897300945302"><ele>266.0</ele><time>2026-04-10T14:47:41Z</time></trkpt><trkpt lat="46.69418095528449" lon="4.6939238328775135"><ele>266.0</ele><time>2026-04-10T14:47:42Z</time></trkpt><trkpt lat="46.69430726606116" lon="4.693962059142702"><ele>266.0</ele><time>2026-04-10T14:47:43Z</time></trkpt><trkpt lat="46.69442292350368" lon="4.694000627874388"><ele>266.0</ele><time>2026-04-10T14:47:44Z</time></trkpt><trkpt lat="46.69454108753069" lon="4.694044898700833"><ele>266.0</ele><time>2026-04-10T14:47:45Z</time></trkpt><trkpt lat="46.694671559124025" lon="4.694078658528513"><ele>265.5</ele><time>2026-04-10T14:47:46Z</time></trkpt><trkpt lat="46.69481408246555" lon="4.694081552556675"><ele>265.0</ele><time>2026-04-10T14:47:47Z</time></trkpt><trkpt lat="46.694938735990824" lon="4.694080250195461"><ele>264.5</ele><time>2026-04-10T14:47:48Z</time></trkpt><trkpt lat="46.6950454599542" lon="4.694076794382871"><ele>264.0</ele><time>2026-04-10T14:47:49Z</time></trkpt><trkpt lat="46.69512676389595" lon="4.694091069171129"><ele>264.0</ele><time>2026-04-10T14:47:50Z</time></trkpt><trkpt lat="46.695225428250914" lon="4.694099265636774"><ele>264.0</ele><time>2026-04-10T14:47:51Z</time></trkpt><trkpt lat="46.695342816534435" lon="4.694115386682291"><ele>264.0</ele><time>2026-04-10T14:47:52Z</time></trkpt><trkpt lat="46.69544379905625" lon="4.694138167341281"><ele>264.0</ele><time>2026-04-10T14:47:53Z</time></trkpt><trkpt lat="46.69553501380974" lon="4.694154164524106"><ele>264.0</ele><time>2026-04-10T14:47:54Z</time></trkpt><trkpt lat="46.695610920151836" lon="4.694177848291069"><ele>263.3333333333333</ele><time>2026-04-10T14:47:55Z</time></trkpt><trkpt lat="46.69567528523618" lon="4.694207987567267"><ele>262.6666666666667</ele><time>2026-04-10T14:47:56Z</time></trkpt><trkpt lat="46.69574089260172" lon="4.694227097671331"><ele>262.0</ele><time>2026-04-10T14:47:57Z</time></trkpt><trkpt lat="46.69580564318244" lon="4.694247302156111"><ele>261.33333333333337</ele><time>2026-04-10T14:47:58Z</time></trkpt><trkpt lat="46.69591945469319" lon="4.694284474454134"><ele>260.6666666666667</ele><time>2026-04-10T14:48:00Z</time></trkpt><trkpt lat="46.69601646178303" lon="4.694316449769434"><ele>260.0</ele><time>2026-04-10T14:48:02Z</time></trkpt><trkpt lat="46.69610144963086" lon="4.694349298903203"><ele>259.83333333333337</ele><time>2026-04-10T14:48:04Z</time></trkpt><trkpt lat="46.69617739723053" lon="4.694364422873604"><ele>259.6666666666667</ele><time>2026-04-10T14:48:06Z</time></trkpt><trkpt lat="46.6962583780452" lon="4.694400673652609"><ele>259.5</ele><time>2026-04-10T14:48:08Z</time></trkpt><trkpt lat="46.696336063926026" lon="4.694428483720229"><ele>259.3333333333333</ele><time>2026-04-10T14:48:10Z</time></trkpt><trkpt lat="46.69639921408421" lon="4.69443659274404"><ele>259.16666666666663</ele><time>2026-04-10T14:48:12Z</time></trkpt><trkpt lat="46.696478455477525" lon="4.694454405028074"><ele>259.0</ele><time>2026-04-10T14:48:15Z</time></trkpt><trkpt lat="46.696544663080815" lon="4.694505759930163"><ele>259.0</ele><time>2026-04-10T14:48:18Z</time></trkpt><trkpt lat="46.69662433748167" lon="4.694559962084929"><ele>259.0</ele><time>2026-04-10T14:48:21Z</time></trkpt><trkpt lat="46.69669671743885" lon="4.694635654294476"><ele>259.0</ele><time>2026-04-10T14:48:24Z</time></trkpt><trkpt lat="46.696734875505655" lon="4.694716991443758"><ele>259.0</ele><time>2026-04-10T14:48:25Z</time></trkpt><trkpt lat="46.69676708359614" lon="4.6948221174742"><ele>259.0</ele><time>2026-04-10T14:48:26Z</time></trkpt><trkpt lat="46.696796170629064" lon="4.694946944348208"><ele>259.0</ele><time>2026-04-10T14:48:26.999Z</time></trkpt><trkpt lat="46.696824296610366" lon="4.695090155141108"><ele>259.0</ele><time>2026-04-10T14:48:27.999Z</time></trkpt><trkpt lat="46.69685067306607" lon="4.695224987669386"><ele>259.0</ele><time>2026-04-10T14:48:28.999Z</time></trkpt><trkpt lat="46.696881652177204" lon="4.695358899431497"><ele>259.0</ele><time>2026-04-10T14:48:29.999Z</time></trkpt><trkpt lat="46.696910899714545" lon="4.6955223426431365"><ele>259.0</ele><time>2026-04-10T14:48:30.999Z</time></trkpt><trkpt lat="46.696939389093515" lon="4.695710952778471"><ele>259.0</ele><time>2026-04-10T14:48:31.999Z</time></trkpt><trkpt lat="46.69697045237275" lon="4.69592803001988"><ele>256.75</ele><time>2026-04-10T14:48:32.999Z</time></trkpt><trkpt lat="46.697014600203424" lon="4.696136251943559"><ele>254.5</ele><time>2026-04-10T14:48:33.999Z</time></trkpt><trkpt lat="46.6970393551766" lon="4.696290803957201"><ele>252.25</ele><time>2026-04-10T14:48:34.999Z</time></trkpt><trkpt lat="46.69706906227944" lon="4.696438040295764"><ele>250.0</ele><time>2026-04-10T14:48:35.999Z</time></trkpt><trkpt lat="46.69710310937717" lon="4.696596050249679"><ele>250.0</ele><time>2026-04-10T14:48:36.999Z</time></trkpt><trkpt lat="46.69714249844259" lon="4.696768221288545"><ele>250.0</ele><time>2026-04-10T14:48:37.999Z</time></trkpt><trkpt lat="46.69717726973467" lon="4.696951873761066"><ele>250.0</ele><time>2026-04-10T14:48:38.999Z</time></trkpt><trkpt lat="46.69720696936748" lon="4.697138833340992"><ele>250.0</ele><time>2026-04-10T14:48:39.999Z</time></trkpt><trkpt lat="46.69723181128642" lon="4.697337868387709"><ele>250.25</ele><time>2026-04-10T14:48:40.999Z</time></trkpt><trkpt lat="46.69726877901872" lon="4.697541973430607"><ele>250.5</ele><time>2026-04-10T14:48:41.999Z</time></trkpt><trkpt lat="46.69729519175933" lon="4.697751529709219"><ele>250.75</ele><time>2026-04-10T14:48:42.999Z</time></trkpt><trkpt lat="46.6973217005858" lon="4.697960029205075"><ele>251.0</ele><time>2026-04-10T14:48:43.999Z</time></trkpt><trkpt lat="46.69733087139823" lon="4.698192909084257"><ele>251.25</ele><time>2026-04-10T14:48:44.999Z</time></trkpt><trkpt lat="46.69733949078467" lon="4.698373954631724"><ele>251.5</ele><time>2026-04-10T14:48:45.999Z</time></trkpt><trkpt lat="46.69736507674415" lon="4.69855034616262"><ele>251.75</ele><time>2026-04-10T14:48:46.999Z</time></trkpt><trkpt lat="46.697390310254136" lon="4.698716017393318"><ele>252.0</ele><time>2026-04-10T14:48:47.999Z</time></trkpt><trkpt lat="46.697419230969544" lon="4.698867935093487"><ele>252.6</ele><time>2026-04-10T14:48:48.999Z</time></trkpt><trkpt lat="46.697445251207" lon="4.699015424302861"><ele>253.2</ele><time>2026-04-10T14:48:49.999Z</time></trkpt><trkpt lat="46.69746116231756" lon="4.699164369939065"><ele>253.8</ele><time>2026-04-10T14:48:50.999Z</time></trkpt><trkpt lat="46.69746763324791" lon="4.699310053827866"><ele>254.4</ele><time>2026-04-10T14:48:51.999Z</time></trkpt><trkpt lat="46.69748370029737" lon="4.699466858327284"><ele>255.0</ele><time>2026-04-10T14:48:52.999Z</time></trkpt><trkpt lat="46.697508735219316" lon="4.699630293662912"><ele>255.25</ele><time>2026-04-10T14:48:53.999Z</time></trkpt><trkpt lat="46.697531121095324" lon="4.6998028390705695"><ele>255.5</ele><time>2026-04-10T14:48:54.999Z</time></trkpt><trkpt lat="46.69755173322653" lon="4.699979472600399"><ele>255.75</ele><time>2026-04-10T14:48:55.999Z</time></trkpt><trkpt lat="46.69756708457699" lon="4.700156015889124"><ele>256.0</ele><time>2026-04-10T14:48:56.999Z</time></trkpt><trkpt lat="46.69758736098081" lon="4.700334125027812"><ele>256.0</ele><time>2026-04-10T14:48:57.999Z</time></trkpt><trkpt lat="46.69760963334754" lon="4.700493203223337"><ele>256.0</ele><time>2026-04-10T14:48:58.999Z</time></trkpt><trkpt lat="46.69762784445082" lon="4.700630706432377"><ele>256.0</ele><time>2026-04-10T14:48:59.999Z</time></trkpt><trkpt lat="46.69763785463141" lon="4.700750015800128"><ele>256.0</ele><time>2026-04-10T14:49:00.999Z</time></trkpt><trkpt lat="46.69765359759796" lon="4.700913172169554"><ele>256.0</ele><time>2026-04-10T14:49:02.999Z</time></trkpt><trkpt lat="46.69766630356026" lon="4.70109108157797"><ele>255.66666666666666</ele><time>2026-04-10T14:49:04.999Z</time></trkpt><trkpt lat="46.69767062445028" lon="4.701207736357591"><ele>255.33333333333331</ele><time>2026-04-10T14:49:05.999Z</time></trkpt><trkpt lat="46.697669156388905" lon="4.701344088822817"><ele>255.0</ele><time>2026-04-10T14:49:06.999Z</time></trkpt><trkpt lat="46.69766710515764" lon="4.70148002877416"><ele>254.66666666666669</ele><time>2026-04-10T14:49:07.999Z</time></trkpt><trkpt lat="46.69766580070279" lon="4.701600069250242"><ele>254.33333333333334</ele><time>2026-04-10T14:49:08.999Z</time></trkpt><trkpt lat="46.6976655068281" lon="4.701705368283644"><ele>254.0</ele><time>2026-04-10T14:49:09.999Z</time></trkpt><trkpt lat="46.697666698927236" lon="4.701813239420939"><ele>253.33333333333334</ele><time>2026-04-10T14:49:10.999Z</time></trkpt><trkpt lat="46.697666829910546" lon="4.701932378192137"><ele>252.66666666666669</ele><time>2026-04-10T14:49:11.999Z</time></trkpt><trkpt lat="46.697664631448376" lon="4.702062207225815"><ele>252.0</ele><time>2026-04-10T14:49:12.999Z</time></trkpt><trkpt lat="46.697665069568586" lon="4.702173570855077"><ele>251.33333333333331</ele><time>2026-04-10T14:49:13.999Z</time></trkpt><trkpt lat="46.69766297801487" lon="4.702279464302403"><ele>250.66666666666666</ele><time>2026-04-10T14:49:14.999Z</time></trkpt><trkpt lat="46.69765962176132" lon="4.702400054145275"><ele>250.0</ele><time>2026-04-10T14:49:15.999Z</time></trkpt><trkpt lat="46.69765003081528" lon="4.702527062730445"><ele>249.99999999999997</ele><time>2026-04-10T14:49:16.999Z</time></trkpt><trkpt lat="46.697641838890604" lon="4.70264594675902"><ele>250.0</ele><time>2026-04-10T14:49:17.999Z</time></trkpt><trkpt lat="46.6976274793725" lon="4.702769702262559"><ele>250.0</ele><time>2026-04-10T14:49:18.999Z</time></trkpt><trkpt lat="46.6976129798343" lon="4.702901006128103"><ele>250.0</ele><time>2026-04-10T14:49:19.999Z</time></trkpt><trkpt lat="46.697603609136735" lon="4.703021322911407"><ele>249.99999999999997</ele><time>2026-04-10T14:49:20.999Z</time></trkpt><trkpt lat="46.697601526836245" lon="4.703120034020679"><ele>250.0</ele><time>2026-04-10T14:49:21.999Z</time></trkpt><trkpt lat="46.69759688565693" lon="4.7032469975129745"><ele>249.66666666666666</ele><time>2026-04-10T14:49:23.999Z</time></trkpt><trkpt lat="46.697578855641254" lon="4.703350417539443"><ele>249.33333333333331</ele><time>2026-04-10T14:49:26.999Z</time></trkpt><trkpt lat="46.6975135977048" lon="4.703361088596136"><ele>249.0</ele><time>2026-04-10T14:49:33Z</time></trkpt><trkpt lat="46.69750843467372" lon="4.703267023236272"><ele>248.66666666666669</ele><time>2026-04-10T14:49:37Z</time></trkpt><trkpt lat="46.69738989067531" lon="4.7032152042188615"><ele>248.33333333333334</ele><time>2026-04-10T14:49:39Z</time></trkpt><trkpt lat="46.69729045596894" lon="4.7032026057653304"><ele>248.0</ele><time>2026-04-10T14:49:40Z</time></trkpt><trkpt lat="46.697183413356164" lon="4.703174748692714"><ele>248.00000000000003</ele><time>2026-04-10T14:49:41Z</time></trkpt><trkpt lat="46.697085038521536" lon="4.703150639381759"><ele>248.0</ele><time>2026-04-10T14:49:42Z</time></trkpt><trkpt lat="46.697012819615516" lon="4.7031129090451955"><ele>248.0</ele><time>2026-04-10T14:49:43Z</time></trkpt><trkpt lat="46.69695081248856" lon="4.703065835424129"><ele>248.0</ele><time>2026-04-10T14:49:44Z</time></trkpt><trkpt lat="46.6968872640976" lon="4.7030203004118185"><ele>248.00000000000003</ele><time>2026-04-10T14:49:45Z</time></trkpt><trkpt lat="46.696813438511384" lon="4.702972927490774"><ele>248.0</ele><time>2026-04-10T14:49:46Z</time></trkpt><trkpt lat="46.69671006015719" lon="4.702925532778613"><ele>248.8</ele><time>2026-04-10T14:49:47Z</time></trkpt><trkpt lat="46.6965780590584" lon="4.702882843890994"><ele>249.60000000000002</ele><time>2026-04-10T14:49:48Z</time></trkpt><trkpt lat="46.69648101507485" lon="4.702862588913641"><ele>250.39999999999998</ele><time>2026-04-10T14:49:49Z</time></trkpt><trkpt lat="46.69639684902308" lon="4.702801417999833"><ele>251.2</ele><time>2026-04-10T14:49:50Z</time></trkpt><trkpt lat="46.69631841089248" lon="4.702773564341861"><ele>252.0</ele><time>2026-04-10T14:49:51Z</time></trkpt><trkpt lat="46.69625377376404" lon="4.702742813770033"><ele>252.39999999999998</ele><time>2026-04-10T14:49:52Z</time></trkpt><trkpt lat="46.69615632707259" lon="4.702679515425014"><ele>252.79999999999998</ele><time>2026-04-10T14:49:54Z</time></trkpt><trkpt lat="46.69609747524191" lon="4.702645441447236"><ele>253.2</ele><time>2026-04-10T14:49:56Z</time></trkpt><trkpt lat="46.69602348860354" lon="4.7027123857001545"><ele>253.6</ele><time>2026-04-10T14:50:01Z</time></trkpt><trkpt lat="46.696009704307585" lon="4.702865755203713"><ele>254.0</ele><time>2026-04-10T14:50:03Z</time></trkpt><trkpt lat="46.695980013453735" lon="4.7029871695683"><ele>252.0</ele><time>2026-04-10T14:50:04Z</time></trkpt><trkpt lat="46.69593446592973" lon="4.703135497467091"><ele>249.99999999999997</ele><time>2026-04-10T14:50:05Z</time></trkpt><trkpt lat="46.695891946013965" lon="4.70328614748887"><ele>247.99999999999997</ele><time>2026-04-10T14:50:06Z</time></trkpt><trkpt lat="46.6958588128376" lon="4.703413630735237"><ele>246.0</ele><time>2026-04-10T14:50:07Z</time></trkpt><trkpt lat="46.695822427821305" lon="4.703540452656546"><ele>244.0</ele><time>2026-04-10T14:50:08Z</time></trkpt><trkpt lat="46.695792354734344" lon="4.70365496408677"><ele>242.99999999999997</ele><time>2026-04-10T14:50:09Z</time></trkpt><trkpt lat="46.69575512942745" lon="4.703775811377894"><ele>242.0</ele><time>2026-04-10T14:50:10Z</time></trkpt><trkpt lat="46.695725535092436" lon="4.703879738428682"><ele>241.0</ele><time>2026-04-10T14:50:11Z</time></trkpt><trkpt lat="46.695685192231565" lon="4.703968530078604"><ele>240.0</ele><time>2026-04-10T14:50:12Z</time></trkpt><trkpt lat="46.695651293508206" lon="4.704069567021945"><ele>238.99999999999997</ele><time>2026-04-10T14:50:14Z</time></trkpt><trkpt lat="46.6955910365773" lon="4.704187471441861"><ele>238.0</ele><time>2026-04-10T14:50:16Z</time></trkpt><trkpt lat="46.69555472788748" lon="4.704326555040675"><ele>238.0</ele><time>2026-04-10T14:50:18Z</time></trkpt><trkpt lat="46.69550383467685" lon="4.704394830915794"><ele>238.0</ele><time>2026-04-10T14:50:20Z</time></trkpt><trkpt lat="46.695471716706564" lon="4.704502128102158"><ele>238.0</ele><time>2026-04-10T14:50:22Z</time></trkpt><trkpt lat="46.69542011144412" lon="4.704618537524334"><ele>238.0</ele><time>2026-04-10T14:50:24Z</time></trkpt><trkpt lat="46.695353134102795" lon="4.704742289798191"><ele>238.0</ele><time>2026-04-10T14:50:26Z</time></trkpt><trkpt lat="46.69528711933449" lon="4.704879893417498"><ele>235.83333333333331</ele><time>2026-04-10T14:50:28Z</time></trkpt><trkpt lat="46.695247876340325" lon="4.70495980563404"><ele>233.66666666666666</ele><time>2026-04-10T14:50:29Z</time></trkpt><trkpt lat="46.69519816656181" lon="4.7050636392718"><ele>231.5</ele><time>2026-04-10T14:50:30Z</time></trkpt><trkpt lat="46.69514447282098" lon="4.705175424521848"><ele>229.33333333333331</ele><time>2026-04-10T14:50:31Z</time></trkpt><trkpt lat="46.695095004643946" lon="4.705283617792441"><ele>227.16666666666666</ele><time>2026-04-10T14:50:32Z</time></trkpt><trkpt lat="46.69505650291094" lon="4.705358315893758"><ele>225.0</ele><time>2026-04-10T14:50:33Z</time></trkpt><trkpt lat="46.69499599399555" lon="4.705494220866494"><ele>224.5</ele><time>2026-04-10T14:50:35Z</time></trkpt><trkpt lat="46.69493260070973" lon="4.705564751556834"><ele>224.0</ele><time>2026-04-10T14:50:38Z</time></trkpt><trkpt lat="46.694824920221066" lon="4.705517255674469"><ele>223.5</ele><time>2026-04-10T14:50:40Z</time></trkpt><trkpt lat="46.69473734588474" lon="4.705498474651057"><ele>223.0</ele><time>2026-04-10T14:50:41.999Z</time></trkpt><trkpt lat="46.69473023048648" lon="4.705636586185548"><ele>222.5</ele><time>2026-04-10T14:50:45.999Z</time></trkpt><trkpt lat="46.69477739188556" lon="4.705707993867366"><ele>222.0</ele><time>2026-04-10T14:50:46.999Z</time></trkpt><trkpt lat="46.69483509173657" lon="4.705783442101963"><ele>222.0</ele><time>2026-04-10T14:50:48.999Z</time></trkpt><trkpt lat="46.694850483013965" lon="4.705881552065413"><ele>222.0</ele><time>2026-04-10T14:50:51.999Z</time></trkpt><trkpt lat="46.69478797435889" lon="4.705938517156727"><ele>222.0</ele><time>2026-04-10T14:50:53.999Z</time></trkpt><trkpt lat="46.69470771779968" lon="4.705932634237975"><ele>222.0</ele><time>2026-04-10T14:50:54.999Z</time></trkpt><trkpt lat="46.69462452926897" lon="4.705719690733458"><ele>222.0</ele><time>2026-04-10T14:50:55.999Z</time></trkpt><trkpt lat="46.69449788727557" lon="4.705687543462928"><ele>222.33333333333331</ele><time>2026-04-10T14:50:56.999Z</time></trkpt><trkpt lat="46.694334370533056" lon="4.705646035770101"><ele>222.66666666666666</ele><time>2026-04-10T14:50:57.999Z</time></trkpt><trkpt lat="46.694173132583586" lon="4.705605106536698"><ele>223.0</ele><time>2026-04-10T14:50:58.999Z</time></trkpt><trkpt lat="46.6940295651394" lon="4.705568662847139"><ele>223.0</ele><time>2026-04-10T14:50:59.999Z</time></trkpt><trkpt lat="46.69388796569031" lon="4.705532718723697"><ele>223.0</ele><time>2026-04-10T14:51:00.999Z</time></trkpt><trkpt lat="46.69375605875542" lon="4.705499234984061"><ele>223.0</ele><time>2026-04-10T14:51:01.999Z</time></trkpt><trkpt lat="46.69363725485277" lon="4.7054682505681775"><ele>223.0</ele><time>2026-04-10T14:51:02.999Z</time></trkpt><trkpt lat="46.69352523335194" lon="4.705438914111803"><ele>222.66666666666666</ele><time>2026-04-10T14:51:03.999Z</time></trkpt><trkpt lat="46.69342255145428" lon="4.705412023537635"><ele>222.33333333333331</ele><time>2026-04-10T14:51:04.999Z</time></trkpt><trkpt lat="46.693331403921746" lon="4.705388153607783"><ele>222.0</ele><time>2026-04-10T14:51:05.999Z</time></trkpt><trkpt lat="46.693243762996886" lon="4.70536680212829"><ele>221.66666666666669</ele><time>2026-04-10T14:51:06.999Z</time></trkpt><trkpt lat="46.693165964231824" lon="4.7053484947923305"><ele>221.33333333333334</ele><time>2026-04-10T14:51:07.999Z</time></trkpt><trkpt lat="46.69309569454238" lon="4.70533195916982"><ele>221.0</ele><time>2026-04-10T14:51:08.999Z</time></trkpt><trkpt lat="46.69302889719386" lon="4.70531624064847"><ele>221.0</ele><time>2026-04-10T14:51:09.999Z</time></trkpt><trkpt lat="46.6929351106214" lon="4.705294171114908"><ele>221.00000000000003</ele><time>2026-04-10T14:51:11.999Z</time></trkpt><trkpt lat="46.6928329287079" lon="4.705270126020997"><ele>221.00000000000003</ele><time>2026-04-10T14:51:13.999Z</time></trkpt><trkpt lat="46.692726829217" lon="4.705245159053588"><ele>221.0</ele><time>2026-04-10T14:51:15.999Z</time></trkpt><trkpt lat="46.692610992337855" lon="4.705216358848349"><ele>221.0</ele><time>2026-04-10T14:51:17.999Z</time></trkpt><trkpt lat="46.69248771466821" lon="4.705185570596299"><ele>221.0</ele><time>2026-04-10T14:51:19.999Z</time></trkpt><trkpt lat="46.692381820304874" lon="4.705159123773348"><ele>221.0</ele><time>2026-04-10T14:51:21.999Z</time></trkpt><trkpt lat="46.69227399402837" lon="4.7051321944635"><ele>221.0</ele><time>2026-04-10T14:51:23.999Z</time></trkpt><trkpt lat="46.69214943506756" lon="4.705101086210115"><ele>221.0</ele><time>2026-04-10T14:51:25.999Z</time></trkpt><trkpt lat="46.69201890266846" lon="4.705068486107685"><ele>221.0</ele><time>2026-04-10T14:51:27.999Z</time></trkpt><trkpt lat="46.69194675961154" lon="4.705050468580479"><ele>221.00000000000003</ele><time>2026-04-10T14:51:28.999Z</time></trkpt><trkpt lat="46.69185996296598" lon="4.705028791359765"><ele>221.00000000000003</ele><time>2026-04-10T14:51:29.999Z</time></trkpt><trkpt lat="46.691764038175" lon="4.705004834410406"><ele>221.0</ele><time>2026-04-10T14:51:30.999Z</time></trkpt><trkpt lat="46.69164354635846" lon="4.704974741915415"><ele>221.0</ele><time>2026-04-10T14:51:31.999Z</time></trkpt><trkpt lat="46.69149925256932" lon="4.704939051262112"><ele>221.0</ele><time>2026-04-10T14:51:32.999Z</time></trkpt><trkpt lat="46.69133948093503" lon="4.704900888406828"><ele>221.0</ele><time>2026-04-10T14:51:33.999Z</time></trkpt><trkpt lat="46.69120304439422" lon="4.704868299345955"><ele>221.0</ele><time>2026-04-10T14:51:35Z</time></trkpt><trkpt lat="46.69108709887986" lon="4.704840604741327"><ele>221.0</ele><time>2026-04-10T14:51:36Z</time></trkpt><trkpt lat="46.69097967977283" lon="4.704814946743464"><ele>221.0</ele><time>2026-04-10T14:51:37Z</time></trkpt><trkpt lat="46.690885327790255" lon="4.70479240994506"><ele>221.0</ele><time>2026-04-10T14:51:38Z</time></trkpt><trkpt lat="46.69082006677223" lon="4.704776821779064"><ele>221.0</ele><time>2026-04-10T14:51:39Z</time></trkpt><trkpt lat="46.69072129226391" lon="4.704753228620764"><ele>221.0</ele><time>2026-04-10T14:51:41Z</time></trkpt><trkpt lat="46.69063295098082" lon="4.7053097463352875"><ele>221.0</ele><time>2026-04-10T14:51:44Z</time></trkpt><trkpt lat="46.69060638317852" lon="4.705496090674315"><ele>221.0</ele><time>2026-04-10T14:51:45Z</time></trkpt><trkpt lat="46.690534852187184" lon="4.70565668520658"><ele>221.0</ele><time>2026-04-10T14:51:46Z</time></trkpt><trkpt lat="46.69044844356425" lon="4.705809036764279"><ele>221.0</ele><time>2026-04-10T14:51:47Z</time></trkpt><trkpt lat="46.69034181122316" lon="4.705977856303202"><ele>222.0</ele><time>2026-04-10T14:51:48Z</time></trkpt><trkpt lat="46.690215321217565" lon="4.706171623121918"><ele>223.0</ele><time>2026-04-10T14:51:49Z</time></trkpt><trkpt lat="46.690141389943385" lon="4.706321152468108"><ele>224.0</ele><time>2026-04-10T14:51:50Z</time></trkpt><trkpt lat="46.69007069154828" lon="4.706471853441183"><ele>225.0</ele><time>2026-04-10T14:51:51Z</time></trkpt><trkpt lat="46.69001862574738" lon="4.70662558034196"><ele>225.0</ele><time>2026-04-10T14:51:52Z</time></trkpt><trkpt lat="46.68997957899557" lon="4.706766869089879"><ele>225.0</ele><time>2026-04-10T14:51:53Z</time></trkpt><trkpt lat="46.68993655300695" lon="4.7069029280547845"><ele>225.0</ele><time>2026-04-10T14:51:54Z</time></trkpt><trkpt lat="46.68989793844437" lon="4.707014817019722"><ele>225.0</ele><time>2026-04-10T14:51:55Z</time></trkpt><trkpt lat="46.68985755303005" lon="4.707128673994181"><ele>225.0</ele><time>2026-04-10T14:51:56Z</time></trkpt><trkpt lat="46.689815726426275" lon="4.707224695752591"><ele>225.4</ele><time>2026-04-10T14:51:57Z</time></trkpt><trkpt lat="46.68975169302746" lon="4.707318782124503"><ele>225.8</ele><time>2026-04-10T14:51:58Z</time></trkpt><trkpt lat="46.68967087716067" lon="4.707405208639177"><ele>226.2</ele><time>2026-04-10T14:51:59Z</time></trkpt><trkpt lat="46.68958112690226" lon="4.707470164474623"><ele>226.6</ele><time>2026-04-10T14:52:00Z</time></trkpt><trkpt lat="46.68949019666737" lon="4.707559488435759"><ele>227.0</ele><time>2026-04-10T14:52:01Z</time></trkpt><trkpt lat="46.68939255959497" lon="4.707644341408475"><ele>227.0</ele><time>2026-04-10T14:52:02Z</time></trkpt><trkpt lat="46.689315639167525" lon="4.707740445053332"><ele>227.0</ele><time>2026-04-10T14:52:03Z</time></trkpt><trkpt lat="46.68923241448804" lon="4.707889609092097"><ele>227.0</ele><time>2026-04-10T14:52:04Z</time></trkpt><trkpt lat="46.689193956987964" lon="4.70811523102402"><ele>227.0</ele><time>2026-04-10T14:52:05Z</time></trkpt><trkpt lat="46.689168071737484" lon="4.708364923721998"><ele>224.66666666666669</ele><time>2026-04-10T14:52:06Z</time></trkpt><trkpt lat="46.68914940651629" lon="4.708610890054885"><ele>222.33333333333331</ele><time>2026-04-10T14:52:07Z</time></trkpt><trkpt lat="46.68912335289919" lon="4.708823737238457"><ele>220.0</ele><time>2026-04-10T14:52:08Z</time></trkpt><trkpt lat="46.68909769050527" lon="4.709040222032137"><ele>220.0</ele><time>2026-04-10T14:52:09Z</time></trkpt><trkpt lat="46.68906366001927" lon="4.709261421877794"><ele>220.0</ele><time>2026-04-10T14:52:10Z</time></trkpt><trkpt lat="46.68903941745972" lon="4.709480001501081"><ele>220.0</ele><time>2026-04-10T14:52:11Z</time></trkpt><trkpt lat="46.688990736289114" lon="4.709720127124592"><ele>219.25</ele><time>2026-04-10T14:52:12Z</time></trkpt><trkpt lat="46.688940147630646" lon="4.709959610378988"><ele>218.5</ele><time>2026-04-10T14:52:13Z</time></trkpt><trkpt lat="46.6889093058397" lon="4.710137574550739"><ele>217.75</ele><time>2026-04-10T14:52:14Z</time></trkpt><trkpt lat="46.68888104358114" lon="4.710308803432997"><ele>217.0</ele><time>2026-04-10T14:52:15Z</time></trkpt><trkpt lat="46.68884998808105" lon="4.710469549846792"><ele>217.0</ele><time>2026-04-10T14:52:16Z</time></trkpt><trkpt lat="46.688841293291325" lon="4.710658518844976"><ele>217.0</ele><time>2026-04-10T14:52:17Z</time></trkpt><trkpt lat="46.688852841349" lon="4.710871952345284"><ele>217.0</ele><time>2026-04-10T14:52:18Z</time></trkpt><trkpt lat="46.6888355180135" lon="4.71109412972706"><ele>217.0</ele><time>2026-04-10T14:52:19Z</time></trkpt><trkpt lat="46.6888321279817" lon="4.7113498293732405"><ele>217.0</ele><time>2026-04-10T14:52:20Z</time></trkpt><trkpt lat="46.688838528892134" lon="4.7116538457312975"><ele>217.0</ele><time>2026-04-10T14:52:21Z</time></trkpt><trkpt lat="46.688819970031574" lon="4.71189869683731"><ele>217.0</ele><time>2026-04-10T14:52:22Z</time></trkpt><trkpt lat="46.68881600069449" lon="4.712158404824287"><ele>217.66666666666666</ele><time>2026-04-10T14:52:23Z</time></trkpt><trkpt lat="46.68880497421223" lon="4.712431314005421"><ele>218.33333333333331</ele><time>2026-04-10T14:52:24Z</time></trkpt><trkpt lat="46.68879966197006" lon="4.71269880697777"><ele>219.0</ele><time>2026-04-10T14:52:25Z</time></trkpt><trkpt lat="46.6887936147964" lon="4.712958229514845"><ele>219.66666666666669</ele><time>2026-04-10T14:52:26Z</time></trkpt><trkpt lat="46.68876878659106" lon="4.7131869054341635"><ele>220.33333333333334</ele><time>2026-04-10T14:52:27Z</time></trkpt><trkpt lat="46.68878306473597" lon="4.713437924903194"><ele>221.0</ele><time>2026-04-10T14:52:28Z</time></trkpt><trkpt lat="46.68880027782327" lon="4.7136705452123415"><ele>221.0</ele><time>2026-04-10T14:52:29Z</time></trkpt><trkpt lat="46.68877632391055" lon="4.713935850787748"><ele>221.0</ele><time>2026-04-10T14:52:30Z</time></trkpt><trkpt lat="46.688778742268255" lon="4.714185007573069"><ele>221.0</ele><time>2026-04-10T14:52:31Z</time></trkpt><trkpt lat="46.68877131854464" lon="4.714429574581032"><ele>220.66666666666669</ele><time>2026-04-10T14:52:32Z</time></trkpt><trkpt lat="46.68876229497523" lon="4.714665049238041"><ele>220.33333333333331</ele><time>2026-04-10T14:52:33Z</time></trkpt><trkpt lat="46.68874805099301" lon="4.714890380504144"><ele>220.0</ele><time>2026-04-10T14:52:34Z</time></trkpt><trkpt lat="46.68874697406614" lon="4.715125338119258"><ele>219.66666666666666</ele><time>2026-04-10T14:52:35Z</time></trkpt><trkpt lat="46.68875028534653" lon="4.715358259650827"><ele>219.33333333333331</ele><time>2026-04-10T14:52:36Z</time></trkpt><trkpt lat="46.68873689588833" lon="4.715582632657617"><ele>219.0</ele><time>2026-04-10T14:52:37Z</time></trkpt><trkpt lat="46.688732153690125" lon="4.715782489210557"><ele>219.0</ele><time>2026-04-10T14:52:38Z</time></trkpt><trkpt lat="46.688722501486204" lon="4.715998131490327"><ele>219.0</ele><time>2026-04-10T14:52:39Z</time></trkpt><trkpt lat="46.68871805367287" lon="4.716194748491451"><ele>219.0</ele><time>2026-04-10T14:52:40Z</time></trkpt><trkpt lat="46.688716104631546" lon="4.716400601049972"><ele>219.0</ele><time>2026-04-10T14:52:40.999Z</time></trkpt><trkpt lat="46.68870564146966" lon="4.716594080718636"><ele>219.25</ele><time>2026-04-10T14:52:41.999Z</time></trkpt><trkpt lat="46.68871902598655" lon="4.716802209383679"><ele>219.5</ele><time>2026-04-10T14:52:42.999Z</time></trkpt><trkpt lat="46.68871382785606" lon="4.7169975782719025"><ele>219.75</ele><time>2026-04-10T14:52:43.999Z</time></trkpt><trkpt lat="46.68871594496129" lon="4.717195451691887"><ele>220.0</ele><time>2026-04-10T14:52:44.999Z</time></trkpt><trkpt lat="46.68870443436339" lon="4.71740355304624"><ele>219.33333333333331</ele><time>2026-04-10T14:52:45.999Z</time></trkpt><trkpt lat="46.68869968278745" lon="4.717616516071644"><ele>218.66666666666669</ele><time>2026-04-10T14:52:46.999Z</time></trkpt><trkpt lat="46.68869300139293" lon="4.717846774780697"><ele>218.0</ele><time>2026-04-10T14:52:47.999Z</time></trkpt><trkpt lat="46.68871072881797" lon="4.718062188876299"><ele>217.75</ele><time>2026-04-10T14:52:48.999Z</time></trkpt><trkpt lat="46.68872806183061" lon="4.718295336859975"><ele>217.5</ele><time>2026-04-10T14:52:49.999Z</time></trkpt><trkpt lat="46.688686145980995" lon="4.71849009156324"><ele>217.25</ele><time>2026-04-10T14:52:50.999Z</time></trkpt><trkpt lat="46.68867076858418" lon="4.718694457056844"><ele>217.0</ele><time>2026-04-10T14:52:51.999Z</time></trkpt><trkpt lat="46.68866266136429" lon="4.718889462333163"><ele>216.8</ele><time>2026-04-10T14:52:52.999Z</time></trkpt><trkpt lat="46.6886588718405" lon="4.719048885915401"><ele>216.6</ele><time>2026-04-10T14:52:53.999Z</time></trkpt><trkpt lat="46.68864465562973" lon="4.719206402496761"><ele>216.40000000000003</ele><time>2026-04-10T14:52:54.999Z</time></trkpt><trkpt lat="46.688640121744655" lon="4.719358365046218"><ele>216.20000000000002</ele><time>2026-04-10T14:52:55.999Z</time></trkpt><trkpt lat="46.68863300020883" lon="4.719520764855189"><ele>216.0</ele><time>2026-04-10T14:52:56.999Z</time></trkpt><trkpt lat="46.68862900490988" lon="4.719698796444343"><ele>215.75</ele><time>2026-04-10T14:52:57.999Z</time></trkpt><trkpt lat="46.688627853283236" lon="4.719888032567676"><ele>215.5</ele><time>2026-04-10T14:52:58.999Z</time></trkpt><trkpt lat="46.68862309549124" lon="4.720076465043475"><ele>215.25</ele><time>2026-04-10T14:52:59.999Z</time></trkpt><trkpt lat="46.688614208753854" lon="4.72027726163177"><ele>215.0</ele><time>2026-04-10T14:53:00.999Z</time></trkpt><trkpt lat="46.688609303051514" lon="4.720458445519054"><ele>215.0</ele><time>2026-04-10T14:53:01.999Z</time></trkpt><trkpt lat="46.688607833190225" lon="4.720663577950568"><ele>215.0</ele><time>2026-04-10T14:53:02.999Z</time></trkpt><trkpt lat="46.68860416935147" lon="4.7208604653998885"><ele>215.0</ele><time>2026-04-10T14:53:03.999Z</time></trkpt><trkpt lat="46.688596083337316" lon="4.72105569126765"><ele>215.0</ele><time>2026-04-10T14:53:04.999Z</time></trkpt><trkpt lat="46.68859544064751" lon="4.721266552025555"><ele>215.0</ele><time>2026-04-10T14:53:05.999Z</time></trkpt><trkpt lat="46.68858835295596" lon="4.721480675976157"><ele>215.0</ele><time>2026-04-10T14:53:06.999Z</time></trkpt><trkpt lat="46.688586043011256" lon="4.721676581609243"><ele>215.0</ele><time>2026-04-10T14:53:07.999Z</time></trkpt><trkpt lat="46.68858111105919" lon="4.721896371929018"><ele>215.0</ele><time>2026-04-10T14:53:08.999Z</time></trkpt><trkpt lat="46.68857759912117" lon="4.722107985263091"><ele>214.75</ele><time>2026-04-10T14:53:09.999Z</time></trkpt><trkpt lat="46.68856871647945" lon="4.722287816054102"><ele>214.5</ele><time>2026-04-10T14:53:10.999Z</time></trkpt><trkpt lat="46.68856226304761" lon="4.7224660640520675"><ele>214.25</ele><time>2026-04-10T14:53:11.999Z</time></trkpt><trkpt lat="46.68857071486653" lon="4.722630017553537"><ele>214.0</ele><time>2026-04-10T14:53:12.999Z</time></trkpt><trkpt lat="46.68857550467338" lon="4.722836726024465"><ele>213.75</ele><time>2026-04-10T14:53:13.999Z</time></trkpt><trkpt lat="46.688556615999055" lon="4.723010414432995"><ele>213.5</ele><time>2026-04-10T14:53:14.999Z</time></trkpt><trkpt lat="46.68855306267588" lon="4.723188118271639"><ele>213.25</ele><time>2026-04-10T14:53:15.999Z</time></trkpt><trkpt lat="46.6885514904859" lon="4.7233646552955735"><ele>213.0</ele><time>2026-04-10T14:53:16.999Z</time></trkpt><trkpt lat="46.688548530044805" lon="4.723522362224319"><ele>213.0</ele><time>2026-04-10T14:53:17.999Z</time></trkpt><trkpt lat="46.688536178186624" lon="4.723673413520705"><ele>213.0</ele><time>2026-04-10T14:53:18.999Z</time></trkpt><trkpt lat="46.68853892155064" lon="4.723792778676368"><ele>213.0</ele><time>2026-04-10T14:53:19.999Z</time></trkpt><trkpt lat="46.6885578728005" lon="4.723938525518423"><ele>213.0</ele><time>2026-04-10T14:53:20.999Z</time></trkpt><trkpt lat="46.68854969039437" lon="4.724096935480919"><ele>213.0</ele><time>2026-04-10T14:53:21.999Z</time></trkpt><trkpt lat="46.688539522273686" lon="4.7242252168971515"><ele>213.0</ele><time>2026-04-10T14:53:22.999Z</time></trkpt><trkpt lat="46.68853657753511" lon="4.724328896131127"><ele>213.0</ele><time>2026-04-10T14:53:23.999Z</time></trkpt><trkpt lat="46.68852408209824" lon="4.724426905423002"><ele>213.0</ele><time>2026-04-10T14:53:24.999Z</time></trkpt><trkpt lat="46.68852246400354" lon="4.724560085638068"><ele>213.0</ele><time>2026-04-10T14:53:26.999Z</time></trkpt><trkpt lat="46.688519066047135" lon="4.724665144191711"><ele>213.0</ele><time>2026-04-10T14:53:44Z</time></trkpt><trkpt lat="46.68860935659571" lon="4.7247245889254375"><ele>213.0</ele><time>2026-04-10T14:53:47Z</time></trkpt><trkpt lat="46.688721730758694" lon="4.7247300757001645"><ele>213.0</ele><time>2026-04-10T14:53:48Z</time></trkpt><trkpt lat="46.68888431617209" lon="4.724722852037823"><ele>213.0</ele><time>2026-04-10T14:53:49Z</time></trkpt><trkpt lat="46.689060249084044" lon="4.724780388230882"><ele>213.0</ele><time>2026-04-10T14:53:50Z</time></trkpt><trkpt lat="46.689280498861365" lon="4.724815036260744"><ele>212.0</ele><time>2026-04-10T14:53:51Z</time></trkpt><trkpt lat="46.68952517410577" lon="4.724855933523898"><ele>211.0</ele><time>2026-04-10T14:53:52Z</time></trkpt><trkpt lat="46.68969591402297" lon="4.724884324329239"><ele>210.0</ele><time>2026-04-10T14:53:53Z</time></trkpt><trkpt lat="46.689861480143534" lon="4.7249155787896475"><ele>210.0</ele><time>2026-04-10T14:53:54Z</time></trkpt><trkpt lat="46.69005122566597" lon="4.72496107959474"><ele>210.0</ele><time>2026-04-10T14:53:55Z</time></trkpt><trkpt lat="46.69027324552598" lon="4.724999236819611"><ele>210.0</ele><time>2026-04-10T14:53:56Z</time></trkpt><trkpt lat="46.6904231157474" lon="4.725016354711671"><ele>210.2</ele><time>2026-04-10T14:53:57Z</time></trkpt><trkpt lat="46.69056689277487" lon="4.725031899779648"><ele>210.4</ele><time>2026-04-10T14:53:59Z</time></trkpt><trkpt lat="46.69066725178533" lon="4.725056856484264"><ele>210.60000000000002</ele><time>2026-04-10T14:54:00Z</time></trkpt><trkpt lat="46.69074325952006" lon="4.725081980671082"><ele>210.8</ele><time>2026-04-10T14:54:01Z</time></trkpt><trkpt lat="46.69082078699216" lon="4.7251314976086585"><ele>211.0</ele><time>2026-04-10T14:54:03Z</time></trkpt><trkpt lat="46.6908884714639" lon="4.725047761374103"><ele>211.0</ele><time>2026-04-10T14:54:06Z</time></trkpt><trkpt lat="46.69097017838875" lon="4.724956263332292"><ele>211.0</ele><time>2026-04-10T14:54:07Z</time></trkpt><trkpt lat="46.69102163154528" lon="4.724877738661111"><ele>211.0</ele><time>2026-04-10T14:54:08Z</time></trkpt><trkpt lat="46.6910786985564" lon="4.7248056875086375"><ele>211.0</ele><time>2026-04-10T14:54:09Z</time></trkpt><trkpt lat="46.69116383513752" lon="4.724725792823421"><ele>211.0</ele><time>2026-04-10T14:54:10Z</time></trkpt><trkpt lat="46.69126742507489" lon="4.7246286164517235"><ele>210.60000000000002</ele><time>2026-04-10T14:54:11Z</time></trkpt><trkpt lat="46.691359763116616" lon="4.724541666979729"><ele>210.2</ele><time>2026-04-10T14:54:12Z</time></trkpt><trkpt lat="46.691442754115386" lon="4.724463569211043"><ele>209.8</ele><time>2026-04-10T14:54:13Z</time></trkpt><trkpt lat="46.69152725599892" lon="4.724380333872262"><ele>209.39999999999998</ele><time>2026-04-10T14:54:14Z</time></trkpt><trkpt lat="46.69161389067784" lon="4.72429247621733"><ele>209.0</ele><time>2026-04-10T14:54:15Z</time></trkpt><trkpt lat="46.691712279896855" lon="4.724194270725988"><ele>209.0</ele><time>2026-04-10T14:54:16Z</time></trkpt><trkpt lat="46.69179627197697" lon="4.724085160779541"><ele>209.0</ele><time>2026-04-10T14:54:17Z</time></trkpt><trkpt lat="46.6918805519124" lon="4.72397548414966"><ele>209.0</ele><time>2026-04-10T14:54:18Z</time></trkpt><trkpt lat="46.69194809745073" lon="4.723836606224777"><ele>209.0</ele><time>2026-04-10T14:54:19Z</time></trkpt><trkpt lat="46.69199813718065" lon="4.723659704122537"><ele>209.0</ele><time>2026-04-10T14:54:20Z</time></trkpt><trkpt lat="46.692016070701435" lon="4.723435585174775"><ele>209.0</ele><time>2026-04-10T14:54:21Z</time></trkpt><trkpt lat="46.692067729846514" lon="4.723216439340743"><ele>209.0</ele><time>2026-04-10T14:54:22Z</time></trkpt><trkpt lat="46.69211150650904" lon="4.722983266239231"><ele>209.0</ele><time>2026-04-10T14:54:23Z</time></trkpt><trkpt lat="46.692142907649554" lon="4.722762067504687"><ele>209.0</ele><time>2026-04-10T14:54:24Z</time></trkpt><trkpt lat="46.692203645376445" lon="4.72254770707266"><ele>209.0</ele><time>2026-04-10T14:54:25Z</time></trkpt><trkpt lat="46.69229155625634" lon="4.722365941888691"><ele>210.33333333333334</ele><time>2026-04-10T14:54:26Z</time></trkpt><trkpt lat="46.69236830359767" lon="4.722176581872094"><ele>211.66666666666669</ele><time>2026-04-10T14:54:27Z</time></trkpt><trkpt lat="46.692438755874775" lon="4.721988733494813"><ele>213.0</ele><time>2026-04-10T14:54:28Z</time></trkpt><trkpt lat="46.692486724240425" lon="4.721775701141042"><ele>212.75</ele><time>2026-04-10T14:54:29Z</time></trkpt><trkpt lat="46.692522747618135" lon="4.7215636430117724"><ele>212.5</ele><time>2026-04-10T14:54:30Z</time></trkpt><trkpt lat="46.69257998229268" lon="4.721383880263727"><ele>212.25</ele><time>2026-04-10T14:54:31Z</time></trkpt><trkpt lat="46.69266206864725" lon="4.72119944602746"><ele>212.0</ele><time>2026-04-10T14:54:32Z</time></trkpt><trkpt lat="46.69273079525081" lon="4.7210575862633295"><ele>213.0</ele><time>2026-04-10T14:54:33Z</time></trkpt><trkpt lat="46.69283045775725" lon="4.720854969709194"><ele>214.0</ele><time>2026-04-10T14:54:34Z</time></trkpt><trkpt lat="46.69291754844983" lon="4.720679526000595"><ele>215.0</ele><time>2026-04-10T14:54:35Z</time></trkpt><trkpt lat="46.69300574650001" lon="4.720502451553209"><ele>215.0</ele><time>2026-04-10T14:54:36Z</time></trkpt><trkpt lat="46.693094268376285" lon="4.7203284259568825"><ele>215.0</ele><time>2026-04-10T14:54:37Z</time></trkpt><trkpt lat="46.693184834907505" lon="4.7201591059861014"><ele>215.0</ele><time>2026-04-10T14:54:38Z</time></trkpt><trkpt lat="46.6932780367521" lon="4.7199857935678615"><ele>215.0</ele><time>2026-04-10T14:54:39Z</time></trkpt><trkpt lat="46.69336923917008" lon="4.719816892263638"><ele>214.5</ele><time>2026-04-10T14:54:40Z</time></trkpt><trkpt lat="46.6934625858935" lon="4.719644019848674"><ele>214.0</ele><time>2026-04-10T14:54:41Z</time></trkpt><trkpt lat="46.693555973048646" lon="4.719471072547118"><ele>213.5</ele><time>2026-04-10T14:54:42Z</time></trkpt><trkpt lat="46.69364633849255" lon="4.719306785507245"><ele>213.0</ele><time>2026-04-10T14:54:43Z</time></trkpt><trkpt lat="46.69373237227494" lon="4.719152451592269"><ele>213.0</ele><time>2026-04-10T14:54:44Z</time></trkpt><trkpt lat="46.693826202368385" lon="4.71899307691382"><ele>213.0</ele><time>2026-04-10T14:54:45Z</time></trkpt><trkpt lat="46.69392076879029" lon="4.718846810804585"><ele>213.0</ele><time>2026-04-10T14:54:46Z</time></trkpt><trkpt lat="46.69402355815461" lon="4.71869518651629"><ele>213.0</ele><time>2026-04-10T14:54:47Z</time></trkpt><trkpt lat="46.69411366827706" lon="4.718534449675043"><ele>213.0</ele><time>2026-04-10T14:54:47.999Z</time></trkpt><trkpt lat="46.694222305264574" lon="4.718411535723021"><ele>213.0</ele><time>2026-04-10T14:54:48.999Z</time></trkpt><trkpt lat="46.694333578315934" lon="4.718254832853614"><ele>213.0</ele><time>2026-04-10T14:54:49.999Z</time></trkpt><trkpt lat="46.69444062998321" lon="4.718104074741381"><ele>213.0</ele><time>2026-04-10T14:54:50.999Z</time></trkpt><trkpt lat="46.69455141639718" lon="4.717941041071454"><ele>213.33333333333331</ele><time>2026-04-10T14:54:51.999Z</time></trkpt><trkpt lat="46.694658422789324" lon="4.71777188741274"><ele>213.66666666666666</ele><time>2026-04-10T14:54:52.999Z</time></trkpt><trkpt lat="46.69475732018403" lon="4.717602075445208"><ele>214.0</ele><time>2026-04-10T14:54:53.999Z</time></trkpt><trkpt lat="46.694840732550034" lon="4.717418090549344"><ele>214.0</ele><time>2026-04-10T14:54:54.999Z</time></trkpt><trkpt lat="46.69494654361727" lon="4.717256605385008"><ele>214.0</ele><time>2026-04-10T14:54:55.999Z</time></trkpt><trkpt lat="46.695031290154354" lon="4.717096392813602"><ele>214.0</ele><time>2026-04-10T14:54:56.999Z</time></trkpt><trkpt lat="46.695105549361905" lon="4.716953971079774"><ele>214.0</ele><time>2026-04-10T14:54:57.999Z</time></trkpt><trkpt lat="46.695181128494525" lon="4.716807438109483"><ele>214.0</ele><time>2026-04-10T14:54:58.999Z</time></trkpt><trkpt lat="46.69526295999325" lon="4.716650683617969"><ele>214.0</ele><time>2026-04-10T14:54:59.999Z</time></trkpt><trkpt lat="46.695350161359826" lon="4.716485757039796"><ele>214.0</ele><time>2026-04-10T14:55:00.999Z</time></trkpt><trkpt lat="46.69543962246378" lon="4.716307735664931"><ele>214.0</ele><time>2026-04-10T14:55:01.999Z</time></trkpt><trkpt lat="46.695523111799176" lon="4.71610342646814"><ele>213.66666666666666</ele><time>2026-04-10T14:55:02.999Z</time></trkpt><trkpt lat="46.695617359369244" lon="4.715883364354608"><ele>213.33333333333331</ele><time>2026-04-10T14:55:03.999Z</time></trkpt><trkpt lat="46.69569559590266" lon="4.715648984229063"><ele>213.0</ele><time>2026-04-10T14:55:04.999Z</time></trkpt><trkpt lat="46.69576438842026" lon="4.715382129641434"><ele>213.33333333333331</ele><time>2026-04-10T14:55:05.999Z</time></trkpt><trkpt lat="46.69583379661303" lon="4.7151192911627415"><ele>213.66666666666666</ele><time>2026-04-10T14:55:06.999Z</time></trkpt><trkpt lat="46.695875052387876" lon="4.714870812029161"><ele>214.0</ele><time>2026-04-10T14:55:07.999Z</time></trkpt><trkpt lat="46.695891967764126" lon="4.714604840847842"><ele>214.33333333333331</ele><time>2026-04-10T14:55:08.999Z</time></trkpt><trkpt lat="46.69592501594293" lon="4.7143442211225315"><ele>214.66666666666669</ele><time>2026-04-10T14:55:09.999Z</time></trkpt><trkpt lat="46.69597527541178" lon="4.714088791821691"><ele>215.0</ele><time>2026-04-10T14:55:10.999Z</time></trkpt><trkpt lat="46.69602754505315" lon="4.713827049150699"><ele>215.33333333333334</ele><time>2026-04-10T14:55:11.999Z</time></trkpt><trkpt lat="46.696112857814484" lon="4.713566607398505"><ele>215.66666666666669</ele><time>2026-04-10T14:55:12.999Z</time></trkpt><trkpt lat="46.69620625729652" lon="4.713287777705135"><ele>216.0</ele><time>2026-04-10T14:55:13.999Z</time></trkpt><trkpt lat="46.69629999960562" lon="4.713012474986123"><ele>215.66666666666669</ele><time>2026-04-10T14:55:14.999Z</time></trkpt><trkpt lat="46.69639560839779" lon="4.712727790113346"><ele>215.33333333333334</ele><time>2026-04-10T14:55:15.999Z</time></trkpt><trkpt lat="46.696476059949255" lon="4.712483263816532"><ele>215.0</ele><time>2026-04-10T14:55:16.999Z</time></trkpt><trkpt lat="46.696552220883774" lon="4.712255988131989"><ele>215.0</ele><time>2026-04-10T14:55:17.999Z</time></trkpt><trkpt lat="46.69662741238031" lon="4.712037515571839"><ele>215.0</ele><time>2026-04-10T14:55:18.999Z</time></trkpt><trkpt lat="46.6967024569065" lon="4.711814905800718"><ele>215.0</ele><time>2026-04-10T14:55:19.999Z</time></trkpt><trkpt lat="46.69677478472806" lon="4.7116114791565415"><ele>215.33333333333334</ele><time>2026-04-10T14:55:20.999Z</time></trkpt><trkpt lat="46.69686160859547" lon="4.711409253913995"><ele>215.66666666666669</ele><time>2026-04-10T14:55:21.999Z</time></trkpt><trkpt lat="46.69696495674056" lon="4.711223850677624"><ele>216.0</ele><time>2026-04-10T14:55:22.999Z</time></trkpt><trkpt lat="46.69709022585855" lon="4.711050765776416"><ele>217.33333333333331</ele><time>2026-04-10T14:55:23.999Z</time></trkpt><trkpt lat="46.69724159605521" lon="4.710896516453767"><ele>218.66666666666666</ele><time>2026-04-10T14:55:24.999Z</time></trkpt><trkpt lat="46.69740622530482" lon="4.7107435400006095"><ele>220.0</ele><time>2026-04-10T14:55:25.999Z</time></trkpt><trkpt lat="46.69756917871639" lon="4.710566452096201"><ele>220.0</ele><time>2026-04-10T14:55:26.999Z</time></trkpt><trkpt lat="46.69774102549165" lon="4.710407093054903"><ele>220.0</ele><time>2026-04-10T14:55:27.999Z</time></trkpt><trkpt lat="46.69793142265805" lon="4.710254919869947"><ele>220.0</ele><time>2026-04-10T14:55:28.999Z</time></trkpt><trkpt lat="46.69809348767929" lon="4.710103356143932"><ele>221.0</ele><time>2026-04-10T14:55:29.999Z</time></trkpt><trkpt lat="46.69824746328181" lon="4.709958027724462"><ele>222.0</ele><time>2026-04-10T14:55:30.999Z</time></trkpt><trkpt lat="46.69838984697599" lon="4.7098236402695655"><ele>223.0</ele><time>2026-04-10T14:55:31.999Z</time></trkpt><trkpt lat="46.69852497230628" lon="4.7096641760768465"><ele>222.66666666666666</ele><time>2026-04-10T14:55:32.999Z</time></trkpt><trkpt lat="46.69867527561891" lon="4.709508266761722"><ele>222.33333333333331</ele><time>2026-04-10T14:55:33.999Z</time></trkpt><trkpt lat="46.69882711573254" lon="4.70936138481302"><ele>222.0</ele><time>2026-04-10T14:55:34.999Z</time></trkpt><trkpt lat="46.698956176192716" lon="4.709148700329577"><ele>222.0</ele><time>2026-04-10T14:55:35.999Z</time></trkpt><trkpt lat="46.69909399861597" lon="4.708928143297272"><ele>222.0</ele><time>2026-04-10T14:55:36.999Z</time></trkpt><trkpt lat="46.69921060410087" lon="4.7087170592562515"><ele>222.0</ele><time>2026-04-10T14:55:37.999Z</time></trkpt><trkpt lat="46.69931634730419" lon="4.708528245441786"><ele>221.0</ele><time>2026-04-10T14:55:38.999Z</time></trkpt><trkpt lat="46.699419587903535" lon="4.7083313324684015"><ele>220.0</ele><time>2026-04-10T14:55:39.999Z</time></trkpt><trkpt lat="46.69951051835894" lon="4.708140259481806"><ele>219.0</ele><time>2026-04-10T14:55:40.999Z</time></trkpt><trkpt lat="46.6996005073404" lon="4.7079432338382246"><ele>219.0</ele><time>2026-04-10T14:55:41.999Z</time></trkpt><trkpt lat="46.6996804915066" lon="4.707759235581132"><ele>219.0</ele><time>2026-04-10T14:55:42.999Z</time></trkpt><trkpt lat="46.699755387184496" lon="4.707570069151591"><ele>219.0</ele><time>2026-04-10T14:55:43.999Z</time></trkpt><trkpt lat="46.69984582457663" lon="4.7073975189975945"><ele>219.0</ele><time>2026-04-10T14:55:44.999Z</time></trkpt><trkpt lat="46.69991948319069" lon="4.70722192165511"><ele>219.0</ele><time>2026-04-10T14:55:45.999Z</time></trkpt><trkpt lat="46.6999904642292" lon="4.7070623727032945"><ele>219.0</ele><time>2026-04-10T14:55:47Z</time></trkpt><trkpt lat="46.700061890543346" lon="4.706920076787534"><ele>219.0</ele><time>2026-04-10T14:55:48Z</time></trkpt><trkpt lat="46.70015033512957" lon="4.706780074857313"><ele>219.0</ele><time>2026-04-10T14:55:49Z</time></trkpt><trkpt lat="46.70026408004061" lon="4.706646395586993"><ele>219.0</ele><time>2026-04-10T14:55:50Z</time></trkpt><trkpt lat="46.70037814816104" lon="4.706558033566244"><ele>219.0</ele><time>2026-04-10T14:55:51Z</time></trkpt><trkpt lat="46.70049785846864" lon="4.706494910653822"><ele>219.0</ele><time>2026-04-10T14:55:52Z</time></trkpt><trkpt lat="46.70063078796239" lon="4.706458526252268"><ele>219.0</ele><time>2026-04-10T14:55:53Z</time></trkpt><trkpt lat="46.70077441282617" lon="4.706426401682991"><ele>219.0</ele><time>2026-04-10T14:55:54Z</time></trkpt><trkpt lat="46.70092078472269" lon="4.706387772154492"><ele>219.0</ele><time>2026-04-10T14:55:55Z</time></trkpt><trkpt lat="46.70105302014696" lon="4.706355120157835"><ele>219.0</ele><time>2026-04-10T14:55:56Z</time></trkpt><trkpt lat="46.701179779224574" lon="4.706355495080709"><ele>219.0</ele><time>2026-04-10T14:55:57Z</time></trkpt><trkpt lat="46.701301017825486" lon="4.706308118656291"><ele>219.2</ele><time>2026-04-10T14:55:58Z</time></trkpt><trkpt lat="46.70141189164294" lon="4.706271476856145"><ele>219.39999999999998</ele><time>2026-04-10T14:55:59Z</time></trkpt><trkpt lat="46.701507466100374" lon="4.7061963074186846"><ele>219.6</ele><time>2026-04-10T14:56:00Z</time></trkpt><trkpt lat="46.70158445113714" lon="4.706079887996708"><ele>219.8</ele><time>2026-04-10T14:56:01Z</time></trkpt><trkpt lat="46.70163217475126" lon="4.7059505507214645"><ele>220.0</ele><time>2026-04-10T14:56:02Z</time></trkpt><trkpt lat="46.70166606572331" lon="4.7058312875461565"><ele>220.2</ele><time>2026-04-10T14:56:03Z</time></trkpt><trkpt lat="46.70168624074775" lon="4.705733284015026"><ele>220.4</ele><time>2026-04-10T14:56:04Z</time></trkpt><trkpt lat="46.7016934483173" lon="4.7056019899324015"><ele>220.60000000000002</ele><time>2026-04-10T14:56:05Z</time></trkpt><trkpt lat="46.70168583118004" lon="4.705454543440975"><ele>220.8</ele><time>2026-04-10T14:56:06Z</time></trkpt><trkpt lat="46.70169703848179" lon="4.7052933728319175"><ele>221.0</ele><time>2026-04-10T14:56:07Z</time></trkpt><trkpt lat="46.701683736902964" lon="4.705100405523012"><ele>221.33333333333334</ele><time>2026-04-10T14:56:08Z</time></trkpt><trkpt lat="46.70166852489507" lon="4.704890982183525"><ele>221.66666666666669</ele><time>2026-04-10T14:56:09Z</time></trkpt><trkpt lat="46.701652359479716" lon="4.70465095799135"><ele>222.0</ele><time>2026-04-10T14:56:10Z</time></trkpt><trkpt lat="46.701638643587145" lon="4.704409940890322"><ele>222.25</ele><time>2026-04-10T14:56:11Z</time></trkpt><trkpt lat="46.70162146353603" lon="4.704212752219361"><ele>222.5</ele><time>2026-04-10T14:56:12Z</time></trkpt><trkpt lat="46.70164416390222" lon="4.704016501548162"><ele>222.75</ele><time>2026-04-10T14:56:13Z</time></trkpt><trkpt lat="46.70167810388365" lon="4.703800358942189"><ele>223.0</ele><time>2026-04-10T14:56:14Z</time></trkpt><trkpt lat="46.701732967661854" lon="4.703571966917214"><ele>223.33333333333331</ele><time>2026-04-10T14:56:15Z</time></trkpt><trkpt lat="46.70182077240333" lon="4.70334126870052"><ele>223.66666666666669</ele><time>2026-04-10T14:56:16Z</time></trkpt><trkpt lat="46.701931011650714" lon="4.70312641959521"><ele>224.0</ele><time>2026-04-10T14:56:17Z</time></trkpt><trkpt lat="46.70202492691954" lon="4.70299401938355"><ele>225.0</ele><time>2026-04-10T14:56:18Z</time></trkpt><trkpt lat="46.702122101986156" lon="4.702829517842363"><ele>226.0</ele><time>2026-04-10T14:56:19Z</time></trkpt><trkpt lat="46.702246665653284" lon="4.702674935709589"><ele>227.0</ele><time>2026-04-10T14:56:20Z</time></trkpt><trkpt lat="46.7023613604317" lon="4.702497784472672"><ele>227.33333333333334</ele><time>2026-04-10T14:56:21Z</time></trkpt><trkpt lat="46.702447916964815" lon="4.70230609210446"><ele>227.66666666666669</ele><time>2026-04-10T14:56:22Z</time></trkpt><trkpt lat="46.70252211786223" lon="4.702111280705479"><ele>228.0</ele><time>2026-04-10T14:56:23Z</time></trkpt><trkpt lat="46.70256199825299" lon="4.7019143728258515"><ele>228.25</ele><time>2026-04-10T14:56:24Z</time></trkpt><trkpt lat="46.70257578100922" lon="4.701713105724911"><ele>228.5</ele><time>2026-04-10T14:56:25Z</time></trkpt><trkpt lat="46.702566097194804" lon="4.701501679504238"><ele>228.75</ele><time>2026-04-10T14:56:26Z</time></trkpt><trkpt lat="46.70254679909037" lon="4.701297999822469"><ele>229.0</ele><time>2026-04-10T14:56:27Z</time></trkpt><trkpt lat="46.70254397877338" lon="4.701091949767459"><ele>229.75</ele><time>2026-04-10T14:56:28Z</time></trkpt><trkpt lat="46.70257985719896" lon="4.700900057095217"><ele>230.5</ele><time>2026-04-10T14:56:29Z</time></trkpt><trkpt lat="46.702610825767906" lon="4.700703631701231"><ele>231.25</ele><time>2026-04-10T14:56:30Z</time></trkpt><trkpt lat="46.70267266796642" lon="4.700505541752829"><ele>232.0</ele><time>2026-04-10T14:56:31Z</time></trkpt><trkpt lat="46.70274148830181" lon="4.700295957084511"><ele>232.66666666666666</ele><time>2026-04-10T14:56:32Z</time></trkpt><trkpt lat="46.702813015529145" lon="4.7000809413593325"><ele>233.33333333333331</ele><time>2026-04-10T14:56:33Z</time></trkpt><trkpt lat="46.70287980443941" lon="4.699838073933994"><ele>234.0</ele><time>2026-04-10T14:56:34Z</time></trkpt><trkpt lat="46.70292401705815" lon="4.699552360510649"><ele>234.66666666666669</ele><time>2026-04-10T14:56:35Z</time></trkpt><trkpt lat="46.702959315583904" lon="4.699235148701893"><ele>235.33333333333334</ele><time>2026-04-10T14:56:36Z</time></trkpt><trkpt lat="46.702998689471855" lon="4.69893415699181"><ele>236.0</ele><time>2026-04-10T14:56:37Z</time></trkpt><trkpt lat="46.70307384042206" lon="4.698681865040351"><ele>236.66666666666669</ele><time>2026-04-10T14:56:38Z</time></trkpt><trkpt lat="46.703132629432325" lon="4.698430054052417"><ele>237.33333333333331</ele><time>2026-04-10T14:56:39Z</time></trkpt><trkpt lat="46.70316751330345" lon="4.698247755128101"><ele>238.0</ele><time>2026-04-10T14:56:40Z</time></trkpt><trkpt lat="46.70322909386225" lon="4.698029164825739"><ele>238.0</ele><time>2026-04-10T14:56:41Z</time></trkpt><trkpt lat="46.70330128313285" lon="4.697804766616239"><ele>238.0</ele><time>2026-04-10T14:56:42Z</time></trkpt><trkpt lat="46.70340316294715" lon="4.697574426122771"><ele>238.0</ele><time>2026-04-10T14:56:43Z</time></trkpt><trkpt lat="46.70353949427167" lon="4.697353203259097"><ele>239.25</ele><time>2026-04-10T14:56:44Z</time></trkpt><trkpt lat="46.70364929515036" lon="4.697194570411304"><ele>240.5</ele><time>2026-04-10T14:56:45Z</time></trkpt><trkpt lat="46.70374422856918" lon="4.6970382248269935"><ele>241.75</ele><time>2026-04-10T14:56:46Z</time></trkpt><trkpt lat="46.703789693777985" lon="4.6969106828083165"><ele>243.0</ele><time>2026-04-10T14:56:47Z</time></trkpt><trkpt lat="46.70383573756018" lon="4.696815758298565"><ele>243.83333333333334</ele><time>2026-04-10T14:56:48Z</time></trkpt><trkpt lat="46.703885539273806" lon="4.696716146910199"><ele>244.66666666666669</ele><time>2026-04-10T14:56:49Z</time></trkpt><trkpt lat="46.703951441047344" lon="4.696605788284464"><ele>245.5</ele><time>2026-04-10T14:56:51Z</time></trkpt><trkpt lat="46.70398798158568" lon="4.696505983290798"><ele>246.33333333333334</ele><time>2026-04-10T14:57:01.999Z</time></trkpt><trkpt lat="46.70397795711265" lon="4.696351232994308"><ele>247.16666666666669</ele><time>2026-04-10T14:57:05.999Z</time></trkpt><trkpt lat="46.70396995814203" lon="4.696234594966071"><ele>248.0</ele><time>2026-04-10T14:57:06.999Z</time></trkpt><trkpt lat="46.70397761124926" lon="4.696075958992292"><ele>248.60000000000002</ele><time>2026-04-10T14:57:07.999Z</time></trkpt><trkpt lat="46.704000570676385" lon="4.695932835209916"><ele>249.20000000000002</ele><time>2026-04-10T14:57:08.999Z</time></trkpt><trkpt lat="46.70398289797701" lon="4.695760133374518"><ele>249.8</ele><time>2026-04-10T14:57:09.999Z</time></trkpt><trkpt lat="46.70395946961741" lon="4.69560885858281"><ele>250.4</ele><time>2026-04-10T14:57:10.999Z</time></trkpt><trkpt lat="46.70392845848941" lon="4.6954591288525185"><ele>251.0</ele><time>2026-04-10T14:57:11.999Z</time></trkpt><trkpt lat="46.703900947404314" lon="4.695323300486642"><ele>252.16666666666669</ele><time>2026-04-10T14:57:12.999Z</time></trkpt><trkpt lat="46.70387474503538" lon="4.695218788108285"><ele>253.33333333333334</ele><time>2026-04-10T14:57:13.999Z</time></trkpt><trkpt lat="46.70386345766691" lon="4.695125431478099"><ele>254.5</ele><time>2026-04-10T14:57:14.999Z</time></trkpt><trkpt lat="46.70385956298322" lon="4.695020391516009"><ele>255.66666666666669</ele><time>2026-04-10T14:57:15.999Z</time></trkpt><trkpt lat="46.70388002756159" lon="4.694912452355268"><ele>256.8333333333333</ele><time>2026-04-10T14:57:16.999Z</time></trkpt><trkpt lat="46.703920828740394" lon="4.694802814789594"><ele>258.0</ele><time>2026-04-10T14:57:17.999Z</time></trkpt><trkpt lat="46.70396986172901" lon="4.694707708158069"><ele>258.0</ele><time>2026-04-10T14:57:18.999Z</time></trkpt><trkpt lat="46.70402624186079" lon="4.694628240637731"><ele>258.0</ele><time>2026-04-10T14:57:19.999Z</time></trkpt><trkpt lat="46.704100405818885" lon="4.694556925294538"><ele>258.0</ele><time>2026-04-10T14:57:20.999Z</time></trkpt><trkpt lat="46.704218756130246" lon="4.694539566108999"><ele>258.0</ele><time>2026-04-10T14:57:21.999Z</time></trkpt><trkpt lat="46.70434490565501" lon="4.6944510792974645"><ele>258.0</ele><time>2026-04-10T14:57:22.999Z</time></trkpt><trkpt lat="46.704475350697365" lon="4.694375930718061"><ele>259.4</ele><time>2026-04-10T14:57:23.999Z</time></trkpt><trkpt lat="46.70455427325753" lon="4.69429289784786"><ele>260.8</ele><time>2026-04-10T14:57:24.999Z</time></trkpt><trkpt lat="46.70459709289865" lon="4.6941837096458165"><ele>262.2</ele><time>2026-04-10T14:57:25.999Z</time></trkpt><trkpt lat="46.704630757324274" lon="4.694033014698289"><ele>263.6</ele><time>2026-04-10T14:57:26.999Z</time></trkpt><trkpt lat="46.704686870206004" lon="4.6938556136822225"><ele>265.0</ele><time>2026-04-10T14:57:27.999Z</time></trkpt><trkpt lat="46.704735947653866" lon="4.6936457181438405"><ele>265.2</ele><time>2026-04-10T14:57:28.999Z</time></trkpt><trkpt lat="46.70476212549851" lon="4.693456346140365"><ele>265.4</ele><time>2026-04-10T14:57:29.999Z</time></trkpt><trkpt lat="46.704802428842754" lon="4.693324787301189"><ele>265.6</ele><time>2026-04-10T14:57:30.999Z</time></trkpt><trkpt lat="46.70481518561048" lon="4.693212551684441"><ele>265.8</ele><time>2026-04-10T14:57:31.999Z</time></trkpt><trkpt lat="46.70483650872784" lon="4.693110561449946"><ele>266.0</ele><time>2026-04-10T14:57:32.999Z</time></trkpt><trkpt lat="46.70487402863319" lon="4.692963281560501"><ele>266.0</ele><time>2026-04-10T14:57:34.999Z</time></trkpt><trkpt lat="46.70491703763921" lon="4.692894202883384"><ele>266.0</ele><time>2026-04-10T14:57:38.999Z</time></trkpt><trkpt lat="46.7047217824601" lon="4.692809892228243"><ele>266.0</ele><time>2026-04-10T14:57:40.999Z</time></trkpt><trkpt lat="46.70462786215818" lon="4.6927833253427575"><ele>266.0</ele><time>2026-04-10T14:57:41.999Z</time></trkpt><trkpt lat="46.704537656945405" lon="4.692756526668127"><ele>265.83333333333337</ele><time>2026-04-10T14:57:42.999Z</time></trkpt><trkpt lat="46.70445223495594" lon="4.692721197911291"><ele>265.6666666666667</ele><time>2026-04-10T14:57:43.999Z</time></trkpt><trkpt lat="46.70436818757439" lon="4.6927220460014265"><ele>265.5</ele><time>2026-04-10T14:57:44.999Z</time></trkpt><trkpt lat="46.70429209283361" lon="4.6926959468106295"><ele>265.3333333333333</ele><time>2026-04-10T14:57:45.999Z</time></trkpt><trkpt lat="46.704212548460006" lon="4.692663555865386"><ele>265.16666666666663</ele><time>2026-04-10T14:57:46.999Z</time></trkpt><trkpt lat="46.704148286883516" lon="4.69262568821996"><ele>265.0</ele><time>2026-04-10T14:57:47.999Z</time></trkpt><trkpt lat="46.70409504085206" lon="4.692570626341447"><ele>264.5</ele><time>2026-04-10T14:57:48.999Z</time></trkpt><trkpt lat="46.70405606433116" lon="4.692349681208111"><ele>264.0</ele><time>2026-04-10T14:57:50.999Z</time></trkpt><trkpt lat="46.70403835776513" lon="4.692198275873124"><ele>263.5</ele><time>2026-04-10T14:57:51.999Z</time></trkpt><trkpt lat="46.704032620518866" lon="4.692047487812007"><ele>263.0</ele><time>2026-04-10T14:57:53Z</time></trkpt><trkpt lat="46.704033760437724" lon="4.691907072842443"><ele>262.2</ele><time>2026-04-10T14:57:54Z</time></trkpt><trkpt lat="46.70404015439029" lon="4.69176751976474"><ele>261.4</ele><time>2026-04-10T14:57:55Z</time></trkpt><trkpt lat="46.704050883099484" lon="4.691612067667641"><ele>260.59999999999997</ele><time>2026-04-10T14:57:56Z</time></trkpt><trkpt lat="46.70405294159575" lon="4.691452650645238"><ele>259.8</ele><time>2026-04-10T14:57:57Z</time></trkpt><trkpt lat="46.70406888136029" lon="4.691259594280269"><ele>259.0</ele><time>2026-04-10T14:57:58Z</time></trkpt><trkpt lat="46.70408295255755" lon="4.69106801425575"><ele>258.75</ele><time>2026-04-10T14:57:59Z</time></trkpt><trkpt lat="46.704073401473" lon="4.690853212368846"><ele>258.5</ele><time>2026-04-10T14:58:00Z</time></trkpt><trkpt lat="46.70408280000161" lon="4.690654966418925"><ele>258.25</ele><time>2026-04-10T14:58:01Z</time></trkpt><trkpt lat="46.70407916193843" lon="4.690450540519641"><ele>258.0</ele><time>2026-04-10T14:58:02Z</time></trkpt><trkpt lat="46.70406436674766" lon="4.690238878912047"><ele>258.0</ele><time>2026-04-10T14:58:03Z</time></trkpt><trkpt lat="46.70406505820927" lon="4.6900409513237395"><ele>258.0</ele><time>2026-04-10T14:58:04Z</time></trkpt><trkpt lat="46.70406048839901" lon="4.68987319161331"><ele>258.0</ele><time>2026-04-10T14:58:05Z</time></trkpt><trkpt lat="46.704061980826665" lon="4.689722617940827"><ele>258.0</ele><time>2026-04-10T14:58:06Z</time></trkpt><trkpt lat="46.704056855904625" lon="4.689587556334288"><ele>258.0</ele><time>2026-04-10T14:58:07Z</time></trkpt><trkpt lat="46.704057731939685" lon="4.689471875746919"><ele>257.8333333333333</ele><time>2026-04-10T14:58:08Z</time></trkpt><trkpt lat="46.704052013452596" lon="4.689366725917066"><ele>257.6666666666667</ele><time>2026-04-10T14:58:09Z</time></trkpt><trkpt lat="46.704047143747836" lon="4.689266892203514"><ele>257.5</ele><time>2026-04-10T14:58:10Z</time></trkpt><trkpt lat="46.70405041385145" lon="4.689153163852128"><ele>257.33333333333337</ele><time>2026-04-10T14:58:11Z</time></trkpt><trkpt lat="46.704038240685456" lon="4.689018198292417"><ele>257.1666666666667</ele><time>2026-04-10T14:58:12Z</time></trkpt><trkpt lat="46.70402649092249" lon="4.6888488310132095"><ele>257.0</ele><time>2026-04-10T14:58:13Z</time></trkpt><trkpt lat="46.70400392362038" lon="4.688667422831672"><ele>257.6666666666667</ele><time>2026-04-10T14:58:14Z</time></trkpt><trkpt lat="46.703961420691165" lon="4.688458760186699"><ele>258.3333333333333</ele><time>2026-04-10T14:58:15Z</time></trkpt><trkpt lat="46.703907250863864" lon="4.68822790190609"><ele>259.0</ele><time>2026-04-10T14:58:16Z</time></trkpt><trkpt lat="46.703856788672546" lon="4.688020761587928"><ele>259.0</ele><time>2026-04-10T14:58:17Z</time></trkpt><trkpt lat="46.70382585414553" lon="4.687846384532654"><ele>259.0</ele><time>2026-04-10T14:58:18Z</time></trkpt><trkpt lat="46.70379402078262" lon="4.68768754391764"><ele>259.0</ele><time>2026-04-10T14:58:19Z</time></trkpt><trkpt lat="46.70375991825746" lon="4.687543551120713"><ele>259.0</ele><time>2026-04-10T14:58:20Z</time></trkpt><trkpt lat="46.70372831138521" lon="4.687413724492027"><ele>259.0</ele><time>2026-04-10T14:58:21Z</time></trkpt><trkpt lat="46.703699334840366" lon="4.6872732868977955"><ele>259.5</ele><time>2026-04-10T14:58:22Z</time></trkpt><trkpt lat="46.70366907303594" lon="4.687132456262795"><ele>260.0</ele><time>2026-04-10T14:58:23Z</time></trkpt><trkpt lat="46.70363927106813" lon="4.687002776861966"><ele>260.5</ele><time>2026-04-10T14:58:24Z</time></trkpt><trkpt lat="46.703625632266416" lon="4.686906900320693"><ele>261.0</ele><time>2026-04-10T14:58:25Z</time></trkpt><trkpt lat="46.7036356909966" lon="4.6868103923891375"><ele>261.5</ele><time>2026-04-10T14:58:28Z</time></trkpt><trkpt lat="46.70362805156617" lon="4.686665734120148"><ele>262.0</ele><time>2026-04-10T14:58:31Z</time></trkpt><trkpt lat="46.703623328277395" lon="4.686560424099001"><ele>262.2</ele><time>2026-04-10T14:58:32Z</time></trkpt><trkpt lat="46.703635134241196" lon="4.6863965112107575"><ele>262.4</ele><time>2026-04-10T14:58:34Z</time></trkpt><trkpt lat="46.703629322723884" lon="4.68619721422495"><ele>262.6</ele><time>2026-04-10T14:58:36Z</time></trkpt><trkpt lat="46.7036341556632" lon="4.686083926073464"><ele>262.8</ele><time>2026-04-10T14:58:37Z</time></trkpt><trkpt lat="46.70363128710411" lon="4.68596569730053"><ele>263.0</ele><time>2026-04-10T14:58:38Z</time></trkpt><trkpt lat="46.70363090697917" lon="4.685836821422994"><ele>263.33333333333337</ele><time>2026-04-10T14:58:39Z</time></trkpt><trkpt lat="46.70362876748166" lon="4.685717335872236"><ele>263.6666666666667</ele><time>2026-04-10T14:58:40Z</time></trkpt><trkpt lat="46.70363384211562" lon="4.685603330617911"><ele>264.0</ele><time>2026-04-10T14:58:41Z</time></trkpt><trkpt lat="46.70364018728577" lon="4.685486175306116"><ele>264.3333333333333</ele><time>2026-04-10T14:58:42Z</time></trkpt><trkpt lat="46.703655104109174" lon="4.685347944281187"><ele>264.66666666666663</ele><time>2026-04-10T14:58:43Z</time></trkpt><trkpt lat="46.70367789905062" lon="4.685208966018888"><ele>265.0</ele><time>2026-04-10T14:58:44Z</time></trkpt><trkpt lat="46.70371097848361" lon="4.685060844320431"><ele>265.3333333333333</ele><time>2026-04-10T14:58:45Z</time></trkpt><trkpt lat="46.70374201145256" lon="4.684920393177253"><ele>265.66666666666663</ele><time>2026-04-10T14:58:46Z</time></trkpt><trkpt lat="46.70377742815614" lon="4.684793346396129"><ele>266.0</ele><time>2026-04-10T14:58:47Z</time></trkpt><trkpt lat="46.70381583739352" lon="4.684681941743622"><ele>266.3333333333333</ele><time>2026-04-10T14:58:48Z</time></trkpt><trkpt lat="46.703848114663565" lon="4.6845773980496395"><ele>266.6666666666667</ele><time>2026-04-10T14:58:49Z</time></trkpt><trkpt lat="46.703872679853696" lon="4.684483104031188"><ele>267.0</ele><time>2026-04-10T14:58:50Z</time></trkpt><trkpt lat="46.70390231548961" lon="4.684341112367051"><ele>267.0</ele><time>2026-04-10T14:58:52Z</time></trkpt><trkpt lat="46.703925361703426" lon="4.684247755861334"><ele>267.0</ele><time>2026-04-10T14:58:54Z</time></trkpt><trkpt lat="46.70406968163033" lon="4.684270331185013"><ele>267.0</ele><time>2026-04-10T14:58:57Z</time></trkpt><trkpt lat="46.70415776408924" lon="4.684324553454563"><ele>267.0</ele><time>2026-04-10T14:58:58Z</time></trkpt><trkpt lat="46.7042473145005" lon="4.684374413721384"><ele>267.0</ele><time>2026-04-10T14:58:59Z</time></trkpt><trkpt lat="46.70431689623075" lon="4.68440925484912"><ele>267.0</ele><time>2026-04-10T14:59:00Z</time></trkpt><trkpt lat="46.70438098074458" lon="4.684451533291057"><ele>267.0</ele><time>2026-04-10T14:59:01Z</time></trkpt><trkpt lat="46.70444852237481" lon="4.684516236482395"><ele>267.0</ele><time>2026-04-10T14:59:02Z</time></trkpt><trkpt lat="46.70452031361081" lon="4.684600000746044"><ele>267.0</ele><time>2026-04-10T14:59:03Z</time></trkpt><trkpt lat="46.70458211283328" lon="4.68471496676785"><ele>267.0</ele><time>2026-04-10T14:59:04Z</time></trkpt><trkpt lat="46.70462214207336" lon="4.684817509862734"><ele>267.0</ele><time>2026-04-10T14:59:05Z</time></trkpt><trkpt lat="46.704685196478096" lon="4.684911906270855"><ele>268.8</ele><time>2026-04-10T14:59:06Z</time></trkpt><trkpt lat="46.70477368824684" lon="4.684979501116207"><ele>270.6</ele><time>2026-04-10T14:59:07Z</time></trkpt><trkpt lat="46.704867586286625" lon="4.685032702587297"><ele>272.40000000000003</ele><time>2026-04-10T14:59:08Z</time></trkpt><trkpt lat="46.70495458697973" lon="4.685096116252895"><ele>274.2</ele><time>2026-04-10T14:59:09Z</time></trkpt><trkpt lat="46.70504329769414" lon="4.685165807374408"><ele>276.0</ele><time>2026-04-10T14:59:09.999Z</time></trkpt><trkpt lat="46.70512634345085" lon="4.68522918705037"><ele>276.40000000000003</ele><time>2026-04-10T14:59:10.999Z</time></trkpt><trkpt lat="46.705205818981796" lon="4.685291826042392"><ele>276.8</ele><time>2026-04-10T14:59:11.999Z</time></trkpt><trkpt lat="46.705309114337915" lon="4.6853500267234915"><ele>277.20000000000005</ele><time>2026-04-10T14:59:12.999Z</time></trkpt><trkpt lat="46.70540310499576" lon="4.685399049632275"><ele>277.6</ele><time>2026-04-10T14:59:13.999Z</time></trkpt><trkpt lat="46.70548816842065" lon="4.685448029590256"><ele>278.0</ele><time>2026-04-10T14:59:14.999Z</time></trkpt><trkpt lat="46.7055849957082" lon="4.685507502644176"><ele>278.0</ele><time>2026-04-10T14:59:15.999Z</time></trkpt><trkpt lat="46.70566066733971" lon="4.685549378972021"><ele>278.0</ele><time>2026-04-10T14:59:16.999Z</time></trkpt><trkpt lat="46.70571960234267" lon="4.685610272420473"><ele>278.0</ele><time>2026-04-10T14:59:17.999Z</time></trkpt><trkpt lat="46.70577927730393" lon="4.685677059172978"><ele>278.0</ele><time>2026-04-10T14:59:18.999Z</time></trkpt><trkpt lat="46.70585129986526" lon="4.685759300336542"><ele>278.0</ele><time>2026-04-10T14:59:19.999Z</time></trkpt><trkpt lat="46.7059239532719" lon="4.685839825267616"><ele>278.0</ele><time>2026-04-10T14:59:20.999Z</time></trkpt><trkpt lat="46.70600167020065" lon="4.685921776364775"><ele>278.0</ele><time>2026-04-10T14:59:21.999Z</time></trkpt><trkpt lat="46.70606020813342" lon="4.68600542233714"><ele>278.0</ele><time>2026-04-10T14:59:22.999Z</time></trkpt><trkpt lat="46.70614576574026" lon="4.686126728602681"><ele>278.0</ele><time>2026-04-10T14:59:24.999Z</time></trkpt><trkpt lat="46.706226109217575" lon="4.686221178628629"><ele>278.0</ele><time>2026-04-10T14:59:26.999Z</time></trkpt><trkpt lat="46.706255003884024" lon="4.686355539417802"><ele>278.0</ele><time>2026-04-10T14:59:28.999Z</time></trkpt><trkpt lat="46.70619135901231" lon="4.68656359808385"><ele>278.1666666666667</ele><time>2026-04-10T14:59:30.999Z</time></trkpt><trkpt lat="46.70616179351057" lon="4.686697651862939"><ele>278.33333333333337</ele><time>2026-04-10T14:59:31.999Z</time></trkpt><trkpt lat="46.70613793724305" lon="4.686816406442946"><ele>278.5</ele><time>2026-04-10T14:59:32.999Z</time></trkpt><trkpt lat="46.7061305683415" lon="4.686915682526119"><ele>278.6666666666667</ele><time>2026-04-10T14:59:33.999Z</time></trkpt><trkpt lat="46.70613286012668" lon="4.687014250483388"><ele>278.8333333333333</ele><time>2026-04-10T14:59:34.999Z</time></trkpt><trkpt lat="46.70612653065734" lon="4.687123957414234"><ele>279.0</ele><time>2026-04-10T14:59:35.999Z</time></trkpt><trkpt lat="46.7061199864741" lon="4.687230484457145"><ele>277.8</ele><time>2026-04-10T14:59:36.999Z</time></trkpt><trkpt lat="46.70611561931827" lon="4.6873418178059545"><ele>276.59999999999997</ele><time>2026-04-10T14:59:37.999Z</time></trkpt><trkpt lat="46.70611599615582" lon="4.687438796555838"><ele>275.4</ele><time>2026-04-10T14:59:38.999Z</time></trkpt><trkpt lat="46.70611996368938" lon="4.687610620765497"><ele>274.2</ele><time>2026-04-10T14:59:40.999Z</time></trkpt><trkpt lat="46.70619410585585" lon="4.687777312197146"><ele>273.0</ele><time>2026-04-10T14:59:42.999Z</time></trkpt><trkpt lat="46.70624149426307" lon="4.687874616021589"><ele>272.6</ele><time>2026-04-10T14:59:43.999Z</time></trkpt><trkpt lat="46.706254274581624" lon="4.687984191218533"><ele>272.20000000000005</ele><time>2026-04-10T14:59:44.999Z</time></trkpt><trkpt lat="46.70631366225446" lon="4.688145965131129"><ele>271.8</ele><time>2026-04-10T14:59:46.999Z</time></trkpt><trkpt lat="46.70638146229199" lon="4.6882156238849095"><ele>271.40000000000003</ele><time>2026-04-10T14:59:47.999Z</time></trkpt><trkpt lat="46.706433033523794" lon="4.68826994694829"><ele>271.0</ele><time>2026-04-10T14:59:48.999Z</time></trkpt><trkpt lat="46.70644400945346" lon="4.688461017086837"><ele>271.0</ele><time>2026-04-10T14:59:50.999Z</time></trkpt><trkpt lat="46.7064147613585" lon="4.688573712345092"><ele>271.0</ele><time>2026-04-10T14:59:51.999Z</time></trkpt><trkpt lat="46.70641738930749" lon="4.68867084885079"><ele>271.0</ele><time>2026-04-10T14:59:52.999Z</time></trkpt><trkpt lat="46.70644861825207" lon="4.6887525346375405"><ele>271.0</ele><time>2026-04-10T14:59:53.999Z</time></trkpt><trkpt lat="46.70651485436296" lon="4.688830596264669"><ele>271.0</ele><time>2026-04-10T14:59:54.999Z</time></trkpt><trkpt lat="46.70660164675084" lon="4.688912170222133"><ele>271.0</ele><time>2026-04-10T14:59:55.999Z</time></trkpt><trkpt lat="46.70670284164872" lon="4.689014251985087"><ele>271.25</ele><time>2026-04-10T14:59:56.999Z</time></trkpt><trkpt lat="46.70680866513363" lon="4.689109650296815"><ele>271.5</ele><time>2026-04-10T14:59:57.999Z</time></trkpt><trkpt lat="46.706928211463186" lon="4.689199645017149"><ele>271.75</ele><time>2026-04-10T14:59:59Z</time></trkpt><trkpt lat="46.707052095900664" lon="4.689262748168503"><ele>272.0</ele><time>2026-04-10T15:00:00Z</time></trkpt><trkpt lat="46.70717091716613" lon="4.689332259655715"><ele>272.0</ele><time>2026-04-10T15:00:01Z</time></trkpt><trkpt lat="46.707282844631436" lon="4.689391282206414"><ele>272.0</ele><time>2026-04-10T15:00:02Z</time></trkpt><trkpt lat="46.70738627114488" lon="4.689458664425231"><ele>272.0</ele><time>2026-04-10T15:00:03Z</time></trkpt><trkpt lat="46.707485264751796" lon="4.689524324404854"><ele>272.0</ele><time>2026-04-10T15:00:04Z</time></trkpt><trkpt lat="46.70758057035316" lon="4.689569174391555"><ele>272.0</ele><time>2026-04-10T15:00:05Z</time></trkpt><trkpt lat="46.70768649254962" lon="4.689605337726703"><ele>270.8</ele><time>2026-04-10T15:00:06Z</time></trkpt><trkpt lat="46.70779577698761" lon="4.689628333418339"><ele>269.6</ele><time>2026-04-10T15:00:07Z</time></trkpt><trkpt lat="46.70789701812041" lon="4.689655987087414"><ele>268.40000000000003</ele><time>2026-04-10T15:00:08Z</time></trkpt><trkpt lat="46.70799388350455" lon="4.689677967300808"><ele>267.2</ele><time>2026-04-10T15:00:09Z</time></trkpt><trkpt lat="46.70809935296967" lon="4.689710620370691"><ele>266.0</ele><time>2026-04-10T15:00:10Z</time></trkpt><trkpt lat="46.708209696629545" lon="4.689743032443774"><ele>266.0</ele><time>2026-04-10T15:00:11Z</time></trkpt><trkpt lat="46.70830287454324" lon="4.689764744183546"><ele>266.0</ele><time>2026-04-10T15:00:12Z</time></trkpt><trkpt lat="46.7083946609784" lon="4.689777735276727"><ele>266.0</ele><time>2026-04-10T15:00:13Z</time></trkpt><trkpt lat="46.708482964328944" lon="4.689780326873871"><ele>266.0</ele><time>2026-04-10T15:00:14Z</time></trkpt><trkpt lat="46.70858042907782" lon="4.689790874213653"><ele>266.0</ele><time>2026-04-10T15:00:15Z</time></trkpt><trkpt lat="46.70867148433279" lon="4.689862896456774"><ele>265.83333333333337</ele><time>2026-04-10T15:00:16Z</time></trkpt><trkpt lat="46.70876298061316" lon="4.689942206375015"><ele>265.6666666666667</ele><time>2026-04-10T15:00:17Z</time></trkpt><trkpt lat="46.70883772743345" lon="4.690004034953514"><ele>265.5</ele><time>2026-04-10T15:00:18Z</time></trkpt><trkpt lat="46.708903179755474" lon="4.690062380729542"><ele>265.3333333333333</ele><time>2026-04-10T15:00:19Z</time></trkpt><trkpt lat="46.70896889259187" lon="4.690128738288695"><ele>265.16666666666663</ele><time>2026-04-10T15:00:20Z</time></trkpt><trkpt lat="46.70903622312336" lon="4.690187317503393"><ele>265.0</ele><time>2026-04-10T15:00:21Z</time></trkpt><trkpt lat="46.70909417612864" lon="4.690241723349716"><ele>264.2</ele><time>2026-04-10T15:00:22Z</time></trkpt><trkpt lat="46.709155818889535" lon="4.6903055982948665"><ele>263.4</ele><time>2026-04-10T15:00:23Z</time></trkpt><trkpt lat="46.7092446772517" lon="4.690427050907601"><ele>262.6</ele><time>2026-04-10T15:00:25Z</time></trkpt><trkpt lat="46.7093455289362" lon="4.690458473370444"><ele>261.8</ele><time>2026-04-10T15:00:27Z</time></trkpt><trkpt lat="46.70944685520494" lon="4.690460006061648"><ele>261.0</ele><time>2026-04-10T15:00:29Z</time></trkpt><trkpt lat="46.70951719436249" lon="4.6903626492382395"><ele>261.6</ele><time>2026-04-10T15:00:32Z</time></trkpt><trkpt lat="46.70953087786462" lon="4.690256505784282"><ele>262.20000000000005</ele><time>2026-04-10T15:00:33Z</time></trkpt><trkpt lat="46.70952904390099" lon="4.690144561169314"><ele>262.79999999999995</ele><time>2026-04-10T15:00:34Z</time></trkpt><trkpt lat="46.70953004635664" lon="4.689995396917294"><ele>263.4</ele><time>2026-04-10T15:00:35Z</time></trkpt><trkpt lat="46.70952984944059" lon="4.689821298568031"><ele>264.0</ele><time>2026-04-10T15:00:36Z</time></trkpt><trkpt lat="46.70949644670835" lon="4.689611564743024"><ele>264.0</ele><time>2026-04-10T15:00:37Z</time></trkpt><trkpt lat="46.709465834091546" lon="4.689463602293666"><ele>264.0</ele><time>2026-04-10T15:00:38Z</time></trkpt><trkpt lat="46.70943669162768" lon="4.689324878426272"><ele>264.0</ele><time>2026-04-10T15:00:40Z</time></trkpt><trkpt lat="46.709447105122464" lon="4.68918917211898"><ele>264.0</ele><time>2026-04-10T15:00:42Z</time></trkpt><trkpt lat="46.70942398285903" lon="4.689069231665835"><ele>264.0</ele><time>2026-04-10T15:00:46Z</time></trkpt><trkpt lat="46.70936264583871" lon="4.6890107113268185"><ele>265.59999999999997</ele><time>2026-04-10T15:00:47Z</time></trkpt><trkpt lat="46.70933509172471" lon="4.688883331731613"><ele>267.2</ele><time>2026-04-10T15:00:49Z</time></trkpt><trkpt lat="46.709303262968035" lon="4.688781517968359"><ele>268.79999999999995</ele><time>2026-04-10T15:00:50Z</time></trkpt><trkpt lat="46.70924889571398" lon="4.688636096014873"><ele>270.4</ele><time>2026-04-10T15:00:51Z</time></trkpt><trkpt lat="46.709180376193125" lon="4.688445172507826"><ele>272.0</ele><time>2026-04-10T15:00:52Z</time></trkpt><trkpt lat="46.70909718810771" lon="4.688264555626398"><ele>273.6666666666667</ele><time>2026-04-10T15:00:53Z</time></trkpt><trkpt lat="46.7090331607638" lon="4.688089642253545"><ele>275.3333333333333</ele><time>2026-04-10T15:00:54Z</time></trkpt><trkpt lat="46.70892915128283" lon="4.687870582564825"><ele>277.0</ele><time>2026-04-10T15:00:55Z</time></trkpt><trkpt lat="46.708841019145545" lon="4.687699236700727"><ele>279.0</ele><time>2026-04-10T15:00:56Z</time></trkpt><trkpt lat="46.70874836082194" lon="4.687559072595672"><ele>281.0</ele><time>2026-04-10T15:00:57Z</time></trkpt><trkpt lat="46.70867772743265" lon="4.687438356771067"><ele>283.0</ele><time>2026-04-10T15:00:58Z</time></trkpt><trkpt lat="46.70861803461922" lon="4.687278851620608"><ele>285.0</ele><time>2026-04-10T15:00:59Z</time></trkpt><trkpt lat="46.70858739230985" lon="4.687141798346613"><ele>285.0</ele><time>2026-04-10T15:01:00Z</time></trkpt><trkpt lat="46.70857120492412" lon="4.6870241769917715"><ele>285.0</ele><time>2026-04-10T15:01:01Z</time></trkpt><trkpt lat="46.70855424841931" lon="4.6868861258542145"><ele>285.0</ele><time>2026-04-10T15:01:02Z</time></trkpt><trkpt lat="46.708575519334445" lon="4.686744882720493"><ele>285.0</ele><time>2026-04-10T15:01:03Z</time></trkpt><trkpt lat="46.70860241226174" lon="4.686606280777688"><ele>285.0</ele><time>2026-04-10T15:01:04Z</time></trkpt><trkpt lat="46.70862372474182" lon="4.686487812716608"><ele>286.6666666666667</ele><time>2026-04-10T15:01:05Z</time></trkpt><trkpt lat="46.70866943786386" lon="4.686413307609254"><ele>288.3333333333333</ele><time>2026-04-10T15:01:07Z</time></trkpt><trkpt lat="46.70874107386702" lon="4.6864383541724814"><ele>290.0</ele><time>2026-04-10T15:01:10Z</time></trkpt><trkpt lat="46.70882024416286" lon="4.686462421963088"><ele>291.66666666666663</ele><time>2026-04-10T15:01:11Z</time></trkpt><trkpt lat="46.70891993706058" lon="4.6865096697103"><ele>293.3333333333333</ele><time>2026-04-10T15:01:11.999Z</time></trkpt><trkpt lat="46.70902948565579" lon="4.686525180614637"><ele>295.0</ele><time>2026-04-10T15:01:12.999Z</time></trkpt><trkpt lat="46.709166511987476" lon="4.686537756805453"><ele>295.0</ele><time>2026-04-10T15:01:13.999Z</time></trkpt><trkpt lat="46.70929090023835" lon="4.686548668206962"><ele>295.0</ele><time>2026-04-10T15:01:14.999Z</time></trkpt><trkpt lat="46.70943656778154" lon="4.686577146885746"><ele>295.0</ele><time>2026-04-10T15:01:15.999Z</time></trkpt><trkpt lat="46.70957113928846" lon="4.68660778460731"><ele>295.0</ele><time>2026-04-10T15:01:16.999Z</time></trkpt><trkpt lat="46.70969962305552" lon="4.686628478116283"><ele>295.6</ele><time>2026-04-10T15:01:17.999Z</time></trkpt><trkpt lat="46.70980702640399" lon="4.686644095631085"><ele>296.2</ele><time>2026-04-10T15:01:18.999Z</time></trkpt><trkpt lat="46.70992311293246" lon="4.686669462629678"><ele>296.8</ele><time>2026-04-10T15:01:19.999Z</time></trkpt><trkpt lat="46.710038067516386" lon="4.6866953140555045"><ele>297.4</ele><time>2026-04-10T15:01:20.999Z</time></trkpt><trkpt lat="46.71012978220611" lon="4.686712503586937"><ele>298.0</ele><time>2026-04-10T15:01:21.999Z</time></trkpt><trkpt lat="46.71020481548362" lon="4.686746027098484"><ele>297.0</ele><time>2026-04-10T15:01:22.999Z</time></trkpt><trkpt lat="46.71031415665296" lon="4.68680607761491"><ele>296.0</ele><time>2026-04-10T15:01:24.999Z</time></trkpt><trkpt lat="46.71036137186197" lon="4.686882061449779"><ele>295.0</ele><time>2026-04-10T15:01:25.999Z</time></trkpt><trkpt lat="46.710516536815376" lon="4.686930185954445"><ele>294.0</ele><time>2026-04-10T15:01:27.999Z</time></trkpt><trkpt lat="46.710603918176595" lon="4.686950987315393"><ele>293.0</ele><time>2026-04-10T15:01:28.999Z</time></trkpt><trkpt lat="46.710686077378355" lon="4.686994931059666"><ele>293.0</ele><time>2026-04-10T15:01:29.999Z</time></trkpt><trkpt lat="46.710764184708395" lon="4.687018600162107"><ele>293.0</ele><time>2026-04-10T15:01:30.999Z</time></trkpt><trkpt lat="46.710846193528596" lon="4.687052422441445"><ele>293.0</ele><time>2026-04-10T15:01:31.999Z</time></trkpt><trkpt lat="46.7109116627949" lon="4.687104091719249"><ele>293.0</ele><time>2026-04-10T15:01:32.999Z</time></trkpt><trkpt lat="46.710991680390485" lon="4.6871710334264725"><ele>293.0</ele><time>2026-04-10T15:01:33.999Z</time></trkpt><trkpt lat="46.71106094429468" lon="4.687240771279333"><ele>293.0</ele><time>2026-04-10T15:01:34.999Z</time></trkpt><trkpt lat="46.71112110493257" lon="4.687305037478122"><ele>292.6666666666667</ele><time>2026-04-10T15:01:35.999Z</time></trkpt><trkpt lat="46.71118467712131" lon="4.687349628339209"><ele>292.33333333333337</ele><time>2026-04-10T15:01:36.999Z</time></trkpt><trkpt lat="46.71125779581209" lon="4.68737194758985"><ele>292.0</ele><time>2026-04-10T15:01:37.999Z</time></trkpt><trkpt lat="46.71134698757545" lon="4.687413763339616"><ele>291.6666666666667</ele><time>2026-04-10T15:01:39.999Z</time></trkpt><trkpt lat="46.71142945214648" lon="4.687421136245277"><ele>291.3333333333333</ele><time>2026-04-10T15:01:40.999Z</time></trkpt><trkpt lat="46.71146096126841" lon="4.687525137717278"><ele>291.0</ele><time>2026-04-10T15:01:42.999Z</time></trkpt><trkpt lat="46.71143201949415" lon="4.687724473183495"><ele>289.2</ele><time>2026-04-10T15:01:44.999Z</time></trkpt><trkpt lat="46.71141333971131" lon="4.687853546669309"><ele>287.40000000000003</ele><time>2026-04-10T15:01:45.999Z</time></trkpt><trkpt lat="46.711403714901266" lon="4.687945054042638"><ele>285.6</ele><time>2026-04-10T15:01:46.999Z</time></trkpt><trkpt lat="46.71144531768573" lon="4.688068094711782"><ele>283.8</ele><time>2026-04-10T15:01:48.999Z</time></trkpt><trkpt lat="46.71156865888489" lon="4.688066015846573"><ele>282.0</ele><time>2026-04-10T15:01:50.999Z</time></trkpt><trkpt lat="46.711668981547554" lon="4.688032152068103"><ele>282.0</ele><time>2026-04-10T15:01:51.999Z</time></trkpt><trkpt lat="46.71176952888135" lon="4.688035685788938"><ele>282.0</ele><time>2026-04-10T15:01:52.999Z</time></trkpt><trkpt lat="46.71185700532165" lon="4.6880459725001336"><ele>282.0</ele><time>2026-04-10T15:01:53.999Z</time></trkpt><trkpt lat="46.71193545578723" lon="4.6880302168969985"><ele>282.0</ele><time>2026-04-10T15:01:54.999Z</time></trkpt><trkpt lat="46.71199401089023" lon="4.687988169217798"><ele>282.0</ele><time>2026-04-10T15:01:55.999Z</time></trkpt><trkpt lat="46.712077955870775" lon="4.687861762188492"><ele>281.6666666666667</ele><time>2026-04-10T15:01:57.999Z</time></trkpt><trkpt lat="46.71218036303218" lon="4.687826023254868"><ele>281.3333333333333</ele><time>2026-04-10T15:01:59.999Z</time></trkpt><trkpt lat="46.71224572200212" lon="4.687822163690074"><ele>281.0</ele><time>2026-04-10T15:02:00.999Z</time></trkpt><trkpt lat="46.71232326622842" lon="4.6878189300037265"><ele>280.66666666666663</ele><time>2026-04-10T15:02:01.999Z</time></trkpt><trkpt lat="46.71240941518507" lon="4.687805398925662"><ele>280.3333333333333</ele><time>2026-04-10T15:02:02.999Z</time></trkpt><trkpt lat="46.712477137855664" lon="4.687794368227089"><ele>280.0</ele><time>2026-04-10T15:02:03.999Z</time></trkpt><trkpt lat="46.712555805718125" lon="4.687804613613335"><ele>280.0</ele><time>2026-04-10T15:02:06Z</time></trkpt><trkpt lat="46.7126347609696" lon="4.687797843659795"><ele>280.0</ele><time>2026-04-10T15:02:08Z</time></trkpt><trkpt lat="46.712689141190424" lon="4.687848138757224"><ele>280.0</ele><time>2026-04-10T15:02:11Z</time></trkpt><trkpt lat="46.71281539040097" lon="4.687900010279214"><ele>280.0</ele><time>2026-04-10T15:02:13Z</time></trkpt><trkpt lat="46.712917767455075" lon="4.687942073553845"><ele>280.0</ele><time>2026-04-10T15:02:14Z</time></trkpt><trkpt lat="46.71302848127337" lon="4.687993188037689"><ele>278.8</ele><time>2026-04-10T15:02:15Z</time></trkpt><trkpt lat="46.713132658485385" lon="4.6880720110966205"><ele>277.6</ele><time>2026-04-10T15:02:16Z</time></trkpt><trkpt lat="46.713221896142144" lon="4.688148645710012"><ele>276.4</ele><time>2026-04-10T15:02:17Z</time></trkpt><trkpt lat="46.71329567308252" lon="4.688228557655376"><ele>275.2</ele><time>2026-04-10T15:02:19Z</time></trkpt><trkpt lat="46.71338323959" lon="4.688282520720121"><ele>274.0</ele><time>2026-04-10T15:02:25Z</time></trkpt><trkpt lat="46.7134438502689" lon="4.688348352312887"><ele>274.0</ele><time>2026-04-10T15:02:26Z</time></trkpt><trkpt lat="46.71352524539082" lon="4.688428057195552"><ele>274.0</ele><time>2026-04-10T15:02:27Z</time></trkpt><trkpt lat="46.713631327748374" lon="4.688508803711189"><ele>274.0</ele><time>2026-04-10T15:02:28Z</time></trkpt><trkpt lat="46.713706084348395" lon="4.688568993733249"><ele>274.0</ele><time>2026-04-10T15:02:29Z</time></trkpt><trkpt lat="46.71381885185634" lon="4.68866523498497"><ele>274.0</ele><time>2026-04-10T15:02:31Z</time></trkpt><trkpt lat="46.71389867704882" lon="4.6886905133139285"><ele>272.66666666666663</ele><time>2026-04-10T15:02:32Z</time></trkpt><trkpt lat="46.713992987629986" lon="4.688705196537899"><ele>271.3333333333333</ele><time>2026-04-10T15:02:33Z</time></trkpt><trkpt lat="46.714070342534285" lon="4.688702678859778"><ele>270.0</ele><time>2026-04-10T15:02:34Z</time></trkpt><trkpt lat="46.71416696246179" lon="4.688658082843233"><ele>268.6666666666667</ele><time>2026-04-10T15:02:36Z</time></trkpt><trkpt lat="46.71421922922257" lon="4.688594110204964"><ele>267.33333333333337</ele><time>2026-04-10T15:02:37Z</time></trkpt><trkpt lat="46.71427955886185" lon="4.688497670192823"><ele>266.0</ele><time>2026-04-10T15:02:38Z</time></trkpt><trkpt lat="46.714350639949025" lon="4.6883931695836605"><ele>266.25</ele><time>2026-04-10T15:02:39Z</time></trkpt><trkpt lat="46.71442547504311" lon="4.6882720984614865"><ele>266.5</ele><time>2026-04-10T15:02:40Z</time></trkpt><trkpt lat="46.714492667021695" lon="4.688128016464153"><ele>266.75</ele><time>2026-04-10T15:02:41Z</time></trkpt><trkpt lat="46.71457458265344" lon="4.687940378055101"><ele>267.0</ele><time>2026-04-10T15:02:42Z</time></trkpt><trkpt lat="46.71469414536143" lon="4.6876941900260505"><ele>267.6666666666667</ele><time>2026-04-10T15:02:43Z</time></trkpt><trkpt lat="46.71481923548742" lon="4.687455585516108"><ele>268.33333333333337</ele><time>2026-04-10T15:02:44Z</time></trkpt><trkpt lat="46.71493532725702" lon="4.6872765458456405"><ele>269.0</ele><time>2026-04-10T15:02:45Z</time></trkpt><trkpt lat="46.71502617603985" lon="4.6871339246935175"><ele>269.0</ele><time>2026-04-10T15:02:46Z</time></trkpt><trkpt lat="46.71509719188009" lon="4.687009966993709"><ele>269.0</ele><time>2026-04-10T15:02:47Z</time></trkpt><trkpt lat="46.71514316736764" lon="4.68690268416743"><ele>269.0</ele><time>2026-04-10T15:02:48Z</time></trkpt><trkpt lat="46.71519261684465" lon="4.6868034609276075"><ele>269.0</ele><time>2026-04-10T15:02:49Z</time></trkpt><trkpt lat="46.71524525427379" lon="4.68673921478496"><ele>269.0</ele><time>2026-04-10T15:02:50Z</time></trkpt><trkpt lat="46.71531670128807" lon="4.686697796763661"><ele>269.0</ele><time>2026-04-10T15:02:51Z</time></trkpt><trkpt lat="46.71541208391681" lon="4.686627845692089"><ele>270.0</ele><time>2026-04-10T15:02:52Z</time></trkpt><trkpt lat="46.71549697024294" lon="4.686511706278239"><ele>271.0</ele><time>2026-04-10T15:02:53Z</time></trkpt><trkpt lat="46.71556975764354" lon="4.686400937316605"><ele>272.0</ele><time>2026-04-10T15:02:54Z</time></trkpt><trkpt lat="46.71563373620752" lon="4.686340224507063"><ele>273.0</ele><time>2026-04-10T15:02:55Z</time></trkpt><trkpt lat="46.715703533707014" lon="4.686296003503312"><ele>274.0</ele><time>2026-04-10T15:02:56Z</time></trkpt><trkpt lat="46.71578082451744" lon="4.686272243133823"><ele>274.0</ele><time>2026-04-10T15:02:57Z</time></trkpt><trkpt lat="46.71585496886299" lon="4.686281633576119"><ele>274.0</ele><time>2026-04-10T15:02:58Z</time></trkpt><trkpt lat="46.7159587910909" lon="4.68627581238591"><ele>274.0</ele><time>2026-04-10T15:03:00Z</time></trkpt><trkpt lat="46.71601404862709" lon="4.686173915587609"><ele>274.0</ele><time>2026-04-10T15:03:02Z</time></trkpt><trkpt lat="46.71603261956132" lon="4.686050701939872"><ele>274.0</ele><time>2026-04-10T15:03:04Z</time></trkpt><trkpt lat="46.71600442454127" lon="4.685962293616349"><ele>274.0</ele><time>2026-04-10T15:03:07Z</time></trkpt><trkpt lat="46.71596170378949" lon="4.686031460414536"><ele>274.0</ele><time>2026-04-10T15:03:10Z</time></trkpt><trkpt lat="46.715957672636144" lon="4.6861417112487604"><ele>274.0</ele><time>2026-04-10T15:03:12.999Z</time></trkpt><trkpt lat="46.715960728709874" lon="4.686276724613063"><ele>274.0</ele><time>2026-04-10T15:03:14.999Z</time></trkpt><trkpt lat="46.71590356773739" lon="4.686322375984308"><ele>274.0</ele><time>2026-04-10T15:03:16.999Z</time></trkpt><trkpt lat="46.71580613048614" lon="4.686316458606894"><ele>274.0</ele><time>2026-04-10T15:03:18.999Z</time></trkpt><trkpt lat="46.715733134305005" lon="4.686318123361305"><ele>274.0</ele><time>2026-04-10T15:03:19.999Z</time></trkpt><trkpt lat="46.715656017528914" lon="4.686339279086487"><ele>274.0</ele><time>2026-04-10T15:03:20.999Z</time></trkpt><trkpt lat="46.7155685983902" lon="4.686394724276575"><ele>274.0</ele><time>2026-04-10T15:03:21.999Z</time></trkpt><trkpt lat="46.715492810998555" lon="4.6864783341628256"><ele>274.0</ele><time>2026-04-10T15:03:22.999Z</time></trkpt><trkpt lat="46.715409279894274" lon="4.6865838495479615"><ele>274.0</ele><time>2026-04-10T15:03:23.999Z</time></trkpt><trkpt lat="46.71534729934297" lon="4.686672118269817"><ele>274.0</ele><time>2026-04-10T15:03:24.999Z</time></trkpt><trkpt lat="46.71528167976953" lon="4.686751252665594"><ele>273.2</ele><time>2026-04-10T15:03:25.999Z</time></trkpt><trkpt lat="46.71521971188518" lon="4.686802580407924"><ele>272.4</ele><time>2026-04-10T15:03:26.999Z</time></trkpt><trkpt lat="46.71515745761338" lon="4.686866677970644"><ele>271.6</ele><time>2026-04-10T15:03:27.999Z</time></trkpt><trkpt lat="46.71507838271532" lon="4.686994669320916"><ele>270.8</ele><time>2026-04-10T15:03:28.999Z</time></trkpt><trkpt lat="46.71499474323215" lon="4.6871640647280355"><ele>270.0</ele><time>2026-04-10T15:03:29.999Z</time></trkpt><trkpt lat="46.71488321494923" lon="4.6873599090827245"><ele>269.6666666666667</ele><time>2026-04-10T15:03:30.999Z</time></trkpt><trkpt lat="46.71475265894651" lon="4.687574530231971"><ele>269.33333333333337</ele><time>2026-04-10T15:03:31.999Z</time></trkpt><trkpt lat="46.71463485197474" lon="4.687786881360697"><ele>269.0</ele><time>2026-04-10T15:03:32.999Z</time></trkpt><trkpt lat="46.71454858547804" lon="4.6879542157032175"><ele>268.59999999999997</ele><time>2026-04-10T15:03:33.999Z</time></trkpt><trkpt lat="46.71448096658716" lon="4.688091206806127"><ele>268.2</ele><time>2026-04-10T15:03:34.999Z</time></trkpt><trkpt lat="46.71442936560866" lon="4.688205882670774"><ele>267.79999999999995</ele><time>2026-04-10T15:03:35.999Z</time></trkpt><trkpt lat="46.7144005318261" lon="4.688311353585031"><ele>267.4</ele><time>2026-04-10T15:03:36.999Z</time></trkpt><trkpt lat="46.714366399457866" lon="4.688390166551896"><ele>267.0</ele><time>2026-04-10T15:03:37.999Z</time></trkpt><trkpt lat="46.71431732316759" lon="4.68853233981463"><ele>266.5</ele><time>2026-04-10T15:03:39.999Z</time></trkpt><trkpt lat="46.714274135472586" lon="4.688645167849265"><ele>266.0</ele><time>2026-04-10T15:03:41.999Z</time></trkpt><trkpt lat="46.714227570405185" lon="4.6887873875912005"><ele>265.5</ele><time>2026-04-10T15:03:43.999Z</time></trkpt><trkpt lat="46.71418249403798" lon="4.688852804177971"><ele>265.0</ele><time>2026-04-10T15:03:44.999Z</time></trkpt><trkpt lat="46.714107849116516" lon="4.68889183923434"><ele>264.5</ele><time>2026-04-10T15:03:45.999Z</time></trkpt><trkpt lat="46.71401750786353" lon="4.688940924782182"><ele>264.0</ele><time>2026-04-10T15:03:46.999Z</time></trkpt><trkpt lat="46.71392477535752" lon="4.689036276494312"><ele>264.0</ele><time>2026-04-10T15:03:47.999Z</time></trkpt><trkpt lat="46.71383914438022" lon="4.689166295954281"><ele>264.0</ele><time>2026-04-10T15:03:48.999Z</time></trkpt><trkpt lat="46.71377656186384" lon="4.689288534892654"><ele>264.0</ele><time>2026-04-10T15:03:49.999Z</time></trkpt><trkpt lat="46.7137199771829" lon="4.689390433516945"><ele>264.0</ele><time>2026-04-10T15:03:50.999Z</time></trkpt><trkpt lat="46.713679482289" lon="4.68950360949559"><ele>264.0</ele><time>2026-04-10T15:03:51.999Z</time></trkpt><trkpt lat="46.713647058778726" lon="4.689619246474681"><ele>264.0</ele><time>2026-04-10T15:03:52.999Z</time></trkpt><trkpt lat="46.71363324470629" lon="4.689751985584517"><ele>264.0</ele><time>2026-04-10T15:03:53.999Z</time></trkpt><trkpt lat="46.713608115628055" lon="4.689862272885045"><ele>264.0</ele><time>2026-04-10T15:03:55.999Z</time></trkpt><trkpt lat="46.71362496587109" lon="4.689755936888646"><ele>264.0</ele><time>2026-04-10T15:03:58.999Z</time></trkpt><trkpt lat="46.71364206233938" lon="4.689644306105199"><ele>264.0</ele><time>2026-04-10T15:03:59.999Z</time></trkpt><trkpt lat="46.71367616645288" lon="4.689498244447444"><ele>264.0</ele><time>2026-04-10T15:04:00.999Z</time></trkpt><trkpt lat="46.71371608896401" lon="4.689377502018573"><ele>264.0</ele><time>2026-04-10T15:04:01.999Z</time></trkpt><trkpt lat="46.71377271647905" lon="4.689252088312304"><ele>264.0</ele><time>2026-04-10T15:04:02.999Z</time></trkpt><trkpt lat="46.71383013534748" lon="4.689124931146818"><ele>264.0</ele><time>2026-04-10T15:04:03.999Z</time></trkpt><trkpt lat="46.71390423775146" lon="4.6894833697496825"><ele>264.0</ele><time>2026-04-10T15:04:04.999Z</time></trkpt><trkpt lat="46.71402416400521" lon="4.689498302678915"><ele>264.0</ele><time>2026-04-10T15:04:05.999Z</time></trkpt><trkpt lat="46.71423368767361" lon="4.6888153633408205"><ele>264.0</ele><time>2026-04-10T15:04:08.999Z</time></trkpt><trkpt lat="46.714287244141794" lon="4.688662668469644"><ele>264.0</ele><time>2026-04-10T15:04:11Z</time></trkpt><trkpt lat="46.714302861346404" lon="4.688537824764247"><ele>264.0</ele><time>2026-04-10T15:04:12Z</time></trkpt><trkpt lat="46.71434900654562" lon="4.688392953883249"><ele>264.0</ele><time>2026-04-10T15:04:13Z</time></trkpt><trkpt lat="46.71442246696069" lon="4.688243661302883"><ele>264.0</ele><time>2026-04-10T15:04:14Z</time></trkpt><trkpt lat="46.714506062457325" lon="4.688060351444176"><ele>265.0</ele><time>2026-04-10T15:04:15Z</time></trkpt><trkpt lat="46.714605582622994" lon="4.687853370653166"><ele>266.0</ele><time>2026-04-10T15:04:16Z</time></trkpt><trkpt lat="46.71470491805123" lon="4.687677013122767"><ele>267.0</ele><time>2026-04-10T15:04:17Z</time></trkpt><trkpt lat="46.714796260313115" lon="4.687504338919529"><ele>267.5</ele><time>2026-04-10T15:04:18Z</time></trkpt><trkpt lat="46.714893646280814" lon="4.687347473962245"><ele>268.0</ele><time>2026-04-10T15:04:19Z</time></trkpt><trkpt lat="46.714981210242804" lon="4.687191603779734"><ele>268.5</ele><time>2026-04-10T15:04:20Z</time></trkpt><trkpt lat="46.71505770156524" lon="4.687049901804278"><ele>269.0</ele><time>2026-04-10T15:04:21Z</time></trkpt><trkpt lat="46.71512812204472" lon="4.686921793208543"><ele>269.2</ele><time>2026-04-10T15:04:22Z</time></trkpt><trkpt lat="46.71519378963232" lon="4.686817234093657"><ele>269.4</ele><time>2026-04-10T15:04:23Z</time></trkpt><trkpt lat="46.715268035557656" lon="4.686723914755799"><ele>269.6</ele><time>2026-04-10T15:04:24Z</time></trkpt><trkpt lat="46.715345720878524" lon="4.686665507254591"><ele>269.8</ele><time>2026-04-10T15:04:25Z</time></trkpt><trkpt lat="46.715423085231414" lon="4.686595486922576"><ele>270.0</ele><time>2026-04-10T15:04:26Z</time></trkpt><trkpt lat="46.715497520364536" lon="4.6864738198258795"><ele>270.8</ele><time>2026-04-10T15:04:27Z</time></trkpt><trkpt lat="46.71556987263405" lon="4.686382739447652"><ele>271.6</ele><time>2026-04-10T15:04:28Z</time></trkpt><trkpt lat="46.71564318599983" lon="4.686314123627637"><ele>272.4</ele><time>2026-04-10T15:04:29Z</time></trkpt><trkpt lat="46.715725016802075" lon="4.686286125042423"><ele>273.2</ele><time>2026-04-10T15:04:30Z</time></trkpt><trkpt lat="46.71582263164164" lon="4.686278905789835"><ele>274.0</ele><time>2026-04-10T15:04:31Z</time></trkpt><trkpt lat="46.715918212904754" lon="4.686286940492022"><ele>274.0</ele><time>2026-04-10T15:04:32Z</time></trkpt><trkpt lat="46.71598240356118" lon="4.6862794659362725"><ele>274.0</ele><time>2026-04-10T15:04:33Z</time></trkpt><trkpt lat="46.716014194402575" lon="4.686172132717448"><ele>274.0</ele><time>2026-04-10T15:04:35Z</time></trkpt><trkpt lat="46.71599880919297" lon="4.68607238767868"><ele>274.0</ele><time>2026-04-10T15:04:36Z</time></trkpt><trkpt lat="46.71598423803266" lon="4.685971923171721"><ele>274.0</ele><time>2026-04-10T15:04:37Z</time></trkpt><trkpt lat="46.71596964871951" lon="4.685860812443098"><ele>274.0</ele><time>2026-04-10T15:04:38Z</time></trkpt><trkpt lat="46.71596373285556" lon="4.685725442319789"><ele>275.2</ele><time>2026-04-10T15:04:39Z</time></trkpt><trkpt lat="46.71596335593208" lon="4.685572200120443"><ele>276.4</ele><time>2026-04-10T15:04:40Z</time></trkpt><trkpt lat="46.71595070651232" lon="4.685470227263905"><ele>277.6</ele><time>2026-04-10T15:04:41Z</time></trkpt><trkpt lat="46.715972151726255" lon="4.685307997818722"><ele>278.8</ele><time>2026-04-10T15:04:43Z</time></trkpt><trkpt lat="46.716014724068906" lon="4.685195429726383"><ele>280.0</ele><time>2026-04-10T15:04:44Z</time></trkpt><trkpt lat="46.71607061303329" lon="4.6850530793279415"><ele>282.8</ele><time>2026-04-10T15:04:45Z</time></trkpt><trkpt lat="46.716125210042534" lon="4.684910189598916"><ele>285.6</ele><time>2026-04-10T15:04:46Z</time></trkpt><trkpt lat="46.71617074259048" lon="4.684770625499625"><ele>288.4</ele><time>2026-04-10T15:04:47Z</time></trkpt><trkpt lat="46.71621377964468" lon="4.684660400640535"><ele>291.2</ele><time>2026-04-10T15:04:48Z</time></trkpt><trkpt lat="46.71625838715658" lon="4.684560025791501"><ele>294.0</ele><time>2026-04-10T15:04:49Z</time></trkpt><trkpt lat="46.71629342848973" lon="4.68446992739871"><ele>294.8</ele><time>2026-04-10T15:04:50Z</time></trkpt><trkpt lat="46.71637029898322" lon="4.68430277543824"><ele>295.59999999999997</ele><time>2026-04-10T15:04:52Z</time></trkpt><trkpt lat="46.71640606883119" lon="4.6841798521881035"><ele>296.4</ele><time>2026-04-10T15:04:53Z</time></trkpt><trkpt lat="46.71644282419127" lon="4.684065150450096"><ele>297.2</ele><time>2026-04-10T15:04:54Z</time></trkpt><trkpt lat="46.71648064237751" lon="4.683968934844084"><ele>298.0</ele><time>2026-04-10T15:04:55Z</time></trkpt><trkpt lat="46.71652387602608" lon="4.68385896605114"><ele>298.0</ele><time>2026-04-10T15:04:56Z</time></trkpt><trkpt lat="46.71655896060571" lon="4.683763435893384"><ele>298.0</ele><time>2026-04-10T15:04:57Z</time></trkpt><trkpt lat="46.71659225513378" lon="4.683660374859883"><ele>298.0</ele><time>2026-04-10T15:04:58Z</time></trkpt><trkpt lat="46.71662108550757" lon="4.683572724797516"><ele>298.0</ele><time>2026-04-10T15:04:59Z</time></trkpt><trkpt lat="46.71662355016267" lon="4.683472622259295"><ele>298.0</ele><time>2026-04-10T15:05:02Z</time></trkpt><trkpt lat="46.71653993143576" lon="4.683460490140262"><ele>298.0</ele><time>2026-04-10T15:05:05Z</time></trkpt><trkpt lat="46.71645883765305" lon="4.683425578986072"><ele>298.0</ele><time>2026-04-10T15:05:07Z</time></trkpt><trkpt lat="46.71634028098244" lon="4.683363389415115"><ele>298.0</ele><time>2026-04-10T15:05:09Z</time></trkpt><trkpt lat="46.71624395221865" lon="4.68329968539324"><ele>298.0</ele><time>2026-04-10T15:05:10Z</time></trkpt><trkpt lat="46.716171620737725" lon="4.683246759912841"><ele>298.0</ele><time>2026-04-10T15:05:11Z</time></trkpt><trkpt lat="46.716068005991765" lon="4.683153551399352"><ele>298.0</ele><time>2026-04-10T15:05:13Z</time></trkpt><trkpt lat="46.715951029971045" lon="4.683081063322123"><ele>298.0</ele><time>2026-04-10T15:05:15Z</time></trkpt><trkpt lat="46.715840884873906" lon="4.683028934603605"><ele>298.0</ele><time>2026-04-10T15:05:17Z</time></trkpt><trkpt lat="46.71573541927111" lon="4.682982769172356"><ele>298.0</ele><time>2026-04-10T15:05:19Z</time></trkpt><trkpt lat="46.71562298028866" lon="4.682956575053705"><ele>298.0</ele><time>2026-04-10T15:05:21Z</time></trkpt><trkpt lat="46.71550921865809" lon="4.682926942364359"><ele>298.0</ele><time>2026-04-10T15:05:23Z</time></trkpt><trkpt lat="46.71538435117925" lon="4.682897737201903"><ele>298.0</ele><time>2026-04-10T15:05:24.999Z</time></trkpt><trkpt lat="46.71532085151788" lon="4.682877737196257"><ele>298.0</ele><time>2026-04-10T15:05:25.999Z</time></trkpt><trkpt lat="46.7152063193535" lon="4.682840719846402"><ele>298.0</ele><time>2026-04-10T15:05:27.999Z</time></trkpt><trkpt lat="46.715143434713795" lon="4.682822694842794"><ele>298.0</ele><time>2026-04-10T15:05:28.999Z</time></trkpt><trkpt lat="46.71502346577623" lon="4.682789539675494"><ele>298.6</ele><time>2026-04-10T15:05:30.999Z</time></trkpt><trkpt lat="46.71490368882648" lon="4.682756153177708"><ele>299.20000000000005</ele><time>2026-04-10T15:05:32.999Z</time></trkpt><trkpt lat="46.71483665986369" lon="4.682731093441834"><ele>299.8</ele><time>2026-04-10T15:05:33.999Z</time></trkpt><trkpt lat="46.71476239585401" lon="4.68270324961186"><ele>300.40000000000003</ele><time>2026-04-10T15:05:35.999Z</time></trkpt><trkpt lat="46.714691293367686" lon="4.68271431941877"><ele>301.0</ele><time>2026-04-10T15:05:38.999Z</time></trkpt><trkpt lat="46.71464186855553" lon="4.682876488800101"><ele>301.0</ele><time>2026-04-10T15:05:40.999Z</time></trkpt><trkpt lat="46.714605093926295" lon="4.682998957397815"><ele>301.0</ele><time>2026-04-10T15:05:41.999Z</time></trkpt><trkpt lat="46.71456284842551" lon="4.68310807422738"><ele>301.0</ele><time>2026-04-10T15:05:42.999Z</time></trkpt><trkpt lat="46.71452637306447" lon="4.683209066946091"><ele>301.0</ele><time>2026-04-10T15:05:43.999Z</time></trkpt><trkpt lat="46.71449304081211" lon="4.683305274460353"><ele>301.0</ele><time>2026-04-10T15:05:44.999Z</time></trkpt><trkpt lat="46.71444737684538" lon="4.683432871344392"><ele>301.0</ele><time>2026-04-10T15:05:46.999Z</time></trkpt><trkpt lat="46.71438390545064" lon="4.683486311876752"><ele>301.66666666666663</ele><time>2026-04-10T15:05:48.999Z</time></trkpt><trkpt lat="46.71432427228208" lon="4.683445578697941"><ele>302.3333333333333</ele><time>2026-04-10T15:06:19Z</time></trkpt><trkpt lat="46.71424760055129" lon="4.683417298849044"><ele>303.0</ele><time>2026-04-10T15:06:23Z</time></trkpt><trkpt lat="46.71413553271609" lon="4.68334232742626"><ele>303.6666666666667</ele><time>2026-04-10T15:06:25Z</time></trkpt><trkpt lat="46.71407082763194" lon="4.683301946496336"><ele>304.33333333333337</ele><time>2026-04-10T15:06:26Z</time></trkpt><trkpt lat="46.713995376903135" lon="4.683254277845357"><ele>305.0</ele><time>2026-04-10T15:06:27Z</time></trkpt><trkpt lat="46.713925185682726" lon="4.683209173468512"><ele>305.0</ele><time>2026-04-10T15:06:28Z</time></trkpt><trkpt lat="46.713861807842896" lon="4.683154670205648"><ele>305.0</ele><time>2026-04-10T15:06:29Z</time></trkpt><trkpt lat="46.713785941166485" lon="4.683102730438302"><ele>305.0</ele><time>2026-04-10T15:06:30Z</time></trkpt><trkpt lat="46.713706058382186" lon="4.683029433358977"><ele>305.0</ele><time>2026-04-10T15:06:31Z</time></trkpt><trkpt lat="46.713638060967455" lon="4.682965982984426"><ele>305.0</ele><time>2026-04-10T15:06:32Z</time></trkpt><trkpt lat="46.71356183883704" lon="4.682895496367245"><ele>305.0</ele><time>2026-04-10T15:06:33Z</time></trkpt><trkpt lat="46.7134976164988" lon="4.682828274906157"><ele>305.6666666666667</ele><time>2026-04-10T15:06:34Z</time></trkpt><trkpt lat="46.71344991755557" lon="4.682761059408946"><ele>306.33333333333337</ele><time>2026-04-10T15:06:35Z</time></trkpt><trkpt lat="46.71340061424723" lon="4.682695191510796"><ele>307.0</ele><time>2026-04-10T15:06:36Z</time></trkpt><trkpt lat="46.71334619997808" lon="4.682623002213443"><ele>307.6666666666667</ele><time>2026-04-10T15:06:38Z</time></trkpt><trkpt lat="46.713260437294664" lon="4.682630899441405"><ele>308.3333333333333</ele><time>2026-04-10T15:06:41Z</time></trkpt><trkpt lat="46.71318349269405" lon="4.682797693060561"><ele>309.0</ele><time>2026-04-10T15:06:43Z</time></trkpt><trkpt lat="46.71313128149023" lon="4.6828861268168085"><ele>309.0</ele><time>2026-04-10T15:06:44Z</time></trkpt><trkpt lat="46.713070706344766" lon="4.682969098681801"><ele>309.0</ele><time>2026-04-10T15:06:45Z</time></trkpt><trkpt lat="46.713022342339535" lon="4.683038879057499"><ele>309.0</ele><time>2026-04-10T15:06:46Z</time></trkpt><trkpt lat="46.7129404229816" lon="4.683155271156457"><ele>309.0</ele><time>2026-04-10T15:06:48Z</time></trkpt><trkpt lat="46.712869533127346" lon="4.68326612228396"><ele>309.0</ele><time>2026-04-10T15:06:50Z</time></trkpt><trkpt lat="46.71279727220938" lon="4.6833459044346535"><ele>309.0</ele><time>2026-04-10T15:06:52Z</time></trkpt><trkpt lat="46.71276701214033" lon="4.683453241761743"><ele>309.0</ele><time>2026-04-10T15:07:17Z</time></trkpt><trkpt lat="46.71280335716246" lon="4.683552396778198"><ele>309.0</ele><time>2026-04-10T15:07:19Z</time></trkpt><trkpt lat="46.71279324942983" lon="4.683669115046458"><ele>309.0</ele><time>2026-04-10T15:07:21Z</time></trkpt><trkpt lat="46.71278605873626" lon="4.6837956173516915"><ele>309.0</ele><time>2026-04-10T15:07:23Z</time></trkpt><trkpt lat="46.712766867686675" lon="4.683923197635215"><ele>309.0</ele><time>2026-04-10T15:07:25Z</time></trkpt><trkpt lat="46.71275328767427" lon="4.684064100178321"><ele>307.59999999999997</ele><time>2026-04-10T15:07:27Z</time></trkpt><trkpt lat="46.71273934068176" lon="4.684202385500877"><ele>306.2</ele><time>2026-04-10T15:07:29Z</time></trkpt><trkpt lat="46.71273542840256" lon="4.684346785376534"><ele>304.79999999999995</ele><time>2026-04-10T15:07:31Z</time></trkpt><trkpt lat="46.71274814996408" lon="4.684495417614841"><ele>303.4</ele><time>2026-04-10T15:07:33Z</time></trkpt><trkpt lat="46.712760515517154" lon="4.6846437447528215"><ele>302.0</ele><time>2026-04-10T15:07:35Z</time></trkpt><trkpt lat="46.71278978442953" lon="4.684807567122586"><ele>302.0</ele><time>2026-04-10T15:07:37Z</time></trkpt><trkpt lat="46.7128193901177" lon="4.684891341804892"><ele>302.0</ele><time>2026-04-10T15:07:38Z</time></trkpt><trkpt lat="46.71285079437763" lon="4.68497644639708"><ele>302.0</ele><time>2026-04-10T15:07:39Z</time></trkpt><trkpt lat="46.71288776945441" lon="4.68506886458408"><ele>302.0</ele><time>2026-04-10T15:07:40Z</time></trkpt><trkpt lat="46.71292677142751" lon="4.68516300093755"><ele>302.0</ele><time>2026-04-10T15:07:41Z</time></trkpt><trkpt lat="46.712969757444704" lon="4.685266116485925"><ele>302.0</ele><time>2026-04-10T15:07:41.999Z</time></trkpt><trkpt lat="46.71301444728836" lon="4.685376702708807"><ele>301.1666666666667</ele><time>2026-04-10T15:07:42.999Z</time></trkpt><trkpt lat="46.71305383333777" lon="4.685479237817147"><ele>300.33333333333337</ele><time>2026-04-10T15:07:43.999Z</time></trkpt><trkpt lat="46.71309679435329" lon="4.6855936863312895"><ele>299.5</ele><time>2026-04-10T15:07:44.999Z</time></trkpt><trkpt lat="46.71313667879183" lon="4.6856911827183385"><ele>298.6666666666667</ele><time>2026-04-10T15:07:45.999Z</time></trkpt><trkpt lat="46.713171440751715" lon="4.6857701643530865"><ele>297.8333333333333</ele><time>2026-04-10T15:07:46.999Z</time></trkpt><trkpt lat="46.713227009305996" lon="4.685915254024645"><ele>297.0</ele><time>2026-04-10T15:07:48.999Z</time></trkpt><trkpt lat="46.71323979079083" lon="4.686083826832486"><ele>295.5</ele><time>2026-04-10T15:07:50.999Z</time></trkpt><trkpt lat="46.71313974988287" lon="4.686211314121767"><ele>294.0</ele><time>2026-04-10T15:07:52.999Z</time></trkpt><trkpt lat="46.71309951407244" lon="4.686293100955346"><ele>292.5</ele><time>2026-04-10T15:07:53.999Z</time></trkpt><trkpt lat="46.713051163242525" lon="4.686360594930516"><ele>291.0</ele><time>2026-04-10T15:07:54.999Z</time></trkpt><trkpt lat="46.71299666447648" lon="4.686430427656867"><ele>289.5</ele><time>2026-04-10T15:07:55.999Z</time></trkpt><trkpt lat="46.71294505469131" lon="4.686513045893943"><ele>288.0</ele><time>2026-04-10T15:07:56.999Z</time></trkpt><trkpt lat="46.712895334222964" lon="4.686599356755603"><ele>288.0</ele><time>2026-04-10T15:07:57.999Z</time></trkpt><trkpt lat="46.71285253236458" lon="4.686690291792928"><ele>288.0</ele><time>2026-04-10T15:07:58.999Z</time></trkpt><trkpt lat="46.71282320577565" lon="4.6867914278198155"><ele>288.0</ele><time>2026-04-10T15:07:59.999Z</time></trkpt><trkpt lat="46.712806892433164" lon="4.686904461865092"><ele>288.0</ele><time>2026-04-10T15:08:00.999Z</time></trkpt><trkpt lat="46.7127901207151" lon="4.6870170643101305"><ele>288.0</ele><time>2026-04-10T15:08:01.999Z</time></trkpt><trkpt lat="46.71277562534759" lon="4.68712568531867"><ele>288.0</ele><time>2026-04-10T15:08:02.999Z</time></trkpt><trkpt lat="46.712761018066274" lon="4.687254279413464"><ele>287.6666666666667</ele><time>2026-04-10T15:08:03.999Z</time></trkpt><trkpt lat="46.71275050170536" lon="4.687366397617091"><ele>287.3333333333333</ele><time>2026-04-10T15:08:04.999Z</time></trkpt><trkpt lat="46.71274148908382" lon="4.687500896627778"><ele>287.0</ele><time>2026-04-10T15:08:05.999Z</time></trkpt><trkpt lat="46.712731122628526" lon="4.687612097049831"><ele>286.66666666666663</ele><time>2026-04-10T15:08:06.999Z</time></trkpt><trkpt lat="46.712727385591705" lon="4.687710340434096"><ele>286.3333333333333</ele><time>2026-04-10T15:08:07.999Z</time></trkpt><trkpt lat="46.71271834763779" lon="4.687819558273975"><ele>286.0</ele><time>2026-04-10T15:08:08.999Z</time></trkpt><trkpt lat="46.71270010584691" lon="4.68794108480843"><ele>285.0</ele><time>2026-04-10T15:08:09.999Z</time></trkpt><trkpt lat="46.712689264292045" lon="4.688062386380004"><ele>284.0</ele><time>2026-04-10T15:08:10.999Z</time></trkpt><trkpt lat="46.71266480349498" lon="4.688178822561019"><ele>283.0</ele><time>2026-04-10T15:08:11.999Z</time></trkpt><trkpt lat="46.71266544545905" lon="4.688306091331723"><ele>282.0</ele><time>2026-04-10T15:08:12.999Z</time></trkpt><trkpt lat="46.71264576593889" lon="4.688432339971102"><ele>281.0</ele><time>2026-04-10T15:08:13.999Z</time></trkpt><trkpt lat="46.712625292213275" lon="4.688552987226848"><ele>280.0</ele><time>2026-04-10T15:08:14.999Z</time></trkpt><trkpt lat="46.712604384518364" lon="4.688647013393079"><ele>278.6</ele><time>2026-04-10T15:08:15.999Z</time></trkpt><trkpt lat="46.71258341211644" lon="4.688802815534414"><ele>277.2</ele><time>2026-04-10T15:08:17.999Z</time></trkpt><trkpt lat="46.7125655323608" lon="4.688926471421326"><ele>275.8</ele><time>2026-04-10T15:08:19.999Z</time></trkpt><trkpt lat="46.71271300329164" lon="4.688980229278767"><ele>274.4</ele><time>2026-04-10T15:08:21.999Z</time></trkpt><trkpt lat="46.71278247436523" lon="4.6888958907039955"><ele>273.0</ele><time>2026-04-10T15:08:24Z</time></trkpt><trkpt lat="46.71284502548568" lon="4.6888617877949255"><ele>272.3333333333333</ele><time>2026-04-10T15:08:27Z</time></trkpt><trkpt lat="46.712925044801025" lon="4.688799961737162"><ele>271.6666666666667</ele><time>2026-04-10T15:08:32Z</time></trkpt><trkpt lat="46.71298335134712" lon="4.6887574503126865"><ele>271.0</ele><time>2026-04-10T15:08:34Z</time></trkpt><trkpt lat="46.71306053103591" lon="4.688740080320057"><ele>270.33333333333337</ele><time>2026-04-10T15:08:38Z</time></trkpt><trkpt lat="46.7130981215842" lon="4.688869148172136"><ele>269.6666666666667</ele><time>2026-04-10T15:08:43Z</time></trkpt><trkpt lat="46.71312255003911" lon="4.688970543111787"><ele>269.0</ele><time>2026-04-10T15:08:47Z</time></trkpt><trkpt lat="46.71315416608713" lon="4.689055849972579"><ele>269.0</ele><time>2026-04-10T15:08:51Z</time></trkpt><trkpt lat="46.713182778861714" lon="4.689140838054497"><ele>269.0</ele><time>2026-04-10T15:08:55Z</time></trkpt><trkpt lat="46.713173560448006" lon="4.689255610224762"><ele>269.0</ele><time>2026-04-10T15:08:59Z</time></trkpt><trkpt lat="46.713158134491295" lon="4.689346764122472"><ele>269.0</ele><time>2026-04-10T15:09:01Z</time></trkpt><trkpt lat="46.71319782054919" lon="4.689424167681688"><ele>269.0</ele><time>2026-04-10T15:09:03Z</time></trkpt><trkpt lat="46.71322147645092" lon="4.689516202731111"><ele>269.0</ele><time>2026-04-10T15:09:05Z</time></trkpt><trkpt lat="46.713264699243524" lon="4.689655345904336"><ele>269.0</ele><time>2026-04-10T15:09:07Z</time></trkpt><trkpt lat="46.7132895755671" lon="4.689753867080765"><ele>268.33333333333337</ele><time>2026-04-10T15:09:09Z</time></trkpt><trkpt lat="46.713273156821835" lon="4.689889306213214"><ele>267.6666666666667</ele><time>2026-04-10T15:09:11Z</time></trkpt><trkpt lat="46.71322361176655" lon="4.689955083983022"><ele>267.0</ele><time>2026-04-10T15:09:13Z</time></trkpt><trkpt lat="46.713148530492575" lon="4.6900058402701585"><ele>266.3333333333333</ele><time>2026-04-10T15:09:16Z</time></trkpt><trkpt lat="46.71308253891733" lon="4.690028568733538"><ele>265.66666666666663</ele><time>2026-04-10T15:09:19Z</time></trkpt><trkpt lat="46.71299336634121" lon="4.690094568642249"><ele>265.0</ele><time>2026-04-10T15:09:21Z</time></trkpt><trkpt lat="46.71302717475341" lon="4.690426416431063"><ele>263.0</ele><time>2026-04-10T15:09:25Z</time></trkpt></trkseg></trk></gpx>